<?xml version="1.0" encoding="UTF-8" standalone="no" ?>
<gpx xmlns="http://www.topografix.com/GPX/1/1" xmlns:xsi="http://www.w3.org/2001/XMLSchema-instance" xsi:schemaLocation="http://www.topografix.com/GPX/1/1 http://www.topografix.com/GPX/1/1/gpx.xsd" version="1.1" creator="VisuGPX - https://www.visugpx.com">
  <metadata>
    <name>Pornichet 15/10/2020</name>
    <desc><![CDATA[Sortie VTT du jeudi 15 octobre 2020]]></desc>
  </metadata>
  <trk>
    <name><![CDATA[Pornichet Cyclisme]]></name>
    <trkseg>
      <trkpt lat="47.2641" lon="-2.31573">
        <ele>9.8</ele>
        <time>2020-10-15T06:57:34.000Z</time>
      </trkpt>
      <trkpt lat="47.26409" lon="-2.31573">
        <ele>9.7</ele>
        <time>2020-10-15T06:57:35.000Z</time>
      </trkpt>
      <trkpt lat="47.26402" lon="-2.31577">
        <ele>9.5</ele>
        <time>2020-10-15T06:57:42.000Z</time>
      </trkpt>
      <trkpt lat="47.26401" lon="-2.31588">
        <ele>9.4</ele>
        <time>2020-10-15T06:57:44.000Z</time>
      </trkpt>
      <trkpt lat="47.26398" lon="-2.3162">
        <ele>9.2</ele>
        <time>2020-10-15T06:57:49.000Z</time>
      </trkpt>
      <trkpt lat="47.26392" lon="-2.31665">
        <ele>8.1</ele>
        <time>2020-10-15T06:57:56.000Z</time>
      </trkpt>
      <trkpt lat="47.26392" lon="-2.31671">
        <ele>7.9</ele>
        <time>2020-10-15T06:57:57.000Z</time>
      </trkpt>
      <trkpt lat="47.26388" lon="-2.3168">
        <ele>7.5</ele>
        <time>2020-10-15T06:57:59.000Z</time>
      </trkpt>
      <trkpt lat="47.26385" lon="-2.3168">
        <ele>7.5</ele>
        <time>2020-10-15T06:58:00.000Z</time>
      </trkpt>
      <trkpt lat="47.26358" lon="-2.3169">
        <ele>7.1</ele>
        <time>2020-10-15T06:58:06.000Z</time>
      </trkpt>
      <trkpt lat="47.26322" lon="-2.31708">
        <ele>-0.60000002384186</ele>
        <time>2020-10-15T06:58:12.000Z</time>
      </trkpt>
      <trkpt lat="47.26317" lon="-2.31711">
        <ele>-1</ele>
        <time>2020-10-15T06:58:13.000Z</time>
      </trkpt>
      <trkpt lat="47.26311" lon="-2.31713">
        <ele>-1.3999999761581</ele>
        <time>2020-10-15T06:58:14.000Z</time>
      </trkpt>
      <trkpt lat="47.26306" lon="-2.31715">
        <ele>-1.7999999523163</ele>
        <time>2020-10-15T06:58:15.000Z</time>
      </trkpt>
      <trkpt lat="47.26302" lon="-2.31717">
        <ele>-2.2000000476837</ele>
        <time>2020-10-15T06:58:16.000Z</time>
      </trkpt>
      <trkpt lat="47.26298" lon="-2.31719">
        <ele>-2.2000000476837</ele>
        <time>2020-10-15T06:58:17.000Z</time>
      </trkpt>
      <trkpt lat="47.26295" lon="-2.3172">
        <ele>-2.7999999523163</ele>
        <time>2020-10-15T06:58:18.000Z</time>
      </trkpt>
      <trkpt lat="47.26292" lon="-2.31719">
        <ele>-3.2000000476837</ele>
        <time>2020-10-15T06:58:19.000Z</time>
      </trkpt>
      <trkpt lat="47.2629" lon="-2.3172">
        <ele>-3.5999999046326</ele>
        <time>2020-10-15T06:58:20.000Z</time>
      </trkpt>
      <trkpt lat="47.26288" lon="-2.31719">
        <ele>-4</ele>
        <time>2020-10-15T06:58:21.000Z</time>
      </trkpt>
      <trkpt lat="47.26287" lon="-2.31719">
        <ele>-4.4000000953674</ele>
        <time>2020-10-15T06:58:22.000Z</time>
      </trkpt>
      <trkpt lat="47.26287" lon="-2.31717">
        <ele>-4.4000000953674</ele>
        <time>2020-10-15T06:58:23.000Z</time>
      </trkpt>
      <trkpt lat="47.26285" lon="-2.31712">
        <ele>-4.4000000953674</ele>
        <time>2020-10-15T06:58:25.000Z</time>
      </trkpt>
      <trkpt lat="47.26272" lon="-2.31697">
        <ele>-4.4000000953674</ele>
        <time>2020-10-15T06:58:30.000Z</time>
      </trkpt>
      <trkpt lat="47.26256" lon="-2.31668">
        <ele>-4.4000000953674</ele>
        <time>2020-10-15T06:58:36.000Z</time>
      </trkpt>
      <trkpt lat="47.2624" lon="-2.31634">
        <ele>-4.4000000953674</ele>
        <time>2020-10-15T06:58:42.000Z</time>
      </trkpt>
      <trkpt lat="47.26236" lon="-2.31628">
        <ele>-4.4000000953674</ele>
        <time>2020-10-15T06:58:43.000Z</time>
      </trkpt>
      <trkpt lat="47.26228" lon="-2.31617">
        <ele>-4.4000000953674</ele>
        <time>2020-10-15T06:58:45.000Z</time>
      </trkpt>
      <trkpt lat="47.2622" lon="-2.31611">
        <ele>-4.4000000953674</ele>
        <time>2020-10-15T06:58:47.000Z</time>
      </trkpt>
      <trkpt lat="47.26211" lon="-2.31607">
        <ele>-4.4000000953674</ele>
        <time>2020-10-15T06:58:49.000Z</time>
      </trkpt>
      <trkpt lat="47.26201" lon="-2.31603">
        <ele>-4.4000000953674</ele>
        <time>2020-10-15T06:58:51.000Z</time>
      </trkpt>
      <trkpt lat="47.26191" lon="-2.31604">
        <ele>-4.4000000953674</ele>
        <time>2020-10-15T06:58:53.000Z</time>
      </trkpt>
      <trkpt lat="47.2616" lon="-2.3161">
        <ele>-4.4000000953674</ele>
        <time>2020-10-15T06:58:59.000Z</time>
      </trkpt>
      <trkpt lat="47.26155" lon="-2.31611">
        <ele>-4.4000000953674</ele>
        <time>2020-10-15T06:59:00.000Z</time>
      </trkpt>
      <trkpt lat="47.26136" lon="-2.31618">
        <ele>-4.4000000953674</ele>
        <time>2020-10-15T06:59:04.000Z</time>
      </trkpt>
      <trkpt lat="47.26126" lon="-2.3162">
        <ele>-4.4000000953674</ele>
        <time>2020-10-15T06:59:06.000Z</time>
      </trkpt>
      <trkpt lat="47.26121" lon="-2.3162">
        <ele>-4.4000000953674</ele>
        <time>2020-10-15T06:59:07.000Z</time>
      </trkpt>
      <trkpt lat="47.26096" lon="-2.31618">
        <ele>-4.4000000953674</ele>
        <time>2020-10-15T06:59:12.000Z</time>
      </trkpt>
      <trkpt lat="47.26091" lon="-2.31617">
        <ele>-4.4000000953674</ele>
        <time>2020-10-15T06:59:13.000Z</time>
      </trkpt>
      <trkpt lat="47.26079" lon="-2.31605">
        <ele>-4.4000000953674</ele>
        <time>2020-10-15T06:59:16.000Z</time>
      </trkpt>
      <trkpt lat="47.26071" lon="-2.31591">
        <ele>-4.4000000953674</ele>
        <time>2020-10-15T06:59:19.000Z</time>
      </trkpt>
      <trkpt lat="47.26065" lon="-2.31586">
        <ele>-4.4000000953674</ele>
        <time>2020-10-15T06:59:21.000Z</time>
      </trkpt>
      <trkpt lat="47.26054" lon="-2.31565">
        <ele>-4.4000000953674</ele>
        <time>2020-10-15T06:59:26.000Z</time>
      </trkpt>
      <trkpt lat="47.26038" lon="-2.31528">
        <ele>-4.4000000953674</ele>
        <time>2020-10-15T06:59:33.000Z</time>
      </trkpt>
      <trkpt lat="47.26034" lon="-2.31524">
        <ele>-4.4000000953674</ele>
        <time>2020-10-15T06:59:34.000Z</time>
      </trkpt>
      <trkpt lat="47.26025" lon="-2.31517">
        <ele>-4.4000000953674</ele>
        <time>2020-10-15T06:59:38.000Z</time>
      </trkpt>
      <trkpt lat="47.26021" lon="-2.31529">
        <ele>-4.4000000953674</ele>
        <time>2020-10-15T06:59:41.000Z</time>
      </trkpt>
      <trkpt lat="47.26019" lon="-2.31535">
        <ele>-4.4000000953674</ele>
        <time>2020-10-15T06:59:42.000Z</time>
      </trkpt>
      <trkpt lat="47.26016" lon="-2.31545">
        <ele>-4</ele>
        <time>2020-10-15T06:59:44.000Z</time>
      </trkpt>
      <trkpt lat="47.26013" lon="-2.3155">
        <ele>-3.2000000476837</ele>
        <time>2020-10-15T06:59:45.000Z</time>
      </trkpt>
      <trkpt lat="47.2601" lon="-2.31554">
        <ele>-2.7999999523163</ele>
        <time>2020-10-15T06:59:46.000Z</time>
      </trkpt>
      <trkpt lat="47.26008" lon="-2.31558">
        <ele>-2.4000000953674</ele>
        <time>2020-10-15T06:59:47.000Z</time>
      </trkpt>
      <trkpt lat="47.25997" lon="-2.31558">
        <ele>-2.4000000953674</ele>
        <time>2020-10-15T06:59:50.000Z</time>
      </trkpt>
      <trkpt lat="47.25984" lon="-2.31543">
        <ele>-2.4000000953674</ele>
        <time>2020-10-15T06:59:54.000Z</time>
      </trkpt>
      <trkpt lat="47.25978" lon="-2.31532">
        <ele>-2.4000000953674</ele>
        <time>2020-10-15T06:59:56.000Z</time>
      </trkpt>
      <trkpt lat="47.25975" lon="-2.31527">
        <ele>-2.4000000953674</ele>
        <time>2020-10-15T06:59:57.000Z</time>
      </trkpt>
      <trkpt lat="47.25968" lon="-2.3151">
        <ele>-2.4000000953674</ele>
        <time>2020-10-15T07:00:00.000Z</time>
      </trkpt>
      <trkpt lat="47.25962" lon="-2.31493">
        <ele>-2.4000000953674</ele>
        <time>2020-10-15T07:00:03.000Z</time>
      </trkpt>
      <trkpt lat="47.25957" lon="-2.31482">
        <ele>-2.4000000953674</ele>
        <time>2020-10-15T07:00:05.000Z</time>
      </trkpt>
      <trkpt lat="47.25951" lon="-2.31473">
        <ele>-2.4000000953674</ele>
        <time>2020-10-15T07:00:07.000Z</time>
      </trkpt>
      <trkpt lat="47.25933" lon="-2.31456">
        <ele>-2.4000000953674</ele>
        <time>2020-10-15T07:00:12.000Z</time>
      </trkpt>
      <trkpt lat="47.25925" lon="-2.31454">
        <ele>-2.4000000953674</ele>
        <time>2020-10-15T07:00:14.000Z</time>
      </trkpt>
      <trkpt lat="47.25918" lon="-2.31458">
        <ele>-2.4000000953674</ele>
        <time>2020-10-15T07:00:16.000Z</time>
      </trkpt>
      <trkpt lat="47.25915" lon="-2.31462">
        <ele>-2.4000000953674</ele>
        <time>2020-10-15T07:00:17.000Z</time>
      </trkpt>
      <trkpt lat="47.25913" lon="-2.31467">
        <ele>-2.4000000953674</ele>
        <time>2020-10-15T07:00:18.000Z</time>
      </trkpt>
      <trkpt lat="47.2591" lon="-2.3148">
        <ele>-2.4000000953674</ele>
        <time>2020-10-15T07:00:21.000Z</time>
      </trkpt>
      <trkpt lat="47.25909" lon="-2.31484">
        <ele>-2.4000000953674</ele>
        <time>2020-10-15T07:00:22.000Z</time>
      </trkpt>
      <trkpt lat="47.25904" lon="-2.31495">
        <ele>-2.4000000953674</ele>
        <time>2020-10-15T07:00:26.000Z</time>
      </trkpt>
      <trkpt lat="47.25904" lon="-2.31497">
        <ele>-2.4000000953674</ele>
        <time>2020-10-15T07:00:28.000Z</time>
      </trkpt>
      <trkpt lat="47.25904" lon="-2.315">
        <ele>-2.4000000953674</ele>
        <time>2020-10-15T07:00:30.000Z</time>
      </trkpt>
      <trkpt lat="47.25901" lon="-2.31504">
        <ele>-2.4000000953674</ele>
        <time>2020-10-15T07:00:32.000Z</time>
      </trkpt>
      <trkpt lat="47.25897" lon="-2.3151">
        <ele>-2.4000000953674</ele>
        <time>2020-10-15T07:00:34.000Z</time>
      </trkpt>
      <trkpt lat="47.25893" lon="-2.31519">
        <ele>-2</ele>
        <time>2020-10-15T07:00:36.000Z</time>
      </trkpt>
      <trkpt lat="47.25892" lon="-2.31524">
        <ele>-1.6000000238419</ele>
        <time>2020-10-15T07:00:37.000Z</time>
      </trkpt>
      <trkpt lat="47.2589" lon="-2.31529">
        <ele>-1</ele>
        <time>2020-10-15T07:00:38.000Z</time>
      </trkpt>
      <trkpt lat="47.25888" lon="-2.31534">
        <ele>-0.60000002384186</ele>
        <time>2020-10-15T07:00:39.000Z</time>
      </trkpt>
      <trkpt lat="47.25886" lon="-2.3154">
        <ele>-0.20000000298023</ele>
        <time>2020-10-15T07:00:40.000Z</time>
      </trkpt>
      <trkpt lat="47.25881" lon="-2.31555">
        <ele>-0.20000000298023</ele>
        <time>2020-10-15T07:00:43.000Z</time>
      </trkpt>
      <trkpt lat="47.25872" lon="-2.31568">
        <ele>-0.20000000298023</ele>
        <time>2020-10-15T07:00:46.000Z</time>
      </trkpt>
      <trkpt lat="47.25869" lon="-2.31571">
        <ele>-0.20000000298023</ele>
        <time>2020-10-15T07:00:47.000Z</time>
      </trkpt>
      <trkpt lat="47.25854" lon="-2.31585">
        <ele>0.20000000298023</ele>
        <time>2020-10-15T07:00:52.000Z</time>
      </trkpt>
      <trkpt lat="47.2585" lon="-2.31588">
        <ele>0.60000002384186</ele>
        <time>2020-10-15T07:00:53.000Z</time>
      </trkpt>
      <trkpt lat="47.25847" lon="-2.31591">
        <ele>1.2000000476837</ele>
        <time>2020-10-15T07:00:54.000Z</time>
      </trkpt>
      <trkpt lat="47.25844" lon="-2.31594">
        <ele>1.6000000238419</ele>
        <time>2020-10-15T07:00:55.000Z</time>
      </trkpt>
      <trkpt lat="47.25841" lon="-2.31596">
        <ele>2</ele>
        <time>2020-10-15T07:00:56.000Z</time>
      </trkpt>
      <trkpt lat="47.25822" lon="-2.31612">
        <ele>2</ele>
        <time>2020-10-15T07:01:02.000Z</time>
      </trkpt>
      <trkpt lat="47.25817" lon="-2.31617">
        <ele>2</ele>
        <time>2020-10-15T07:01:03.000Z</time>
      </trkpt>
      <trkpt lat="47.25792" lon="-2.3164">
        <ele>2</ele>
        <time>2020-10-15T07:01:09.000Z</time>
      </trkpt>
      <trkpt lat="47.25773" lon="-2.31655">
        <ele>2</ele>
        <time>2020-10-15T07:01:13.000Z</time>
      </trkpt>
      <trkpt lat="47.25758" lon="-2.31666">
        <ele>2</ele>
        <time>2020-10-15T07:01:16.000Z</time>
      </trkpt>
      <trkpt lat="47.25722" lon="-2.31697">
        <ele>2</ele>
        <time>2020-10-15T07:01:23.000Z</time>
      </trkpt>
      <trkpt lat="47.25706" lon="-2.31697">
        <ele>2</ele>
        <time>2020-10-15T07:01:26.000Z</time>
      </trkpt>
      <trkpt lat="47.25697" lon="-2.31692">
        <ele>2</ele>
        <time>2020-10-15T07:01:28.000Z</time>
      </trkpt>
      <trkpt lat="47.25679" lon="-2.31684">
        <ele>2</ele>
        <time>2020-10-15T07:01:32.000Z</time>
      </trkpt>
      <trkpt lat="47.25667" lon="-2.31681">
        <ele>2</ele>
        <time>2020-10-15T07:01:35.000Z</time>
      </trkpt>
      <trkpt lat="47.25659" lon="-2.31685">
        <ele>2</ele>
        <time>2020-10-15T07:01:37.000Z</time>
      </trkpt>
      <trkpt lat="47.25652" lon="-2.31689">
        <ele>2</ele>
        <time>2020-10-15T07:01:39.000Z</time>
      </trkpt>
      <trkpt lat="47.25648" lon="-2.31691">
        <ele>2.4000000953674</ele>
        <time>2020-10-15T07:01:40.000Z</time>
      </trkpt>
      <trkpt lat="47.25645" lon="-2.31695">
        <ele>2.7999999523163</ele>
        <time>2020-10-15T07:01:41.000Z</time>
      </trkpt>
      <trkpt lat="47.25642" lon="-2.31699">
        <ele>3.2000000476837</ele>
        <time>2020-10-15T07:01:42.000Z</time>
      </trkpt>
      <trkpt lat="47.25639" lon="-2.31704">
        <ele>3.5999999046326</ele>
        <time>2020-10-15T07:01:43.000Z</time>
      </trkpt>
      <trkpt lat="47.25636" lon="-2.31708">
        <ele>4.1999998092651</ele>
        <time>2020-10-15T07:01:44.000Z</time>
      </trkpt>
      <trkpt lat="47.25623" lon="-2.31725">
        <ele>4.5999999046326</ele>
        <time>2020-10-15T07:01:48.000Z</time>
      </trkpt>
      <trkpt lat="47.25621" lon="-2.3173">
        <ele>5</ele>
        <time>2020-10-15T07:01:49.000Z</time>
      </trkpt>
      <trkpt lat="47.25619" lon="-2.31736">
        <ele>5.4000000953674</ele>
        <time>2020-10-15T07:01:50.000Z</time>
      </trkpt>
      <trkpt lat="47.25618" lon="-2.31743">
        <ele>5.8000001907349</ele>
        <time>2020-10-15T07:01:51.000Z</time>
      </trkpt>
      <trkpt lat="47.25617" lon="-2.31749">
        <ele>6.1999998092651</ele>
        <time>2020-10-15T07:01:52.000Z</time>
      </trkpt>
      <trkpt lat="47.25616" lon="-2.31756">
        <ele>6.1999998092651</ele>
        <time>2020-10-15T07:01:53.000Z</time>
      </trkpt>
      <trkpt lat="47.2561" lon="-2.31766">
        <ele>6.1999998092651</ele>
        <time>2020-10-15T07:01:55.000Z</time>
      </trkpt>
      <trkpt lat="47.25597" lon="-2.3177">
        <ele>6.1999998092651</ele>
        <time>2020-10-15T07:01:58.000Z</time>
      </trkpt>
      <trkpt lat="47.25592" lon="-2.3177">
        <ele>6.1999998092651</ele>
        <time>2020-10-15T07:01:59.000Z</time>
      </trkpt>
      <trkpt lat="47.25583" lon="-2.3177">
        <ele>6.1999998092651</ele>
        <time>2020-10-15T07:02:01.000Z</time>
      </trkpt>
      <trkpt lat="47.25574" lon="-2.31773">
        <ele>6.1999998092651</ele>
        <time>2020-10-15T07:02:03.000Z</time>
      </trkpt>
      <trkpt lat="47.25563" lon="-2.31786">
        <ele>6.5999999046326</ele>
        <time>2020-10-15T07:02:07.000Z</time>
      </trkpt>
      <trkpt lat="47.25561" lon="-2.31791">
        <ele>7</ele>
        <time>2020-10-15T07:02:08.000Z</time>
      </trkpt>
      <trkpt lat="47.25559" lon="-2.31795">
        <ele>7.4000000953674</ele>
        <time>2020-10-15T07:02:09.000Z</time>
      </trkpt>
      <trkpt lat="47.25557" lon="-2.31799">
        <ele>7.8000001907349</ele>
        <time>2020-10-15T07:02:10.000Z</time>
      </trkpt>
      <trkpt lat="47.25554" lon="-2.31802">
        <ele>8.1999998092651</ele>
        <time>2020-10-15T07:02:11.000Z</time>
      </trkpt>
      <trkpt lat="47.25551" lon="-2.31803">
        <ele>8.1999998092651</ele>
        <time>2020-10-15T07:02:12.000Z</time>
      </trkpt>
      <trkpt lat="47.25534" lon="-2.31806">
        <ele>8.1999998092651</ele>
        <time>2020-10-15T07:02:17.000Z</time>
      </trkpt>
      <trkpt lat="47.25531" lon="-2.31807">
        <ele>8.8000001907349</ele>
        <time>2020-10-15T07:02:18.000Z</time>
      </trkpt>
      <trkpt lat="47.25528" lon="-2.31808">
        <ele>9.1999998092651</ele>
        <time>2020-10-15T07:02:19.000Z</time>
      </trkpt>
      <trkpt lat="47.25525" lon="-2.31809">
        <ele>9.6000003814697</ele>
        <time>2020-10-15T07:02:20.000Z</time>
      </trkpt>
      <trkpt lat="47.25522" lon="-2.3181">
        <ele>10.199999809265</ele>
        <time>2020-10-15T07:02:21.000Z</time>
      </trkpt>
      <trkpt lat="47.25519" lon="-2.31811">
        <ele>10.60000038147</ele>
        <time>2020-10-15T07:02:22.000Z</time>
      </trkpt>
      <trkpt lat="47.25512" lon="-2.31814">
        <ele>10.60000038147</ele>
        <time>2020-10-15T07:02:24.000Z</time>
      </trkpt>
      <trkpt lat="47.25509" lon="-2.31816">
        <ele>10.60000038147</ele>
        <time>2020-10-15T07:02:25.000Z</time>
      </trkpt>
      <trkpt lat="47.25509" lon="-2.31823">
        <ele>10.60000038147</ele>
        <time>2020-10-15T07:02:27.000Z</time>
      </trkpt>
      <trkpt lat="47.25515" lon="-2.31826">
        <ele>10.60000038147</ele>
        <time>2020-10-15T07:02:30.000Z</time>
      </trkpt>
      <trkpt lat="47.25517" lon="-2.31826">
        <ele>10.60000038147</ele>
        <time>2020-10-15T07:02:31.000Z</time>
      </trkpt>
      <trkpt lat="47.25524" lon="-2.31825">
        <ele>10.60000038147</ele>
        <time>2020-10-15T07:02:35.000Z</time>
      </trkpt>
      <trkpt lat="47.25526" lon="-2.31824">
        <ele>14.60000038147</ele>
        <time>2020-10-15T07:16:36.000Z</time>
      </trkpt>
      <trkpt lat="47.25532" lon="-2.31817">
        <ele>14.60000038147</ele>
        <time>2020-10-15T07:16:40.000Z</time>
      </trkpt>
      <trkpt lat="47.25535" lon="-2.31816">
        <ele>14.60000038147</ele>
        <time>2020-10-15T07:16:41.000Z</time>
      </trkpt>
      <trkpt lat="47.25552" lon="-2.31807">
        <ele>14.60000038147</ele>
        <time>2020-10-15T07:16:47.000Z</time>
      </trkpt>
      <trkpt lat="47.25564" lon="-2.3179">
        <ele>14.60000038147</ele>
        <time>2020-10-15T07:16:53.000Z</time>
      </trkpt>
      <trkpt lat="47.25573" lon="-2.31774">
        <ele>14.60000038147</ele>
        <time>2020-10-15T07:16:57.000Z</time>
      </trkpt>
      <trkpt lat="47.25586" lon="-2.31752">
        <ele>14.60000038147</ele>
        <time>2020-10-15T07:17:01.000Z</time>
      </trkpt>
      <trkpt lat="47.25589" lon="-2.31738">
        <ele>14.199999809265</ele>
        <time>2020-10-15T07:17:03.000Z</time>
      </trkpt>
      <trkpt lat="47.2559" lon="-2.31731">
        <ele>13.60000038147</ele>
        <time>2020-10-15T07:17:04.000Z</time>
      </trkpt>
      <trkpt lat="47.25592" lon="-2.31725">
        <ele>13.199999809265</ele>
        <time>2020-10-15T07:17:05.000Z</time>
      </trkpt>
      <trkpt lat="47.25595" lon="-2.31719">
        <ele>12.800000190735</ele>
        <time>2020-10-15T07:17:06.000Z</time>
      </trkpt>
      <trkpt lat="47.25598" lon="-2.31715">
        <ele>12.39999961853</ele>
        <time>2020-10-15T07:17:07.000Z</time>
      </trkpt>
      <trkpt lat="47.25605" lon="-2.3171">
        <ele>12.39999961853</ele>
        <time>2020-10-15T07:17:09.000Z</time>
      </trkpt>
      <trkpt lat="47.25616" lon="-2.31709">
        <ele>12.39999961853</ele>
        <time>2020-10-15T07:17:12.000Z</time>
      </trkpt>
      <trkpt lat="47.25619" lon="-2.31709">
        <ele>12.39999961853</ele>
        <time>2020-10-15T07:17:13.000Z</time>
      </trkpt>
      <trkpt lat="47.25637" lon="-2.31702">
        <ele>12.39999961853</ele>
        <time>2020-10-15T07:17:18.000Z</time>
      </trkpt>
      <trkpt lat="47.25641" lon="-2.31699">
        <ele>12.39999961853</ele>
        <time>2020-10-15T07:17:19.000Z</time>
      </trkpt>
      <trkpt lat="47.25649" lon="-2.31689">
        <ele>12</ele>
        <time>2020-10-15T07:17:21.000Z</time>
      </trkpt>
      <trkpt lat="47.25652" lon="-2.31683">
        <ele>11.60000038147</ele>
        <time>2020-10-15T07:17:22.000Z</time>
      </trkpt>
      <trkpt lat="47.25653" lon="-2.31675">
        <ele>11.199999809265</ele>
        <time>2020-10-15T07:17:23.000Z</time>
      </trkpt>
      <trkpt lat="47.25655" lon="-2.31668">
        <ele>10.60000038147</ele>
        <time>2020-10-15T07:17:24.000Z</time>
      </trkpt>
      <trkpt lat="47.25658" lon="-2.31663">
        <ele>10.199999809265</ele>
        <time>2020-10-15T07:17:25.000Z</time>
      </trkpt>
      <trkpt lat="47.25662" lon="-2.3166">
        <ele>10.199999809265</ele>
        <time>2020-10-15T07:17:26.000Z</time>
      </trkpt>
      <trkpt lat="47.25674" lon="-2.31667">
        <ele>10.199999809265</ele>
        <time>2020-10-15T07:17:29.000Z</time>
      </trkpt>
      <trkpt lat="47.25688" lon="-2.31676">
        <ele>9.8000001907349</ele>
        <time>2020-10-15T07:17:32.000Z</time>
      </trkpt>
      <trkpt lat="47.25694" lon="-2.31679">
        <ele>9.3999996185303</ele>
        <time>2020-10-15T07:17:33.000Z</time>
      </trkpt>
      <trkpt lat="47.257" lon="-2.31681">
        <ele>9</ele>
        <time>2020-10-15T07:17:34.000Z</time>
      </trkpt>
      <trkpt lat="47.25706" lon="-2.31684">
        <ele>8.6000003814697</ele>
        <time>2020-10-15T07:17:35.000Z</time>
      </trkpt>
      <trkpt lat="47.25712" lon="-2.31688">
        <ele>8.1999998092651</ele>
        <time>2020-10-15T07:17:36.000Z</time>
      </trkpt>
      <trkpt lat="47.25728" lon="-2.31698">
        <ele>8.1999998092651</ele>
        <time>2020-10-15T07:17:39.000Z</time>
      </trkpt>
      <trkpt lat="47.25744" lon="-2.31689">
        <ele>8.1999998092651</ele>
        <time>2020-10-15T07:17:42.000Z</time>
      </trkpt>
      <trkpt lat="47.25748" lon="-2.31685">
        <ele>8.1999998092651</ele>
        <time>2020-10-15T07:17:43.000Z</time>
      </trkpt>
      <trkpt lat="47.25774" lon="-2.31666">
        <ele>8.1999998092651</ele>
        <time>2020-10-15T07:17:49.000Z</time>
      </trkpt>
      <trkpt lat="47.25801" lon="-2.31645">
        <ele>8.1999998092651</ele>
        <time>2020-10-15T07:17:56.000Z</time>
      </trkpt>
      <trkpt lat="47.25832" lon="-2.3162">
        <ele>8.1999998092651</ele>
        <time>2020-10-15T07:18:04.000Z</time>
      </trkpt>
      <trkpt lat="47.25835" lon="-2.31617">
        <ele>8.1999998092651</ele>
        <time>2020-10-15T07:18:05.000Z</time>
      </trkpt>
      <trkpt lat="47.25855" lon="-2.316">
        <ele>8.1999998092651</ele>
        <time>2020-10-15T07:18:10.000Z</time>
      </trkpt>
      <trkpt lat="47.25883" lon="-2.31569">
        <ele>8.1999998092651</ele>
        <time>2020-10-15T07:18:16.000Z</time>
      </trkpt>
      <trkpt lat="47.25892" lon="-2.31548">
        <ele>7.8000001907349</ele>
        <time>2020-10-15T07:18:19.000Z</time>
      </trkpt>
      <trkpt lat="47.25894" lon="-2.31542">
        <ele>7.4000000953674</ele>
        <time>2020-10-15T07:18:20.000Z</time>
      </trkpt>
      <trkpt lat="47.25895" lon="-2.31538">
        <ele>7</ele>
        <time>2020-10-15T07:18:21.000Z</time>
      </trkpt>
      <trkpt lat="47.25897" lon="-2.31534">
        <ele>6.5999999046326</ele>
        <time>2020-10-15T07:18:22.000Z</time>
      </trkpt>
      <trkpt lat="47.25898" lon="-2.3153">
        <ele>6</ele>
        <time>2020-10-15T07:18:23.000Z</time>
      </trkpt>
      <trkpt lat="47.25899" lon="-2.31527">
        <ele>6</ele>
        <time>2020-10-15T07:18:24.000Z</time>
      </trkpt>
      <trkpt lat="47.25908" lon="-2.31519">
        <ele>6</ele>
        <time>2020-10-15T07:18:30.000Z</time>
      </trkpt>
      <trkpt lat="47.25911" lon="-2.31515">
        <ele>6</ele>
        <time>2020-10-15T07:18:34.000Z</time>
      </trkpt>
      <trkpt lat="47.25912" lon="-2.31511">
        <ele>6</ele>
        <time>2020-10-15T07:18:36.000Z</time>
      </trkpt>
      <trkpt lat="47.25912" lon="-2.31508">
        <ele>6</ele>
        <time>2020-10-15T07:18:39.000Z</time>
      </trkpt>
      <trkpt lat="47.25912" lon="-2.31504">
        <ele>6</ele>
        <time>2020-10-15T07:18:44.000Z</time>
      </trkpt>
      <trkpt lat="47.25912" lon="-2.31501">
        <ele>6</ele>
        <time>2020-10-15T07:18:45.000Z</time>
      </trkpt>
      <trkpt lat="47.25917" lon="-2.31489">
        <ele>6</ele>
        <time>2020-10-15T07:18:48.000Z</time>
      </trkpt>
      <trkpt lat="47.2592" lon="-2.31478">
        <ele>6</ele>
        <time>2020-10-15T07:18:50.000Z</time>
      </trkpt>
      <trkpt lat="47.25927" lon="-2.3146">
        <ele>6</ele>
        <time>2020-10-15T07:18:53.000Z</time>
      </trkpt>
      <trkpt lat="47.25934" lon="-2.31455">
        <ele>6</ele>
        <time>2020-10-15T07:18:55.000Z</time>
      </trkpt>
      <trkpt lat="47.25942" lon="-2.31459">
        <ele>6</ele>
        <time>2020-10-15T07:18:57.000Z</time>
      </trkpt>
      <trkpt lat="47.25947" lon="-2.3146">
        <ele>6</ele>
        <time>2020-10-15T07:18:58.000Z</time>
      </trkpt>
      <trkpt lat="47.25957" lon="-2.3145">
        <ele>6</ele>
        <time>2020-10-15T07:19:01.000Z</time>
      </trkpt>
      <trkpt lat="47.25963" lon="-2.31437">
        <ele>6</ele>
        <time>2020-10-15T07:19:03.000Z</time>
      </trkpt>
      <trkpt lat="47.2597" lon="-2.31421">
        <ele>6</ele>
        <time>2020-10-15T07:19:06.000Z</time>
      </trkpt>
      <trkpt lat="47.25973" lon="-2.31419">
        <ele>6</ele>
        <time>2020-10-15T07:19:07.000Z</time>
      </trkpt>
      <trkpt lat="47.25985" lon="-2.31424">
        <ele>6</ele>
        <time>2020-10-15T07:19:09.000Z</time>
      </trkpt>
      <trkpt lat="47.25996" lon="-2.31432">
        <ele>6</ele>
        <time>2020-10-15T07:19:11.000Z</time>
      </trkpt>
      <trkpt lat="47.26002" lon="-2.31437">
        <ele>5.5999999046326</ele>
        <time>2020-10-15T07:19:12.000Z</time>
      </trkpt>
      <trkpt lat="47.26008" lon="-2.31441">
        <ele>5.1999998092651</ele>
        <time>2020-10-15T07:19:13.000Z</time>
      </trkpt>
      <trkpt lat="47.26013" lon="-2.31445">
        <ele>4.8000001907349</ele>
        <time>2020-10-15T07:19:14.000Z</time>
      </trkpt>
      <trkpt lat="47.26018" lon="-2.31448">
        <ele>4.4000000953674</ele>
        <time>2020-10-15T07:19:15.000Z</time>
      </trkpt>
      <trkpt lat="47.26023" lon="-2.31451">
        <ele>4</ele>
        <time>2020-10-15T07:19:16.000Z</time>
      </trkpt>
      <trkpt lat="47.26053" lon="-2.31471">
        <ele>4</ele>
        <time>2020-10-15T07:19:22.000Z</time>
      </trkpt>
      <trkpt lat="47.2606" lon="-2.31478">
        <ele>4</ele>
        <time>2020-10-15T07:19:24.000Z</time>
      </trkpt>
      <trkpt lat="47.2606" lon="-2.31484">
        <ele>4</ele>
        <time>2020-10-15T07:19:25.000Z</time>
      </trkpt>
      <trkpt lat="47.26052" lon="-2.31496">
        <ele>4</ele>
        <time>2020-10-15T07:19:28.000Z</time>
      </trkpt>
      <trkpt lat="47.26043" lon="-2.31512">
        <ele>4</ele>
        <time>2020-10-15T07:19:32.000Z</time>
      </trkpt>
      <trkpt lat="47.26052" lon="-2.31529">
        <ele>4</ele>
        <time>2020-10-15T07:19:35.000Z</time>
      </trkpt>
      <trkpt lat="47.26056" lon="-2.31535">
        <ele>4</ele>
        <time>2020-10-15T07:19:36.000Z</time>
      </trkpt>
      <trkpt lat="47.26071" lon="-2.31568">
        <ele>4</ele>
        <time>2020-10-15T07:19:41.000Z</time>
      </trkpt>
      <trkpt lat="47.26074" lon="-2.31573">
        <ele>3.5999999046326</ele>
        <time>2020-10-15T07:19:42.000Z</time>
      </trkpt>
      <trkpt lat="47.26076" lon="-2.31577">
        <ele>3.2000000476837</ele>
        <time>2020-10-15T07:19:43.000Z</time>
      </trkpt>
      <trkpt lat="47.26079" lon="-2.31577">
        <ele>2.7999999523163</ele>
        <time>2020-10-15T07:19:44.000Z</time>
      </trkpt>
      <trkpt lat="47.26081" lon="-2.31578">
        <ele>2.4000000953674</ele>
        <time>2020-10-15T07:19:45.000Z</time>
      </trkpt>
      <trkpt lat="47.26084" lon="-2.3158">
        <ele>2</ele>
        <time>2020-10-15T07:19:46.000Z</time>
      </trkpt>
      <trkpt lat="47.2609" lon="-2.31587">
        <ele>2</ele>
        <time>2020-10-15T07:19:48.000Z</time>
      </trkpt>
      <trkpt lat="47.26108" lon="-2.31613">
        <ele>2</ele>
        <time>2020-10-15T07:19:53.000Z</time>
      </trkpt>
      <trkpt lat="47.26125" lon="-2.31614">
        <ele>2</ele>
        <time>2020-10-15T07:19:56.000Z</time>
      </trkpt>
      <trkpt lat="47.26131" lon="-2.31613">
        <ele>2</ele>
        <time>2020-10-15T07:19:57.000Z</time>
      </trkpt>
      <trkpt lat="47.26164" lon="-2.31603">
        <ele>2</ele>
        <time>2020-10-15T07:20:03.000Z</time>
      </trkpt>
      <trkpt lat="47.26202" lon="-2.31591">
        <ele>2</ele>
        <time>2020-10-15T07:20:10.000Z</time>
      </trkpt>
      <trkpt lat="47.26218" lon="-2.31591">
        <ele>2</ele>
        <time>2020-10-15T07:20:13.000Z</time>
      </trkpt>
      <trkpt lat="47.26228" lon="-2.31596">
        <ele>2</ele>
        <time>2020-10-15T07:20:15.000Z</time>
      </trkpt>
      <trkpt lat="47.26236" lon="-2.31602">
        <ele>2</ele>
        <time>2020-10-15T07:20:17.000Z</time>
      </trkpt>
      <trkpt lat="47.26249" lon="-2.31616">
        <ele>2</ele>
        <time>2020-10-15T07:20:21.000Z</time>
      </trkpt>
      <trkpt lat="47.26263" lon="-2.31642">
        <ele>2</ele>
        <time>2020-10-15T07:20:27.000Z</time>
      </trkpt>
      <trkpt lat="47.26284" lon="-2.31679">
        <ele>2</ele>
        <time>2020-10-15T07:20:34.000Z</time>
      </trkpt>
      <trkpt lat="47.263" lon="-2.3171">
        <ele>2</ele>
        <time>2020-10-15T07:20:40.000Z</time>
      </trkpt>
      <trkpt lat="47.26304" lon="-2.31711">
        <ele>2</ele>
        <time>2020-10-15T07:20:41.000Z</time>
      </trkpt>
      <trkpt lat="47.26312" lon="-2.3171">
        <ele>2</ele>
        <time>2020-10-15T07:20:43.000Z</time>
      </trkpt>
      <trkpt lat="47.26331" lon="-2.31701">
        <ele>2</ele>
        <time>2020-10-15T07:20:48.000Z</time>
      </trkpt>
      <trkpt lat="47.26347" lon="-2.31695">
        <ele>2</ele>
        <time>2020-10-15T07:20:52.000Z</time>
      </trkpt>
      <trkpt lat="47.26354" lon="-2.31691">
        <ele>2</ele>
        <time>2020-10-15T07:20:54.000Z</time>
      </trkpt>
      <trkpt lat="47.26381" lon="-2.31677">
        <ele>2</ele>
        <time>2020-10-15T07:21:01.000Z</time>
      </trkpt>
      <trkpt lat="47.26387" lon="-2.31673">
        <ele>2.4000000953674</ele>
        <time>2020-10-15T07:21:03.000Z</time>
      </trkpt>
      <trkpt lat="47.26391" lon="-2.31671">
        <ele>2.7999999523163</ele>
        <time>2020-10-15T07:21:04.000Z</time>
      </trkpt>
      <trkpt lat="47.26394" lon="-2.3167">
        <ele>3.4000000953674</ele>
        <time>2020-10-15T07:21:05.000Z</time>
      </trkpt>
      <trkpt lat="47.26397" lon="-2.31669">
        <ele>3.7999999523163</ele>
        <time>2020-10-15T07:21:06.000Z</time>
      </trkpt>
      <trkpt lat="47.264" lon="-2.31667">
        <ele>4.1999998092651</ele>
        <time>2020-10-15T07:21:07.000Z</time>
      </trkpt>
      <trkpt lat="47.26423" lon="-2.31657">
        <ele>4.1999998092651</ele>
        <time>2020-10-15T07:21:13.000Z</time>
      </trkpt>
      <trkpt lat="47.26444" lon="-2.31653">
        <ele>4.5999999046326</ele>
        <time>2020-10-15T07:21:18.000Z</time>
      </trkpt>
      <trkpt lat="47.26449" lon="-2.31653">
        <ele>5</ele>
        <time>2020-10-15T07:21:19.000Z</time>
      </trkpt>
      <trkpt lat="47.26453" lon="-2.31653">
        <ele>5.4000000953674</ele>
        <time>2020-10-15T07:21:20.000Z</time>
      </trkpt>
      <trkpt lat="47.26457" lon="-2.31652">
        <ele>5.8000001907349</ele>
        <time>2020-10-15T07:21:21.000Z</time>
      </trkpt>
      <trkpt lat="47.26461" lon="-2.31652">
        <ele>6.1999998092651</ele>
        <time>2020-10-15T07:21:22.000Z</time>
      </trkpt>
      <trkpt lat="47.2648" lon="-2.31647">
        <ele>6.1999998092651</ele>
        <time>2020-10-15T07:21:27.000Z</time>
      </trkpt>
      <trkpt lat="47.26492" lon="-2.31646">
        <ele>6.5999999046326</ele>
        <time>2020-10-15T07:21:30.000Z</time>
      </trkpt>
      <trkpt lat="47.26496" lon="-2.31645">
        <ele>7</ele>
        <time>2020-10-15T07:21:31.000Z</time>
      </trkpt>
      <trkpt lat="47.265" lon="-2.31644">
        <ele>7.5999999046326</ele>
        <time>2020-10-15T07:21:32.000Z</time>
      </trkpt>
      <trkpt lat="47.26503" lon="-2.31641">
        <ele>8</ele>
        <time>2020-10-15T07:21:33.000Z</time>
      </trkpt>
      <trkpt lat="47.26506" lon="-2.3164">
        <ele>8.3999996185303</ele>
        <time>2020-10-15T07:21:34.000Z</time>
      </trkpt>
      <trkpt lat="47.26523" lon="-2.31634">
        <ele>8.3999996185303</ele>
        <time>2020-10-15T07:21:39.000Z</time>
      </trkpt>
      <trkpt lat="47.26535" lon="-2.31626">
        <ele>8.8000001907349</ele>
        <time>2020-10-15T07:21:43.000Z</time>
      </trkpt>
      <trkpt lat="47.26538" lon="-2.31625">
        <ele>9.1999998092651</ele>
        <time>2020-10-15T07:21:44.000Z</time>
      </trkpt>
      <trkpt lat="47.26541" lon="-2.31622">
        <ele>9.6000003814697</ele>
        <time>2020-10-15T07:21:45.000Z</time>
      </trkpt>
      <trkpt lat="47.26544" lon="-2.3162">
        <ele>10</ele>
        <time>2020-10-15T07:21:46.000Z</time>
      </trkpt>
      <trkpt lat="47.26546" lon="-2.31618">
        <ele>10.39999961853</ele>
        <time>2020-10-15T07:21:47.000Z</time>
      </trkpt>
      <trkpt lat="47.26565" lon="-2.31607">
        <ele>10.39999961853</ele>
        <time>2020-10-15T07:21:53.000Z</time>
      </trkpt>
      <trkpt lat="47.26568" lon="-2.31605">
        <ele>11</ele>
        <time>2020-10-15T07:21:54.000Z</time>
      </trkpt>
      <trkpt lat="47.26572" lon="-2.31603">
        <ele>11.39999961853</ele>
        <time>2020-10-15T07:21:55.000Z</time>
      </trkpt>
      <trkpt lat="47.26575" lon="-2.31601">
        <ele>11.800000190735</ele>
        <time>2020-10-15T07:21:56.000Z</time>
      </trkpt>
      <trkpt lat="47.26578" lon="-2.31599">
        <ele>12.39999961853</ele>
        <time>2020-10-15T07:21:57.000Z</time>
      </trkpt>
      <trkpt lat="47.2658" lon="-2.31597">
        <ele>12.800000190735</ele>
        <time>2020-10-15T07:21:58.000Z</time>
      </trkpt>
      <trkpt lat="47.26589" lon="-2.31591">
        <ele>12.800000190735</ele>
        <time>2020-10-15T07:22:01.000Z</time>
      </trkpt>
      <trkpt lat="47.26596" lon="-2.31585">
        <ele>13.199999809265</ele>
        <time>2020-10-15T07:22:04.000Z</time>
      </trkpt>
      <trkpt lat="47.26599" lon="-2.31583">
        <ele>13.60000038147</ele>
        <time>2020-10-15T07:22:05.000Z</time>
      </trkpt>
      <trkpt lat="47.26602" lon="-2.31582">
        <ele>14.199999809265</ele>
        <time>2020-10-15T07:22:06.000Z</time>
      </trkpt>
      <trkpt lat="47.26605" lon="-2.3158">
        <ele>14.60000038147</ele>
        <time>2020-10-15T07:22:07.000Z</time>
      </trkpt>
      <trkpt lat="47.26608" lon="-2.31578">
        <ele>15</ele>
        <time>2020-10-15T07:22:08.000Z</time>
      </trkpt>
      <trkpt lat="47.26619" lon="-2.31572">
        <ele>15.39999961853</ele>
        <time>2020-10-15T07:22:12.000Z</time>
      </trkpt>
      <trkpt lat="47.26621" lon="-2.31569">
        <ele>15.800000190735</ele>
        <time>2020-10-15T07:22:13.000Z</time>
      </trkpt>
      <trkpt lat="47.26624" lon="-2.31566">
        <ele>16.200000762939</ele>
        <time>2020-10-15T07:22:14.000Z</time>
      </trkpt>
      <trkpt lat="47.26626" lon="-2.31564">
        <ele>17</ele>
        <time>2020-10-15T07:22:15.000Z</time>
      </trkpt>
      <trkpt lat="47.26635" lon="-2.31551">
        <ele>17</ele>
        <time>2020-10-15T07:22:20.000Z</time>
      </trkpt>
      <trkpt lat="47.26634" lon="-2.31547">
        <ele>17.60000038147</ele>
        <time>2020-10-15T07:22:21.000Z</time>
      </trkpt>
      <trkpt lat="47.26633" lon="-2.31543">
        <ele>18</ele>
        <time>2020-10-15T07:22:22.000Z</time>
      </trkpt>
      <trkpt lat="47.26631" lon="-2.31538">
        <ele>18.39999961853</ele>
        <time>2020-10-15T07:22:23.000Z</time>
      </trkpt>
      <trkpt lat="47.26629" lon="-2.31534">
        <ele>18.799999237061</ele>
        <time>2020-10-15T07:22:24.000Z</time>
      </trkpt>
      <trkpt lat="47.26626" lon="-2.3153">
        <ele>19.200000762939</ele>
        <time>2020-10-15T07:22:25.000Z</time>
      </trkpt>
      <trkpt lat="47.26621" lon="-2.31521">
        <ele>19.200000762939</ele>
        <time>2020-10-15T07:22:27.000Z</time>
      </trkpt>
      <trkpt lat="47.26612" lon="-2.31491">
        <ele>19.200000762939</ele>
        <time>2020-10-15T07:22:33.000Z</time>
      </trkpt>
      <trkpt lat="47.26611" lon="-2.31482">
        <ele>19.200000762939</ele>
        <time>2020-10-15T07:22:35.000Z</time>
      </trkpt>
      <trkpt lat="47.26614" lon="-2.31474">
        <ele>19.200000762939</ele>
        <time>2020-10-15T07:22:37.000Z</time>
      </trkpt>
      <trkpt lat="47.26627" lon="-2.31463">
        <ele>19.60000038147</ele>
        <time>2020-10-15T07:22:41.000Z</time>
      </trkpt>
      <trkpt lat="47.26631" lon="-2.3146">
        <ele>20</ele>
        <time>2020-10-15T07:22:42.000Z</time>
      </trkpt>
      <trkpt lat="47.26634" lon="-2.31458">
        <ele>20.39999961853</ele>
        <time>2020-10-15T07:22:43.000Z</time>
      </trkpt>
      <trkpt lat="47.26638" lon="-2.31455">
        <ele>20.799999237061</ele>
        <time>2020-10-15T07:22:44.000Z</time>
      </trkpt>
      <trkpt lat="47.26641" lon="-2.31452">
        <ele>21.200000762939</ele>
        <time>2020-10-15T07:22:45.000Z</time>
      </trkpt>
      <trkpt lat="47.26644" lon="-2.31449">
        <ele>21.200000762939</ele>
        <time>2020-10-15T07:22:46.000Z</time>
      </trkpt>
      <trkpt lat="47.26651" lon="-2.31444">
        <ele>21.200000762939</ele>
        <time>2020-10-15T07:22:48.000Z</time>
      </trkpt>
      <trkpt lat="47.26663" lon="-2.31435">
        <ele>21.60000038147</ele>
        <time>2020-10-15T07:22:52.000Z</time>
      </trkpt>
      <trkpt lat="47.26667" lon="-2.31433">
        <ele>22.200000762939</ele>
        <time>2020-10-15T07:22:53.000Z</time>
      </trkpt>
      <trkpt lat="47.2667" lon="-2.31431">
        <ele>22.60000038147</ele>
        <time>2020-10-15T07:22:54.000Z</time>
      </trkpt>
      <trkpt lat="47.26672" lon="-2.31429">
        <ele>23</ele>
        <time>2020-10-15T07:22:55.000Z</time>
      </trkpt>
      <trkpt lat="47.26676" lon="-2.31428">
        <ele>23.39999961853</ele>
        <time>2020-10-15T07:22:56.000Z</time>
      </trkpt>
      <trkpt lat="47.26694" lon="-2.31418">
        <ele>23.39999961853</ele>
        <time>2020-10-15T07:23:01.000Z</time>
      </trkpt>
      <trkpt lat="47.26718" lon="-2.31405">
        <ele>23.39999961853</ele>
        <time>2020-10-15T07:23:08.000Z</time>
      </trkpt>
      <trkpt lat="47.26731" lon="-2.31395">
        <ele>23.799999237061</ele>
        <time>2020-10-15T07:23:12.000Z</time>
      </trkpt>
      <trkpt lat="47.26734" lon="-2.31394">
        <ele>24.200000762939</ele>
        <time>2020-10-15T07:23:13.000Z</time>
      </trkpt>
      <trkpt lat="47.26737" lon="-2.31392">
        <ele>24.60000038147</ele>
        <time>2020-10-15T07:23:14.000Z</time>
      </trkpt>
      <trkpt lat="47.26741" lon="-2.3139">
        <ele>25</ele>
        <time>2020-10-15T07:23:15.000Z</time>
      </trkpt>
      <trkpt lat="47.26744" lon="-2.31388">
        <ele>25.39999961853</ele>
        <time>2020-10-15T07:23:16.000Z</time>
      </trkpt>
      <trkpt lat="47.26761" lon="-2.31379">
        <ele>25.39999961853</ele>
        <time>2020-10-15T07:23:21.000Z</time>
      </trkpt>
      <trkpt lat="47.26792" lon="-2.31361">
        <ele>25.39999961853</ele>
        <time>2020-10-15T07:23:30.000Z</time>
      </trkpt>
      <trkpt lat="47.26811" lon="-2.31347">
        <ele>25.39999961853</ele>
        <time>2020-10-15T07:23:36.000Z</time>
      </trkpt>
      <trkpt lat="47.26822" lon="-2.31339">
        <ele>25.39999961853</ele>
        <time>2020-10-15T07:23:42.000Z</time>
      </trkpt>
      <trkpt lat="47.26828" lon="-2.31345">
        <ele>25.39999961853</ele>
        <time>2020-10-15T07:23:46.000Z</time>
      </trkpt>
      <trkpt lat="47.26829" lon="-2.31349">
        <ele>25.39999961853</ele>
        <time>2020-10-15T07:23:47.000Z</time>
      </trkpt>
      <trkpt lat="47.26828" lon="-2.31365">
        <ele>25.39999961853</ele>
        <time>2020-10-15T07:23:50.000Z</time>
      </trkpt>
      <trkpt lat="47.26829" lon="-2.31372">
        <ele>25.39999961853</ele>
        <time>2020-10-15T07:23:51.000Z</time>
      </trkpt>
      <trkpt lat="47.26829" lon="-2.31378">
        <ele>25.39999961853</ele>
        <time>2020-10-15T07:23:52.000Z</time>
      </trkpt>
      <trkpt lat="47.26837" lon="-2.31409">
        <ele>25.39999961853</ele>
        <time>2020-10-15T07:23:57.000Z</time>
      </trkpt>
      <trkpt lat="47.26854" lon="-2.31457">
        <ele>25.39999961853</ele>
        <time>2020-10-15T07:24:04.000Z</time>
      </trkpt>
      <trkpt lat="47.26863" lon="-2.31505">
        <ele>25.39999961853</ele>
        <time>2020-10-15T07:24:10.000Z</time>
      </trkpt>
      <trkpt lat="47.26872" lon="-2.31579">
        <ele>25.39999961853</ele>
        <time>2020-10-15T07:24:18.000Z</time>
      </trkpt>
      <trkpt lat="47.26877" lon="-2.31609">
        <ele>25</ele>
        <time>2020-10-15T07:24:21.000Z</time>
      </trkpt>
      <trkpt lat="47.26878" lon="-2.3162">
        <ele>24.60000038147</ele>
        <time>2020-10-15T07:24:22.000Z</time>
      </trkpt>
      <trkpt lat="47.2688" lon="-2.3163">
        <ele>24</ele>
        <time>2020-10-15T07:24:23.000Z</time>
      </trkpt>
      <trkpt lat="47.26881" lon="-2.31641">
        <ele>23.60000038147</ele>
        <time>2020-10-15T07:24:24.000Z</time>
      </trkpt>
      <trkpt lat="47.26883" lon="-2.31652">
        <ele>23.200000762939</ele>
        <time>2020-10-15T07:24:25.000Z</time>
      </trkpt>
      <trkpt lat="47.26886" lon="-2.31672">
        <ele>23.200000762939</ele>
        <time>2020-10-15T07:24:27.000Z</time>
      </trkpt>
      <trkpt lat="47.26889" lon="-2.3169">
        <ele>22.799999237061</ele>
        <time>2020-10-15T07:24:29.000Z</time>
      </trkpt>
      <trkpt lat="47.2689" lon="-2.31699">
        <ele>22.39999961853</ele>
        <time>2020-10-15T07:24:30.000Z</time>
      </trkpt>
      <trkpt lat="47.26891" lon="-2.31709">
        <ele>22</ele>
        <time>2020-10-15T07:24:31.000Z</time>
      </trkpt>
      <trkpt lat="47.26891" lon="-2.31718">
        <ele>21.39999961853</ele>
        <time>2020-10-15T07:24:32.000Z</time>
      </trkpt>
      <trkpt lat="47.26892" lon="-2.31727">
        <ele>21</ele>
        <time>2020-10-15T07:24:33.000Z</time>
      </trkpt>
      <trkpt lat="47.26891" lon="-2.31737">
        <ele>21</ele>
        <time>2020-10-15T07:24:34.000Z</time>
      </trkpt>
      <trkpt lat="47.26882" lon="-2.31761">
        <ele>21</ele>
        <time>2020-10-15T07:24:37.000Z</time>
      </trkpt>
      <trkpt lat="47.26869" lon="-2.31779">
        <ele>20.60000038147</ele>
        <time>2020-10-15T07:24:40.000Z</time>
      </trkpt>
      <trkpt lat="47.26864" lon="-2.31783">
        <ele>20.200000762939</ele>
        <time>2020-10-15T07:24:41.000Z</time>
      </trkpt>
      <trkpt lat="47.26858" lon="-2.31786">
        <ele>19.799999237061</ele>
        <time>2020-10-15T07:24:42.000Z</time>
      </trkpt>
      <trkpt lat="47.26854" lon="-2.31789">
        <ele>19.39999961853</ele>
        <time>2020-10-15T07:24:43.000Z</time>
      </trkpt>
      <trkpt lat="47.26849" lon="-2.31791">
        <ele>19</ele>
        <time>2020-10-15T07:24:44.000Z</time>
      </trkpt>
      <trkpt lat="47.26839" lon="-2.31796">
        <ele>19</ele>
        <time>2020-10-15T07:24:46.000Z</time>
      </trkpt>
      <trkpt lat="47.26823" lon="-2.31804">
        <ele>19</ele>
        <time>2020-10-15T07:24:51.000Z</time>
      </trkpt>
      <trkpt lat="47.26817" lon="-2.31814">
        <ele>19</ele>
        <time>2020-10-15T07:24:55.000Z</time>
      </trkpt>
      <trkpt lat="47.26817" lon="-2.31819">
        <ele>19</ele>
        <time>2020-10-15T07:24:56.000Z</time>
      </trkpt>
      <trkpt lat="47.26821" lon="-2.31828">
        <ele>19</ele>
        <time>2020-10-15T07:24:58.000Z</time>
      </trkpt>
      <trkpt lat="47.26833" lon="-2.31859">
        <ele>19</ele>
        <time>2020-10-15T07:25:03.000Z</time>
      </trkpt>
      <trkpt lat="47.26841" lon="-2.31881">
        <ele>18.60000038147</ele>
        <time>2020-10-15T07:25:06.000Z</time>
      </trkpt>
      <trkpt lat="47.26846" lon="-2.31888">
        <ele>18</ele>
        <time>2020-10-15T07:25:07.000Z</time>
      </trkpt>
      <trkpt lat="47.26853" lon="-2.3189">
        <ele>17.200000762939</ele>
        <time>2020-10-15T07:25:08.000Z</time>
      </trkpt>
      <trkpt lat="47.26859" lon="-2.3189">
        <ele>16.799999237061</ele>
        <time>2020-10-15T07:25:09.000Z</time>
      </trkpt>
      <trkpt lat="47.26878" lon="-2.31896">
        <ele>16.200000762939</ele>
        <time>2020-10-15T07:25:12.000Z</time>
      </trkpt>
      <trkpt lat="47.26884" lon="-2.31901">
        <ele>15.800000190735</ele>
        <time>2020-10-15T07:25:13.000Z</time>
      </trkpt>
      <trkpt lat="47.26889" lon="-2.31908">
        <ele>15.39999961853</ele>
        <time>2020-10-15T07:25:14.000Z</time>
      </trkpt>
      <trkpt lat="47.26893" lon="-2.31916">
        <ele>14.800000190735</ele>
        <time>2020-10-15T07:25:15.000Z</time>
      </trkpt>
      <trkpt lat="47.26897" lon="-2.31924">
        <ele>14.39999961853</ele>
        <time>2020-10-15T07:25:16.000Z</time>
      </trkpt>
      <trkpt lat="47.26902" lon="-2.31933">
        <ele>14.39999961853</ele>
        <time>2020-10-15T07:25:17.000Z</time>
      </trkpt>
      <trkpt lat="47.26912" lon="-2.31948">
        <ele>14.39999961853</ele>
        <time>2020-10-15T07:25:19.000Z</time>
      </trkpt>
      <trkpt lat="47.26918" lon="-2.31953">
        <ele>13.800000190735</ele>
        <time>2020-10-15T07:25:20.000Z</time>
      </trkpt>
      <trkpt lat="47.26923" lon="-2.31959">
        <ele>13.39999961853</ele>
        <time>2020-10-15T07:25:21.000Z</time>
      </trkpt>
      <trkpt lat="47.26928" lon="-2.31965">
        <ele>12.800000190735</ele>
        <time>2020-10-15T07:25:22.000Z</time>
      </trkpt>
      <trkpt lat="47.26933" lon="-2.31973">
        <ele>12.39999961853</ele>
        <time>2020-10-15T07:25:23.000Z</time>
      </trkpt>
      <trkpt lat="47.26937" lon="-2.3198">
        <ele>11.800000190735</ele>
        <time>2020-10-15T07:25:24.000Z</time>
      </trkpt>
      <trkpt lat="47.26947" lon="-2.31993">
        <ele>11.39999961853</ele>
        <time>2020-10-15T07:25:26.000Z</time>
      </trkpt>
      <trkpt lat="47.26952" lon="-2.31997">
        <ele>11</ele>
        <time>2020-10-15T07:25:27.000Z</time>
      </trkpt>
      <trkpt lat="47.26957" lon="-2.31999">
        <ele>10.60000038147</ele>
        <time>2020-10-15T07:25:28.000Z</time>
      </trkpt>
      <trkpt lat="47.26962" lon="-2.31998">
        <ele>10.199999809265</ele>
        <time>2020-10-15T07:25:29.000Z</time>
      </trkpt>
      <trkpt lat="47.26967" lon="-2.31996">
        <ele>9.6000003814697</ele>
        <time>2020-10-15T07:25:30.000Z</time>
      </trkpt>
      <trkpt lat="47.26972" lon="-2.31995">
        <ele>9.1999998092651</ele>
        <time>2020-10-15T07:25:31.000Z</time>
      </trkpt>
      <trkpt lat="47.26977" lon="-2.31993">
        <ele>8.8000001907349</ele>
        <time>2020-10-15T07:25:32.000Z</time>
      </trkpt>
      <trkpt lat="47.26983" lon="-2.31991">
        <ele>8</ele>
        <time>2020-10-15T07:25:33.000Z</time>
      </trkpt>
      <trkpt lat="47.26988" lon="-2.31989">
        <ele>7.5999999046326</ele>
        <time>2020-10-15T07:25:34.000Z</time>
      </trkpt>
      <trkpt lat="47.26994" lon="-2.31986">
        <ele>7.5999999046326</ele>
        <time>2020-10-15T07:25:35.000Z</time>
      </trkpt>
      <trkpt lat="47.27008" lon="-2.31976">
        <ele>7.5999999046326</ele>
        <time>2020-10-15T07:25:38.000Z</time>
      </trkpt>
      <trkpt lat="47.27018" lon="-2.3197">
        <ele>7.5999999046326</ele>
        <time>2020-10-15T07:25:40.000Z</time>
      </trkpt>
      <trkpt lat="47.27037" lon="-2.31961">
        <ele>7.5999999046326</ele>
        <time>2020-10-15T07:25:45.000Z</time>
      </trkpt>
      <trkpt lat="47.27041" lon="-2.31959">
        <ele>7.5999999046326</ele>
        <time>2020-10-15T07:25:46.000Z</time>
      </trkpt>
      <trkpt lat="47.27062" lon="-2.31955">
        <ele>7.5999999046326</ele>
        <time>2020-10-15T07:25:51.000Z</time>
      </trkpt>
      <trkpt lat="47.27067" lon="-2.31955">
        <ele>7.5999999046326</ele>
        <time>2020-10-15T07:25:52.000Z</time>
      </trkpt>
      <trkpt lat="47.27083" lon="-2.31955">
        <ele>7.1999998092651</ele>
        <time>2020-10-15T07:25:55.000Z</time>
      </trkpt>
      <trkpt lat="47.27089" lon="-2.31955">
        <ele>6.8000001907349</ele>
        <time>2020-10-15T07:25:56.000Z</time>
      </trkpt>
      <trkpt lat="47.27094" lon="-2.31956">
        <ele>6</ele>
        <time>2020-10-15T07:25:57.000Z</time>
      </trkpt>
      <trkpt lat="47.27099" lon="-2.31959">
        <ele>5.5999999046326</ele>
        <time>2020-10-15T07:25:58.000Z</time>
      </trkpt>
      <trkpt lat="47.2712" lon="-2.31968">
        <ele>5.5999999046326</ele>
        <time>2020-10-15T07:26:02.000Z</time>
      </trkpt>
      <trkpt lat="47.2713" lon="-2.31974">
        <ele>5</ele>
        <time>2020-10-15T07:26:04.000Z</time>
      </trkpt>
      <trkpt lat="47.27134" lon="-2.31977">
        <ele>4.5999999046326</ele>
        <time>2020-10-15T07:26:05.000Z</time>
      </trkpt>
      <trkpt lat="47.27138" lon="-2.3198">
        <ele>4.1999998092651</ele>
        <time>2020-10-15T07:26:06.000Z</time>
      </trkpt>
      <trkpt lat="47.27141" lon="-2.31983">
        <ele>3.7999999523163</ele>
        <time>2020-10-15T07:26:07.000Z</time>
      </trkpt>
      <trkpt lat="47.27145" lon="-2.31987">
        <ele>3.4000000953674</ele>
        <time>2020-10-15T07:26:08.000Z</time>
      </trkpt>
      <trkpt lat="47.2716" lon="-2.31991">
        <ele>3.4000000953674</ele>
        <time>2020-10-15T07:26:12.000Z</time>
      </trkpt>
      <trkpt lat="47.27172" lon="-2.31976">
        <ele>3.4000000953674</ele>
        <time>2020-10-15T07:26:16.000Z</time>
      </trkpt>
      <trkpt lat="47.27176" lon="-2.31971">
        <ele>3.4000000953674</ele>
        <time>2020-10-15T07:26:17.000Z</time>
      </trkpt>
      <trkpt lat="47.27194" lon="-2.31953">
        <ele>3.4000000953674</ele>
        <time>2020-10-15T07:26:22.000Z</time>
      </trkpt>
      <trkpt lat="47.27205" lon="-2.31934">
        <ele>3.4000000953674</ele>
        <time>2020-10-15T07:26:27.000Z</time>
      </trkpt>
      <trkpt lat="47.2722" lon="-2.31923">
        <ele>3.4000000953674</ele>
        <time>2020-10-15T07:26:32.000Z</time>
      </trkpt>
      <trkpt lat="47.27225" lon="-2.31923">
        <ele>3.4000000953674</ele>
        <time>2020-10-15T07:26:33.000Z</time>
      </trkpt>
      <trkpt lat="47.27234" lon="-2.31924">
        <ele>3.4000000953674</ele>
        <time>2020-10-15T07:26:35.000Z</time>
      </trkpt>
      <trkpt lat="47.27238" lon="-2.31926">
        <ele>3.7999999523163</ele>
        <time>2020-10-15T07:26:36.000Z</time>
      </trkpt>
      <trkpt lat="47.27243" lon="-2.31927">
        <ele>4.4000000953674</ele>
        <time>2020-10-15T07:26:37.000Z</time>
      </trkpt>
      <trkpt lat="47.27247" lon="-2.31929">
        <ele>4.8000001907349</ele>
        <time>2020-10-15T07:26:38.000Z</time>
      </trkpt>
      <trkpt lat="47.27252" lon="-2.31931">
        <ele>5.1999998092651</ele>
        <time>2020-10-15T07:26:39.000Z</time>
      </trkpt>
      <trkpt lat="47.27258" lon="-2.31932">
        <ele>5.5999999046326</ele>
        <time>2020-10-15T07:26:40.000Z</time>
      </trkpt>
      <trkpt lat="47.27273" lon="-2.31936">
        <ele>5.5999999046326</ele>
        <time>2020-10-15T07:26:43.000Z</time>
      </trkpt>
      <trkpt lat="47.27289" lon="-2.31944">
        <ele>5.5999999046326</ele>
        <time>2020-10-15T07:26:46.000Z</time>
      </trkpt>
      <trkpt lat="47.273" lon="-2.3195">
        <ele>5.5999999046326</ele>
        <time>2020-10-15T07:26:48.000Z</time>
      </trkpt>
      <trkpt lat="47.27322" lon="-2.31969">
        <ele>5.5999999046326</ele>
        <time>2020-10-15T07:26:52.000Z</time>
      </trkpt>
      <trkpt lat="47.27356" lon="-2.32006">
        <ele>5.5999999046326</ele>
        <time>2020-10-15T07:26:58.000Z</time>
      </trkpt>
      <trkpt lat="47.274" lon="-2.32049">
        <ele>5.5999999046326</ele>
        <time>2020-10-15T07:27:07.000Z</time>
      </trkpt>
      <trkpt lat="47.27421" lon="-2.32071">
        <ele>6</ele>
        <time>2020-10-15T07:27:12.000Z</time>
      </trkpt>
      <trkpt lat="47.27424" lon="-2.32075">
        <ele>6.5999999046326</ele>
        <time>2020-10-15T07:27:13.000Z</time>
      </trkpt>
      <trkpt lat="47.27428" lon="-2.32079">
        <ele>7</ele>
        <time>2020-10-15T07:27:14.000Z</time>
      </trkpt>
      <trkpt lat="47.27432" lon="-2.32083">
        <ele>7.4000000953674</ele>
        <time>2020-10-15T07:27:15.000Z</time>
      </trkpt>
      <trkpt lat="47.27437" lon="-2.32088">
        <ele>8</ele>
        <time>2020-10-15T07:27:16.000Z</time>
      </trkpt>
      <trkpt lat="47.27472" lon="-2.32134">
        <ele>8</ele>
        <time>2020-10-15T07:27:25.000Z</time>
      </trkpt>
      <trkpt lat="47.27505" lon="-2.32176">
        <ele>8</ele>
        <time>2020-10-15T07:27:33.000Z</time>
      </trkpt>
      <trkpt lat="47.27512" lon="-2.32186">
        <ele>8.3999996185303</ele>
        <time>2020-10-15T07:27:35.000Z</time>
      </trkpt>
      <trkpt lat="47.27515" lon="-2.32191">
        <ele>9.1999998092651</ele>
        <time>2020-10-15T07:27:36.000Z</time>
      </trkpt>
      <trkpt lat="47.27519" lon="-2.32196">
        <ele>9.6000003814697</ele>
        <time>2020-10-15T07:27:37.000Z</time>
      </trkpt>
      <trkpt lat="47.27523" lon="-2.322">
        <ele>10.199999809265</ele>
        <time>2020-10-15T07:27:38.000Z</time>
      </trkpt>
      <trkpt lat="47.27526" lon="-2.32204">
        <ele>10.199999809265</ele>
        <time>2020-10-15T07:27:39.000Z</time>
      </trkpt>
      <trkpt lat="47.27537" lon="-2.32215">
        <ele>10.60000038147</ele>
        <time>2020-10-15T07:27:42.000Z</time>
      </trkpt>
      <trkpt lat="47.2754" lon="-2.32219">
        <ele>11</ele>
        <time>2020-10-15T07:27:43.000Z</time>
      </trkpt>
      <trkpt lat="47.27544" lon="-2.32222">
        <ele>11.39999961853</ele>
        <time>2020-10-15T07:27:44.000Z</time>
      </trkpt>
      <trkpt lat="47.27548" lon="-2.32226">
        <ele>11.800000190735</ele>
        <time>2020-10-15T07:27:45.000Z</time>
      </trkpt>
      <trkpt lat="47.27551" lon="-2.32229">
        <ele>12.199999809265</ele>
        <time>2020-10-15T07:27:46.000Z</time>
      </trkpt>
      <trkpt lat="47.27576" lon="-2.32252">
        <ele>12.60000038147</ele>
        <time>2020-10-15T07:27:53.000Z</time>
      </trkpt>
      <trkpt lat="47.27579" lon="-2.32255">
        <ele>13</ele>
        <time>2020-10-15T07:27:54.000Z</time>
      </trkpt>
      <trkpt lat="47.27582" lon="-2.32258">
        <ele>13.39999961853</ele>
        <time>2020-10-15T07:27:55.000Z</time>
      </trkpt>
      <trkpt lat="47.27585" lon="-2.3226">
        <ele>13.800000190735</ele>
        <time>2020-10-15T07:27:56.000Z</time>
      </trkpt>
      <trkpt lat="47.27588" lon="-2.32263">
        <ele>14.199999809265</ele>
        <time>2020-10-15T07:27:57.000Z</time>
      </trkpt>
      <trkpt lat="47.27602" lon="-2.32276">
        <ele>14.199999809265</ele>
        <time>2020-10-15T07:28:03.000Z</time>
      </trkpt>
      <trkpt lat="47.27607" lon="-2.32279">
        <ele>14.60000038147</ele>
        <time>2020-10-15T07:28:05.000Z</time>
      </trkpt>
      <trkpt lat="47.27609" lon="-2.32281">
        <ele>15</ele>
        <time>2020-10-15T07:28:06.000Z</time>
      </trkpt>
      <trkpt lat="47.27611" lon="-2.32282">
        <ele>15.39999961853</ele>
        <time>2020-10-15T07:28:07.000Z</time>
      </trkpt>
      <trkpt lat="47.27613" lon="-2.32284">
        <ele>16</ele>
        <time>2020-10-15T07:28:08.000Z</time>
      </trkpt>
      <trkpt lat="47.27615" lon="-2.32286">
        <ele>16.39999961853</ele>
        <time>2020-10-15T07:28:09.000Z</time>
      </trkpt>
      <trkpt lat="47.27618" lon="-2.32291">
        <ele>16.39999961853</ele>
        <time>2020-10-15T07:28:11.000Z</time>
      </trkpt>
      <trkpt lat="47.2763" lon="-2.32302">
        <ele>16.39999961853</ele>
        <time>2020-10-15T07:28:17.000Z</time>
      </trkpt>
      <trkpt lat="47.27644" lon="-2.32309">
        <ele>16.39999961853</ele>
        <time>2020-10-15T07:28:23.000Z</time>
      </trkpt>
      <trkpt lat="47.27658" lon="-2.32313">
        <ele>16.799999237061</ele>
        <time>2020-10-15T07:28:28.000Z</time>
      </trkpt>
      <trkpt lat="47.27661" lon="-2.32314">
        <ele>17.200000762939</ele>
        <time>2020-10-15T07:28:29.000Z</time>
      </trkpt>
      <trkpt lat="47.27664" lon="-2.32315">
        <ele>17.60000038147</ele>
        <time>2020-10-15T07:28:30.000Z</time>
      </trkpt>
      <trkpt lat="47.27667" lon="-2.32316">
        <ele>18</ele>
        <time>2020-10-15T07:28:31.000Z</time>
      </trkpt>
      <trkpt lat="47.27671" lon="-2.32318">
        <ele>18.39999961853</ele>
        <time>2020-10-15T07:28:32.000Z</time>
      </trkpt>
      <trkpt lat="47.27682" lon="-2.32322">
        <ele>18.39999961853</ele>
        <time>2020-10-15T07:28:35.000Z</time>
      </trkpt>
      <trkpt lat="47.2771" lon="-2.32334">
        <ele>18.39999961853</ele>
        <time>2020-10-15T07:28:42.000Z</time>
      </trkpt>
      <trkpt lat="47.27729" lon="-2.3235">
        <ele>18.39999961853</ele>
        <time>2020-10-15T07:28:47.000Z</time>
      </trkpt>
      <trkpt lat="47.27754" lon="-2.32364">
        <ele>18.39999961853</ele>
        <time>2020-10-15T07:28:53.000Z</time>
      </trkpt>
      <trkpt lat="47.27759" lon="-2.32367">
        <ele>18.39999961853</ele>
        <time>2020-10-15T07:28:54.000Z</time>
      </trkpt>
      <trkpt lat="47.27771" lon="-2.32381">
        <ele>18.39999961853</ele>
        <time>2020-10-15T07:28:58.000Z</time>
      </trkpt>
      <trkpt lat="47.27775" lon="-2.32383">
        <ele>18.39999961853</ele>
        <time>2020-10-15T07:29:00.000Z</time>
      </trkpt>
      <trkpt lat="47.2778" lon="-2.32382">
        <ele>18.39999961853</ele>
        <time>2020-10-15T07:29:02.000Z</time>
      </trkpt>
      <trkpt lat="47.27797" lon="-2.32381">
        <ele>18.39999961853</ele>
        <time>2020-10-15T07:29:08.000Z</time>
      </trkpt>
      <trkpt lat="47.2782" lon="-2.32378">
        <ele>18.39999961853</ele>
        <time>2020-10-15T07:29:15.000Z</time>
      </trkpt>
      <trkpt lat="47.2784" lon="-2.32374">
        <ele>18.39999961853</ele>
        <time>2020-10-15T07:29:20.000Z</time>
      </trkpt>
      <trkpt lat="47.2786" lon="-2.32382">
        <ele>18.39999961853</ele>
        <time>2020-10-15T07:29:25.000Z</time>
      </trkpt>
      <trkpt lat="47.27879" lon="-2.3239">
        <ele>18.39999961853</ele>
        <time>2020-10-15T07:29:30.000Z</time>
      </trkpt>
      <trkpt lat="47.27883" lon="-2.3239">
        <ele>18.39999961853</ele>
        <time>2020-10-15T07:29:31.000Z</time>
      </trkpt>
      <trkpt lat="47.27894" lon="-2.32386">
        <ele>18.39999961853</ele>
        <time>2020-10-15T07:29:34.000Z</time>
      </trkpt>
      <trkpt lat="47.27902" lon="-2.32386">
        <ele>18.39999961853</ele>
        <time>2020-10-15T07:29:38.000Z</time>
      </trkpt>
      <trkpt lat="47.27903" lon="-2.32388">
        <ele>18.39999961853</ele>
        <time>2020-10-15T07:29:39.000Z</time>
      </trkpt>
      <trkpt lat="47.27903" lon="-2.32391">
        <ele>18</ele>
        <time>2020-10-15T07:29:40.000Z</time>
      </trkpt>
      <trkpt lat="47.27904" lon="-2.32394">
        <ele>17.60000038147</ele>
        <time>2020-10-15T07:29:41.000Z</time>
      </trkpt>
      <trkpt lat="47.27903" lon="-2.32396">
        <ele>17.200000762939</ele>
        <time>2020-10-15T07:29:42.000Z</time>
      </trkpt>
      <trkpt lat="47.27902" lon="-2.32399">
        <ele>16.799999237061</ele>
        <time>2020-10-15T07:29:43.000Z</time>
      </trkpt>
      <trkpt lat="47.279" lon="-2.32402">
        <ele>16.39999961853</ele>
        <time>2020-10-15T07:29:44.000Z</time>
      </trkpt>
      <trkpt lat="47.2789" lon="-2.32418">
        <ele>16.39999961853</ele>
        <time>2020-10-15T07:29:48.000Z</time>
      </trkpt>
      <trkpt lat="47.27875" lon="-2.32442">
        <ele>16.39999961853</ele>
        <time>2020-10-15T07:29:53.000Z</time>
      </trkpt>
      <trkpt lat="47.27859" lon="-2.3246">
        <ele>16.39999961853</ele>
        <time>2020-10-15T07:29:57.000Z</time>
      </trkpt>
      <trkpt lat="47.27856" lon="-2.32466">
        <ele>16.39999961853</ele>
        <time>2020-10-15T07:29:58.000Z</time>
      </trkpt>
      <trkpt lat="47.27849" lon="-2.32478">
        <ele>16.39999961853</ele>
        <time>2020-10-15T07:30:00.000Z</time>
      </trkpt>
      <trkpt lat="47.27843" lon="-2.32489">
        <ele>16.39999961853</ele>
        <time>2020-10-15T07:30:02.000Z</time>
      </trkpt>
      <trkpt lat="47.2784" lon="-2.32495">
        <ele>16.39999961853</ele>
        <time>2020-10-15T07:30:03.000Z</time>
      </trkpt>
      <trkpt lat="47.2783" lon="-2.32511">
        <ele>16.39999961853</ele>
        <time>2020-10-15T07:30:06.000Z</time>
      </trkpt>
      <trkpt lat="47.27822" lon="-2.3252">
        <ele>16.39999961853</ele>
        <time>2020-10-15T07:30:08.000Z</time>
      </trkpt>
      <trkpt lat="47.27802" lon="-2.32547">
        <ele>16.39999961853</ele>
        <time>2020-10-15T07:30:14.000Z</time>
      </trkpt>
      <trkpt lat="47.27782" lon="-2.32577">
        <ele>16.39999961853</ele>
        <time>2020-10-15T07:30:20.000Z</time>
      </trkpt>
      <trkpt lat="47.27763" lon="-2.32611">
        <ele>16.39999961853</ele>
        <time>2020-10-15T07:30:26.000Z</time>
      </trkpt>
      <trkpt lat="47.27747" lon="-2.32646">
        <ele>16.39999961853</ele>
        <time>2020-10-15T07:30:31.000Z</time>
      </trkpt>
      <trkpt lat="47.27744" lon="-2.32654">
        <ele>16</ele>
        <time>2020-10-15T07:30:32.000Z</time>
      </trkpt>
      <trkpt lat="47.2774" lon="-2.32663">
        <ele>15.39999961853</ele>
        <time>2020-10-15T07:30:33.000Z</time>
      </trkpt>
      <trkpt lat="47.27736" lon="-2.32671">
        <ele>15</ele>
        <time>2020-10-15T07:30:34.000Z</time>
      </trkpt>
      <trkpt lat="47.27732" lon="-2.32678">
        <ele>14.199999809265</ele>
        <time>2020-10-15T07:30:35.000Z</time>
      </trkpt>
      <trkpt lat="47.27728" lon="-2.32684">
        <ele>13.39999961853</ele>
        <time>2020-10-15T07:30:36.000Z</time>
      </trkpt>
      <trkpt lat="47.27724" lon="-2.32687">
        <ele>12.800000190735</ele>
        <time>2020-10-15T07:30:37.000Z</time>
      </trkpt>
      <trkpt lat="47.27722" lon="-2.3269">
        <ele>11.800000190735</ele>
        <time>2020-10-15T07:30:38.000Z</time>
      </trkpt>
      <trkpt lat="47.2772" lon="-2.32694">
        <ele>11</ele>
        <time>2020-10-15T07:30:39.000Z</time>
      </trkpt>
      <trkpt lat="47.27719" lon="-2.32697">
        <ele>10.199999809265</ele>
        <time>2020-10-15T07:30:40.000Z</time>
      </trkpt>
      <trkpt lat="47.27718" lon="-2.327">
        <ele>9.3999996185303</ele>
        <time>2020-10-15T07:30:41.000Z</time>
      </trkpt>
      <trkpt lat="47.27717" lon="-2.32703">
        <ele>8.6000003814697</ele>
        <time>2020-10-15T07:30:42.000Z</time>
      </trkpt>
      <trkpt lat="47.27715" lon="-2.32707">
        <ele>8.6000003814697</ele>
        <time>2020-10-15T07:30:44.000Z</time>
      </trkpt>
      <trkpt lat="47.27704" lon="-2.3272">
        <ele>8.6000003814697</ele>
        <time>2020-10-15T07:30:48.000Z</time>
      </trkpt>
      <trkpt lat="47.277" lon="-2.32723">
        <ele>8.6000003814697</ele>
        <time>2020-10-15T07:30:49.000Z</time>
      </trkpt>
      <trkpt lat="47.27692" lon="-2.32726">
        <ele>8.6000003814697</ele>
        <time>2020-10-15T07:30:51.000Z</time>
      </trkpt>
      <trkpt lat="47.27683" lon="-2.32727">
        <ele>8.6000003814697</ele>
        <time>2020-10-15T07:30:53.000Z</time>
      </trkpt>
      <trkpt lat="47.27658" lon="-2.32716">
        <ele>8.6000003814697</ele>
        <time>2020-10-15T07:30:59.000Z</time>
      </trkpt>
      <trkpt lat="47.27632" lon="-2.32698">
        <ele>8.6000003814697</ele>
        <time>2020-10-15T07:31:05.000Z</time>
      </trkpt>
      <trkpt lat="47.27621" lon="-2.32691">
        <ele>8.6000003814697</ele>
        <time>2020-10-15T07:31:08.000Z</time>
      </trkpt>
      <trkpt lat="47.27617" lon="-2.32692">
        <ele>8.6000003814697</ele>
        <time>2020-10-15T07:31:09.000Z</time>
      </trkpt>
      <trkpt lat="47.27607" lon="-2.32702">
        <ele>8.6000003814697</ele>
        <time>2020-10-15T07:31:12.000Z</time>
      </trkpt>
      <trkpt lat="47.27596" lon="-2.3273">
        <ele>8.6000003814697</ele>
        <time>2020-10-15T07:31:18.000Z</time>
      </trkpt>
      <trkpt lat="47.27594" lon="-2.32746">
        <ele>8.6000003814697</ele>
        <time>2020-10-15T07:31:22.000Z</time>
      </trkpt>
      <trkpt lat="47.27594" lon="-2.32749">
        <ele>9</ele>
        <time>2020-10-15T07:31:23.000Z</time>
      </trkpt>
      <trkpt lat="47.27593" lon="-2.32751">
        <ele>9.3999996185303</ele>
        <time>2020-10-15T07:31:24.000Z</time>
      </trkpt>
      <trkpt lat="47.27593" lon="-2.32754">
        <ele>9.8000001907349</ele>
        <time>2020-10-15T07:31:25.000Z</time>
      </trkpt>
      <trkpt lat="47.27592" lon="-2.32757">
        <ele>10.39999961853</ele>
        <time>2020-10-15T07:31:26.000Z</time>
      </trkpt>
      <trkpt lat="47.27591" lon="-2.32761">
        <ele>10.800000190735</ele>
        <time>2020-10-15T07:31:27.000Z</time>
      </trkpt>
      <trkpt lat="47.2759" lon="-2.32764">
        <ele>10.800000190735</ele>
        <time>2020-10-15T07:31:28.000Z</time>
      </trkpt>
      <trkpt lat="47.27581" lon="-2.32784">
        <ele>10.800000190735</ele>
        <time>2020-10-15T07:31:34.000Z</time>
      </trkpt>
      <trkpt lat="47.27579" lon="-2.32788">
        <ele>11.199999809265</ele>
        <time>2020-10-15T07:31:35.000Z</time>
      </trkpt>
      <trkpt lat="47.27577" lon="-2.32792">
        <ele>11.60000038147</ele>
        <time>2020-10-15T07:31:36.000Z</time>
      </trkpt>
      <trkpt lat="47.27575" lon="-2.32797">
        <ele>12</ele>
        <time>2020-10-15T07:31:37.000Z</time>
      </trkpt>
      <trkpt lat="47.27572" lon="-2.32802">
        <ele>12.39999961853</ele>
        <time>2020-10-15T07:31:38.000Z</time>
      </trkpt>
      <trkpt lat="47.2757" lon="-2.32806">
        <ele>12.800000190735</ele>
        <time>2020-10-15T07:31:39.000Z</time>
      </trkpt>
      <trkpt lat="47.27567" lon="-2.32813">
        <ele>12.800000190735</ele>
        <time>2020-10-15T07:31:41.000Z</time>
      </trkpt>
      <trkpt lat="47.27558" lon="-2.32835">
        <ele>12.800000190735</ele>
        <time>2020-10-15T07:31:48.000Z</time>
      </trkpt>
      <trkpt lat="47.27551" lon="-2.32842">
        <ele>13.199999809265</ele>
        <time>2020-10-15T07:31:51.000Z</time>
      </trkpt>
      <trkpt lat="47.27548" lon="-2.32845">
        <ele>13.60000038147</ele>
        <time>2020-10-15T07:31:52.000Z</time>
      </trkpt>
      <trkpt lat="47.27545" lon="-2.32848">
        <ele>14</ele>
        <time>2020-10-15T07:31:53.000Z</time>
      </trkpt>
      <trkpt lat="47.27542" lon="-2.32851">
        <ele>14.39999961853</ele>
        <time>2020-10-15T07:31:54.000Z</time>
      </trkpt>
      <trkpt lat="47.27539" lon="-2.32854">
        <ele>14.800000190735</ele>
        <time>2020-10-15T07:31:55.000Z</time>
      </trkpt>
      <trkpt lat="47.27524" lon="-2.32873">
        <ele>14.800000190735</ele>
        <time>2020-10-15T07:32:00.000Z</time>
      </trkpt>
      <trkpt lat="47.27518" lon="-2.32883">
        <ele>14.800000190735</ele>
        <time>2020-10-15T07:32:02.000Z</time>
      </trkpt>
      <trkpt lat="47.27509" lon="-2.32907">
        <ele>14.800000190735</ele>
        <time>2020-10-15T07:32:06.000Z</time>
      </trkpt>
      <trkpt lat="47.27503" lon="-2.3293">
        <ele>15.199999809265</ele>
        <time>2020-10-15T07:32:10.000Z</time>
      </trkpt>
      <trkpt lat="47.27501" lon="-2.32936">
        <ele>15.60000038147</ele>
        <time>2020-10-15T07:32:11.000Z</time>
      </trkpt>
      <trkpt lat="47.27499" lon="-2.32942">
        <ele>16.200000762939</ele>
        <time>2020-10-15T07:32:12.000Z</time>
      </trkpt>
      <trkpt lat="47.27497" lon="-2.32947">
        <ele>16.60000038147</ele>
        <time>2020-10-15T07:32:13.000Z</time>
      </trkpt>
      <trkpt lat="47.27495" lon="-2.32952">
        <ele>17</ele>
        <time>2020-10-15T07:32:14.000Z</time>
      </trkpt>
      <trkpt lat="47.27484" lon="-2.32983">
        <ele>17</ele>
        <time>2020-10-15T07:32:20.000Z</time>
      </trkpt>
      <trkpt lat="47.27482" lon="-2.32988">
        <ele>17.39999961853</ele>
        <time>2020-10-15T07:32:21.000Z</time>
      </trkpt>
      <trkpt lat="47.2748" lon="-2.32993">
        <ele>17.799999237061</ele>
        <time>2020-10-15T07:32:22.000Z</time>
      </trkpt>
      <trkpt lat="47.27478" lon="-2.32999">
        <ele>18.200000762939</ele>
        <time>2020-10-15T07:32:23.000Z</time>
      </trkpt>
      <trkpt lat="47.27476" lon="-2.33004">
        <ele>18.60000038147</ele>
        <time>2020-10-15T07:32:24.000Z</time>
      </trkpt>
      <trkpt lat="47.27475" lon="-2.33009">
        <ele>19</ele>
        <time>2020-10-15T07:32:25.000Z</time>
      </trkpt>
      <trkpt lat="47.27468" lon="-2.3303">
        <ele>19</ele>
        <time>2020-10-15T07:32:29.000Z</time>
      </trkpt>
      <trkpt lat="47.27466" lon="-2.3305">
        <ele>19</ele>
        <time>2020-10-15T07:32:34.000Z</time>
      </trkpt>
      <trkpt lat="47.27466" lon="-2.33055">
        <ele>19.39999961853</ele>
        <time>2020-10-15T07:32:35.000Z</time>
      </trkpt>
      <trkpt lat="47.27466" lon="-2.3306">
        <ele>19.799999237061</ele>
        <time>2020-10-15T07:32:36.000Z</time>
      </trkpt>
      <trkpt lat="47.27465" lon="-2.33064">
        <ele>20.200000762939</ele>
        <time>2020-10-15T07:32:37.000Z</time>
      </trkpt>
      <trkpt lat="47.27464" lon="-2.33069">
        <ele>20.60000038147</ele>
        <time>2020-10-15T07:32:38.000Z</time>
      </trkpt>
      <trkpt lat="47.27463" lon="-2.33073">
        <ele>21</ele>
        <time>2020-10-15T07:32:39.000Z</time>
      </trkpt>
      <trkpt lat="47.27451" lon="-2.33096">
        <ele>21</ele>
        <time>2020-10-15T07:32:44.000Z</time>
      </trkpt>
      <trkpt lat="47.27445" lon="-2.33124">
        <ele>21</ele>
        <time>2020-10-15T07:32:49.000Z</time>
      </trkpt>
      <trkpt lat="47.27443" lon="-2.33136">
        <ele>21.60000038147</ele>
        <time>2020-10-15T07:32:51.000Z</time>
      </trkpt>
      <trkpt lat="47.27442" lon="-2.33141">
        <ele>22</ele>
        <time>2020-10-15T07:32:52.000Z</time>
      </trkpt>
      <trkpt lat="47.27441" lon="-2.33147">
        <ele>22.39999961853</ele>
        <time>2020-10-15T07:32:53.000Z</time>
      </trkpt>
      <trkpt lat="47.27439" lon="-2.33153">
        <ele>22.799999237061</ele>
        <time>2020-10-15T07:32:54.000Z</time>
      </trkpt>
      <trkpt lat="47.27438" lon="-2.33158">
        <ele>23.200000762939</ele>
        <time>2020-10-15T07:32:55.000Z</time>
      </trkpt>
      <trkpt lat="47.27434" lon="-2.33176">
        <ele>23.200000762939</ele>
        <time>2020-10-15T07:32:58.000Z</time>
      </trkpt>
      <trkpt lat="47.27424" lon="-2.33221">
        <ele>23.200000762939</ele>
        <time>2020-10-15T07:33:05.000Z</time>
      </trkpt>
      <trkpt lat="47.27414" lon="-2.33255">
        <ele>23.200000762939</ele>
        <time>2020-10-15T07:33:10.000Z</time>
      </trkpt>
      <trkpt lat="47.27406" lon="-2.33286">
        <ele>23.60000038147</ele>
        <time>2020-10-15T07:33:14.000Z</time>
      </trkpt>
      <trkpt lat="47.27404" lon="-2.33294">
        <ele>24</ele>
        <time>2020-10-15T07:33:15.000Z</time>
      </trkpt>
      <trkpt lat="47.27402" lon="-2.33302">
        <ele>24.39999961853</ele>
        <time>2020-10-15T07:33:16.000Z</time>
      </trkpt>
      <trkpt lat="47.27401" lon="-2.3331">
        <ele>24.799999237061</ele>
        <time>2020-10-15T07:33:17.000Z</time>
      </trkpt>
      <trkpt lat="47.27401" lon="-2.33319">
        <ele>25.200000762939</ele>
        <time>2020-10-15T07:33:18.000Z</time>
      </trkpt>
      <trkpt lat="47.27404" lon="-2.33345">
        <ele>25.200000762939</ele>
        <time>2020-10-15T07:33:21.000Z</time>
      </trkpt>
      <trkpt lat="47.27409" lon="-2.33361">
        <ele>25.200000762939</ele>
        <time>2020-10-15T07:33:23.000Z</time>
      </trkpt>
      <trkpt lat="47.27415" lon="-2.33386">
        <ele>25.200000762939</ele>
        <time>2020-10-15T07:33:26.000Z</time>
      </trkpt>
      <trkpt lat="47.27432" lon="-2.3343">
        <ele>25.200000762939</ele>
        <time>2020-10-15T07:33:32.000Z</time>
      </trkpt>
      <trkpt lat="47.2745" lon="-2.33446">
        <ele>25.200000762939</ele>
        <time>2020-10-15T07:33:36.000Z</time>
      </trkpt>
      <trkpt lat="47.27455" lon="-2.33448">
        <ele>25.200000762939</ele>
        <time>2020-10-15T07:33:37.000Z</time>
      </trkpt>
      <trkpt lat="47.27465" lon="-2.33453">
        <ele>25.200000762939</ele>
        <time>2020-10-15T07:33:39.000Z</time>
      </trkpt>
      <trkpt lat="47.27472" lon="-2.33465">
        <ele>25.200000762939</ele>
        <time>2020-10-15T07:33:41.000Z</time>
      </trkpt>
      <trkpt lat="47.27488" lon="-2.33481">
        <ele>25.200000762939</ele>
        <time>2020-10-15T07:33:45.000Z</time>
      </trkpt>
      <trkpt lat="47.27492" lon="-2.33483">
        <ele>25.200000762939</ele>
        <time>2020-10-15T07:33:46.000Z</time>
      </trkpt>
      <trkpt lat="47.27517" lon="-2.33491">
        <ele>25.200000762939</ele>
        <time>2020-10-15T07:33:52.000Z</time>
      </trkpt>
      <trkpt lat="47.27543" lon="-2.33502">
        <ele>25.200000762939</ele>
        <time>2020-10-15T07:33:59.000Z</time>
      </trkpt>
      <trkpt lat="47.2755" lon="-2.33509">
        <ele>25.200000762939</ele>
        <time>2020-10-15T07:34:02.000Z</time>
      </trkpt>
      <trkpt lat="47.27551" lon="-2.33513">
        <ele>25.200000762939</ele>
        <time>2020-10-15T07:34:03.000Z</time>
      </trkpt>
      <trkpt lat="47.27549" lon="-2.33531">
        <ele>25.200000762939</ele>
        <time>2020-10-15T07:34:07.000Z</time>
      </trkpt>
      <trkpt lat="47.27545" lon="-2.33546">
        <ele>25.200000762939</ele>
        <time>2020-10-15T07:34:10.000Z</time>
      </trkpt>
      <trkpt lat="47.27542" lon="-2.33557">
        <ele>25.200000762939</ele>
        <time>2020-10-15T07:34:12.000Z</time>
      </trkpt>
      <trkpt lat="47.2754" lon="-2.33574">
        <ele>25.200000762939</ele>
        <time>2020-10-15T07:34:15.000Z</time>
      </trkpt>
      <trkpt lat="47.27538" lon="-2.33591">
        <ele>25.200000762939</ele>
        <time>2020-10-15T07:34:18.000Z</time>
      </trkpt>
      <trkpt lat="47.27536" lon="-2.33603">
        <ele>25.200000762939</ele>
        <time>2020-10-15T07:34:20.000Z</time>
      </trkpt>
      <trkpt lat="47.27534" lon="-2.33627">
        <ele>25.60000038147</ele>
        <time>2020-10-15T07:34:24.000Z</time>
      </trkpt>
      <trkpt lat="47.27534" lon="-2.33634">
        <ele>26</ele>
        <time>2020-10-15T07:34:25.000Z</time>
      </trkpt>
      <trkpt lat="47.27534" lon="-2.33641">
        <ele>26.39999961853</ele>
        <time>2020-10-15T07:34:26.000Z</time>
      </trkpt>
      <trkpt lat="47.27534" lon="-2.33647">
        <ele>26.799999237061</ele>
        <time>2020-10-15T07:34:27.000Z</time>
      </trkpt>
      <trkpt lat="47.27534" lon="-2.33654">
        <ele>27.200000762939</ele>
        <time>2020-10-15T07:34:28.000Z</time>
      </trkpt>
      <trkpt lat="47.27535" lon="-2.33661">
        <ele>27.200000762939</ele>
        <time>2020-10-15T07:34:29.000Z</time>
      </trkpt>
      <trkpt lat="47.27536" lon="-2.33667">
        <ele>27.200000762939</ele>
        <time>2020-10-15T07:34:30.000Z</time>
      </trkpt>
      <trkpt lat="47.27545" lon="-2.33706">
        <ele>27.200000762939</ele>
        <time>2020-10-15T07:34:36.000Z</time>
      </trkpt>
      <trkpt lat="47.27563" lon="-2.33769">
        <ele>27.200000762939</ele>
        <time>2020-10-15T07:34:45.000Z</time>
      </trkpt>
      <trkpt lat="47.27575" lon="-2.33812">
        <ele>27.200000762939</ele>
        <time>2020-10-15T07:34:52.000Z</time>
      </trkpt>
      <trkpt lat="47.27581" lon="-2.3384">
        <ele>27.200000762939</ele>
        <time>2020-10-15T07:34:57.000Z</time>
      </trkpt>
      <trkpt lat="47.27584" lon="-2.33853">
        <ele>27.200000762939</ele>
        <time>2020-10-15T07:34:59.000Z</time>
      </trkpt>
      <trkpt lat="47.27588" lon="-2.33873">
        <ele>26.799999237061</ele>
        <time>2020-10-15T07:35:02.000Z</time>
      </trkpt>
      <trkpt lat="47.27589" lon="-2.33879">
        <ele>26.39999961853</ele>
        <time>2020-10-15T07:35:03.000Z</time>
      </trkpt>
      <trkpt lat="47.2759" lon="-2.33886">
        <ele>26</ele>
        <time>2020-10-15T07:35:04.000Z</time>
      </trkpt>
      <trkpt lat="47.27591" lon="-2.33894">
        <ele>25.60000038147</ele>
        <time>2020-10-15T07:35:05.000Z</time>
      </trkpt>
      <trkpt lat="47.27591" lon="-2.33901">
        <ele>25.200000762939</ele>
        <time>2020-10-15T07:35:06.000Z</time>
      </trkpt>
      <trkpt lat="47.27595" lon="-2.33931">
        <ele>25.200000762939</ele>
        <time>2020-10-15T07:35:10.000Z</time>
      </trkpt>
      <trkpt lat="47.27596" lon="-2.33968">
        <ele>25.200000762939</ele>
        <time>2020-10-15T07:35:15.000Z</time>
      </trkpt>
      <trkpt lat="47.27595" lon="-2.33975">
        <ele>25.200000762939</ele>
        <time>2020-10-15T07:35:16.000Z</time>
      </trkpt>
      <trkpt lat="47.27585" lon="-2.34007">
        <ele>25.200000762939</ele>
        <time>2020-10-15T07:35:21.000Z</time>
      </trkpt>
      <trkpt lat="47.27575" lon="-2.34018">
        <ele>25.200000762939</ele>
        <time>2020-10-15T07:35:24.000Z</time>
      </trkpt>
      <trkpt lat="47.27572" lon="-2.34022">
        <ele>25.200000762939</ele>
        <time>2020-10-15T07:35:25.000Z</time>
      </trkpt>
      <trkpt lat="47.27566" lon="-2.34031">
        <ele>25.200000762939</ele>
        <time>2020-10-15T07:35:27.000Z</time>
      </trkpt>
      <trkpt lat="47.27559" lon="-2.34041">
        <ele>25.200000762939</ele>
        <time>2020-10-15T07:35:29.000Z</time>
      </trkpt>
      <trkpt lat="47.27545" lon="-2.34054">
        <ele>25.200000762939</ele>
        <time>2020-10-15T07:35:32.000Z</time>
      </trkpt>
      <trkpt lat="47.27541" lon="-2.34058">
        <ele>24.799999237061</ele>
        <time>2020-10-15T07:35:33.000Z</time>
      </trkpt>
      <trkpt lat="47.27536" lon="-2.34062">
        <ele>24.39999961853</ele>
        <time>2020-10-15T07:35:34.000Z</time>
      </trkpt>
      <trkpt lat="47.27533" lon="-2.34068">
        <ele>23.799999237061</ele>
        <time>2020-10-15T07:35:35.000Z</time>
      </trkpt>
      <trkpt lat="47.2753" lon="-2.34075">
        <ele>23.39999961853</ele>
        <time>2020-10-15T07:35:36.000Z</time>
      </trkpt>
      <trkpt lat="47.27529" lon="-2.3408">
        <ele>23</ele>
        <time>2020-10-15T07:35:37.000Z</time>
      </trkpt>
      <trkpt lat="47.27529" lon="-2.34085">
        <ele>23</ele>
        <time>2020-10-15T07:35:38.000Z</time>
      </trkpt>
      <trkpt lat="47.27532" lon="-2.34111">
        <ele>23</ele>
        <time>2020-10-15T07:35:42.000Z</time>
      </trkpt>
      <trkpt lat="47.27534" lon="-2.34117">
        <ele>23</ele>
        <time>2020-10-15T07:35:43.000Z</time>
      </trkpt>
      <trkpt lat="47.27546" lon="-2.34153">
        <ele>23</ele>
        <time>2020-10-15T07:35:49.000Z</time>
      </trkpt>
      <trkpt lat="47.27556" lon="-2.34182">
        <ele>23</ele>
        <time>2020-10-15T07:35:55.000Z</time>
      </trkpt>
      <trkpt lat="47.27556" lon="-2.34188">
        <ele>23</ele>
        <time>2020-10-15T07:35:57.000Z</time>
      </trkpt>
      <trkpt lat="47.27554" lon="-2.3419">
        <ele>23</ele>
        <time>2020-10-15T07:35:58.000Z</time>
      </trkpt>
      <trkpt lat="47.27545" lon="-2.34197">
        <ele>23</ele>
        <time>2020-10-15T07:36:01.000Z</time>
      </trkpt>
      <trkpt lat="47.27541" lon="-2.342">
        <ele>23</ele>
        <time>2020-10-15T07:36:02.000Z</time>
      </trkpt>
      <trkpt lat="47.27527" lon="-2.34205">
        <ele>23</ele>
        <time>2020-10-15T07:36:05.000Z</time>
      </trkpt>
      <trkpt lat="47.27512" lon="-2.3421">
        <ele>23</ele>
        <time>2020-10-15T07:36:08.000Z</time>
      </trkpt>
      <trkpt lat="47.27475" lon="-2.34221">
        <ele>22.60000038147</ele>
        <time>2020-10-15T07:36:15.000Z</time>
      </trkpt>
      <trkpt lat="47.2747" lon="-2.34221">
        <ele>22.200000762939</ele>
        <time>2020-10-15T07:36:16.000Z</time>
      </trkpt>
      <trkpt lat="47.27464" lon="-2.34222">
        <ele>21.799999237061</ele>
        <time>2020-10-15T07:36:17.000Z</time>
      </trkpt>
      <trkpt lat="47.27459" lon="-2.34223">
        <ele>21.39999961853</ele>
        <time>2020-10-15T07:36:18.000Z</time>
      </trkpt>
      <trkpt lat="47.27454" lon="-2.34224">
        <ele>21</ele>
        <time>2020-10-15T07:36:19.000Z</time>
      </trkpt>
      <trkpt lat="47.27436" lon="-2.3423">
        <ele>21</ele>
        <time>2020-10-15T07:36:22.000Z</time>
      </trkpt>
      <trkpt lat="47.27425" lon="-2.34234">
        <ele>21</ele>
        <time>2020-10-15T07:36:24.000Z</time>
      </trkpt>
      <trkpt lat="47.27417" lon="-2.34241">
        <ele>21</ele>
        <time>2020-10-15T07:36:26.000Z</time>
      </trkpt>
      <trkpt lat="47.27415" lon="-2.34262">
        <ele>21</ele>
        <time>2020-10-15T07:36:29.000Z</time>
      </trkpt>
      <trkpt lat="47.27416" lon="-2.34269">
        <ele>21</ele>
        <time>2020-10-15T07:36:30.000Z</time>
      </trkpt>
      <trkpt lat="47.27416" lon="-2.34277">
        <ele>21</ele>
        <time>2020-10-15T07:36:31.000Z</time>
      </trkpt>
      <trkpt lat="47.27416" lon="-2.34305">
        <ele>21</ele>
        <time>2020-10-15T07:36:35.000Z</time>
      </trkpt>
      <trkpt lat="47.27416" lon="-2.34334">
        <ele>21</ele>
        <time>2020-10-15T07:36:39.000Z</time>
      </trkpt>
      <trkpt lat="47.27417" lon="-2.34349">
        <ele>21</ele>
        <time>2020-10-15T07:36:41.000Z</time>
      </trkpt>
      <trkpt lat="47.27418" lon="-2.34364">
        <ele>21</ele>
        <time>2020-10-15T07:36:43.000Z</time>
      </trkpt>
      <trkpt lat="47.27422" lon="-2.34392">
        <ele>21</ele>
        <time>2020-10-15T07:36:47.000Z</time>
      </trkpt>
      <trkpt lat="47.27426" lon="-2.34452">
        <ele>21</ele>
        <time>2020-10-15T07:36:55.000Z</time>
      </trkpt>
      <trkpt lat="47.27432" lon="-2.34496">
        <ele>21.39999961853</ele>
        <time>2020-10-15T07:37:01.000Z</time>
      </trkpt>
      <trkpt lat="47.27433" lon="-2.34503">
        <ele>21.799999237061</ele>
        <time>2020-10-15T07:37:02.000Z</time>
      </trkpt>
      <trkpt lat="47.27434" lon="-2.34511">
        <ele>22.60000038147</ele>
        <time>2020-10-15T07:37:03.000Z</time>
      </trkpt>
      <trkpt lat="47.27436" lon="-2.34518">
        <ele>23</ele>
        <time>2020-10-15T07:37:04.000Z</time>
      </trkpt>
      <trkpt lat="47.27442" lon="-2.34545">
        <ele>23</ele>
        <time>2020-10-15T07:37:08.000Z</time>
      </trkpt>
      <trkpt lat="47.27453" lon="-2.34595">
        <ele>23</ele>
        <time>2020-10-15T07:37:15.000Z</time>
      </trkpt>
      <trkpt lat="47.27458" lon="-2.3465">
        <ele>23</ele>
        <time>2020-10-15T07:37:22.000Z</time>
      </trkpt>
      <trkpt lat="47.2746" lon="-2.34697">
        <ele>23</ele>
        <time>2020-10-15T07:37:28.000Z</time>
      </trkpt>
      <trkpt lat="47.27458" lon="-2.34756">
        <ele>23</ele>
        <time>2020-10-15T07:37:35.000Z</time>
      </trkpt>
      <trkpt lat="47.27461" lon="-2.34814">
        <ele>23</ele>
        <time>2020-10-15T07:37:41.000Z</time>
      </trkpt>
      <trkpt lat="47.27462" lon="-2.34833">
        <ele>22.60000038147</ele>
        <time>2020-10-15T07:37:43.000Z</time>
      </trkpt>
      <trkpt lat="47.27462" lon="-2.34843">
        <ele>22.200000762939</ele>
        <time>2020-10-15T07:37:44.000Z</time>
      </trkpt>
      <trkpt lat="47.27462" lon="-2.34853">
        <ele>21.799999237061</ele>
        <time>2020-10-15T07:37:45.000Z</time>
      </trkpt>
      <trkpt lat="47.27462" lon="-2.34864">
        <ele>21.39999961853</ele>
        <time>2020-10-15T07:37:46.000Z</time>
      </trkpt>
      <trkpt lat="47.27461" lon="-2.34874">
        <ele>20.799999237061</ele>
        <time>2020-10-15T07:37:47.000Z</time>
      </trkpt>
      <trkpt lat="47.27461" lon="-2.34885">
        <ele>20.799999237061</ele>
        <time>2020-10-15T07:37:48.000Z</time>
      </trkpt>
      <trkpt lat="47.27461" lon="-2.34895">
        <ele>20.799999237061</ele>
        <time>2020-10-15T07:37:49.000Z</time>
      </trkpt>
      <trkpt lat="47.27465" lon="-2.34913">
        <ele>20.799999237061</ele>
        <time>2020-10-15T07:37:51.000Z</time>
      </trkpt>
      <trkpt lat="47.27481" lon="-2.34919">
        <ele>20.799999237061</ele>
        <time>2020-10-15T07:37:54.000Z</time>
      </trkpt>
      <trkpt lat="47.27488" lon="-2.34918">
        <ele>20.799999237061</ele>
        <time>2020-10-15T07:37:55.000Z</time>
      </trkpt>
      <trkpt lat="47.27519" lon="-2.34905">
        <ele>20.799999237061</ele>
        <time>2020-10-15T07:38:00.000Z</time>
      </trkpt>
      <trkpt lat="47.27525" lon="-2.34902">
        <ele>20.799999237061</ele>
        <time>2020-10-15T07:38:01.000Z</time>
      </trkpt>
      <trkpt lat="47.27545" lon="-2.34902">
        <ele>20.799999237061</ele>
        <time>2020-10-15T07:38:04.000Z</time>
      </trkpt>
      <trkpt lat="47.27552" lon="-2.34904">
        <ele>20.799999237061</ele>
        <time>2020-10-15T07:38:05.000Z</time>
      </trkpt>
      <trkpt lat="47.27591" lon="-2.34909">
        <ele>20.799999237061</ele>
        <time>2020-10-15T07:38:11.000Z</time>
      </trkpt>
      <trkpt lat="47.27619" lon="-2.34915">
        <ele>20.799999237061</ele>
        <time>2020-10-15T07:38:16.000Z</time>
      </trkpt>
      <trkpt lat="47.27648" lon="-2.34913">
        <ele>20.799999237061</ele>
        <time>2020-10-15T07:38:22.000Z</time>
      </trkpt>
      <trkpt lat="47.27667" lon="-2.34911">
        <ele>20.799999237061</ele>
        <time>2020-10-15T07:38:26.000Z</time>
      </trkpt>
      <trkpt lat="47.27676" lon="-2.34917">
        <ele>20.799999237061</ele>
        <time>2020-10-15T07:38:28.000Z</time>
      </trkpt>
      <trkpt lat="47.27683" lon="-2.34938">
        <ele>20.799999237061</ele>
        <time>2020-10-15T07:38:31.000Z</time>
      </trkpt>
      <trkpt lat="47.27684" lon="-2.34972">
        <ele>20.799999237061</ele>
        <time>2020-10-15T07:38:35.000Z</time>
      </trkpt>
      <trkpt lat="47.27684" lon="-2.34981">
        <ele>20.799999237061</ele>
        <time>2020-10-15T07:38:36.000Z</time>
      </trkpt>
      <trkpt lat="47.27685" lon="-2.35007">
        <ele>20.39999961853</ele>
        <time>2020-10-15T07:38:39.000Z</time>
      </trkpt>
      <trkpt lat="47.27685" lon="-2.35016">
        <ele>20</ele>
        <time>2020-10-15T07:38:40.000Z</time>
      </trkpt>
      <trkpt lat="47.27687" lon="-2.35025">
        <ele>19.60000038147</ele>
        <time>2020-10-15T07:38:41.000Z</time>
      </trkpt>
      <trkpt lat="47.27689" lon="-2.35033">
        <ele>18.799999237061</ele>
        <time>2020-10-15T07:38:42.000Z</time>
      </trkpt>
      <trkpt lat="47.27699" lon="-2.3504">
        <ele>18.799999237061</ele>
        <time>2020-10-15T07:38:44.000Z</time>
      </trkpt>
      <trkpt lat="47.27715" lon="-2.35037">
        <ele>18.799999237061</ele>
        <time>2020-10-15T07:38:47.000Z</time>
      </trkpt>
      <trkpt lat="47.2775" lon="-2.35029">
        <ele>18.39999961853</ele>
        <time>2020-10-15T07:38:53.000Z</time>
      </trkpt>
      <trkpt lat="47.27753" lon="-2.35028">
        <ele>18</ele>
        <time>2020-10-15T07:38:54.000Z</time>
      </trkpt>
      <trkpt lat="47.27756" lon="-2.35027">
        <ele>17.60000038147</ele>
        <time>2020-10-15T07:38:55.000Z</time>
      </trkpt>
      <trkpt lat="47.27759" lon="-2.35027">
        <ele>17.200000762939</ele>
        <time>2020-10-15T07:38:56.000Z</time>
      </trkpt>
      <trkpt lat="47.27761" lon="-2.35028">
        <ele>16.799999237061</ele>
        <time>2020-10-15T07:38:57.000Z</time>
      </trkpt>
      <trkpt lat="47.27762" lon="-2.3503">
        <ele>16.799999237061</ele>
        <time>2020-10-15T07:38:58.000Z</time>
      </trkpt>
      <trkpt lat="47.27765" lon="-2.35044">
        <ele>16.799999237061</ele>
        <time>2020-10-15T07:39:01.000Z</time>
      </trkpt>
      <trkpt lat="47.27765" lon="-2.3505">
        <ele>16.39999961853</ele>
        <time>2020-10-15T07:39:02.000Z</time>
      </trkpt>
      <trkpt lat="47.27767" lon="-2.35056">
        <ele>16</ele>
        <time>2020-10-15T07:39:03.000Z</time>
      </trkpt>
      <trkpt lat="47.27769" lon="-2.35059">
        <ele>15.60000038147</ele>
        <time>2020-10-15T07:39:04.000Z</time>
      </trkpt>
      <trkpt lat="47.27773" lon="-2.35061">
        <ele>15</ele>
        <time>2020-10-15T07:39:05.000Z</time>
      </trkpt>
      <trkpt lat="47.27777" lon="-2.3506">
        <ele>14.60000038147</ele>
        <time>2020-10-15T07:39:06.000Z</time>
      </trkpt>
      <trkpt lat="47.27789" lon="-2.35058">
        <ele>14.60000038147</ele>
        <time>2020-10-15T07:39:09.000Z</time>
      </trkpt>
      <trkpt lat="47.27811" lon="-2.35051">
        <ele>14.60000038147</ele>
        <time>2020-10-15T07:39:14.000Z</time>
      </trkpt>
      <trkpt lat="47.27827" lon="-2.35045">
        <ele>15.199999809265</ele>
        <time>2020-10-15T07:39:18.000Z</time>
      </trkpt>
      <trkpt lat="47.27831" lon="-2.35042">
        <ele>15.60000038147</ele>
        <time>2020-10-15T07:39:19.000Z</time>
      </trkpt>
      <trkpt lat="47.27834" lon="-2.3504">
        <ele>16</ele>
        <time>2020-10-15T07:39:20.000Z</time>
      </trkpt>
      <trkpt lat="47.27836" lon="-2.35038">
        <ele>16.39999961853</ele>
        <time>2020-10-15T07:39:21.000Z</time>
      </trkpt>
      <trkpt lat="47.27838" lon="-2.35037">
        <ele>16.799999237061</ele>
        <time>2020-10-15T07:39:22.000Z</time>
      </trkpt>
      <trkpt lat="47.27845" lon="-2.35032">
        <ele>16.799999237061</ele>
        <time>2020-10-15T07:39:26.000Z</time>
      </trkpt>
      <trkpt lat="47.27848" lon="-2.35032">
        <ele>16.799999237061</ele>
        <time>2020-10-15T07:39:28.000Z</time>
      </trkpt>
      <trkpt lat="47.2785" lon="-2.35035">
        <ele>16.799999237061</ele>
        <time>2020-10-15T07:39:30.000Z</time>
      </trkpt>
      <trkpt lat="47.27855" lon="-2.35041">
        <ele>16.799999237061</ele>
        <time>2020-10-15T07:39:33.000Z</time>
      </trkpt>
      <trkpt lat="47.27856" lon="-2.35044">
        <ele>16.799999237061</ele>
        <time>2020-10-15T07:39:34.000Z</time>
      </trkpt>
      <trkpt lat="47.27864" lon="-2.35067">
        <ele>16.799999237061</ele>
        <time>2020-10-15T07:39:40.000Z</time>
      </trkpt>
      <trkpt lat="47.27875" lon="-2.35065">
        <ele>16.799999237061</ele>
        <time>2020-10-15T07:39:43.000Z</time>
      </trkpt>
      <trkpt lat="47.27879" lon="-2.35062">
        <ele>16.799999237061</ele>
        <time>2020-10-15T07:39:44.000Z</time>
      </trkpt>
      <trkpt lat="47.27895" lon="-2.35054">
        <ele>16.799999237061</ele>
        <time>2020-10-15T07:39:48.000Z</time>
      </trkpt>
      <trkpt lat="47.27899" lon="-2.35055">
        <ele>16.799999237061</ele>
        <time>2020-10-15T07:39:49.000Z</time>
      </trkpt>
      <trkpt lat="47.27907" lon="-2.35071">
        <ele>16.799999237061</ele>
        <time>2020-10-15T07:39:52.000Z</time>
      </trkpt>
      <trkpt lat="47.27908" lon="-2.35078">
        <ele>16.799999237061</ele>
        <time>2020-10-15T07:39:53.000Z</time>
      </trkpt>
      <trkpt lat="47.27909" lon="-2.35085">
        <ele>16.799999237061</ele>
        <time>2020-10-15T07:39:54.000Z</time>
      </trkpt>
      <trkpt lat="47.27909" lon="-2.35109">
        <ele>16.799999237061</ele>
        <time>2020-10-15T07:39:57.000Z</time>
      </trkpt>
      <trkpt lat="47.27912" lon="-2.35181">
        <ele>16.799999237061</ele>
        <time>2020-10-15T07:40:05.000Z</time>
      </trkpt>
      <trkpt lat="47.2792" lon="-2.35249">
        <ele>16.799999237061</ele>
        <time>2020-10-15T07:40:12.000Z</time>
      </trkpt>
      <trkpt lat="47.27926" lon="-2.3529">
        <ele>16.799999237061</ele>
        <time>2020-10-15T07:40:17.000Z</time>
      </trkpt>
      <trkpt lat="47.27928" lon="-2.35297">
        <ele>16.799999237061</ele>
        <time>2020-10-15T07:40:18.000Z</time>
      </trkpt>
      <trkpt lat="47.27933" lon="-2.35325">
        <ele>16.799999237061</ele>
        <time>2020-10-15T07:40:22.000Z</time>
      </trkpt>
      <trkpt lat="47.27928" lon="-2.35355">
        <ele>16.799999237061</ele>
        <time>2020-10-15T07:40:26.000Z</time>
      </trkpt>
      <trkpt lat="47.2793" lon="-2.35379">
        <ele>16.799999237061</ele>
        <time>2020-10-15T07:40:29.000Z</time>
      </trkpt>
      <trkpt lat="47.27931" lon="-2.35396">
        <ele>16.799999237061</ele>
        <time>2020-10-15T07:40:31.000Z</time>
      </trkpt>
      <trkpt lat="47.27933" lon="-2.35404">
        <ele>16.799999237061</ele>
        <time>2020-10-15T07:40:32.000Z</time>
      </trkpt>
      <trkpt lat="47.27941" lon="-2.35426">
        <ele>16.799999237061</ele>
        <time>2020-10-15T07:40:35.000Z</time>
      </trkpt>
      <trkpt lat="47.27949" lon="-2.35437">
        <ele>16.799999237061</ele>
        <time>2020-10-15T07:40:37.000Z</time>
      </trkpt>
      <trkpt lat="47.27952" lon="-2.35443">
        <ele>16.799999237061</ele>
        <time>2020-10-15T07:40:38.000Z</time>
      </trkpt>
      <trkpt lat="47.27953" lon="-2.3545">
        <ele>16.799999237061</ele>
        <time>2020-10-15T07:40:39.000Z</time>
      </trkpt>
      <trkpt lat="47.27953" lon="-2.35469">
        <ele>16.39999961853</ele>
        <time>2020-10-15T07:40:42.000Z</time>
      </trkpt>
      <trkpt lat="47.27957" lon="-2.35474">
        <ele>16</ele>
        <time>2020-10-15T07:40:43.000Z</time>
      </trkpt>
      <trkpt lat="47.27961" lon="-2.35478">
        <ele>15.60000038147</ele>
        <time>2020-10-15T07:40:44.000Z</time>
      </trkpt>
      <trkpt lat="47.27965" lon="-2.35481">
        <ele>14.800000190735</ele>
        <time>2020-10-15T07:40:45.000Z</time>
      </trkpt>
      <trkpt lat="47.2797" lon="-2.35482">
        <ele>14.800000190735</ele>
        <time>2020-10-15T07:40:46.000Z</time>
      </trkpt>
      <trkpt lat="47.27979" lon="-2.35491">
        <ele>14.800000190735</ele>
        <time>2020-10-15T07:40:49.000Z</time>
      </trkpt>
      <trkpt lat="47.27982" lon="-2.35496">
        <ele>14.800000190735</ele>
        <time>2020-10-15T07:40:50.000Z</time>
      </trkpt>
      <trkpt lat="47.27985" lon="-2.35499">
        <ele>14.800000190735</ele>
        <time>2020-10-15T07:40:51.000Z</time>
      </trkpt>
      <trkpt lat="47.27996" lon="-2.35513">
        <ele>14.800000190735</ele>
        <time>2020-10-15T07:40:54.000Z</time>
      </trkpt>
      <trkpt lat="47.27999" lon="-2.35518">
        <ele>14.800000190735</ele>
        <time>2020-10-15T07:40:55.000Z</time>
      </trkpt>
      <trkpt lat="47.28005" lon="-2.35541">
        <ele>14.800000190735</ele>
        <time>2020-10-15T07:40:59.000Z</time>
      </trkpt>
      <trkpt lat="47.28006" lon="-2.35545">
        <ele>14.800000190735</ele>
        <time>2020-10-15T07:41:00.000Z</time>
      </trkpt>
      <trkpt lat="47.28012" lon="-2.35555">
        <ele>14.800000190735</ele>
        <time>2020-10-15T07:41:04.000Z</time>
      </trkpt>
      <trkpt lat="47.28013" lon="-2.35558">
        <ele>14.800000190735</ele>
        <time>2020-10-15T07:41:05.000Z</time>
      </trkpt>
      <trkpt lat="47.28018" lon="-2.35562">
        <ele>14.800000190735</ele>
        <time>2020-10-15T07:41:07.000Z</time>
      </trkpt>
      <trkpt lat="47.28025" lon="-2.35563">
        <ele>15.60000038147</ele>
        <time>2020-10-15T07:41:09.000Z</time>
      </trkpt>
      <trkpt lat="47.28028" lon="-2.35565">
        <ele>16</ele>
        <time>2020-10-15T07:41:10.000Z</time>
      </trkpt>
      <trkpt lat="47.28032" lon="-2.35566">
        <ele>16.39999961853</ele>
        <time>2020-10-15T07:41:11.000Z</time>
      </trkpt>
      <trkpt lat="47.28035" lon="-2.35569">
        <ele>16.799999237061</ele>
        <time>2020-10-15T07:41:12.000Z</time>
      </trkpt>
      <trkpt lat="47.28039" lon="-2.35571">
        <ele>16.799999237061</ele>
        <time>2020-10-15T07:41:13.000Z</time>
      </trkpt>
      <trkpt lat="47.28048" lon="-2.35576">
        <ele>16.799999237061</ele>
        <time>2020-10-15T07:41:16.000Z</time>
      </trkpt>
      <trkpt lat="47.28065" lon="-2.35582">
        <ele>16.799999237061</ele>
        <time>2020-10-15T07:41:22.000Z</time>
      </trkpt>
      <trkpt lat="47.28074" lon="-2.35592">
        <ele>16.799999237061</ele>
        <time>2020-10-15T07:41:28.000Z</time>
      </trkpt>
      <trkpt lat="47.28075" lon="-2.35593">
        <ele>16.799999237061</ele>
        <time>2020-10-15T07:41:29.000Z</time>
      </trkpt>
      <trkpt lat="47.28079" lon="-2.356">
        <ele>16.799999237061</ele>
        <time>2020-10-15T07:41:33.000Z</time>
      </trkpt>
      <trkpt lat="47.28079" lon="-2.35602">
        <ele>17.60000038147</ele>
        <time>2020-10-15T07:41:34.000Z</time>
      </trkpt>
      <trkpt lat="47.28078" lon="-2.35605">
        <ele>18</ele>
        <time>2020-10-15T07:41:35.000Z</time>
      </trkpt>
      <trkpt lat="47.28078" lon="-2.35609">
        <ele>18.39999961853</ele>
        <time>2020-10-15T07:41:36.000Z</time>
      </trkpt>
      <trkpt lat="47.28078" lon="-2.35613">
        <ele>18.799999237061</ele>
        <time>2020-10-15T07:41:37.000Z</time>
      </trkpt>
      <trkpt lat="47.28081" lon="-2.35637">
        <ele>19.200000762939</ele>
        <time>2020-10-15T07:41:43.000Z</time>
      </trkpt>
      <trkpt lat="47.28082" lon="-2.35639">
        <ele>19.60000038147</ele>
        <time>2020-10-15T07:41:44.000Z</time>
      </trkpt>
      <trkpt lat="47.28082" lon="-2.35642">
        <ele>20</ele>
        <time>2020-10-15T07:41:45.000Z</time>
      </trkpt>
      <trkpt lat="47.28083" lon="-2.35645">
        <ele>20.39999961853</ele>
        <time>2020-10-15T07:41:46.000Z</time>
      </trkpt>
      <trkpt lat="47.28084" lon="-2.35648">
        <ele>20.799999237061</ele>
        <time>2020-10-15T07:41:47.000Z</time>
      </trkpt>
      <trkpt lat="47.28084" lon="-2.35651">
        <ele>20.799999237061</ele>
        <time>2020-10-15T07:41:48.000Z</time>
      </trkpt>
      <trkpt lat="47.28085" lon="-2.35656">
        <ele>21.200000762939</ele>
        <time>2020-10-15T07:41:49.000Z</time>
      </trkpt>
      <trkpt lat="47.28086" lon="-2.35661">
        <ele>21.60000038147</ele>
        <time>2020-10-15T07:41:50.000Z</time>
      </trkpt>
      <trkpt lat="47.28087" lon="-2.35666">
        <ele>22</ele>
        <time>2020-10-15T07:41:51.000Z</time>
      </trkpt>
      <trkpt lat="47.28089" lon="-2.35671">
        <ele>22.39999961853</ele>
        <time>2020-10-15T07:41:52.000Z</time>
      </trkpt>
      <trkpt lat="47.2809" lon="-2.35675">
        <ele>22.799999237061</ele>
        <time>2020-10-15T07:41:53.000Z</time>
      </trkpt>
      <trkpt lat="47.28094" lon="-2.35696">
        <ele>23.200000762939</ele>
        <time>2020-10-15T07:41:59.000Z</time>
      </trkpt>
      <trkpt lat="47.28094" lon="-2.35699">
        <ele>23.60000038147</ele>
        <time>2020-10-15T07:42:00.000Z</time>
      </trkpt>
      <trkpt lat="47.28095" lon="-2.35702">
        <ele>24</ele>
        <time>2020-10-15T07:42:01.000Z</time>
      </trkpt>
      <trkpt lat="47.28095" lon="-2.35705">
        <ele>24.39999961853</ele>
        <time>2020-10-15T07:42:02.000Z</time>
      </trkpt>
      <trkpt lat="47.28095" lon="-2.35709">
        <ele>24.799999237061</ele>
        <time>2020-10-15T07:42:03.000Z</time>
      </trkpt>
      <trkpt lat="47.28095" lon="-2.35712">
        <ele>24.799999237061</ele>
        <time>2020-10-15T07:42:04.000Z</time>
      </trkpt>
      <trkpt lat="47.28092" lon="-2.35734">
        <ele>24.799999237061</ele>
        <time>2020-10-15T07:42:09.000Z</time>
      </trkpt>
      <trkpt lat="47.28091" lon="-2.35754">
        <ele>24.799999237061</ele>
        <time>2020-10-15T07:42:12.000Z</time>
      </trkpt>
      <trkpt lat="47.28088" lon="-2.35762">
        <ele>24.799999237061</ele>
        <time>2020-10-15T07:42:13.000Z</time>
      </trkpt>
      <trkpt lat="47.2808" lon="-2.35787">
        <ele>24.39999961853</ele>
        <time>2020-10-15T07:42:17.000Z</time>
      </trkpt>
      <trkpt lat="47.2808" lon="-2.35794">
        <ele>24</ele>
        <time>2020-10-15T07:42:18.000Z</time>
      </trkpt>
      <trkpt lat="47.28082" lon="-2.35801">
        <ele>23.60000038147</ele>
        <time>2020-10-15T07:42:19.000Z</time>
      </trkpt>
      <trkpt lat="47.28084" lon="-2.35807">
        <ele>23</ele>
        <time>2020-10-15T07:42:20.000Z</time>
      </trkpt>
      <trkpt lat="47.28086" lon="-2.35812">
        <ele>22.60000038147</ele>
        <time>2020-10-15T07:42:21.000Z</time>
      </trkpt>
      <trkpt lat="47.28089" lon="-2.35817">
        <ele>22.60000038147</ele>
        <time>2020-10-15T07:42:22.000Z</time>
      </trkpt>
      <trkpt lat="47.28098" lon="-2.35837">
        <ele>22.60000038147</ele>
        <time>2020-10-15T07:42:25.000Z</time>
      </trkpt>
      <trkpt lat="47.28104" lon="-2.35847">
        <ele>22.60000038147</ele>
        <time>2020-10-15T07:42:27.000Z</time>
      </trkpt>
      <trkpt lat="47.28128" lon="-2.35878">
        <ele>22.60000038147</ele>
        <time>2020-10-15T07:42:33.000Z</time>
      </trkpt>
      <trkpt lat="47.28141" lon="-2.35898">
        <ele>22.60000038147</ele>
        <time>2020-10-15T07:42:38.000Z</time>
      </trkpt>
      <trkpt lat="47.28153" lon="-2.3592">
        <ele>22.60000038147</ele>
        <time>2020-10-15T07:42:43.000Z</time>
      </trkpt>
      <trkpt lat="47.2816" lon="-2.35933">
        <ele>22.60000038147</ele>
        <time>2020-10-15T07:42:45.000Z</time>
      </trkpt>
      <trkpt lat="47.28165" lon="-2.35946">
        <ele>22.200000762939</ele>
        <time>2020-10-15T07:42:47.000Z</time>
      </trkpt>
      <trkpt lat="47.28168" lon="-2.35954">
        <ele>21.39999961853</ele>
        <time>2020-10-15T07:42:48.000Z</time>
      </trkpt>
      <trkpt lat="47.28171" lon="-2.35962">
        <ele>21</ele>
        <time>2020-10-15T07:42:49.000Z</time>
      </trkpt>
      <trkpt lat="47.28174" lon="-2.3597">
        <ele>20.60000038147</ele>
        <time>2020-10-15T07:42:50.000Z</time>
      </trkpt>
      <trkpt lat="47.28185" lon="-2.36002">
        <ele>20.60000038147</ele>
        <time>2020-10-15T07:42:54.000Z</time>
      </trkpt>
      <trkpt lat="47.28191" lon="-2.36016">
        <ele>20</ele>
        <time>2020-10-15T07:42:56.000Z</time>
      </trkpt>
      <trkpt lat="47.28193" lon="-2.36022">
        <ele>19.60000038147</ele>
        <time>2020-10-15T07:42:57.000Z</time>
      </trkpt>
      <trkpt lat="47.28196" lon="-2.36028">
        <ele>19.200000762939</ele>
        <time>2020-10-15T07:42:58.000Z</time>
      </trkpt>
      <trkpt lat="47.28198" lon="-2.36033">
        <ele>18.799999237061</ele>
        <time>2020-10-15T07:42:59.000Z</time>
      </trkpt>
      <trkpt lat="47.282" lon="-2.36039">
        <ele>18.39999961853</ele>
        <time>2020-10-15T07:43:00.000Z</time>
      </trkpt>
      <trkpt lat="47.28213" lon="-2.36068">
        <ele>18.39999961853</ele>
        <time>2020-10-15T07:43:05.000Z</time>
      </trkpt>
      <trkpt lat="47.28215" lon="-2.36073">
        <ele>18.39999961853</ele>
        <time>2020-10-15T07:43:06.000Z</time>
      </trkpt>
      <trkpt lat="47.28223" lon="-2.36093">
        <ele>18.39999961853</ele>
        <time>2020-10-15T07:43:11.000Z</time>
      </trkpt>
      <trkpt lat="47.28226" lon="-2.36102">
        <ele>18.799999237061</ele>
        <time>2020-10-15T07:43:15.000Z</time>
      </trkpt>
      <trkpt lat="47.28227" lon="-2.36105">
        <ele>19.200000762939</ele>
        <time>2020-10-15T07:43:16.000Z</time>
      </trkpt>
      <trkpt lat="47.28228" lon="-2.36107">
        <ele>19.60000038147</ele>
        <time>2020-10-15T07:43:17.000Z</time>
      </trkpt>
      <trkpt lat="47.28229" lon="-2.36109">
        <ele>20</ele>
        <time>2020-10-15T07:43:18.000Z</time>
      </trkpt>
      <trkpt lat="47.2823" lon="-2.36111">
        <ele>20.39999961853</ele>
        <time>2020-10-15T07:43:19.000Z</time>
      </trkpt>
      <trkpt lat="47.28236" lon="-2.36127">
        <ele>20.39999961853</ele>
        <time>2020-10-15T07:43:24.000Z</time>
      </trkpt>
      <trkpt lat="47.28241" lon="-2.3614">
        <ele>20</ele>
        <time>2020-10-15T07:43:27.000Z</time>
      </trkpt>
      <trkpt lat="47.28243" lon="-2.36147">
        <ele>19.60000038147</ele>
        <time>2020-10-15T07:43:28.000Z</time>
      </trkpt>
      <trkpt lat="47.28246" lon="-2.36155">
        <ele>19.200000762939</ele>
        <time>2020-10-15T07:43:29.000Z</time>
      </trkpt>
      <trkpt lat="47.28249" lon="-2.36161">
        <ele>18.799999237061</ele>
        <time>2020-10-15T07:43:30.000Z</time>
      </trkpt>
      <trkpt lat="47.28252" lon="-2.36168">
        <ele>18.39999961853</ele>
        <time>2020-10-15T07:43:31.000Z</time>
      </trkpt>
      <trkpt lat="47.2826" lon="-2.36188">
        <ele>18.39999961853</ele>
        <time>2020-10-15T07:43:34.000Z</time>
      </trkpt>
      <trkpt lat="47.28271" lon="-2.36211">
        <ele>18.39999961853</ele>
        <time>2020-10-15T07:43:37.000Z</time>
      </trkpt>
      <trkpt lat="47.28279" lon="-2.36222">
        <ele>18.39999961853</ele>
        <time>2020-10-15T07:43:39.000Z</time>
      </trkpt>
      <trkpt lat="47.28297" lon="-2.36233">
        <ele>18.39999961853</ele>
        <time>2020-10-15T07:43:43.000Z</time>
      </trkpt>
      <trkpt lat="47.28306" lon="-2.36236">
        <ele>18.39999961853</ele>
        <time>2020-10-15T07:43:45.000Z</time>
      </trkpt>
      <trkpt lat="47.2832" lon="-2.36241">
        <ele>18.39999961853</ele>
        <time>2020-10-15T07:43:49.000Z</time>
      </trkpt>
      <trkpt lat="47.28336" lon="-2.36252">
        <ele>18.39999961853</ele>
        <time>2020-10-15T07:43:54.000Z</time>
      </trkpt>
      <trkpt lat="47.28338" lon="-2.36253">
        <ele>18.799999237061</ele>
        <time>2020-10-15T07:43:55.000Z</time>
      </trkpt>
      <trkpt lat="47.2834" lon="-2.36254">
        <ele>19.200000762939</ele>
        <time>2020-10-15T07:43:56.000Z</time>
      </trkpt>
      <trkpt lat="47.28342" lon="-2.36255">
        <ele>19.60000038147</ele>
        <time>2020-10-15T07:43:57.000Z</time>
      </trkpt>
      <trkpt lat="47.28345" lon="-2.36257">
        <ele>20</ele>
        <time>2020-10-15T07:43:58.000Z</time>
      </trkpt>
      <trkpt lat="47.28347" lon="-2.36259">
        <ele>20.39999961853</ele>
        <time>2020-10-15T07:43:59.000Z</time>
      </trkpt>
      <trkpt lat="47.28349" lon="-2.36261">
        <ele>20.39999961853</ele>
        <time>2020-10-15T07:44:00.000Z</time>
      </trkpt>
      <trkpt lat="47.28353" lon="-2.36265">
        <ele>20.39999961853</ele>
        <time>2020-10-15T07:44:02.000Z</time>
      </trkpt>
      <trkpt lat="47.28355" lon="-2.36273">
        <ele>20.39999961853</ele>
        <time>2020-10-15T07:44:05.000Z</time>
      </trkpt>
      <trkpt lat="47.28354" lon="-2.36289">
        <ele>20.39999961853</ele>
        <time>2020-10-15T07:44:10.000Z</time>
      </trkpt>
      <trkpt lat="47.28355" lon="-2.36292">
        <ele>20.39999961853</ele>
        <time>2020-10-15T07:44:11.000Z</time>
      </trkpt>
      <trkpt lat="47.2836" lon="-2.363">
        <ele>20.799999237061</ele>
        <time>2020-10-15T07:44:14.000Z</time>
      </trkpt>
      <trkpt lat="47.28361" lon="-2.36302">
        <ele>21.200000762939</ele>
        <time>2020-10-15T07:44:15.000Z</time>
      </trkpt>
      <trkpt lat="47.28363" lon="-2.36304">
        <ele>21.60000038147</ele>
        <time>2020-10-15T07:44:16.000Z</time>
      </trkpt>
      <trkpt lat="47.28365" lon="-2.36306">
        <ele>22</ele>
        <time>2020-10-15T07:44:17.000Z</time>
      </trkpt>
      <trkpt lat="47.28366" lon="-2.36307">
        <ele>22.39999961853</ele>
        <time>2020-10-15T07:44:18.000Z</time>
      </trkpt>
      <trkpt lat="47.28376" lon="-2.36315">
        <ele>22.39999961853</ele>
        <time>2020-10-15T07:44:22.000Z</time>
      </trkpt>
      <trkpt lat="47.2838" lon="-2.3632">
        <ele>22.39999961853</ele>
        <time>2020-10-15T07:44:24.000Z</time>
      </trkpt>
      <trkpt lat="47.28388" lon="-2.36326">
        <ele>22.799999237061</ele>
        <time>2020-10-15T07:44:27.000Z</time>
      </trkpt>
      <trkpt lat="47.28391" lon="-2.36329">
        <ele>23.200000762939</ele>
        <time>2020-10-15T07:44:28.000Z</time>
      </trkpt>
      <trkpt lat="47.28393" lon="-2.36331">
        <ele>23.799999237061</ele>
        <time>2020-10-15T07:44:29.000Z</time>
      </trkpt>
      <trkpt lat="47.28395" lon="-2.36334">
        <ele>24.200000762939</ele>
        <time>2020-10-15T07:44:30.000Z</time>
      </trkpt>
      <trkpt lat="47.28398" lon="-2.36337">
        <ele>24.60000038147</ele>
        <time>2020-10-15T07:44:31.000Z</time>
      </trkpt>
      <trkpt lat="47.28412" lon="-2.36352">
        <ele>24.60000038147</ele>
        <time>2020-10-15T07:44:35.000Z</time>
      </trkpt>
      <trkpt lat="47.2843" lon="-2.36365">
        <ele>24.60000038147</ele>
        <time>2020-10-15T07:44:40.000Z</time>
      </trkpt>
      <trkpt lat="47.28446" lon="-2.36382">
        <ele>24.60000038147</ele>
        <time>2020-10-15T07:44:46.000Z</time>
      </trkpt>
      <trkpt lat="47.28455" lon="-2.36391">
        <ele>25.39999961853</ele>
        <time>2020-10-15T07:44:50.000Z</time>
      </trkpt>
      <trkpt lat="47.28458" lon="-2.36396">
        <ele>25.799999237061</ele>
        <time>2020-10-15T07:44:51.000Z</time>
      </trkpt>
      <trkpt lat="47.28461" lon="-2.36401">
        <ele>26.200000762939</ele>
        <time>2020-10-15T07:44:52.000Z</time>
      </trkpt>
      <trkpt lat="47.28463" lon="-2.36404">
        <ele>26.60000038147</ele>
        <time>2020-10-15T07:44:53.000Z</time>
      </trkpt>
      <trkpt lat="47.28474" lon="-2.36417">
        <ele>26.60000038147</ele>
        <time>2020-10-15T07:44:57.000Z</time>
      </trkpt>
      <trkpt lat="47.28488" lon="-2.3643">
        <ele>26.60000038147</ele>
        <time>2020-10-15T07:45:01.000Z</time>
      </trkpt>
      <trkpt lat="47.28504" lon="-2.36446">
        <ele>26.60000038147</ele>
        <time>2020-10-15T07:45:05.000Z</time>
      </trkpt>
      <trkpt lat="47.28507" lon="-2.36449">
        <ele>26.60000038147</ele>
        <time>2020-10-15T07:45:06.000Z</time>
      </trkpt>
      <trkpt lat="47.28512" lon="-2.36461">
        <ele>26.60000038147</ele>
        <time>2020-10-15T07:45:09.000Z</time>
      </trkpt>
      <trkpt lat="47.28515" lon="-2.36484">
        <ele>26.60000038147</ele>
        <time>2020-10-15T07:45:14.000Z</time>
      </trkpt>
      <trkpt lat="47.28516" lon="-2.36493">
        <ele>26.60000038147</ele>
        <time>2020-10-15T07:45:16.000Z</time>
      </trkpt>
      <trkpt lat="47.28513" lon="-2.36504">
        <ele>26.60000038147</ele>
        <time>2020-10-15T07:45:18.000Z</time>
      </trkpt>
      <trkpt lat="47.28507" lon="-2.36514">
        <ele>26.60000038147</ele>
        <time>2020-10-15T07:45:20.000Z</time>
      </trkpt>
      <trkpt lat="47.28498" lon="-2.36524">
        <ele>26.60000038147</ele>
        <time>2020-10-15T07:45:22.000Z</time>
      </trkpt>
      <trkpt lat="47.28484" lon="-2.3654">
        <ele>26.200000762939</ele>
        <time>2020-10-15T07:45:25.000Z</time>
      </trkpt>
      <trkpt lat="47.2848" lon="-2.36546">
        <ele>25.799999237061</ele>
        <time>2020-10-15T07:45:26.000Z</time>
      </trkpt>
      <trkpt lat="47.28475" lon="-2.36552">
        <ele>25.39999961853</ele>
        <time>2020-10-15T07:45:27.000Z</time>
      </trkpt>
      <trkpt lat="47.28471" lon="-2.36558">
        <ele>25</ele>
        <time>2020-10-15T07:45:28.000Z</time>
      </trkpt>
      <trkpt lat="47.28468" lon="-2.36565">
        <ele>24.60000038147</ele>
        <time>2020-10-15T07:45:29.000Z</time>
      </trkpt>
      <trkpt lat="47.28468" lon="-2.3658">
        <ele>24.60000038147</ele>
        <time>2020-10-15T07:45:31.000Z</time>
      </trkpt>
      <trkpt lat="47.28474" lon="-2.36602">
        <ele>24.60000038147</ele>
        <time>2020-10-15T07:45:34.000Z</time>
      </trkpt>
      <trkpt lat="47.28477" lon="-2.36609">
        <ele>24.60000038147</ele>
        <time>2020-10-15T07:45:35.000Z</time>
      </trkpt>
      <trkpt lat="47.28493" lon="-2.36656">
        <ele>24.60000038147</ele>
        <time>2020-10-15T07:45:42.000Z</time>
      </trkpt>
      <trkpt lat="47.285" lon="-2.36668">
        <ele>24.60000038147</ele>
        <time>2020-10-15T07:45:44.000Z</time>
      </trkpt>
      <trkpt lat="47.28511" lon="-2.36682">
        <ele>24.60000038147</ele>
        <time>2020-10-15T07:45:47.000Z</time>
      </trkpt>
      <trkpt lat="47.28522" lon="-2.36701">
        <ele>24.60000038147</ele>
        <time>2020-10-15T07:45:50.000Z</time>
      </trkpt>
      <trkpt lat="47.28526" lon="-2.36708">
        <ele>24.200000762939</ele>
        <time>2020-10-15T07:45:51.000Z</time>
      </trkpt>
      <trkpt lat="47.28531" lon="-2.36716">
        <ele>23.799999237061</ele>
        <time>2020-10-15T07:45:52.000Z</time>
      </trkpt>
      <trkpt lat="47.28535" lon="-2.36724">
        <ele>23.39999961853</ele>
        <time>2020-10-15T07:45:53.000Z</time>
      </trkpt>
      <trkpt lat="47.2854" lon="-2.36733">
        <ele>23</ele>
        <time>2020-10-15T07:45:54.000Z</time>
      </trkpt>
      <trkpt lat="47.28545" lon="-2.36742">
        <ele>22.60000038147</ele>
        <time>2020-10-15T07:45:55.000Z</time>
      </trkpt>
      <trkpt lat="47.28554" lon="-2.3676">
        <ele>22.60000038147</ele>
        <time>2020-10-15T07:45:57.000Z</time>
      </trkpt>
      <trkpt lat="47.2857" lon="-2.36789">
        <ele>22.200000762939</ele>
        <time>2020-10-15T07:46:00.000Z</time>
      </trkpt>
      <trkpt lat="47.28574" lon="-2.36799">
        <ele>21.799999237061</ele>
        <time>2020-10-15T07:46:01.000Z</time>
      </trkpt>
      <trkpt lat="47.28579" lon="-2.36808">
        <ele>21.200000762939</ele>
        <time>2020-10-15T07:46:02.000Z</time>
      </trkpt>
      <trkpt lat="47.28584" lon="-2.36817">
        <ele>20.799999237061</ele>
        <time>2020-10-15T07:46:03.000Z</time>
      </trkpt>
      <trkpt lat="47.28588" lon="-2.36825">
        <ele>20.39999961853</ele>
        <time>2020-10-15T07:46:04.000Z</time>
      </trkpt>
      <trkpt lat="47.28593" lon="-2.36833">
        <ele>20</ele>
        <time>2020-10-15T07:46:05.000Z</time>
      </trkpt>
      <trkpt lat="47.28597" lon="-2.36839">
        <ele>19.60000038147</ele>
        <time>2020-10-15T07:46:06.000Z</time>
      </trkpt>
      <trkpt lat="47.28603" lon="-2.36843">
        <ele>19.200000762939</ele>
        <time>2020-10-15T07:46:07.000Z</time>
      </trkpt>
      <trkpt lat="47.28609" lon="-2.36844">
        <ele>18.799999237061</ele>
        <time>2020-10-15T07:46:08.000Z</time>
      </trkpt>
      <trkpt lat="47.28615" lon="-2.36843">
        <ele>18.39999961853</ele>
        <time>2020-10-15T07:46:09.000Z</time>
      </trkpt>
      <trkpt lat="47.28625" lon="-2.36835">
        <ele>18.39999961853</ele>
        <time>2020-10-15T07:46:11.000Z</time>
      </trkpt>
      <trkpt lat="47.28632" lon="-2.36826">
        <ele>18.39999961853</ele>
        <time>2020-10-15T07:46:13.000Z</time>
      </trkpt>
      <trkpt lat="47.28641" lon="-2.36813">
        <ele>18.39999961853</ele>
        <time>2020-10-15T07:46:16.000Z</time>
      </trkpt>
      <trkpt lat="47.28663" lon="-2.36789">
        <ele>18.39999961853</ele>
        <time>2020-10-15T07:46:22.000Z</time>
      </trkpt>
      <trkpt lat="47.28672" lon="-2.3678">
        <ele>18.39999961853</ele>
        <time>2020-10-15T07:46:26.000Z</time>
      </trkpt>
      <trkpt lat="47.28676" lon="-2.36774">
        <ele>18.799999237061</ele>
        <time>2020-10-15T07:46:29.000Z</time>
      </trkpt>
      <trkpt lat="47.28678" lon="-2.36771">
        <ele>19.200000762939</ele>
        <time>2020-10-15T07:46:30.000Z</time>
      </trkpt>
      <trkpt lat="47.28679" lon="-2.36769">
        <ele>19.60000038147</ele>
        <time>2020-10-15T07:46:31.000Z</time>
      </trkpt>
      <trkpt lat="47.2868" lon="-2.36768">
        <ele>20</ele>
        <time>2020-10-15T07:46:32.000Z</time>
      </trkpt>
      <trkpt lat="47.28681" lon="-2.36766">
        <ele>20.39999961853</ele>
        <time>2020-10-15T07:46:33.000Z</time>
      </trkpt>
      <trkpt lat="47.28687" lon="-2.36761">
        <ele>20.39999961853</ele>
        <time>2020-10-15T07:46:38.000Z</time>
      </trkpt>
      <trkpt lat="47.28689" lon="-2.36756">
        <ele>20.799999237061</ele>
        <time>2020-10-15T07:46:41.000Z</time>
      </trkpt>
      <trkpt lat="47.2869" lon="-2.36755">
        <ele>21.39999961853</ele>
        <time>2020-10-15T07:46:42.000Z</time>
      </trkpt>
      <trkpt lat="47.28691" lon="-2.36755">
        <ele>21.799999237061</ele>
        <time>2020-10-15T07:46:43.000Z</time>
      </trkpt>
      <trkpt lat="47.28691" lon="-2.36754">
        <ele>22.200000762939</ele>
        <time>2020-10-15T07:46:44.000Z</time>
      </trkpt>
      <trkpt lat="47.28697" lon="-2.36748">
        <ele>22.60000038147</ele>
        <time>2020-10-15T07:47:23.000Z</time>
      </trkpt>
      <trkpt lat="47.28701" lon="-2.36742">
        <ele>22.60000038147</ele>
        <time>2020-10-15T07:47:26.000Z</time>
      </trkpt>
      <trkpt lat="47.28707" lon="-2.36728">
        <ele>22.60000038147</ele>
        <time>2020-10-15T07:47:33.000Z</time>
      </trkpt>
      <trkpt lat="47.28712" lon="-2.36718">
        <ele>22.60000038147</ele>
        <time>2020-10-15T07:47:38.000Z</time>
      </trkpt>
      <trkpt lat="47.28715" lon="-2.36712">
        <ele>22.60000038147</ele>
        <time>2020-10-15T07:47:41.000Z</time>
      </trkpt>
      <trkpt lat="47.28718" lon="-2.36704">
        <ele>22.60000038147</ele>
        <time>2020-10-15T07:47:46.000Z</time>
      </trkpt>
      <trkpt lat="47.28723" lon="-2.36695">
        <ele>23.39999961853</ele>
        <time>2020-10-15T07:48:18.000Z</time>
      </trkpt>
      <trkpt lat="47.28725" lon="-2.36692">
        <ele>23.799999237061</ele>
        <time>2020-10-15T07:48:19.000Z</time>
      </trkpt>
      <trkpt lat="47.28727" lon="-2.3669">
        <ele>24.200000762939</ele>
        <time>2020-10-15T07:48:20.000Z</time>
      </trkpt>
      <trkpt lat="47.28729" lon="-2.36687">
        <ele>24.60000038147</ele>
        <time>2020-10-15T07:48:21.000Z</time>
      </trkpt>
      <trkpt lat="47.28736" lon="-2.36678">
        <ele>24.60000038147</ele>
        <time>2020-10-15T07:48:24.000Z</time>
      </trkpt>
      <trkpt lat="47.28741" lon="-2.36667">
        <ele>25</ele>
        <time>2020-10-15T07:48:27.000Z</time>
      </trkpt>
      <trkpt lat="47.28742" lon="-2.36664">
        <ele>25.39999961853</ele>
        <time>2020-10-15T07:48:28.000Z</time>
      </trkpt>
      <trkpt lat="47.28744" lon="-2.36661">
        <ele>25.799999237061</ele>
        <time>2020-10-15T07:48:29.000Z</time>
      </trkpt>
      <trkpt lat="47.28746" lon="-2.36656">
        <ele>26.200000762939</ele>
        <time>2020-10-15T07:48:30.000Z</time>
      </trkpt>
      <trkpt lat="47.28747" lon="-2.36652">
        <ele>26.60000038147</ele>
        <time>2020-10-15T07:48:31.000Z</time>
      </trkpt>
      <trkpt lat="47.28758" lon="-2.36631">
        <ele>27</ele>
        <time>2020-10-15T07:48:37.000Z</time>
      </trkpt>
      <trkpt lat="47.2876" lon="-2.36627">
        <ele>27.39999961853</ele>
        <time>2020-10-15T07:48:38.000Z</time>
      </trkpt>
      <trkpt lat="47.28761" lon="-2.36624">
        <ele>27.799999237061</ele>
        <time>2020-10-15T07:48:39.000Z</time>
      </trkpt>
      <trkpt lat="47.28763" lon="-2.3662">
        <ele>28.200000762939</ele>
        <time>2020-10-15T07:48:40.000Z</time>
      </trkpt>
      <trkpt lat="47.28766" lon="-2.36616">
        <ele>28.60000038147</ele>
        <time>2020-10-15T07:48:41.000Z</time>
      </trkpt>
      <trkpt lat="47.28773" lon="-2.36603">
        <ele>28.60000038147</ele>
        <time>2020-10-15T07:48:45.000Z</time>
      </trkpt>
      <trkpt lat="47.28785" lon="-2.36579">
        <ele>28.60000038147</ele>
        <time>2020-10-15T07:48:52.000Z</time>
      </trkpt>
      <trkpt lat="47.28793" lon="-2.36578">
        <ele>28.60000038147</ele>
        <time>2020-10-15T07:48:57.000Z</time>
      </trkpt>
      <trkpt lat="47.28794" lon="-2.36581">
        <ele>28.60000038147</ele>
        <time>2020-10-15T07:48:58.000Z</time>
      </trkpt>
      <trkpt lat="47.28801" lon="-2.36599">
        <ele>28.60000038147</ele>
        <time>2020-10-15T07:49:02.000Z</time>
      </trkpt>
      <trkpt lat="47.28808" lon="-2.36611">
        <ele>28.60000038147</ele>
        <time>2020-10-15T07:49:04.000Z</time>
      </trkpt>
      <trkpt lat="47.28815" lon="-2.36628">
        <ele>28.60000038147</ele>
        <time>2020-10-15T07:49:07.000Z</time>
      </trkpt>
      <trkpt lat="47.28817" lon="-2.36633">
        <ele>28.200000762939</ele>
        <time>2020-10-15T07:49:08.000Z</time>
      </trkpt>
      <trkpt lat="47.28819" lon="-2.36636">
        <ele>27.799999237061</ele>
        <time>2020-10-15T07:49:09.000Z</time>
      </trkpt>
      <trkpt lat="47.2882" lon="-2.36639">
        <ele>27.200000762939</ele>
        <time>2020-10-15T07:49:10.000Z</time>
      </trkpt>
      <trkpt lat="47.28823" lon="-2.36639">
        <ele>26.799999237061</ele>
        <time>2020-10-15T07:49:11.000Z</time>
      </trkpt>
      <trkpt lat="47.28824" lon="-2.36639">
        <ele>26.39999961853</ele>
        <time>2020-10-15T07:49:12.000Z</time>
      </trkpt>
      <trkpt lat="47.28828" lon="-2.36634">
        <ele>26.39999961853</ele>
        <time>2020-10-15T07:49:15.000Z</time>
      </trkpt>
      <trkpt lat="47.2883" lon="-2.36633">
        <ele>26.39999961853</ele>
        <time>2020-10-15T07:49:16.000Z</time>
      </trkpt>
      <trkpt lat="47.28837" lon="-2.36622">
        <ele>26.39999961853</ele>
        <time>2020-10-15T07:49:21.000Z</time>
      </trkpt>
      <trkpt lat="47.28846" lon="-2.36605">
        <ele>26.39999961853</ele>
        <time>2020-10-15T07:49:26.000Z</time>
      </trkpt>
      <trkpt lat="47.28858" lon="-2.36578">
        <ele>26.39999961853</ele>
        <time>2020-10-15T07:49:32.000Z</time>
      </trkpt>
      <trkpt lat="47.28863" lon="-2.36548">
        <ele>26.39999961853</ele>
        <time>2020-10-15T07:49:37.000Z</time>
      </trkpt>
      <trkpt lat="47.28862" lon="-2.36522">
        <ele>26.39999961853</ele>
        <time>2020-10-15T07:49:42.000Z</time>
      </trkpt>
      <trkpt lat="47.28858" lon="-2.36509">
        <ele>26.799999237061</ele>
        <time>2020-10-15T07:49:46.000Z</time>
      </trkpt>
      <trkpt lat="47.28857" lon="-2.36506">
        <ele>27.60000038147</ele>
        <time>2020-10-15T07:49:47.000Z</time>
      </trkpt>
      <trkpt lat="47.28856" lon="-2.36502">
        <ele>28</ele>
        <time>2020-10-15T07:49:48.000Z</time>
      </trkpt>
      <trkpt lat="47.28855" lon="-2.36498">
        <ele>28.60000038147</ele>
        <time>2020-10-15T07:49:49.000Z</time>
      </trkpt>
      <trkpt lat="47.28853" lon="-2.36478">
        <ele>28.60000038147</ele>
        <time>2020-10-15T07:49:53.000Z</time>
      </trkpt>
      <trkpt lat="47.28852" lon="-2.36461">
        <ele>29</ele>
        <time>2020-10-15T07:49:56.000Z</time>
      </trkpt>
      <trkpt lat="47.28852" lon="-2.36457">
        <ele>29.39999961853</ele>
        <time>2020-10-15T07:49:57.000Z</time>
      </trkpt>
      <trkpt lat="47.28851" lon="-2.36453">
        <ele>29.799999237061</ele>
        <time>2020-10-15T07:49:58.000Z</time>
      </trkpt>
      <trkpt lat="47.2885" lon="-2.36449">
        <ele>30.200000762939</ele>
        <time>2020-10-15T07:49:59.000Z</time>
      </trkpt>
      <trkpt lat="47.28849" lon="-2.36445">
        <ele>30.60000038147</ele>
        <time>2020-10-15T07:50:00.000Z</time>
      </trkpt>
      <trkpt lat="47.28848" lon="-2.3643">
        <ele>31</ele>
        <time>2020-10-15T07:50:05.000Z</time>
      </trkpt>
      <trkpt lat="47.28848" lon="-2.36428">
        <ele>31.60000038147</ele>
        <time>2020-10-15T07:50:06.000Z</time>
      </trkpt>
      <trkpt lat="47.28848" lon="-2.36426">
        <ele>32</ele>
        <time>2020-10-15T07:50:07.000Z</time>
      </trkpt>
      <trkpt lat="47.28849" lon="-2.36424">
        <ele>32.400001525879</ele>
        <time>2020-10-15T07:50:08.000Z</time>
      </trkpt>
      <trkpt lat="47.28849" lon="-2.36422">
        <ele>32.799999237061</ele>
        <time>2020-10-15T07:50:09.000Z</time>
      </trkpt>
      <trkpt lat="47.28853" lon="-2.36416">
        <ele>32.799999237061</ele>
        <time>2020-10-15T07:50:11.000Z</time>
      </trkpt>
      <trkpt lat="47.28857" lon="-2.3641">
        <ele>32.400001525879</ele>
        <time>2020-10-15T07:50:13.000Z</time>
      </trkpt>
      <trkpt lat="47.28859" lon="-2.36406">
        <ele>32</ele>
        <time>2020-10-15T07:50:14.000Z</time>
      </trkpt>
      <trkpt lat="47.28861" lon="-2.36401">
        <ele>31.60000038147</ele>
        <time>2020-10-15T07:50:15.000Z</time>
      </trkpt>
      <trkpt lat="47.28862" lon="-2.36396">
        <ele>31.200000762939</ele>
        <time>2020-10-15T07:50:16.000Z</time>
      </trkpt>
      <trkpt lat="47.28863" lon="-2.3639">
        <ele>30.60000038147</ele>
        <time>2020-10-15T07:50:17.000Z</time>
      </trkpt>
      <trkpt lat="47.28864" lon="-2.36378">
        <ele>30.200000762939</ele>
        <time>2020-10-15T07:50:19.000Z</time>
      </trkpt>
      <trkpt lat="47.28865" lon="-2.36371">
        <ele>29.799999237061</ele>
        <time>2020-10-15T07:50:20.000Z</time>
      </trkpt>
      <trkpt lat="47.28867" lon="-2.36365">
        <ele>29.39999961853</ele>
        <time>2020-10-15T07:50:21.000Z</time>
      </trkpt>
      <trkpt lat="47.28869" lon="-2.36359">
        <ele>29</ele>
        <time>2020-10-15T07:50:22.000Z</time>
      </trkpt>
      <trkpt lat="47.28871" lon="-2.36354">
        <ele>28.39999961853</ele>
        <time>2020-10-15T07:50:23.000Z</time>
      </trkpt>
      <trkpt lat="47.28874" lon="-2.36349">
        <ele>28</ele>
        <time>2020-10-15T07:50:24.000Z</time>
      </trkpt>
      <trkpt lat="47.28878" lon="-2.36343">
        <ele>27.39999961853</ele>
        <time>2020-10-15T07:50:25.000Z</time>
      </trkpt>
      <trkpt lat="47.28884" lon="-2.36341">
        <ele>26.799999237061</ele>
        <time>2020-10-15T07:50:26.000Z</time>
      </trkpt>
      <trkpt lat="47.2889" lon="-2.36342">
        <ele>26.39999961853</ele>
        <time>2020-10-15T07:50:27.000Z</time>
      </trkpt>
      <trkpt lat="47.28903" lon="-2.36349">
        <ele>26.39999961853</ele>
        <time>2020-10-15T07:50:29.000Z</time>
      </trkpt>
      <trkpt lat="47.2891" lon="-2.36353">
        <ele>25.799999237061</ele>
        <time>2020-10-15T07:50:30.000Z</time>
      </trkpt>
      <trkpt lat="47.28917" lon="-2.36357">
        <ele>25.39999961853</ele>
        <time>2020-10-15T07:50:31.000Z</time>
      </trkpt>
      <trkpt lat="47.28924" lon="-2.36361">
        <ele>25</ele>
        <time>2020-10-15T07:50:32.000Z</time>
      </trkpt>
      <trkpt lat="47.28931" lon="-2.36366">
        <ele>24.60000038147</ele>
        <time>2020-10-15T07:50:33.000Z</time>
      </trkpt>
      <trkpt lat="47.28937" lon="-2.36372">
        <ele>24.200000762939</ele>
        <time>2020-10-15T07:50:34.000Z</time>
      </trkpt>
      <trkpt lat="47.28944" lon="-2.36378">
        <ele>23.799999237061</ele>
        <time>2020-10-15T07:50:35.000Z</time>
      </trkpt>
      <trkpt lat="47.28951" lon="-2.36384">
        <ele>23.39999961853</ele>
        <time>2020-10-15T07:50:36.000Z</time>
      </trkpt>
      <trkpt lat="47.28957" lon="-2.36391">
        <ele>22.799999237061</ele>
        <time>2020-10-15T07:50:37.000Z</time>
      </trkpt>
      <trkpt lat="47.28963" lon="-2.36398">
        <ele>22.39999961853</ele>
        <time>2020-10-15T07:50:38.000Z</time>
      </trkpt>
      <trkpt lat="47.28969" lon="-2.36407">
        <ele>22</ele>
        <time>2020-10-15T07:50:39.000Z</time>
      </trkpt>
      <trkpt lat="47.28981" lon="-2.36425">
        <ele>21.60000038147</ele>
        <time>2020-10-15T07:50:41.000Z</time>
      </trkpt>
      <trkpt lat="47.28986" lon="-2.36434">
        <ele>21.200000762939</ele>
        <time>2020-10-15T07:50:42.000Z</time>
      </trkpt>
      <trkpt lat="47.28992" lon="-2.36443">
        <ele>20.799999237061</ele>
        <time>2020-10-15T07:50:43.000Z</time>
      </trkpt>
      <trkpt lat="47.28996" lon="-2.36451">
        <ele>20.200000762939</ele>
        <time>2020-10-15T07:50:44.000Z</time>
      </trkpt>
      <trkpt lat="47.29002" lon="-2.36458">
        <ele>19.799999237061</ele>
        <time>2020-10-15T07:50:45.000Z</time>
      </trkpt>
      <trkpt lat="47.29011" lon="-2.36473">
        <ele>19.799999237061</ele>
        <time>2020-10-15T07:50:47.000Z</time>
      </trkpt>
      <trkpt lat="47.29017" lon="-2.36485">
        <ele>19.799999237061</ele>
        <time>2020-10-15T07:50:49.000Z</time>
      </trkpt>
      <trkpt lat="47.29021" lon="-2.36495">
        <ele>19.799999237061</ele>
        <time>2020-10-15T07:50:51.000Z</time>
      </trkpt>
      <trkpt lat="47.29025" lon="-2.36501">
        <ele>19.799999237061</ele>
        <time>2020-10-15T07:50:55.000Z</time>
      </trkpt>
      <trkpt lat="47.29025" lon="-2.365">
        <ele>19.799999237061</ele>
        <time>2020-10-15T07:50:56.000Z</time>
      </trkpt>
      <trkpt lat="47.29026" lon="-2.36503">
        <ele>19.799999237061</ele>
        <time>2020-10-15T07:51:09.000Z</time>
      </trkpt>
      <trkpt lat="47.29027" lon="-2.36508">
        <ele>19.799999237061</ele>
        <time>2020-10-15T07:51:11.000Z</time>
      </trkpt>
      <trkpt lat="47.29026" lon="-2.36513">
        <ele>19.799999237061</ele>
        <time>2020-10-15T07:51:13.000Z</time>
      </trkpt>
      <trkpt lat="47.29022" lon="-2.36515">
        <ele>19.799999237061</ele>
        <time>2020-10-15T07:51:15.000Z</time>
      </trkpt>
      <trkpt lat="47.29019" lon="-2.36518">
        <ele>19.799999237061</ele>
        <time>2020-10-15T07:51:17.000Z</time>
      </trkpt>
      <trkpt lat="47.2901" lon="-2.36525">
        <ele>19.799999237061</ele>
        <time>2020-10-15T07:51:22.000Z</time>
      </trkpt>
      <trkpt lat="47.28995" lon="-2.36537">
        <ele>19.799999237061</ele>
        <time>2020-10-15T07:51:29.000Z</time>
      </trkpt>
      <trkpt lat="47.28981" lon="-2.3655">
        <ele>19.799999237061</ele>
        <time>2020-10-15T07:51:35.000Z</time>
      </trkpt>
      <trkpt lat="47.2897" lon="-2.36565">
        <ele>19.799999237061</ele>
        <time>2020-10-15T07:51:41.000Z</time>
      </trkpt>
      <trkpt lat="47.28959" lon="-2.36581">
        <ele>19.799999237061</ele>
        <time>2020-10-15T07:51:47.000Z</time>
      </trkpt>
      <trkpt lat="47.28945" lon="-2.36609">
        <ele>19.799999237061</ele>
        <time>2020-10-15T07:51:54.000Z</time>
      </trkpt>
      <trkpt lat="47.28926" lon="-2.36649">
        <ele>19.799999237061</ele>
        <time>2020-10-15T07:52:03.000Z</time>
      </trkpt>
      <trkpt lat="47.28913" lon="-2.36681">
        <ele>19.799999237061</ele>
        <time>2020-10-15T07:52:08.000Z</time>
      </trkpt>
      <trkpt lat="47.28891" lon="-2.36729">
        <ele>19.799999237061</ele>
        <time>2020-10-15T07:52:16.000Z</time>
      </trkpt>
      <trkpt lat="47.28882" lon="-2.36755">
        <ele>19.799999237061</ele>
        <time>2020-10-15T07:52:22.000Z</time>
      </trkpt>
      <trkpt lat="47.28879" lon="-2.36767">
        <ele>19.799999237061</ele>
        <time>2020-10-15T07:52:26.000Z</time>
      </trkpt>
      <trkpt lat="47.28879" lon="-2.36775">
        <ele>19.799999237061</ele>
        <time>2020-10-15T07:52:29.000Z</time>
      </trkpt>
      <trkpt lat="47.2888" lon="-2.36776">
        <ele>19.799999237061</ele>
        <time>2020-10-15T07:52:30.000Z</time>
      </trkpt>
      <trkpt lat="47.28881" lon="-2.36777">
        <ele>19.799999237061</ele>
        <time>2020-10-15T07:52:31.000Z</time>
      </trkpt>
      <trkpt lat="47.28889" lon="-2.36777">
        <ele>19.799999237061</ele>
        <time>2020-10-15T07:52:34.000Z</time>
      </trkpt>
      <trkpt lat="47.28907" lon="-2.36783">
        <ele>19.799999237061</ele>
        <time>2020-10-15T07:52:40.000Z</time>
      </trkpt>
      <trkpt lat="47.28911" lon="-2.36788">
        <ele>20.200000762939</ele>
        <time>2020-10-15T07:52:42.000Z</time>
      </trkpt>
      <trkpt lat="47.28914" lon="-2.3679">
        <ele>20.799999237061</ele>
        <time>2020-10-15T07:52:43.000Z</time>
      </trkpt>
      <trkpt lat="47.28915" lon="-2.36791">
        <ele>21.200000762939</ele>
        <time>2020-10-15T07:52:44.000Z</time>
      </trkpt>
      <trkpt lat="47.28916" lon="-2.36792">
        <ele>21.60000038147</ele>
        <time>2020-10-15T07:52:45.000Z</time>
      </trkpt>
      <trkpt lat="47.28919" lon="-2.36795">
        <ele>22</ele>
        <time>2020-10-15T07:52:46.000Z</time>
      </trkpt>
      <trkpt lat="47.28932" lon="-2.36805">
        <ele>22</ele>
        <time>2020-10-15T07:52:50.000Z</time>
      </trkpt>
      <trkpt lat="47.28938" lon="-2.3681">
        <ele>22.39999961853</ele>
        <time>2020-10-15T07:52:52.000Z</time>
      </trkpt>
      <trkpt lat="47.28941" lon="-2.36813">
        <ele>23</ele>
        <time>2020-10-15T07:52:53.000Z</time>
      </trkpt>
      <trkpt lat="47.28945" lon="-2.36816">
        <ele>23.39999961853</ele>
        <time>2020-10-15T07:52:54.000Z</time>
      </trkpt>
      <trkpt lat="47.28948" lon="-2.36818">
        <ele>23.799999237061</ele>
        <time>2020-10-15T07:52:55.000Z</time>
      </trkpt>
      <trkpt lat="47.28952" lon="-2.36821">
        <ele>24.200000762939</ele>
        <time>2020-10-15T07:52:56.000Z</time>
      </trkpt>
      <trkpt lat="47.28956" lon="-2.36825">
        <ele>24.200000762939</ele>
        <time>2020-10-15T07:52:57.000Z</time>
      </trkpt>
      <trkpt lat="47.2896" lon="-2.36828">
        <ele>24.200000762939</ele>
        <time>2020-10-15T07:52:58.000Z</time>
      </trkpt>
      <trkpt lat="47.28974" lon="-2.36842">
        <ele>24.200000762939</ele>
        <time>2020-10-15T07:53:02.000Z</time>
      </trkpt>
      <trkpt lat="47.28982" lon="-2.3685">
        <ele>24.200000762939</ele>
        <time>2020-10-15T07:53:04.000Z</time>
      </trkpt>
      <trkpt lat="47.29007" lon="-2.36875">
        <ele>24.200000762939</ele>
        <time>2020-10-15T07:53:11.000Z</time>
      </trkpt>
      <trkpt lat="47.2901" lon="-2.36879">
        <ele>24.60000038147</ele>
        <time>2020-10-15T07:53:12.000Z</time>
      </trkpt>
      <trkpt lat="47.29014" lon="-2.36882">
        <ele>25</ele>
        <time>2020-10-15T07:53:13.000Z</time>
      </trkpt>
      <trkpt lat="47.29018" lon="-2.36886">
        <ele>25.39999961853</ele>
        <time>2020-10-15T07:53:14.000Z</time>
      </trkpt>
      <trkpt lat="47.29022" lon="-2.36888">
        <ele>25.799999237061</ele>
        <time>2020-10-15T07:53:15.000Z</time>
      </trkpt>
      <trkpt lat="47.29025" lon="-2.36891">
        <ele>26.200000762939</ele>
        <time>2020-10-15T07:53:16.000Z</time>
      </trkpt>
      <trkpt lat="47.29032" lon="-2.36896">
        <ele>26.200000762939</ele>
        <time>2020-10-15T07:53:18.000Z</time>
      </trkpt>
      <trkpt lat="47.2904" lon="-2.36908">
        <ele>26.200000762939</ele>
        <time>2020-10-15T07:53:23.000Z</time>
      </trkpt>
      <trkpt lat="47.29047" lon="-2.36917">
        <ele>26.200000762939</ele>
        <time>2020-10-15T07:53:29.000Z</time>
      </trkpt>
      <trkpt lat="47.29047" lon="-2.36919">
        <ele>26.60000038147</ele>
        <time>2020-10-15T07:53:30.000Z</time>
      </trkpt>
      <trkpt lat="47.29048" lon="-2.36921">
        <ele>27.39999961853</ele>
        <time>2020-10-15T07:53:31.000Z</time>
      </trkpt>
      <trkpt lat="47.2905" lon="-2.36924">
        <ele>27.799999237061</ele>
        <time>2020-10-15T07:53:32.000Z</time>
      </trkpt>
      <trkpt lat="47.29053" lon="-2.36928">
        <ele>28.200000762939</ele>
        <time>2020-10-15T07:53:33.000Z</time>
      </trkpt>
      <trkpt lat="47.29056" lon="-2.36931">
        <ele>28.200000762939</ele>
        <time>2020-10-15T07:53:34.000Z</time>
      </trkpt>
      <trkpt lat="47.29072" lon="-2.36942">
        <ele>28.200000762939</ele>
        <time>2020-10-15T07:53:39.000Z</time>
      </trkpt>
      <trkpt lat="47.2909" lon="-2.36949">
        <ele>28.200000762939</ele>
        <time>2020-10-15T07:53:44.000Z</time>
      </trkpt>
      <trkpt lat="47.2911" lon="-2.36954">
        <ele>28.200000762939</ele>
        <time>2020-10-15T07:53:50.000Z</time>
      </trkpt>
      <trkpt lat="47.29125" lon="-2.36961">
        <ele>28.200000762939</ele>
        <time>2020-10-15T07:53:55.000Z</time>
      </trkpt>
      <trkpt lat="47.29132" lon="-2.36965">
        <ele>28.799999237061</ele>
        <time>2020-10-15T07:53:57.000Z</time>
      </trkpt>
      <trkpt lat="47.29135" lon="-2.36967">
        <ele>29.200000762939</ele>
        <time>2020-10-15T07:53:58.000Z</time>
      </trkpt>
      <trkpt lat="47.29139" lon="-2.36969">
        <ele>29.60000038147</ele>
        <time>2020-10-15T07:53:59.000Z</time>
      </trkpt>
      <trkpt lat="47.29142" lon="-2.36972">
        <ele>30</ele>
        <time>2020-10-15T07:54:00.000Z</time>
      </trkpt>
      <trkpt lat="47.29145" lon="-2.36976">
        <ele>30.39999961853</ele>
        <time>2020-10-15T07:54:01.000Z</time>
      </trkpt>
      <trkpt lat="47.29173" lon="-2.37011">
        <ele>30.39999961853</ele>
        <time>2020-10-15T07:54:09.000Z</time>
      </trkpt>
      <trkpt lat="47.29198" lon="-2.37045">
        <ele>30.39999961853</ele>
        <time>2020-10-15T07:54:17.000Z</time>
      </trkpt>
      <trkpt lat="47.29212" lon="-2.37062">
        <ele>30.39999961853</ele>
        <time>2020-10-15T07:54:21.000Z</time>
      </trkpt>
      <trkpt lat="47.29223" lon="-2.37074">
        <ele>30.39999961853</ele>
        <time>2020-10-15T07:54:24.000Z</time>
      </trkpt>
      <trkpt lat="47.29247" lon="-2.37101">
        <ele>30.39999961853</ele>
        <time>2020-10-15T07:54:30.000Z</time>
      </trkpt>
      <trkpt lat="47.29281" lon="-2.37138">
        <ele>30.39999961853</ele>
        <time>2020-10-15T07:54:38.000Z</time>
      </trkpt>
      <trkpt lat="47.29315" lon="-2.37175">
        <ele>30.39999961853</ele>
        <time>2020-10-15T07:54:46.000Z</time>
      </trkpt>
      <trkpt lat="47.29345" lon="-2.372">
        <ele>30.39999961853</ele>
        <time>2020-10-15T07:54:52.000Z</time>
      </trkpt>
      <trkpt lat="47.29387" lon="-2.37222">
        <ele>30.39999961853</ele>
        <time>2020-10-15T07:55:00.000Z</time>
      </trkpt>
      <trkpt lat="47.29413" lon="-2.37234">
        <ele>30.39999961853</ele>
        <time>2020-10-15T07:55:05.000Z</time>
      </trkpt>
      <trkpt lat="47.29422" lon="-2.37243">
        <ele>30.39999961853</ele>
        <time>2020-10-15T07:55:07.000Z</time>
      </trkpt>
      <trkpt lat="47.29449" lon="-2.37272">
        <ele>30.39999961853</ele>
        <time>2020-10-15T07:55:14.000Z</time>
      </trkpt>
      <trkpt lat="47.29478" lon="-2.37299">
        <ele>30.39999961853</ele>
        <time>2020-10-15T07:55:22.000Z</time>
      </trkpt>
      <trkpt lat="47.29485" lon="-2.37306">
        <ele>30.39999961853</ele>
        <time>2020-10-15T07:55:24.000Z</time>
      </trkpt>
      <trkpt lat="47.29489" lon="-2.37311">
        <ele>30.799999237061</ele>
        <time>2020-10-15T07:55:25.000Z</time>
      </trkpt>
      <trkpt lat="47.29492" lon="-2.37315">
        <ele>31.39999961853</ele>
        <time>2020-10-15T07:55:26.000Z</time>
      </trkpt>
      <trkpt lat="47.29496" lon="-2.37319">
        <ele>31.799999237061</ele>
        <time>2020-10-15T07:55:27.000Z</time>
      </trkpt>
      <trkpt lat="47.295" lon="-2.37324">
        <ele>32.200000762939</ele>
        <time>2020-10-15T07:55:28.000Z</time>
      </trkpt>
      <trkpt lat="47.29503" lon="-2.37328">
        <ele>32.599998474121</ele>
        <time>2020-10-15T07:55:29.000Z</time>
      </trkpt>
      <trkpt lat="47.29524" lon="-2.37351">
        <ele>32.599998474121</ele>
        <time>2020-10-15T07:55:35.000Z</time>
      </trkpt>
      <trkpt lat="47.29554" lon="-2.37391">
        <ele>32.599998474121</ele>
        <time>2020-10-15T07:55:44.000Z</time>
      </trkpt>
      <trkpt lat="47.29567" lon="-2.3741">
        <ele>33</ele>
        <time>2020-10-15T07:55:48.000Z</time>
      </trkpt>
      <trkpt lat="47.2957" lon="-2.37415">
        <ele>33.400001525879</ele>
        <time>2020-10-15T07:55:49.000Z</time>
      </trkpt>
      <trkpt lat="47.29573" lon="-2.3742">
        <ele>33.799999237061</ele>
        <time>2020-10-15T07:55:50.000Z</time>
      </trkpt>
      <trkpt lat="47.29576" lon="-2.37426">
        <ele>34.200000762939</ele>
        <time>2020-10-15T07:55:51.000Z</time>
      </trkpt>
      <trkpt lat="47.29579" lon="-2.37431">
        <ele>34.599998474121</ele>
        <time>2020-10-15T07:55:52.000Z</time>
      </trkpt>
      <trkpt lat="47.296" lon="-2.37469">
        <ele>34.599998474121</ele>
        <time>2020-10-15T07:55:59.000Z</time>
      </trkpt>
      <trkpt lat="47.29626" lon="-2.37498">
        <ele>34.599998474121</ele>
        <time>2020-10-15T07:56:05.000Z</time>
      </trkpt>
      <trkpt lat="47.29637" lon="-2.37506">
        <ele>34.200000762939</ele>
        <time>2020-10-15T07:56:07.000Z</time>
      </trkpt>
      <trkpt lat="47.29643" lon="-2.3751">
        <ele>33.799999237061</ele>
        <time>2020-10-15T07:56:08.000Z</time>
      </trkpt>
      <trkpt lat="47.29649" lon="-2.37514">
        <ele>33.400001525879</ele>
        <time>2020-10-15T07:56:09.000Z</time>
      </trkpt>
      <trkpt lat="47.29656" lon="-2.37518">
        <ele>33</ele>
        <time>2020-10-15T07:56:10.000Z</time>
      </trkpt>
      <trkpt lat="47.29662" lon="-2.37522">
        <ele>32.400001525879</ele>
        <time>2020-10-15T07:56:11.000Z</time>
      </trkpt>
      <trkpt lat="47.29695" lon="-2.37548">
        <ele>32.400001525879</ele>
        <time>2020-10-15T07:56:17.000Z</time>
      </trkpt>
      <trkpt lat="47.29719" lon="-2.37574">
        <ele>32.400001525879</ele>
        <time>2020-10-15T07:56:23.000Z</time>
      </trkpt>
      <trkpt lat="47.29749" lon="-2.37614">
        <ele>32.400001525879</ele>
        <time>2020-10-15T07:56:32.000Z</time>
      </trkpt>
      <trkpt lat="47.29758" lon="-2.37626">
        <ele>32.799999237061</ele>
        <time>2020-10-15T07:56:35.000Z</time>
      </trkpt>
      <trkpt lat="47.29761" lon="-2.37631">
        <ele>33.200000762939</ele>
        <time>2020-10-15T07:56:36.000Z</time>
      </trkpt>
      <trkpt lat="47.29764" lon="-2.37635">
        <ele>33.599998474121</ele>
        <time>2020-10-15T07:56:37.000Z</time>
      </trkpt>
      <trkpt lat="47.29768" lon="-2.37639">
        <ele>34</ele>
        <time>2020-10-15T07:56:38.000Z</time>
      </trkpt>
      <trkpt lat="47.29771" lon="-2.37644">
        <ele>34.400001525879</ele>
        <time>2020-10-15T07:56:39.000Z</time>
      </trkpt>
      <trkpt lat="47.2978" lon="-2.37656">
        <ele>34.400001525879</ele>
        <time>2020-10-15T07:56:42.000Z</time>
      </trkpt>
      <trkpt lat="47.298" lon="-2.37688">
        <ele>34.400001525879</ele>
        <time>2020-10-15T07:56:49.000Z</time>
      </trkpt>
      <trkpt lat="47.29826" lon="-2.3773">
        <ele>34.400001525879</ele>
        <time>2020-10-15T07:56:57.000Z</time>
      </trkpt>
      <trkpt lat="47.29855" lon="-2.37777">
        <ele>34.400001525879</ele>
        <time>2020-10-15T07:57:05.000Z</time>
      </trkpt>
      <trkpt lat="47.29871" lon="-2.37804">
        <ele>34.400001525879</ele>
        <time>2020-10-15T07:57:10.000Z</time>
      </trkpt>
      <trkpt lat="47.29872" lon="-2.37809">
        <ele>34.400001525879</ele>
        <time>2020-10-15T07:57:11.000Z</time>
      </trkpt>
      <trkpt lat="47.29869" lon="-2.37818">
        <ele>33.599998474121</ele>
        <time>2020-10-15T07:57:13.000Z</time>
      </trkpt>
      <trkpt lat="47.29867" lon="-2.37823">
        <ele>33.200000762939</ele>
        <time>2020-10-15T07:57:14.000Z</time>
      </trkpt>
      <trkpt lat="47.29865" lon="-2.37828">
        <ele>32.799999237061</ele>
        <time>2020-10-15T07:57:15.000Z</time>
      </trkpt>
      <trkpt lat="47.29863" lon="-2.37833">
        <ele>32.400001525879</ele>
        <time>2020-10-15T07:57:16.000Z</time>
      </trkpt>
      <trkpt lat="47.29857" lon="-2.37845">
        <ele>32.400001525879</ele>
        <time>2020-10-15T07:57:19.000Z</time>
      </trkpt>
      <trkpt lat="47.29847" lon="-2.37866">
        <ele>32.400001525879</ele>
        <time>2020-10-15T07:57:23.000Z</time>
      </trkpt>
      <trkpt lat="47.29844" lon="-2.37869">
        <ele>32.400001525879</ele>
        <time>2020-10-15T07:57:24.000Z</time>
      </trkpt>
      <trkpt lat="47.29833" lon="-2.37879">
        <ele>32.400001525879</ele>
        <time>2020-10-15T07:57:27.000Z</time>
      </trkpt>
      <trkpt lat="47.29823" lon="-2.37887">
        <ele>32.400001525879</ele>
        <time>2020-10-15T07:57:30.000Z</time>
      </trkpt>
      <trkpt lat="47.29801" lon="-2.379">
        <ele>32.400001525879</ele>
        <time>2020-10-15T07:57:36.000Z</time>
      </trkpt>
      <trkpt lat="47.29778" lon="-2.37915">
        <ele>32.400001525879</ele>
        <time>2020-10-15T07:57:42.000Z</time>
      </trkpt>
      <trkpt lat="47.29761" lon="-2.37928">
        <ele>32.400001525879</ele>
        <time>2020-10-15T07:57:46.000Z</time>
      </trkpt>
      <trkpt lat="47.29754" lon="-2.37937">
        <ele>32.400001525879</ele>
        <time>2020-10-15T07:57:48.000Z</time>
      </trkpt>
      <trkpt lat="47.29741" lon="-2.37959">
        <ele>32.400001525879</ele>
        <time>2020-10-15T07:57:52.000Z</time>
      </trkpt>
      <trkpt lat="47.29738" lon="-2.37965">
        <ele>32.400001525879</ele>
        <time>2020-10-15T07:57:53.000Z</time>
      </trkpt>
      <trkpt lat="47.29734" lon="-2.37976">
        <ele>32</ele>
        <time>2020-10-15T07:57:55.000Z</time>
      </trkpt>
      <trkpt lat="47.29732" lon="-2.37982">
        <ele>31.60000038147</ele>
        <time>2020-10-15T07:57:56.000Z</time>
      </trkpt>
      <trkpt lat="47.29731" lon="-2.37989">
        <ele>31.200000762939</ele>
        <time>2020-10-15T07:57:57.000Z</time>
      </trkpt>
      <trkpt lat="47.29731" lon="-2.37995">
        <ele>30.60000038147</ele>
        <time>2020-10-15T07:57:58.000Z</time>
      </trkpt>
      <trkpt lat="47.29731" lon="-2.38001">
        <ele>30</ele>
        <time>2020-10-15T07:57:59.000Z</time>
      </trkpt>
      <trkpt lat="47.29731" lon="-2.38007">
        <ele>29.39999961853</ele>
        <time>2020-10-15T07:58:00.000Z</time>
      </trkpt>
      <trkpt lat="47.29732" lon="-2.38013">
        <ele>28.60000038147</ele>
        <time>2020-10-15T07:58:01.000Z</time>
      </trkpt>
      <trkpt lat="47.29734" lon="-2.38019">
        <ele>27.200000762939</ele>
        <time>2020-10-15T07:58:02.000Z</time>
      </trkpt>
      <trkpt lat="47.29734" lon="-2.38025">
        <ele>26.39999961853</ele>
        <time>2020-10-15T07:58:03.000Z</time>
      </trkpt>
      <trkpt lat="47.29734" lon="-2.3803">
        <ele>25.60000038147</ele>
        <time>2020-10-15T07:58:04.000Z</time>
      </trkpt>
      <trkpt lat="47.29732" lon="-2.38034">
        <ele>24.799999237061</ele>
        <time>2020-10-15T07:58:05.000Z</time>
      </trkpt>
      <trkpt lat="47.29728" lon="-2.38038">
        <ele>24</ele>
        <time>2020-10-15T07:58:06.000Z</time>
      </trkpt>
      <trkpt lat="47.29723" lon="-2.38041">
        <ele>23.39999961853</ele>
        <time>2020-10-15T07:58:07.000Z</time>
      </trkpt>
      <trkpt lat="47.29717" lon="-2.38045">
        <ele>22.60000038147</ele>
        <time>2020-10-15T07:58:08.000Z</time>
      </trkpt>
      <trkpt lat="47.29711" lon="-2.3805">
        <ele>22</ele>
        <time>2020-10-15T07:58:09.000Z</time>
      </trkpt>
      <trkpt lat="47.29704" lon="-2.38056">
        <ele>21.39999961853</ele>
        <time>2020-10-15T07:58:10.000Z</time>
      </trkpt>
      <trkpt lat="47.29697" lon="-2.38062">
        <ele>20.799999237061</ele>
        <time>2020-10-15T07:58:11.000Z</time>
      </trkpt>
      <trkpt lat="47.2969" lon="-2.38068">
        <ele>20.39999961853</ele>
        <time>2020-10-15T07:58:12.000Z</time>
      </trkpt>
      <trkpt lat="47.29682" lon="-2.38073">
        <ele>19.799999237061</ele>
        <time>2020-10-15T07:58:13.000Z</time>
      </trkpt>
      <trkpt lat="47.29673" lon="-2.38079">
        <ele>19.39999961853</ele>
        <time>2020-10-15T07:58:14.000Z</time>
      </trkpt>
      <trkpt lat="47.29665" lon="-2.38084">
        <ele>18.799999237061</ele>
        <time>2020-10-15T07:58:15.000Z</time>
      </trkpt>
      <trkpt lat="47.29655" lon="-2.3809">
        <ele>18.200000762939</ele>
        <time>2020-10-15T07:58:16.000Z</time>
      </trkpt>
      <trkpt lat="47.29646" lon="-2.38094">
        <ele>17.60000038147</ele>
        <time>2020-10-15T07:58:17.000Z</time>
      </trkpt>
      <trkpt lat="47.29638" lon="-2.38099">
        <ele>17</ele>
        <time>2020-10-15T07:58:18.000Z</time>
      </trkpt>
      <trkpt lat="47.2963" lon="-2.38103">
        <ele>16.200000762939</ele>
        <time>2020-10-15T07:58:19.000Z</time>
      </trkpt>
      <trkpt lat="47.29621" lon="-2.38107">
        <ele>15.60000038147</ele>
        <time>2020-10-15T07:58:20.000Z</time>
      </trkpt>
      <trkpt lat="47.29613" lon="-2.3811">
        <ele>14.800000190735</ele>
        <time>2020-10-15T07:58:21.000Z</time>
      </trkpt>
      <trkpt lat="47.29605" lon="-2.38112">
        <ele>14.199999809265</ele>
        <time>2020-10-15T07:58:22.000Z</time>
      </trkpt>
      <trkpt lat="47.29597" lon="-2.38114">
        <ele>13.60000038147</ele>
        <time>2020-10-15T07:58:23.000Z</time>
      </trkpt>
      <trkpt lat="47.29565" lon="-2.3812">
        <ele>13.60000038147</ele>
        <time>2020-10-15T07:58:27.000Z</time>
      </trkpt>
      <trkpt lat="47.29517" lon="-2.38123">
        <ele>13.60000038147</ele>
        <time>2020-10-15T07:58:33.000Z</time>
      </trkpt>
      <trkpt lat="47.29492" lon="-2.38124">
        <ele>13.60000038147</ele>
        <time>2020-10-15T07:58:36.000Z</time>
      </trkpt>
      <trkpt lat="47.29476" lon="-2.38132">
        <ele>13.60000038147</ele>
        <time>2020-10-15T07:58:38.000Z</time>
      </trkpt>
      <trkpt lat="47.29457" lon="-2.38146">
        <ele>13.60000038147</ele>
        <time>2020-10-15T07:58:41.000Z</time>
      </trkpt>
      <trkpt lat="47.29452" lon="-2.38149">
        <ele>13.60000038147</ele>
        <time>2020-10-15T07:58:42.000Z</time>
      </trkpt>
      <trkpt lat="47.29449" lon="-2.38152">
        <ele>13.60000038147</ele>
        <time>2020-10-15T07:58:43.000Z</time>
      </trkpt>
      <trkpt lat="47.29446" lon="-2.38158">
        <ele>13.60000038147</ele>
        <time>2020-10-15T07:58:45.000Z</time>
      </trkpt>
      <trkpt lat="47.29449" lon="-2.38173">
        <ele>13.60000038147</ele>
        <time>2020-10-15T07:58:49.000Z</time>
      </trkpt>
      <trkpt lat="47.29452" lon="-2.3818">
        <ele>13.60000038147</ele>
        <time>2020-10-15T07:58:51.000Z</time>
      </trkpt>
      <trkpt lat="47.29452" lon="-2.38185">
        <ele>13.60000038147</ele>
        <time>2020-10-15T07:58:53.000Z</time>
      </trkpt>
      <trkpt lat="47.29452" lon="-2.38188">
        <ele>13.60000038147</ele>
        <time>2020-10-15T07:58:54.000Z</time>
      </trkpt>
      <trkpt lat="47.29447" lon="-2.38183">
        <ele>13.60000038147</ele>
        <time>2020-10-15T07:58:57.000Z</time>
      </trkpt>
      <trkpt lat="47.29445" lon="-2.3817">
        <ele>13.60000038147</ele>
        <time>2020-10-15T07:58:59.000Z</time>
      </trkpt>
      <trkpt lat="47.29444" lon="-2.38163">
        <ele>13.60000038147</ele>
        <time>2020-10-15T07:59:00.000Z</time>
      </trkpt>
      <trkpt lat="47.29435" lon="-2.38121">
        <ele>13.60000038147</ele>
        <time>2020-10-15T07:59:05.000Z</time>
      </trkpt>
      <trkpt lat="47.29423" lon="-2.3809">
        <ele>13.60000038147</ele>
        <time>2020-10-15T07:59:09.000Z</time>
      </trkpt>
      <trkpt lat="47.29413" lon="-2.38081">
        <ele>13.60000038147</ele>
        <time>2020-10-15T07:59:11.000Z</time>
      </trkpt>
      <trkpt lat="47.29398" lon="-2.38087">
        <ele>13.60000038147</ele>
        <time>2020-10-15T07:59:14.000Z</time>
      </trkpt>
      <trkpt lat="47.29393" lon="-2.38092">
        <ele>13.60000038147</ele>
        <time>2020-10-15T07:59:15.000Z</time>
      </trkpt>
      <trkpt lat="47.29382" lon="-2.38101">
        <ele>13.60000038147</ele>
        <time>2020-10-15T07:59:17.000Z</time>
      </trkpt>
      <trkpt lat="47.29371" lon="-2.38112">
        <ele>13.60000038147</ele>
        <time>2020-10-15T07:59:19.000Z</time>
      </trkpt>
      <trkpt lat="47.29341" lon="-2.38138">
        <ele>13.60000038147</ele>
        <time>2020-10-15T07:59:24.000Z</time>
      </trkpt>
      <trkpt lat="47.29317" lon="-2.38159">
        <ele>13.60000038147</ele>
        <time>2020-10-15T07:59:29.000Z</time>
      </trkpt>
      <trkpt lat="47.29312" lon="-2.38158">
        <ele>13.60000038147</ele>
        <time>2020-10-15T07:59:30.000Z</time>
      </trkpt>
      <trkpt lat="47.29306" lon="-2.3816">
        <ele>13.60000038147</ele>
        <time>2020-10-15T07:59:33.000Z</time>
      </trkpt>
      <trkpt lat="47.29306" lon="-2.3816">
        <ele>13.60000038147</ele>
        <time>2020-10-15T07:59:35.000Z</time>
      </trkpt>
      <trkpt lat="47.29308" lon="-2.3816">
        <ele>13.60000038147</ele>
        <time>2020-10-15T07:59:44.000Z</time>
      </trkpt>
      <trkpt lat="47.2931" lon="-2.38159">
        <ele>13.60000038147</ele>
        <time>2020-10-15T07:59:45.000Z</time>
      </trkpt>
      <trkpt lat="47.29313" lon="-2.38155">
        <ele>13.199999809265</ele>
        <time>2020-10-15T07:59:47.000Z</time>
      </trkpt>
      <trkpt lat="47.29317" lon="-2.38152">
        <ele>12.800000190735</ele>
        <time>2020-10-15T07:59:48.000Z</time>
      </trkpt>
      <trkpt lat="47.2932" lon="-2.38149">
        <ele>12.39999961853</ele>
        <time>2020-10-15T07:59:49.000Z</time>
      </trkpt>
      <trkpt lat="47.29325" lon="-2.38145">
        <ele>12</ele>
        <time>2020-10-15T07:59:50.000Z</time>
      </trkpt>
      <trkpt lat="47.29329" lon="-2.38141">
        <ele>11.60000038147</ele>
        <time>2020-10-15T07:59:51.000Z</time>
      </trkpt>
      <trkpt lat="47.29339" lon="-2.38133">
        <ele>11.60000038147</ele>
        <time>2020-10-15T07:59:53.000Z</time>
      </trkpt>
      <trkpt lat="47.29344" lon="-2.3813">
        <ele>11.60000038147</ele>
        <time>2020-10-15T07:59:54.000Z</time>
      </trkpt>
      <trkpt lat="47.29382" lon="-2.38098">
        <ele>11.60000038147</ele>
        <time>2020-10-15T08:00:02.000Z</time>
      </trkpt>
      <trkpt lat="47.29404" lon="-2.38081">
        <ele>11.60000038147</ele>
        <time>2020-10-15T08:00:07.000Z</time>
      </trkpt>
      <trkpt lat="47.29408" lon="-2.3808">
        <ele>11.60000038147</ele>
        <time>2020-10-15T08:00:08.000Z</time>
      </trkpt>
      <trkpt lat="47.2942" lon="-2.38086">
        <ele>11.60000038147</ele>
        <time>2020-10-15T08:00:11.000Z</time>
      </trkpt>
      <trkpt lat="47.29433" lon="-2.38106">
        <ele>11.60000038147</ele>
        <time>2020-10-15T08:00:15.000Z</time>
      </trkpt>
      <trkpt lat="47.29438" lon="-2.38121">
        <ele>11.60000038147</ele>
        <time>2020-10-15T08:00:17.000Z</time>
      </trkpt>
      <trkpt lat="47.29446" lon="-2.3815">
        <ele>11.60000038147</ele>
        <time>2020-10-15T08:00:21.000Z</time>
      </trkpt>
      <trkpt lat="47.29448" lon="-2.38164">
        <ele>11.60000038147</ele>
        <time>2020-10-15T08:00:23.000Z</time>
      </trkpt>
      <trkpt lat="47.29452" lon="-2.38185">
        <ele>11.60000038147</ele>
        <time>2020-10-15T08:00:26.000Z</time>
      </trkpt>
      <trkpt lat="47.29454" lon="-2.38198">
        <ele>11.60000038147</ele>
        <time>2020-10-15T08:00:28.000Z</time>
      </trkpt>
      <trkpt lat="47.29457" lon="-2.38227">
        <ele>11.60000038147</ele>
        <time>2020-10-15T08:00:32.000Z</time>
      </trkpt>
      <trkpt lat="47.29461" lon="-2.38281">
        <ele>11.60000038147</ele>
        <time>2020-10-15T08:00:39.000Z</time>
      </trkpt>
      <trkpt lat="47.29459" lon="-2.38329">
        <ele>11.60000038147</ele>
        <time>2020-10-15T08:00:44.000Z</time>
      </trkpt>
      <trkpt lat="47.29458" lon="-2.38401">
        <ele>11.60000038147</ele>
        <time>2020-10-15T08:00:51.000Z</time>
      </trkpt>
      <trkpt lat="47.29462" lon="-2.38475">
        <ele>11.199999809265</ele>
        <time>2020-10-15T08:00:59.000Z</time>
      </trkpt>
      <trkpt lat="47.29462" lon="-2.38484">
        <ele>10.60000038147</ele>
        <time>2020-10-15T08:01:00.000Z</time>
      </trkpt>
      <trkpt lat="47.29463" lon="-2.38492">
        <ele>10.199999809265</ele>
        <time>2020-10-15T08:01:01.000Z</time>
      </trkpt>
      <trkpt lat="47.29463" lon="-2.38501">
        <ele>9.8000001907349</ele>
        <time>2020-10-15T08:01:02.000Z</time>
      </trkpt>
      <trkpt lat="47.29463" lon="-2.3851">
        <ele>9.3999996185303</ele>
        <time>2020-10-15T08:01:03.000Z</time>
      </trkpt>
      <trkpt lat="47.29465" lon="-2.38552">
        <ele>9.3999996185303</ele>
        <time>2020-10-15T08:01:08.000Z</time>
      </trkpt>
      <trkpt lat="47.29466" lon="-2.38625">
        <ele>9.3999996185303</ele>
        <time>2020-10-15T08:01:17.000Z</time>
      </trkpt>
      <trkpt lat="47.29466" lon="-2.38658">
        <ele>9.3999996185303</ele>
        <time>2020-10-15T08:01:21.000Z</time>
      </trkpt>
      <trkpt lat="47.29467" lon="-2.38665">
        <ele>9.3999996185303</ele>
        <time>2020-10-15T08:01:22.000Z</time>
      </trkpt>
      <trkpt lat="47.29472" lon="-2.38714">
        <ele>9.3999996185303</ele>
        <time>2020-10-15T08:01:28.000Z</time>
      </trkpt>
      <trkpt lat="47.29474" lon="-2.38779">
        <ele>9.3999996185303</ele>
        <time>2020-10-15T08:01:36.000Z</time>
      </trkpt>
      <trkpt lat="47.29474" lon="-2.38795">
        <ele>9</ele>
        <time>2020-10-15T08:01:38.000Z</time>
      </trkpt>
      <trkpt lat="47.29474" lon="-2.38802">
        <ele>8.6000003814697</ele>
        <time>2020-10-15T08:01:39.000Z</time>
      </trkpt>
      <trkpt lat="47.29474" lon="-2.3881">
        <ele>8.1999998092651</ele>
        <time>2020-10-15T08:01:40.000Z</time>
      </trkpt>
      <trkpt lat="47.29474" lon="-2.38817">
        <ele>7.8000001907349</ele>
        <time>2020-10-15T08:01:41.000Z</time>
      </trkpt>
      <trkpt lat="47.29475" lon="-2.38825">
        <ele>7.4000000953674</ele>
        <time>2020-10-15T08:01:42.000Z</time>
      </trkpt>
      <trkpt lat="47.29477" lon="-2.38831">
        <ele>7.4000000953674</ele>
        <time>2020-10-15T08:01:43.000Z</time>
      </trkpt>
      <trkpt lat="47.29478" lon="-2.38837">
        <ele>7.4000000953674</ele>
        <time>2020-10-15T08:01:44.000Z</time>
      </trkpt>
      <trkpt lat="47.29489" lon="-2.38885">
        <ele>7.4000000953674</ele>
        <time>2020-10-15T08:01:51.000Z</time>
      </trkpt>
      <trkpt lat="47.29505" lon="-2.38932">
        <ele>7.4000000953674</ele>
        <time>2020-10-15T08:01:58.000Z</time>
      </trkpt>
      <trkpt lat="47.29507" lon="-2.38938">
        <ele>7.4000000953674</ele>
        <time>2020-10-15T08:01:59.000Z</time>
      </trkpt>
      <trkpt lat="47.29511" lon="-2.38943">
        <ele>7.4000000953674</ele>
        <time>2020-10-15T08:02:00.000Z</time>
      </trkpt>
      <trkpt lat="47.29527" lon="-2.3896">
        <ele>7.4000000953674</ele>
        <time>2020-10-15T08:02:04.000Z</time>
      </trkpt>
      <trkpt lat="47.29566" lon="-2.38986">
        <ele>7.4000000953674</ele>
        <time>2020-10-15T08:02:12.000Z</time>
      </trkpt>
      <trkpt lat="47.296" lon="-2.39002">
        <ele>7.4000000953674</ele>
        <time>2020-10-15T08:02:20.000Z</time>
      </trkpt>
      <trkpt lat="47.2962" lon="-2.39013">
        <ele>7.4000000953674</ele>
        <time>2020-10-15T08:02:25.000Z</time>
      </trkpt>
      <trkpt lat="47.29625" lon="-2.39023">
        <ele>7.4000000953674</ele>
        <time>2020-10-15T08:02:27.000Z</time>
      </trkpt>
      <trkpt lat="47.29629" lon="-2.39037">
        <ele>7.4000000953674</ele>
        <time>2020-10-15T08:02:29.000Z</time>
      </trkpt>
      <trkpt lat="47.29629" lon="-2.39044">
        <ele>7.4000000953674</ele>
        <time>2020-10-15T08:02:30.000Z</time>
      </trkpt>
      <trkpt lat="47.2963" lon="-2.39051">
        <ele>7</ele>
        <time>2020-10-15T08:02:31.000Z</time>
      </trkpt>
      <trkpt lat="47.2963" lon="-2.39059">
        <ele>6.5999999046326</ele>
        <time>2020-10-15T08:02:32.000Z</time>
      </trkpt>
      <trkpt lat="47.29629" lon="-2.39067">
        <ele>6.1999998092651</ele>
        <time>2020-10-15T08:02:33.000Z</time>
      </trkpt>
      <trkpt lat="47.29629" lon="-2.39075">
        <ele>5.4000000953674</ele>
        <time>2020-10-15T08:02:34.000Z</time>
      </trkpt>
      <trkpt lat="47.2963" lon="-2.3912">
        <ele>5.4000000953674</ele>
        <time>2020-10-15T08:02:40.000Z</time>
      </trkpt>
      <trkpt lat="47.29632" lon="-2.39135">
        <ele>5.4000000953674</ele>
        <time>2020-10-15T08:02:42.000Z</time>
      </trkpt>
      <trkpt lat="47.29636" lon="-2.39156">
        <ele>5.4000000953674</ele>
        <time>2020-10-15T08:02:45.000Z</time>
      </trkpt>
      <trkpt lat="47.29639" lon="-2.39162">
        <ele>5.4000000953674</ele>
        <time>2020-10-15T08:02:46.000Z</time>
      </trkpt>
      <trkpt lat="47.2965" lon="-2.39179">
        <ele>5.4000000953674</ele>
        <time>2020-10-15T08:02:49.000Z</time>
      </trkpt>
      <trkpt lat="47.29659" lon="-2.39184">
        <ele>5.4000000953674</ele>
        <time>2020-10-15T08:02:51.000Z</time>
      </trkpt>
      <trkpt lat="47.29662" lon="-2.39187">
        <ele>5.4000000953674</ele>
        <time>2020-10-15T08:02:52.000Z</time>
      </trkpt>
      <trkpt lat="47.29665" lon="-2.39204">
        <ele>5.4000000953674</ele>
        <time>2020-10-15T08:02:56.000Z</time>
      </trkpt>
      <trkpt lat="47.29656" lon="-2.39232">
        <ele>5.4000000953674</ele>
        <time>2020-10-15T08:03:01.000Z</time>
      </trkpt>
      <trkpt lat="47.29649" lon="-2.39289">
        <ele>5.4000000953674</ele>
        <time>2020-10-15T08:03:10.000Z</time>
      </trkpt>
      <trkpt lat="47.29645" lon="-2.39342">
        <ele>5.4000000953674</ele>
        <time>2020-10-15T08:03:18.000Z</time>
      </trkpt>
      <trkpt lat="47.29644" lon="-2.39361">
        <ele>5.4000000953674</ele>
        <time>2020-10-15T08:03:21.000Z</time>
      </trkpt>
      <trkpt lat="47.29641" lon="-2.39385">
        <ele>5</ele>
        <time>2020-10-15T08:03:25.000Z</time>
      </trkpt>
      <trkpt lat="47.2964" lon="-2.3939">
        <ele>4.5999999046326</ele>
        <time>2020-10-15T08:03:26.000Z</time>
      </trkpt>
      <trkpt lat="47.29637" lon="-2.39395">
        <ele>4.1999998092651</ele>
        <time>2020-10-15T08:03:27.000Z</time>
      </trkpt>
      <trkpt lat="47.29635" lon="-2.394">
        <ele>3.7999999523163</ele>
        <time>2020-10-15T08:03:28.000Z</time>
      </trkpt>
      <trkpt lat="47.29634" lon="-2.39407">
        <ele>3.4000000953674</ele>
        <time>2020-10-15T08:03:29.000Z</time>
      </trkpt>
      <trkpt lat="47.29629" lon="-2.39438">
        <ele>3.4000000953674</ele>
        <time>2020-10-15T08:03:34.000Z</time>
      </trkpt>
      <trkpt lat="47.29623" lon="-2.39448">
        <ele>3.4000000953674</ele>
        <time>2020-10-15T08:03:36.000Z</time>
      </trkpt>
      <trkpt lat="47.29609" lon="-2.39472">
        <ele>3.4000000953674</ele>
        <time>2020-10-15T08:03:41.000Z</time>
      </trkpt>
      <trkpt lat="47.29586" lon="-2.39498">
        <ele>3.4000000953674</ele>
        <time>2020-10-15T08:03:49.000Z</time>
      </trkpt>
      <trkpt lat="47.29572" lon="-2.39497">
        <ele>3.4000000953674</ele>
        <time>2020-10-15T08:03:53.000Z</time>
      </trkpt>
      <trkpt lat="47.29561" lon="-2.39493">
        <ele>3.4000000953674</ele>
        <time>2020-10-15T08:03:58.000Z</time>
      </trkpt>
      <trkpt lat="47.29557" lon="-2.39496">
        <ele>3.4000000953674</ele>
        <time>2020-10-15T08:04:01.000Z</time>
      </trkpt>
      <trkpt lat="47.29556" lon="-2.39502">
        <ele>3.4000000953674</ele>
        <time>2020-10-15T08:04:03.000Z</time>
      </trkpt>
      <trkpt lat="47.29555" lon="-2.39513">
        <ele>3.4000000953674</ele>
        <time>2020-10-15T08:04:08.000Z</time>
      </trkpt>
      <trkpt lat="47.29556" lon="-2.39529">
        <ele>3.4000000953674</ele>
        <time>2020-10-15T08:04:13.000Z</time>
      </trkpt>
      <trkpt lat="47.29555" lon="-2.39539">
        <ele>3</ele>
        <time>2020-10-15T08:04:15.000Z</time>
      </trkpt>
      <trkpt lat="47.29556" lon="-2.39543">
        <ele>2.5999999046326</ele>
        <time>2020-10-15T08:04:16.000Z</time>
      </trkpt>
      <trkpt lat="47.29558" lon="-2.39546">
        <ele>2.2000000476837</ele>
        <time>2020-10-15T08:04:17.000Z</time>
      </trkpt>
      <trkpt lat="47.29561" lon="-2.39546">
        <ele>1.7999999523163</ele>
        <time>2020-10-15T08:04:18.000Z</time>
      </trkpt>
      <trkpt lat="47.29564" lon="-2.39546">
        <ele>1.3999999761581</ele>
        <time>2020-10-15T08:04:19.000Z</time>
      </trkpt>
      <trkpt lat="47.29571" lon="-2.39546">
        <ele>1.3999999761581</ele>
        <time>2020-10-15T08:04:21.000Z</time>
      </trkpt>
      <trkpt lat="47.29574" lon="-2.39547">
        <ele>1.3999999761581</ele>
        <time>2020-10-15T08:04:22.000Z</time>
      </trkpt>
      <trkpt lat="47.29594" lon="-2.39549">
        <ele>1.3999999761581</ele>
        <time>2020-10-15T08:04:28.000Z</time>
      </trkpt>
      <trkpt lat="47.29613" lon="-2.39554">
        <ele>1.3999999761581</ele>
        <time>2020-10-15T08:04:33.000Z</time>
      </trkpt>
      <trkpt lat="47.29622" lon="-2.39555">
        <ele>1.3999999761581</ele>
        <time>2020-10-15T08:04:37.000Z</time>
      </trkpt>
      <trkpt lat="47.29624" lon="-2.39558">
        <ele>1.3999999761581</ele>
        <time>2020-10-15T08:04:39.000Z</time>
      </trkpt>
      <trkpt lat="47.29621" lon="-2.39562">
        <ele>1.3999999761581</ele>
        <time>2020-10-15T08:04:41.000Z</time>
      </trkpt>
      <trkpt lat="47.29614" lon="-2.39565">
        <ele>1.3999999761581</ele>
        <time>2020-10-15T08:04:43.000Z</time>
      </trkpt>
      <trkpt lat="47.29611" lon="-2.39567">
        <ele>1.3999999761581</ele>
        <time>2020-10-15T08:04:44.000Z</time>
      </trkpt>
      <trkpt lat="47.2961" lon="-2.39571">
        <ele>1.3999999761581</ele>
        <time>2020-10-15T08:04:45.000Z</time>
      </trkpt>
      <trkpt lat="47.29614" lon="-2.3958">
        <ele>1.3999999761581</ele>
        <time>2020-10-15T08:04:48.000Z</time>
      </trkpt>
      <trkpt lat="47.29626" lon="-2.39582">
        <ele>1.3999999761581</ele>
        <time>2020-10-15T08:04:51.000Z</time>
      </trkpt>
      <trkpt lat="47.29632" lon="-2.39593">
        <ele>1.3999999761581</ele>
        <time>2020-10-15T08:04:54.000Z</time>
      </trkpt>
      <trkpt lat="47.29631" lon="-2.39615">
        <ele>1.3999999761581</ele>
        <time>2020-10-15T08:04:57.000Z</time>
      </trkpt>
      <trkpt lat="47.29631" lon="-2.39624">
        <ele>1.3999999761581</ele>
        <time>2020-10-15T08:04:58.000Z</time>
      </trkpt>
      <trkpt lat="47.2963" lon="-2.39634">
        <ele>1.3999999761581</ele>
        <time>2020-10-15T08:04:59.000Z</time>
      </trkpt>
      <trkpt lat="47.29621" lon="-2.3966">
        <ele>1.3999999761581</ele>
        <time>2020-10-15T08:05:02.000Z</time>
      </trkpt>
      <trkpt lat="47.29617" lon="-2.39666">
        <ele>1.3999999761581</ele>
        <time>2020-10-15T08:05:03.000Z</time>
      </trkpt>
      <trkpt lat="47.29599" lon="-2.39698">
        <ele>1.3999999761581</ele>
        <time>2020-10-15T08:05:08.000Z</time>
      </trkpt>
      <trkpt lat="47.2959" lon="-2.39716">
        <ele>1.3999999761581</ele>
        <time>2020-10-15T08:05:11.000Z</time>
      </trkpt>
      <trkpt lat="47.29587" lon="-2.39721">
        <ele>0.80000001192093</ele>
        <time>2020-10-15T08:05:12.000Z</time>
      </trkpt>
      <trkpt lat="47.29583" lon="-2.39726">
        <ele>0.40000000596046</ele>
        <time>2020-10-15T08:05:13.000Z</time>
      </trkpt>
      <trkpt lat="47.29581" lon="-2.39731">
        <ele>3.3</ele>
        <time>2020-10-15T08:05:14.000Z</time>
      </trkpt>
      <trkpt lat="47.29578" lon="-2.39737">
        <ele>-0.40000000596046</ele>
        <time>2020-10-15T08:05:15.000Z</time>
      </trkpt>
      <trkpt lat="47.29576" lon="-2.39741">
        <ele>-0.80000001192093</ele>
        <time>2020-10-15T08:05:16.000Z</time>
      </trkpt>
      <trkpt lat="47.2956" lon="-2.39776">
        <ele>-0.80000001192093</ele>
        <time>2020-10-15T08:05:23.000Z</time>
      </trkpt>
      <trkpt lat="47.2954" lon="-2.39818">
        <ele>-0.80000001192093</ele>
        <time>2020-10-15T08:05:31.000Z</time>
      </trkpt>
      <trkpt lat="47.29524" lon="-2.39851">
        <ele>-0.80000001192093</ele>
        <time>2020-10-15T08:05:37.000Z</time>
      </trkpt>
      <trkpt lat="47.29521" lon="-2.39856">
        <ele>-0.80000001192093</ele>
        <time>2020-10-15T08:05:38.000Z</time>
      </trkpt>
      <trkpt lat="47.29516" lon="-2.39867">
        <ele>-1.2000000476837</ele>
        <time>2020-10-15T08:05:40.000Z</time>
      </trkpt>
      <trkpt lat="47.29514" lon="-2.39871">
        <ele>-1.6000000238419</ele>
        <time>2020-10-15T08:05:41.000Z</time>
      </trkpt>
      <trkpt lat="47.29511" lon="-2.39876">
        <ele>-2</ele>
        <time>2020-10-15T08:05:42.000Z</time>
      </trkpt>
      <trkpt lat="47.29509" lon="-2.3988">
        <ele>-2.4000000953674</ele>
        <time>2020-10-15T08:05:43.000Z</time>
      </trkpt>
      <trkpt lat="47.29507" lon="-2.39884">
        <ele>-2.7999999523163</ele>
        <time>2020-10-15T08:05:44.000Z</time>
      </trkpt>
      <trkpt lat="47.29502" lon="-2.39891">
        <ele>-2.7999999523163</ele>
        <time>2020-10-15T08:05:46.000Z</time>
      </trkpt>
      <trkpt lat="47.29493" lon="-2.39902">
        <ele>-2.7999999523163</ele>
        <time>2020-10-15T08:05:51.000Z</time>
      </trkpt>
      <trkpt lat="47.29487" lon="-2.39916">
        <ele>-2.7999999523163</ele>
        <time>2020-10-15T08:05:55.000Z</time>
      </trkpt>
      <trkpt lat="47.29476" lon="-2.39946">
        <ele>-2.7999999523163</ele>
        <time>2020-10-15T08:06:01.000Z</time>
      </trkpt>
      <trkpt lat="47.29464" lon="-2.39979">
        <ele>-2.7999999523163</ele>
        <time>2020-10-15T08:06:07.000Z</time>
      </trkpt>
      <trkpt lat="47.29462" lon="-2.39985">
        <ele>-2.7999999523163</ele>
        <time>2020-10-15T08:06:08.000Z</time>
      </trkpt>
      <trkpt lat="47.2946" lon="-2.40008">
        <ele>-2.7999999523163</ele>
        <time>2020-10-15T08:06:12.000Z</time>
      </trkpt>
      <trkpt lat="47.29462" lon="-2.40047">
        <ele>-2.7999999523163</ele>
        <time>2020-10-15T08:06:18.000Z</time>
      </trkpt>
      <trkpt lat="47.29463" lon="-2.40076">
        <ele>-2.7999999523163</ele>
        <time>2020-10-15T08:06:22.000Z</time>
      </trkpt>
      <trkpt lat="47.2946" lon="-2.40097">
        <ele>-2.7999999523163</ele>
        <time>2020-10-15T08:06:25.000Z</time>
      </trkpt>
      <trkpt lat="47.29459" lon="-2.40103">
        <ele>-3.2000000476837</ele>
        <time>2020-10-15T08:06:26.000Z</time>
      </trkpt>
      <trkpt lat="47.29458" lon="-2.4011">
        <ele>-3.5999999046326</ele>
        <time>2020-10-15T08:06:27.000Z</time>
      </trkpt>
      <trkpt lat="47.29457" lon="-2.40117">
        <ele>-4</ele>
        <time>2020-10-15T08:06:28.000Z</time>
      </trkpt>
      <trkpt lat="47.29456" lon="-2.40124">
        <ele>-4.4000000953674</ele>
        <time>2020-10-15T08:06:29.000Z</time>
      </trkpt>
      <trkpt lat="47.29456" lon="-2.4013">
        <ele>-4.8000001907349</ele>
        <time>2020-10-15T08:06:30.000Z</time>
      </trkpt>
      <trkpt lat="47.29456" lon="-2.40138">
        <ele>-4.8000001907349</ele>
        <time>2020-10-15T08:06:31.000Z</time>
      </trkpt>
      <trkpt lat="47.29453" lon="-2.40166">
        <ele>-4.8000001907349</ele>
        <time>2020-10-15T08:06:35.000Z</time>
      </trkpt>
      <trkpt lat="47.29451" lon="-2.4018">
        <ele>-4.8000001907349</ele>
        <time>2020-10-15T08:06:37.000Z</time>
      </trkpt>
      <trkpt lat="47.29443" lon="-2.40213">
        <ele>-4.8000001907349</ele>
        <time>2020-10-15T08:06:42.000Z</time>
      </trkpt>
      <trkpt lat="47.2944" lon="-2.40217">
        <ele>-4.8000001907349</ele>
        <time>2020-10-15T08:06:43.000Z</time>
      </trkpt>
      <trkpt lat="47.29428" lon="-2.40217">
        <ele>-4.8000001907349</ele>
        <time>2020-10-15T08:06:46.000Z</time>
      </trkpt>
      <trkpt lat="47.29413" lon="-2.40222">
        <ele>-4.8000001907349</ele>
        <time>2020-10-15T08:06:49.000Z</time>
      </trkpt>
      <trkpt lat="47.29379" lon="-2.40243">
        <ele>-4.8000001907349</ele>
        <time>2020-10-15T08:06:56.000Z</time>
      </trkpt>
      <trkpt lat="47.29369" lon="-2.40251">
        <ele>-4.8000001907349</ele>
        <time>2020-10-15T08:06:58.000Z</time>
      </trkpt>
      <trkpt lat="47.29365" lon="-2.40256">
        <ele>-4.8000001907349</ele>
        <time>2020-10-15T08:06:59.000Z</time>
      </trkpt>
      <trkpt lat="47.2936" lon="-2.40261">
        <ele>-5.1999998092651</ele>
        <time>2020-10-15T08:07:00.000Z</time>
      </trkpt>
      <trkpt lat="47.29356" lon="-2.40265">
        <ele>-5.5999999046326</ele>
        <time>2020-10-15T08:07:01.000Z</time>
      </trkpt>
      <trkpt lat="47.29351" lon="-2.40269">
        <ele>-6.1999998092651</ele>
        <time>2020-10-15T08:07:02.000Z</time>
      </trkpt>
      <trkpt lat="47.29346" lon="-2.40273">
        <ele>-6.5999999046326</ele>
        <time>2020-10-15T08:07:03.000Z</time>
      </trkpt>
      <trkpt lat="47.29341" lon="-2.40277">
        <ele>-7</ele>
        <time>2020-10-15T08:07:04.000Z</time>
      </trkpt>
      <trkpt lat="47.29324" lon="-2.40297">
        <ele>-7</ele>
        <time>2020-10-15T08:07:08.000Z</time>
      </trkpt>
      <trkpt lat="47.29302" lon="-2.40323">
        <ele>-7</ele>
        <time>2020-10-15T08:07:13.000Z</time>
      </trkpt>
      <trkpt lat="47.29289" lon="-2.40337">
        <ele>-7</ele>
        <time>2020-10-15T08:07:16.000Z</time>
      </trkpt>
      <trkpt lat="47.29286" lon="-2.40343">
        <ele>-7</ele>
        <time>2020-10-15T08:07:17.000Z</time>
      </trkpt>
      <trkpt lat="47.29287" lon="-2.40365">
        <ele>-7</ele>
        <time>2020-10-15T08:07:20.000Z</time>
      </trkpt>
      <trkpt lat="47.293" lon="-2.40393">
        <ele>-7</ele>
        <time>2020-10-15T08:07:24.000Z</time>
      </trkpt>
      <trkpt lat="47.29303" lon="-2.40399">
        <ele>-7</ele>
        <time>2020-10-15T08:07:25.000Z</time>
      </trkpt>
      <trkpt lat="47.29305" lon="-2.40406">
        <ele>-7</ele>
        <time>2020-10-15T08:07:26.000Z</time>
      </trkpt>
      <trkpt lat="47.29304" lon="-2.4042">
        <ele>-7</ele>
        <time>2020-10-15T08:07:28.000Z</time>
      </trkpt>
      <trkpt lat="47.29299" lon="-2.40434">
        <ele>-7</ele>
        <time>2020-10-15T08:07:30.000Z</time>
      </trkpt>
      <trkpt lat="47.29292" lon="-2.40455">
        <ele>-7</ele>
        <time>2020-10-15T08:07:33.000Z</time>
      </trkpt>
      <trkpt lat="47.29288" lon="-2.40461">
        <ele>-7</ele>
        <time>2020-10-15T08:07:34.000Z</time>
      </trkpt>
      <trkpt lat="47.29267" lon="-2.40473">
        <ele>-7</ele>
        <time>2020-10-15T08:07:38.000Z</time>
      </trkpt>
      <trkpt lat="47.29256" lon="-2.40478">
        <ele>-7</ele>
        <time>2020-10-15T08:07:40.000Z</time>
      </trkpt>
      <trkpt lat="47.29233" lon="-2.40489">
        <ele>-7</ele>
        <time>2020-10-15T08:07:44.000Z</time>
      </trkpt>
      <trkpt lat="47.292" lon="-2.4051">
        <ele>-7</ele>
        <time>2020-10-15T08:07:50.000Z</time>
      </trkpt>
      <trkpt lat="47.29179" lon="-2.40519">
        <ele>-7</ele>
        <time>2020-10-15T08:07:54.000Z</time>
      </trkpt>
      <trkpt lat="47.29174" lon="-2.40518">
        <ele>-7</ele>
        <time>2020-10-15T08:07:55.000Z</time>
      </trkpt>
      <trkpt lat="47.29166" lon="-2.40508">
        <ele>-7</ele>
        <time>2020-10-15T08:07:57.000Z</time>
      </trkpt>
      <trkpt lat="47.29153" lon="-2.40488">
        <ele>-7</ele>
        <time>2020-10-15T08:08:01.000Z</time>
      </trkpt>
      <trkpt lat="47.29136" lon="-2.40489">
        <ele>-7</ele>
        <time>2020-10-15T08:08:04.000Z</time>
      </trkpt>
      <trkpt lat="47.29131" lon="-2.40491">
        <ele>-7</ele>
        <time>2020-10-15T08:08:05.000Z</time>
      </trkpt>
      <trkpt lat="47.29119" lon="-2.40497">
        <ele>-7</ele>
        <time>2020-10-15T08:08:07.000Z</time>
      </trkpt>
      <trkpt lat="47.29109" lon="-2.40504">
        <ele>-7</ele>
        <time>2020-10-15T08:08:09.000Z</time>
      </trkpt>
      <trkpt lat="47.29099" lon="-2.40523">
        <ele>-7</ele>
        <time>2020-10-15T08:08:12.000Z</time>
      </trkpt>
      <trkpt lat="47.29101" lon="-2.40546">
        <ele>-7</ele>
        <time>2020-10-15T08:08:15.000Z</time>
      </trkpt>
      <trkpt lat="47.29114" lon="-2.4056">
        <ele>-7</ele>
        <time>2020-10-15T08:08:18.000Z</time>
      </trkpt>
      <trkpt lat="47.29133" lon="-2.40588">
        <ele>-7</ele>
        <time>2020-10-15T08:08:23.000Z</time>
      </trkpt>
      <trkpt lat="47.29139" lon="-2.40601">
        <ele>-7</ele>
        <time>2020-10-15T08:08:25.000Z</time>
      </trkpt>
      <trkpt lat="47.29142" lon="-2.40622">
        <ele>-7</ele>
        <time>2020-10-15T08:08:28.000Z</time>
      </trkpt>
      <trkpt lat="47.29142" lon="-2.40636">
        <ele>-7</ele>
        <time>2020-10-15T08:08:30.000Z</time>
      </trkpt>
      <trkpt lat="47.29143" lon="-2.40643">
        <ele>-7</ele>
        <time>2020-10-15T08:08:31.000Z</time>
      </trkpt>
      <trkpt lat="47.29138" lon="-2.40655">
        <ele>-7</ele>
        <time>2020-10-15T08:08:33.000Z</time>
      </trkpt>
      <trkpt lat="47.29131" lon="-2.40665">
        <ele>-7</ele>
        <time>2020-10-15T08:08:35.000Z</time>
      </trkpt>
      <trkpt lat="47.29118" lon="-2.40678">
        <ele>-7</ele>
        <time>2020-10-15T08:08:38.000Z</time>
      </trkpt>
      <trkpt lat="47.29097" lon="-2.40683">
        <ele>-7</ele>
        <time>2020-10-15T08:08:42.000Z</time>
      </trkpt>
      <trkpt lat="47.2908" lon="-2.40685">
        <ele>-7</ele>
        <time>2020-10-15T08:08:45.000Z</time>
      </trkpt>
      <trkpt lat="47.29063" lon="-2.4069">
        <ele>-7</ele>
        <time>2020-10-15T08:08:48.000Z</time>
      </trkpt>
      <trkpt lat="47.29058" lon="-2.40693">
        <ele>-7</ele>
        <time>2020-10-15T08:08:49.000Z</time>
      </trkpt>
      <trkpt lat="47.29042" lon="-2.40706">
        <ele>-7</ele>
        <time>2020-10-15T08:08:52.000Z</time>
      </trkpt>
      <trkpt lat="47.29037" lon="-2.40712">
        <ele>-7</ele>
        <time>2020-10-15T08:08:53.000Z</time>
      </trkpt>
      <trkpt lat="47.29021" lon="-2.40736">
        <ele>-7</ele>
        <time>2020-10-15T08:08:57.000Z</time>
      </trkpt>
      <trkpt lat="47.2902" lon="-2.40758">
        <ele>-7</ele>
        <time>2020-10-15T08:09:00.000Z</time>
      </trkpt>
      <trkpt lat="47.2903" lon="-2.40781">
        <ele>-7</ele>
        <time>2020-10-15T08:09:03.000Z</time>
      </trkpt>
      <trkpt lat="47.29033" lon="-2.40787">
        <ele>-7</ele>
        <time>2020-10-15T08:09:04.000Z</time>
      </trkpt>
      <trkpt lat="47.29039" lon="-2.40801">
        <ele>-7</ele>
        <time>2020-10-15T08:09:06.000Z</time>
      </trkpt>
      <trkpt lat="47.29041" lon="-2.40817">
        <ele>-7</ele>
        <time>2020-10-15T08:09:08.000Z</time>
      </trkpt>
      <trkpt lat="47.29032" lon="-2.40838">
        <ele>-7</ele>
        <time>2020-10-15T08:09:11.000Z</time>
      </trkpt>
      <trkpt lat="47.29028" lon="-2.40843">
        <ele>-7</ele>
        <time>2020-10-15T08:09:12.000Z</time>
      </trkpt>
      <trkpt lat="47.2902" lon="-2.40855">
        <ele>-7</ele>
        <time>2020-10-15T08:09:14.000Z</time>
      </trkpt>
      <trkpt lat="47.29009" lon="-2.40877">
        <ele>-7</ele>
        <time>2020-10-15T08:09:17.000Z</time>
      </trkpt>
      <trkpt lat="47.28996" lon="-2.40896">
        <ele>-7</ele>
        <time>2020-10-15T08:09:20.000Z</time>
      </trkpt>
      <trkpt lat="47.28986" lon="-2.40905">
        <ele>-7</ele>
        <time>2020-10-15T08:09:22.000Z</time>
      </trkpt>
      <trkpt lat="47.28962" lon="-2.4091">
        <ele>-7</ele>
        <time>2020-10-15T08:09:26.000Z</time>
      </trkpt>
      <trkpt lat="47.28947" lon="-2.40914">
        <ele>-7</ele>
        <time>2020-10-15T08:09:29.000Z</time>
      </trkpt>
      <trkpt lat="47.28942" lon="-2.40929">
        <ele>-7.4000000953674</ele>
        <time>2020-10-15T08:09:31.000Z</time>
      </trkpt>
      <trkpt lat="47.28941" lon="-2.40937">
        <ele>-7.8000001907349</ele>
        <time>2020-10-15T08:09:32.000Z</time>
      </trkpt>
      <trkpt lat="47.28939" lon="-2.40945">
        <ele>-8.1999998092651</ele>
        <time>2020-10-15T08:09:33.000Z</time>
      </trkpt>
      <trkpt lat="47.28938" lon="-2.40953">
        <ele>-8.6000003814697</ele>
        <time>2020-10-15T08:09:34.000Z</time>
      </trkpt>
      <trkpt lat="47.28936" lon="-2.40962">
        <ele>-9</ele>
        <time>2020-10-15T08:09:35.000Z</time>
      </trkpt>
      <trkpt lat="47.28936" lon="-2.4097">
        <ele>-9</ele>
        <time>2020-10-15T08:09:36.000Z</time>
      </trkpt>
      <trkpt lat="47.28945" lon="-2.40991">
        <ele>-9</ele>
        <time>2020-10-15T08:09:39.000Z</time>
      </trkpt>
      <trkpt lat="47.28947" lon="-2.40998">
        <ele>-9</ele>
        <time>2020-10-15T08:09:40.000Z</time>
      </trkpt>
      <trkpt lat="47.2895" lon="-2.4102">
        <ele>-9</ele>
        <time>2020-10-15T08:09:43.000Z</time>
      </trkpt>
      <trkpt lat="47.2895" lon="-2.41027">
        <ele>-9</ele>
        <time>2020-10-15T08:09:44.000Z</time>
      </trkpt>
      <trkpt lat="47.28951" lon="-2.41041">
        <ele>-9</ele>
        <time>2020-10-15T08:09:46.000Z</time>
      </trkpt>
      <trkpt lat="47.28953" lon="-2.41064">
        <ele>-9</ele>
        <time>2020-10-15T08:09:49.000Z</time>
      </trkpt>
      <trkpt lat="47.28959" lon="-2.41119">
        <ele>-9</ele>
        <time>2020-10-15T08:09:56.000Z</time>
      </trkpt>
      <trkpt lat="47.28964" lon="-2.41148">
        <ele>-9</ele>
        <time>2020-10-15T08:10:00.000Z</time>
      </trkpt>
      <trkpt lat="47.28965" lon="-2.41162">
        <ele>-9</ele>
        <time>2020-10-15T08:10:02.000Z</time>
      </trkpt>
      <trkpt lat="47.28963" lon="-2.41183">
        <ele>-9</ele>
        <time>2020-10-15T08:10:05.000Z</time>
      </trkpt>
      <trkpt lat="47.28959" lon="-2.41196">
        <ele>-9</ele>
        <time>2020-10-15T08:10:07.000Z</time>
      </trkpt>
      <trkpt lat="47.28951" lon="-2.41203">
        <ele>-9</ele>
        <time>2020-10-15T08:10:09.000Z</time>
      </trkpt>
      <trkpt lat="47.28942" lon="-2.41211">
        <ele>-9</ele>
        <time>2020-10-15T08:10:11.000Z</time>
      </trkpt>
      <trkpt lat="47.28934" lon="-2.41218">
        <ele>-9</ele>
        <time>2020-10-15T08:10:13.000Z</time>
      </trkpt>
      <trkpt lat="47.28924" lon="-2.41218">
        <ele>-9</ele>
        <time>2020-10-15T08:10:15.000Z</time>
      </trkpt>
      <trkpt lat="47.28915" lon="-2.41204">
        <ele>-9</ele>
        <time>2020-10-15T08:10:18.000Z</time>
      </trkpt>
      <trkpt lat="47.28912" lon="-2.41198">
        <ele>-9</ele>
        <time>2020-10-15T08:10:19.000Z</time>
      </trkpt>
      <trkpt lat="47.2891" lon="-2.41193">
        <ele>-9</ele>
        <time>2020-10-15T08:10:20.000Z</time>
      </trkpt>
      <trkpt lat="47.28902" lon="-2.41187">
        <ele>-9</ele>
        <time>2020-10-15T08:10:22.000Z</time>
      </trkpt>
      <trkpt lat="47.28887" lon="-2.41192">
        <ele>-9</ele>
        <time>2020-10-15T08:10:26.000Z</time>
      </trkpt>
      <trkpt lat="47.28871" lon="-2.41206">
        <ele>-9</ele>
        <time>2020-10-15T08:10:32.000Z</time>
      </trkpt>
      <trkpt lat="47.28866" lon="-2.41215">
        <ele>-9</ele>
        <time>2020-10-15T08:10:34.000Z</time>
      </trkpt>
      <trkpt lat="47.28863" lon="-2.41227">
        <ele>-9</ele>
        <time>2020-10-15T08:10:36.000Z</time>
      </trkpt>
      <trkpt lat="47.28864" lon="-2.41239">
        <ele>-9</ele>
        <time>2020-10-15T08:10:38.000Z</time>
      </trkpt>
      <trkpt lat="47.28865" lon="-2.41246">
        <ele>-9</ele>
        <time>2020-10-15T08:10:39.000Z</time>
      </trkpt>
      <trkpt lat="47.28865" lon="-2.41252">
        <ele>-9</ele>
        <time>2020-10-15T08:10:40.000Z</time>
      </trkpt>
      <trkpt lat="47.28863" lon="-2.41275">
        <ele>-9</ele>
        <time>2020-10-15T08:10:44.000Z</time>
      </trkpt>
      <trkpt lat="47.28861" lon="-2.41276">
        <ele>-9</ele>
        <time>2020-10-15T08:10:45.000Z</time>
      </trkpt>
      <trkpt lat="47.28855" lon="-2.41275">
        <ele>-9</ele>
        <time>2020-10-15T08:10:48.000Z</time>
      </trkpt>
      <trkpt lat="47.28849" lon="-2.41274">
        <ele>-9</ele>
        <time>2020-10-15T08:10:50.000Z</time>
      </trkpt>
      <trkpt lat="47.28831" lon="-2.41269">
        <ele>-9</ele>
        <time>2020-10-15T08:10:56.000Z</time>
      </trkpt>
      <trkpt lat="47.28817" lon="-2.41257">
        <ele>-9</ele>
        <time>2020-10-15T08:11:01.000Z</time>
      </trkpt>
      <trkpt lat="47.28809" lon="-2.41258">
        <ele>-9.3999996185303</ele>
        <time>2020-10-15T08:11:04.000Z</time>
      </trkpt>
      <trkpt lat="47.28807" lon="-2.41262">
        <ele>-9.8000001907349</ele>
        <time>2020-10-15T08:11:05.000Z</time>
      </trkpt>
      <trkpt lat="47.28805" lon="-2.41265">
        <ele>-10.199999809265</ele>
        <time>2020-10-15T08:11:06.000Z</time>
      </trkpt>
      <trkpt lat="47.28803" lon="-2.4127">
        <ele>-10.60000038147</ele>
        <time>2020-10-15T08:11:07.000Z</time>
      </trkpt>
      <trkpt lat="47.28801" lon="-2.41274">
        <ele>-11</ele>
        <time>2020-10-15T08:11:08.000Z</time>
      </trkpt>
      <trkpt lat="47.28797" lon="-2.41289">
        <ele>-11</ele>
        <time>2020-10-15T08:11:11.000Z</time>
      </trkpt>
      <trkpt lat="47.28794" lon="-2.41297">
        <ele>-11</ele>
        <time>2020-10-15T08:11:14.000Z</time>
      </trkpt>
      <trkpt lat="47.28792" lon="-2.41297">
        <ele>-11</ele>
        <time>2020-10-15T08:11:15.000Z</time>
      </trkpt>
      <trkpt lat="47.28788" lon="-2.41297">
        <ele>-11</ele>
        <time>2020-10-15T08:11:17.000Z</time>
      </trkpt>
      <trkpt lat="47.28784" lon="-2.41304">
        <ele>-11</ele>
        <time>2020-10-15T08:11:19.000Z</time>
      </trkpt>
      <trkpt lat="47.28774" lon="-2.41325">
        <ele>-11</ele>
        <time>2020-10-15T08:11:24.000Z</time>
      </trkpt>
      <trkpt lat="47.2876" lon="-2.41344">
        <ele>-11</ele>
        <time>2020-10-15T08:11:29.000Z</time>
      </trkpt>
      <trkpt lat="47.28754" lon="-2.41346">
        <ele>-11</ele>
        <time>2020-10-15T08:11:31.000Z</time>
      </trkpt>
      <trkpt lat="47.28752" lon="-2.41344">
        <ele>-11</ele>
        <time>2020-10-15T08:11:32.000Z</time>
      </trkpt>
      <trkpt lat="47.28751" lon="-2.41331">
        <ele>-11</ele>
        <time>2020-10-15T08:11:35.000Z</time>
      </trkpt>
      <trkpt lat="47.28752" lon="-2.41315">
        <ele>-11</ele>
        <time>2020-10-15T08:11:38.000Z</time>
      </trkpt>
      <trkpt lat="47.28752" lon="-2.41304">
        <ele>-11</ele>
        <time>2020-10-15T08:11:40.000Z</time>
      </trkpt>
      <trkpt lat="47.28747" lon="-2.41294">
        <ele>-11</ele>
        <time>2020-10-15T08:11:44.000Z</time>
      </trkpt>
      <trkpt lat="47.28738" lon="-2.41296">
        <ele>-11</ele>
        <time>2020-10-15T08:11:47.000Z</time>
      </trkpt>
      <trkpt lat="47.28725" lon="-2.41287">
        <ele>-11</ele>
        <time>2020-10-15T08:11:51.000Z</time>
      </trkpt>
      <trkpt lat="47.28717" lon="-2.41277">
        <ele>-11</ele>
        <time>2020-10-15T08:11:54.000Z</time>
      </trkpt>
      <trkpt lat="47.28715" lon="-2.41273">
        <ele>-11</ele>
        <time>2020-10-15T08:11:55.000Z</time>
      </trkpt>
      <trkpt lat="47.28714" lon="-2.41269">
        <ele>-11</ele>
        <time>2020-10-15T08:11:56.000Z</time>
      </trkpt>
      <trkpt lat="47.28717" lon="-2.41258">
        <ele>-11</ele>
        <time>2020-10-15T08:12:00.000Z</time>
      </trkpt>
      <trkpt lat="47.28717" lon="-2.41247">
        <ele>-11.800000190735</ele>
        <time>2020-10-15T08:12:05.000Z</time>
      </trkpt>
      <trkpt lat="47.28716" lon="-2.41245">
        <ele>-12.199999809265</ele>
        <time>2020-10-15T08:12:06.000Z</time>
      </trkpt>
      <trkpt lat="47.28715" lon="-2.41243">
        <ele>-12.60000038147</ele>
        <time>2020-10-15T08:12:07.000Z</time>
      </trkpt>
      <trkpt lat="47.28714" lon="-2.41242">
        <ele>-13</ele>
        <time>2020-10-15T08:12:08.000Z</time>
      </trkpt>
      <trkpt lat="47.28713" lon="-2.41241">
        <ele>-13</ele>
        <time>2020-10-15T08:12:10.000Z</time>
      </trkpt>
      <trkpt lat="47.28712" lon="-2.41239">
        <ele>-8.1999998092651</ele>
        <time>2020-10-15T08:13:33.000Z</time>
      </trkpt>
      <trkpt lat="47.287" lon="-2.41236">
        <ele>-8.1999998092651</ele>
        <time>2020-10-15T08:13:38.000Z</time>
      </trkpt>
      <trkpt lat="47.28686" lon="-2.41232">
        <ele>-8.1999998092651</ele>
        <time>2020-10-15T08:13:42.000Z</time>
      </trkpt>
      <trkpt lat="47.28677" lon="-2.41231">
        <ele>-8.1999998092651</ele>
        <time>2020-10-15T08:13:44.000Z</time>
      </trkpt>
      <trkpt lat="47.28664" lon="-2.41228">
        <ele>-7.5999999046326</ele>
        <time>2020-10-15T08:13:47.000Z</time>
      </trkpt>
      <trkpt lat="47.28659" lon="-2.41227">
        <ele>-7.1999998092651</ele>
        <time>2020-10-15T08:13:48.000Z</time>
      </trkpt>
      <trkpt lat="47.28655" lon="-2.41226">
        <ele>-6.1999998092651</ele>
        <time>2020-10-15T08:13:49.000Z</time>
      </trkpt>
      <trkpt lat="47.28649" lon="-2.41225">
        <ele>-5</ele>
        <time>2020-10-15T08:13:50.000Z</time>
      </trkpt>
      <trkpt lat="47.28644" lon="-2.41224">
        <ele>-4</ele>
        <time>2020-10-15T08:13:51.000Z</time>
      </trkpt>
      <trkpt lat="47.28638" lon="-2.41222">
        <ele>-3</ele>
        <time>2020-10-15T08:13:52.000Z</time>
      </trkpt>
      <trkpt lat="47.28632" lon="-2.41221">
        <ele>-1.7999999523163</ele>
        <time>2020-10-15T08:13:53.000Z</time>
      </trkpt>
      <trkpt lat="47.28612" lon="-2.41216">
        <ele>-1.7999999523163</ele>
        <time>2020-10-15T08:13:56.000Z</time>
      </trkpt>
      <trkpt lat="47.28568" lon="-2.41209">
        <ele>-1.7999999523163</ele>
        <time>2020-10-15T08:14:03.000Z</time>
      </trkpt>
      <trkpt lat="47.28536" lon="-2.41203">
        <ele>-1.7999999523163</ele>
        <time>2020-10-15T08:14:10.000Z</time>
      </trkpt>
      <trkpt lat="47.28514" lon="-2.41201">
        <ele>-1.7999999523163</ele>
        <time>2020-10-15T08:14:15.000Z</time>
      </trkpt>
      <trkpt lat="47.2851" lon="-2.41202">
        <ele>-1.7999999523163</ele>
        <time>2020-10-15T08:14:16.000Z</time>
      </trkpt>
      <trkpt lat="47.285" lon="-2.41208">
        <ele>-1.7999999523163</ele>
        <time>2020-10-15T08:14:19.000Z</time>
      </trkpt>
      <trkpt lat="47.28497" lon="-2.41211">
        <ele>-1.3999999761581</ele>
        <time>2020-10-15T08:14:20.000Z</time>
      </trkpt>
      <trkpt lat="47.28494" lon="-2.41214">
        <ele>-1</ele>
        <time>2020-10-15T08:14:21.000Z</time>
      </trkpt>
      <trkpt lat="47.28492" lon="-2.41219">
        <ele>-0.60000002384186</ele>
        <time>2020-10-15T08:14:22.000Z</time>
      </trkpt>
      <trkpt lat="47.2849" lon="-2.41223">
        <ele>-0.20000000298023</ele>
        <time>2020-10-15T08:14:23.000Z</time>
      </trkpt>
      <trkpt lat="47.28489" lon="-2.4123">
        <ele>0.20000000298023</ele>
        <time>2020-10-15T08:14:24.000Z</time>
      </trkpt>
      <trkpt lat="47.28486" lon="-2.41248">
        <ele>0.20000000298023</ele>
        <time>2020-10-15T08:14:27.000Z</time>
      </trkpt>
      <trkpt lat="47.28471" lon="-2.41256">
        <ele>0.20000000298023</ele>
        <time>2020-10-15T08:14:31.000Z</time>
      </trkpt>
      <trkpt lat="47.28463" lon="-2.41257">
        <ele>0.20000000298023</ele>
        <time>2020-10-15T08:14:33.000Z</time>
      </trkpt>
      <trkpt lat="47.2846" lon="-2.41258">
        <ele>0.20000000298023</ele>
        <time>2020-10-15T08:14:34.000Z</time>
      </trkpt>
      <trkpt lat="47.28453" lon="-2.41266">
        <ele>0.20000000298023</ele>
        <time>2020-10-15T08:14:36.000Z</time>
      </trkpt>
      <trkpt lat="47.28455" lon="-2.41283">
        <ele>0.20000000298023</ele>
        <time>2020-10-15T08:14:39.000Z</time>
      </trkpt>
      <trkpt lat="47.28455" lon="-2.41293">
        <ele>0.20000000298023</ele>
        <time>2020-10-15T08:14:41.000Z</time>
      </trkpt>
      <trkpt lat="47.28453" lon="-2.41305">
        <ele>0.20000000298023</ele>
        <time>2020-10-15T08:14:43.000Z</time>
      </trkpt>
      <trkpt lat="47.28448" lon="-2.41333">
        <ele>0.20000000298023</ele>
        <time>2020-10-15T08:14:47.000Z</time>
      </trkpt>
      <trkpt lat="47.28444" lon="-2.41347">
        <ele>0.20000000298023</ele>
        <time>2020-10-15T08:14:49.000Z</time>
      </trkpt>
      <trkpt lat="47.28441" lon="-2.41362">
        <ele>0.20000000298023</ele>
        <time>2020-10-15T08:14:51.000Z</time>
      </trkpt>
      <trkpt lat="47.28431" lon="-2.41399">
        <ele>0.20000000298023</ele>
        <time>2020-10-15T08:14:56.000Z</time>
      </trkpt>
      <trkpt lat="47.28419" lon="-2.41459">
        <ele>0.20000000298023</ele>
        <time>2020-10-15T08:15:04.000Z</time>
      </trkpt>
      <trkpt lat="47.28413" lon="-2.41525">
        <ele>0.20000000298023</ele>
        <time>2020-10-15T08:15:13.000Z</time>
      </trkpt>
      <trkpt lat="47.28405" lon="-2.41592">
        <ele>0.20000000298023</ele>
        <time>2020-10-15T08:15:22.000Z</time>
      </trkpt>
      <trkpt lat="47.28399" lon="-2.41648">
        <ele>0.20000000298023</ele>
        <time>2020-10-15T08:15:30.000Z</time>
      </trkpt>
      <trkpt lat="47.28389" lon="-2.41701">
        <ele>0.20000000298023</ele>
        <time>2020-10-15T08:15:37.000Z</time>
      </trkpt>
      <trkpt lat="47.28373" lon="-2.41763">
        <ele>0.20000000298023</ele>
        <time>2020-10-15T08:15:45.000Z</time>
      </trkpt>
      <trkpt lat="47.28357" lon="-2.41823">
        <ele>0.20000000298023</ele>
        <time>2020-10-15T08:15:53.000Z</time>
      </trkpt>
      <trkpt lat="47.28344" lon="-2.41885">
        <ele>0.20000000298023</ele>
        <time>2020-10-15T08:16:01.000Z</time>
      </trkpt>
      <trkpt lat="47.28334" lon="-2.41932">
        <ele>0.20000000298023</ele>
        <time>2020-10-15T08:16:07.000Z</time>
      </trkpt>
      <trkpt lat="47.2832" lon="-2.41987">
        <ele>0.20000000298023</ele>
        <time>2020-10-15T08:16:14.000Z</time>
      </trkpt>
      <trkpt lat="47.28313" lon="-2.42018">
        <ele>0.20000000298023</ele>
        <time>2020-10-15T08:16:18.000Z</time>
      </trkpt>
      <trkpt lat="47.28309" lon="-2.42033">
        <ele>0.20000000298023</ele>
        <time>2020-10-15T08:16:20.000Z</time>
      </trkpt>
      <trkpt lat="47.28301" lon="-2.42079">
        <ele>0.20000000298023</ele>
        <time>2020-10-15T08:16:26.000Z</time>
      </trkpt>
      <trkpt lat="47.28298" lon="-2.42111">
        <ele>0.20000000298023</ele>
        <time>2020-10-15T08:16:31.000Z</time>
      </trkpt>
      <trkpt lat="47.28295" lon="-2.42124">
        <ele>0.20000000298023</ele>
        <time>2020-10-15T08:16:33.000Z</time>
      </trkpt>
      <trkpt lat="47.28287" lon="-2.42177">
        <ele>0.20000000298023</ele>
        <time>2020-10-15T08:16:41.000Z</time>
      </trkpt>
      <trkpt lat="47.28277" lon="-2.42243">
        <ele>0.20000000298023</ele>
        <time>2020-10-15T08:16:51.000Z</time>
      </trkpt>
      <trkpt lat="47.28268" lon="-2.4229">
        <ele>0.20000000298023</ele>
        <time>2020-10-15T08:16:58.000Z</time>
      </trkpt>
      <trkpt lat="47.28268" lon="-2.42296">
        <ele>0.20000000298023</ele>
        <time>2020-10-15T08:16:59.000Z</time>
      </trkpt>
      <trkpt lat="47.28265" lon="-2.42345">
        <ele>0.20000000298023</ele>
        <time>2020-10-15T08:17:06.000Z</time>
      </trkpt>
      <trkpt lat="47.28255" lon="-2.42392">
        <ele>0.20000000298023</ele>
        <time>2020-10-15T08:17:13.000Z</time>
      </trkpt>
      <trkpt lat="47.28242" lon="-2.42442">
        <ele>0.20000000298023</ele>
        <time>2020-10-15T08:17:21.000Z</time>
      </trkpt>
      <trkpt lat="47.28221" lon="-2.42483">
        <ele>0.20000000298023</ele>
        <time>2020-10-15T08:17:28.000Z</time>
      </trkpt>
      <trkpt lat="47.28215" lon="-2.42494">
        <ele>0.20000000298023</ele>
        <time>2020-10-15T08:17:30.000Z</time>
      </trkpt>
      <trkpt lat="47.28201" lon="-2.42513">
        <ele>0.20000000298023</ele>
        <time>2020-10-15T08:17:34.000Z</time>
      </trkpt>
      <trkpt lat="47.28192" lon="-2.42521">
        <ele>0.20000000298023</ele>
        <time>2020-10-15T08:17:36.000Z</time>
      </trkpt>
      <trkpt lat="47.2818" lon="-2.42528">
        <ele>0.20000000298023</ele>
        <time>2020-10-15T08:17:39.000Z</time>
      </trkpt>
      <trkpt lat="47.28157" lon="-2.42535">
        <ele>0.20000000298023</ele>
        <time>2020-10-15T08:17:45.000Z</time>
      </trkpt>
      <trkpt lat="47.28132" lon="-2.42541">
        <ele>0.20000000298023</ele>
        <time>2020-10-15T08:17:51.000Z</time>
      </trkpt>
      <trkpt lat="47.28119" lon="-2.42545">
        <ele>0.20000000298023</ele>
        <time>2020-10-15T08:17:54.000Z</time>
      </trkpt>
      <trkpt lat="47.28107" lon="-2.42546">
        <ele>0.20000000298023</ele>
        <time>2020-10-15T08:17:57.000Z</time>
      </trkpt>
      <trkpt lat="47.281" lon="-2.42552">
        <ele>0.20000000298023</ele>
        <time>2020-10-15T08:18:00.000Z</time>
      </trkpt>
      <trkpt lat="47.28105" lon="-2.42565">
        <ele>0.20000000298023</ele>
        <time>2020-10-15T08:18:04.000Z</time>
      </trkpt>
      <trkpt lat="47.28121" lon="-2.42592">
        <ele>0.20000000298023</ele>
        <time>2020-10-15T08:18:10.000Z</time>
      </trkpt>
      <trkpt lat="47.28126" lon="-2.42602">
        <ele>0.60000002384186</ele>
        <time>2020-10-15T08:18:12.000Z</time>
      </trkpt>
      <trkpt lat="47.28128" lon="-2.42606">
        <ele>1</ele>
        <time>2020-10-15T08:18:13.000Z</time>
      </trkpt>
      <trkpt lat="47.28131" lon="-2.42611">
        <ele>1.3999999761581</ele>
        <time>2020-10-15T08:18:14.000Z</time>
      </trkpt>
      <trkpt lat="47.28134" lon="-2.42615">
        <ele>2.2000000476837</ele>
        <time>2020-10-15T08:18:15.000Z</time>
      </trkpt>
      <trkpt lat="47.28141" lon="-2.42629">
        <ele>2.2000000476837</ele>
        <time>2020-10-15T08:18:18.000Z</time>
      </trkpt>
      <trkpt lat="47.28159" lon="-2.4266">
        <ele>2.2000000476837</ele>
        <time>2020-10-15T08:18:25.000Z</time>
      </trkpt>
      <trkpt lat="47.28163" lon="-2.42664">
        <ele>2.2000000476837</ele>
        <time>2020-10-15T08:18:26.000Z</time>
      </trkpt>
      <trkpt lat="47.28174" lon="-2.42679">
        <ele>2.2000000476837</ele>
        <time>2020-10-15T08:18:29.000Z</time>
      </trkpt>
      <trkpt lat="47.2818" lon="-2.42691">
        <ele>2.2000000476837</ele>
        <time>2020-10-15T08:18:31.000Z</time>
      </trkpt>
      <trkpt lat="47.28191" lon="-2.42707">
        <ele>2.2000000476837</ele>
        <time>2020-10-15T08:18:35.000Z</time>
      </trkpt>
      <trkpt lat="47.28197" lon="-2.42707">
        <ele>2.2000000476837</ele>
        <time>2020-10-15T08:18:37.000Z</time>
      </trkpt>
      <trkpt lat="47.28198" lon="-2.42702">
        <ele>2.2000000476837</ele>
        <time>2020-10-15T08:18:39.000Z</time>
      </trkpt>
      <trkpt lat="47.28199" lon="-2.4268">
        <ele>2.2000000476837</ele>
        <time>2020-10-15T08:18:43.000Z</time>
      </trkpt>
      <trkpt lat="47.28209" lon="-2.42658">
        <ele>2.2000000476837</ele>
        <time>2020-10-15T08:18:47.000Z</time>
      </trkpt>
      <trkpt lat="47.28221" lon="-2.42644">
        <ele>2.2000000476837</ele>
        <time>2020-10-15T08:18:50.000Z</time>
      </trkpt>
      <trkpt lat="47.28232" lon="-2.42632">
        <ele>2.2000000476837</ele>
        <time>2020-10-15T08:18:53.000Z</time>
      </trkpt>
      <trkpt lat="47.28267" lon="-2.42596">
        <ele>2.2000000476837</ele>
        <time>2020-10-15T08:19:02.000Z</time>
      </trkpt>
      <trkpt lat="47.28296" lon="-2.42566">
        <ele>2.2000000476837</ele>
        <time>2020-10-15T08:19:10.000Z</time>
      </trkpt>
      <trkpt lat="47.2832" lon="-2.42543">
        <ele>2.2000000476837</ele>
        <time>2020-10-15T08:19:16.000Z</time>
      </trkpt>
      <trkpt lat="47.28322" lon="-2.42537">
        <ele>2.2000000476837</ele>
        <time>2020-10-15T08:19:17.000Z</time>
      </trkpt>
      <trkpt lat="47.28326" lon="-2.42523">
        <ele>2.2000000476837</ele>
        <time>2020-10-15T08:19:19.000Z</time>
      </trkpt>
      <trkpt lat="47.28336" lon="-2.42495">
        <ele>2.2000000476837</ele>
        <time>2020-10-15T08:19:23.000Z</time>
      </trkpt>
      <trkpt lat="47.28361" lon="-2.42434">
        <ele>2.2000000476837</ele>
        <time>2020-10-15T08:19:32.000Z</time>
      </trkpt>
      <trkpt lat="47.28378" lon="-2.4239">
        <ele>2.2000000476837</ele>
        <time>2020-10-15T08:19:39.000Z</time>
      </trkpt>
      <trkpt lat="47.28383" lon="-2.42376">
        <ele>2.2000000476837</ele>
        <time>2020-10-15T08:19:41.000Z</time>
      </trkpt>
      <trkpt lat="47.28385" lon="-2.42359">
        <ele>2.2000000476837</ele>
        <time>2020-10-15T08:19:43.000Z</time>
      </trkpt>
      <trkpt lat="47.28382" lon="-2.42331">
        <ele>2.2000000476837</ele>
        <time>2020-10-15T08:19:47.000Z</time>
      </trkpt>
      <trkpt lat="47.28377" lon="-2.42299">
        <ele>2.2000000476837</ele>
        <time>2020-10-15T08:19:52.000Z</time>
      </trkpt>
      <trkpt lat="47.28378" lon="-2.42293">
        <ele>2.2000000476837</ele>
        <time>2020-10-15T08:19:53.000Z</time>
      </trkpt>
      <trkpt lat="47.28382" lon="-2.42278">
        <ele>2.2000000476837</ele>
        <time>2020-10-15T08:19:57.000Z</time>
      </trkpt>
      <trkpt lat="47.28386" lon="-2.42271">
        <ele>2.2000000476837</ele>
        <time>2020-10-15T08:20:06.000Z</time>
      </trkpt>
      <trkpt lat="47.28387" lon="-2.42268">
        <ele>2.2000000476837</ele>
        <time>2020-10-15T08:20:07.000Z</time>
      </trkpt>
      <trkpt lat="47.28388" lon="-2.42263">
        <ele>2.2000000476837</ele>
        <time>2020-10-15T08:20:08.000Z</time>
      </trkpt>
      <trkpt lat="47.28393" lon="-2.42232">
        <ele>2.2000000476837</ele>
        <time>2020-10-15T08:20:13.000Z</time>
      </trkpt>
      <trkpt lat="47.28395" lon="-2.42225">
        <ele>2.2000000476837</ele>
        <time>2020-10-15T08:20:14.000Z</time>
      </trkpt>
      <trkpt lat="47.28402" lon="-2.42197">
        <ele>2.2000000476837</ele>
        <time>2020-10-15T08:20:18.000Z</time>
      </trkpt>
      <trkpt lat="47.28413" lon="-2.42144">
        <ele>2.2000000476837</ele>
        <time>2020-10-15T08:20:26.000Z</time>
      </trkpt>
      <trkpt lat="47.28426" lon="-2.42088">
        <ele>2.2000000476837</ele>
        <time>2020-10-15T08:20:35.000Z</time>
      </trkpt>
      <trkpt lat="47.28435" lon="-2.42047">
        <ele>2.2000000476837</ele>
        <time>2020-10-15T08:20:41.000Z</time>
      </trkpt>
      <trkpt lat="47.28443" lon="-2.42007">
        <ele>2.2000000476837</ele>
        <time>2020-10-15T08:20:47.000Z</time>
      </trkpt>
      <trkpt lat="47.28451" lon="-2.41957">
        <ele>2.2000000476837</ele>
        <time>2020-10-15T08:20:55.000Z</time>
      </trkpt>
      <trkpt lat="47.28458" lon="-2.41946">
        <ele>2.2000000476837</ele>
        <time>2020-10-15T08:20:58.000Z</time>
      </trkpt>
      <trkpt lat="47.28461" lon="-2.41944">
        <ele>2.2000000476837</ele>
        <time>2020-10-15T08:20:59.000Z</time>
      </trkpt>
      <trkpt lat="47.28479" lon="-2.41939">
        <ele>2.2000000476837</ele>
        <time>2020-10-15T08:21:02.000Z</time>
      </trkpt>
      <trkpt lat="47.28489" lon="-2.41937">
        <ele>2.2000000476837</ele>
        <time>2020-10-15T08:21:04.000Z</time>
      </trkpt>
      <trkpt lat="47.28494" lon="-2.41937">
        <ele>1.7999999523163</ele>
        <time>2020-10-15T08:21:05.000Z</time>
      </trkpt>
      <trkpt lat="47.28497" lon="-2.41936">
        <ele>1.3999999761581</ele>
        <time>2020-10-15T08:21:06.000Z</time>
      </trkpt>
      <trkpt lat="47.285" lon="-2.41936">
        <ele>1</ele>
        <time>2020-10-15T08:21:07.000Z</time>
      </trkpt>
      <trkpt lat="47.28503" lon="-2.41937">
        <ele>0.40000000596046</ele>
        <time>2020-10-15T08:21:08.000Z</time>
      </trkpt>
      <trkpt lat="47.28505" lon="-2.41937">
        <ele>3</ele>
        <time>2020-10-15T08:21:09.000Z</time>
      </trkpt>
      <trkpt lat="47.28508" lon="-2.41934">
        <ele>3</ele>
        <time>2020-10-15T08:21:11.000Z</time>
      </trkpt>
      <trkpt lat="47.28502" lon="-2.41928">
        <ele>3</ele>
        <time>2020-10-15T08:21:14.000Z</time>
      </trkpt>
      <trkpt lat="47.285" lon="-2.41916">
        <ele>3</ele>
        <time>2020-10-15T08:21:16.000Z</time>
      </trkpt>
      <trkpt lat="47.28503" lon="-2.41887">
        <ele>3.8</ele>
        <time>2020-10-15T08:21:20.000Z</time>
      </trkpt>
      <trkpt lat="47.28505" lon="-2.41879">
        <ele>4</ele>
        <time>2020-10-15T08:21:21.000Z</time>
      </trkpt>
      <trkpt lat="47.28515" lon="-2.41819">
        <ele>2.7</ele>
        <time>2020-10-15T08:21:29.000Z</time>
      </trkpt>
      <trkpt lat="47.28525" lon="-2.41754">
        <ele>3.9</ele>
        <time>2020-10-15T08:21:37.000Z</time>
      </trkpt>
      <trkpt lat="47.28528" lon="-2.41747">
        <ele>3.9</ele>
        <time>2020-10-15T08:21:38.000Z</time>
      </trkpt>
      <trkpt lat="47.28535" lon="-2.41735">
        <ele>3.5</ele>
        <time>2020-10-15T08:21:40.000Z</time>
      </trkpt>
      <trkpt lat="47.2855" lon="-2.41728">
        <ele>3.7</ele>
        <time>2020-10-15T08:21:43.000Z</time>
      </trkpt>
      <trkpt lat="47.28572" lon="-2.41729">
        <ele>0.40000000596046</ele>
        <time>2020-10-15T08:21:47.000Z</time>
      </trkpt>
      <trkpt lat="47.28577" lon="-2.41731">
        <ele>1</ele>
        <time>2020-10-15T08:21:48.000Z</time>
      </trkpt>
      <trkpt lat="47.28583" lon="-2.41734">
        <ele>1.3999999761581</ele>
        <time>2020-10-15T08:21:49.000Z</time>
      </trkpt>
      <trkpt lat="47.28588" lon="-2.41737">
        <ele>1.7999999523163</ele>
        <time>2020-10-15T08:21:50.000Z</time>
      </trkpt>
      <trkpt lat="47.28594" lon="-2.41741">
        <ele>2.2000000476837</ele>
        <time>2020-10-15T08:21:51.000Z</time>
      </trkpt>
      <trkpt lat="47.28599" lon="-2.41746">
        <ele>2.2000000476837</ele>
        <time>2020-10-15T08:21:52.000Z</time>
      </trkpt>
      <trkpt lat="47.28604" lon="-2.41751">
        <ele>2.2000000476837</ele>
        <time>2020-10-15T08:21:53.000Z</time>
      </trkpt>
      <trkpt lat="47.28637" lon="-2.41785">
        <ele>2.2000000476837</ele>
        <time>2020-10-15T08:22:00.000Z</time>
      </trkpt>
      <trkpt lat="47.28671" lon="-2.41815">
        <ele>2.2000000476837</ele>
        <time>2020-10-15T08:22:07.000Z</time>
      </trkpt>
      <trkpt lat="47.28704" lon="-2.41842">
        <ele>2.2000000476837</ele>
        <time>2020-10-15T08:22:14.000Z</time>
      </trkpt>
      <trkpt lat="47.28722" lon="-2.41858">
        <ele>2.2000000476837</ele>
        <time>2020-10-15T08:22:18.000Z</time>
      </trkpt>
      <trkpt lat="47.28733" lon="-2.41864">
        <ele>2.2000000476837</ele>
        <time>2020-10-15T08:22:20.000Z</time>
      </trkpt>
      <trkpt lat="47.28764" lon="-2.41881">
        <ele>2.2000000476837</ele>
        <time>2020-10-15T08:22:26.000Z</time>
      </trkpt>
      <trkpt lat="47.28769" lon="-2.41884">
        <ele>2.2000000476837</ele>
        <time>2020-10-15T08:22:27.000Z</time>
      </trkpt>
      <trkpt lat="47.28787" lon="-2.41903">
        <ele>2.2000000476837</ele>
        <time>2020-10-15T08:22:31.000Z</time>
      </trkpt>
      <trkpt lat="47.28794" lon="-2.41927">
        <ele>2.2000000476837</ele>
        <time>2020-10-15T08:22:34.000Z</time>
      </trkpt>
      <trkpt lat="47.28795" lon="-2.41953">
        <ele>2.2000000476837</ele>
        <time>2020-10-15T08:22:37.000Z</time>
      </trkpt>
      <trkpt lat="47.28795" lon="-2.41961">
        <ele>2.2000000476837</ele>
        <time>2020-10-15T08:22:38.000Z</time>
      </trkpt>
      <trkpt lat="47.28799" lon="-2.42002">
        <ele>2.2000000476837</ele>
        <time>2020-10-15T08:22:43.000Z</time>
      </trkpt>
      <trkpt lat="47.28809" lon="-2.42049">
        <ele>2.2000000476837</ele>
        <time>2020-10-15T08:22:49.000Z</time>
      </trkpt>
      <trkpt lat="47.2881" lon="-2.42057">
        <ele>2.2000000476837</ele>
        <time>2020-10-15T08:22:50.000Z</time>
      </trkpt>
      <trkpt lat="47.28809" lon="-2.42082">
        <ele>2.2000000476837</ele>
        <time>2020-10-15T08:22:53.000Z</time>
      </trkpt>
      <trkpt lat="47.28808" lon="-2.4209">
        <ele>2.2000000476837</ele>
        <time>2020-10-15T08:22:54.000Z</time>
      </trkpt>
      <trkpt lat="47.28806" lon="-2.42098">
        <ele>2.2000000476837</ele>
        <time>2020-10-15T08:22:55.000Z</time>
      </trkpt>
      <trkpt lat="47.28798" lon="-2.4212">
        <ele>2.2000000476837</ele>
        <time>2020-10-15T08:22:58.000Z</time>
      </trkpt>
      <trkpt lat="47.28778" lon="-2.42139">
        <ele>2.2000000476837</ele>
        <time>2020-10-15T08:23:02.000Z</time>
      </trkpt>
      <trkpt lat="47.28772" lon="-2.42142">
        <ele>2.2000000476837</ele>
        <time>2020-10-15T08:23:03.000Z</time>
      </trkpt>
      <trkpt lat="47.28732" lon="-2.42171">
        <ele>2.2000000476837</ele>
        <time>2020-10-15T08:23:10.000Z</time>
      </trkpt>
      <trkpt lat="47.28717" lon="-2.42187">
        <ele>1.7999999523163</ele>
        <time>2020-10-15T08:23:13.000Z</time>
      </trkpt>
      <trkpt lat="47.28713" lon="-2.42192">
        <ele>1.3999999761581</ele>
        <time>2020-10-15T08:23:14.000Z</time>
      </trkpt>
      <trkpt lat="47.28709" lon="-2.42197">
        <ele>1</ele>
        <time>2020-10-15T08:23:15.000Z</time>
      </trkpt>
      <trkpt lat="47.28705" lon="-2.42203">
        <ele>0.60000002384186</ele>
        <time>2020-10-15T08:23:16.000Z</time>
      </trkpt>
      <trkpt lat="47.28702" lon="-2.42208">
        <ele>0.20000000298023</ele>
        <time>2020-10-15T08:23:17.000Z</time>
      </trkpt>
      <trkpt lat="47.28699" lon="-2.42215">
        <ele>0.20000000298023</ele>
        <time>2020-10-15T08:23:18.000Z</time>
      </trkpt>
      <trkpt lat="47.28692" lon="-2.42237">
        <ele>0.20000000298023</ele>
        <time>2020-10-15T08:23:21.000Z</time>
      </trkpt>
      <trkpt lat="47.28679" lon="-2.42297">
        <ele>0.20000000298023</ele>
        <time>2020-10-15T08:23:28.000Z</time>
      </trkpt>
      <trkpt lat="47.2867" lon="-2.42378">
        <ele>0.20000000298023</ele>
        <time>2020-10-15T08:23:37.000Z</time>
      </trkpt>
      <trkpt lat="47.28659" lon="-2.42398">
        <ele>0.20000000298023</ele>
        <time>2020-10-15T08:23:40.000Z</time>
      </trkpt>
      <trkpt lat="47.28655" lon="-2.42404">
        <ele>0.20000000298023</ele>
        <time>2020-10-15T08:23:41.000Z</time>
      </trkpt>
      <trkpt lat="47.28629" lon="-2.42432">
        <ele>0.20000000298023</ele>
        <time>2020-10-15T08:23:46.000Z</time>
      </trkpt>
      <trkpt lat="47.28601" lon="-2.42459">
        <ele>0.20000000298023</ele>
        <time>2020-10-15T08:23:51.000Z</time>
      </trkpt>
      <trkpt lat="47.28576" lon="-2.42492">
        <ele>0.20000000298023</ele>
        <time>2020-10-15T08:23:56.000Z</time>
      </trkpt>
      <trkpt lat="47.28572" lon="-2.425">
        <ele>0.20000000298023</ele>
        <time>2020-10-15T08:23:57.000Z</time>
      </trkpt>
      <trkpt lat="47.28564" lon="-2.42539">
        <ele>0.20000000298023</ele>
        <time>2020-10-15T08:24:01.000Z</time>
      </trkpt>
      <trkpt lat="47.28568" lon="-2.42568">
        <ele>0.20000000298023</ele>
        <time>2020-10-15T08:24:04.000Z</time>
      </trkpt>
      <trkpt lat="47.2858" lon="-2.42591">
        <ele>0.20000000298023</ele>
        <time>2020-10-15T08:24:07.000Z</time>
      </trkpt>
      <trkpt lat="47.28589" lon="-2.42604">
        <ele>0.20000000298023</ele>
        <time>2020-10-15T08:24:09.000Z</time>
      </trkpt>
      <trkpt lat="47.28604" lon="-2.4262">
        <ele>0.20000000298023</ele>
        <time>2020-10-15T08:24:12.000Z</time>
      </trkpt>
      <trkpt lat="47.28626" lon="-2.42638">
        <ele>0.20000000298023</ele>
        <time>2020-10-15T08:24:17.000Z</time>
      </trkpt>
      <trkpt lat="47.28641" lon="-2.42649">
        <ele>0.20000000298023</ele>
        <time>2020-10-15T08:24:21.000Z</time>
      </trkpt>
      <trkpt lat="47.28645" lon="-2.4265">
        <ele>0.20000000298023</ele>
        <time>2020-10-15T08:24:22.000Z</time>
      </trkpt>
      <trkpt lat="47.2866" lon="-2.42653">
        <ele>0.20000000298023</ele>
        <time>2020-10-15T08:24:25.000Z</time>
      </trkpt>
      <trkpt lat="47.28674" lon="-2.42655">
        <ele>0.20000000298023</ele>
        <time>2020-10-15T08:24:28.000Z</time>
      </trkpt>
      <trkpt lat="47.28689" lon="-2.42658">
        <ele>0.20000000298023</ele>
        <time>2020-10-15T08:24:31.000Z</time>
      </trkpt>
      <trkpt lat="47.28693" lon="-2.42659">
        <ele>0.20000000298023</ele>
        <time>2020-10-15T08:24:32.000Z</time>
      </trkpt>
      <trkpt lat="47.28698" lon="-2.4266">
        <ele>0.60000002384186</ele>
        <time>2020-10-15T08:24:33.000Z</time>
      </trkpt>
      <trkpt lat="47.28703" lon="-2.42662">
        <ele>1</ele>
        <time>2020-10-15T08:24:34.000Z</time>
      </trkpt>
      <trkpt lat="47.28707" lon="-2.42664">
        <ele>1.3999999761581</ele>
        <time>2020-10-15T08:24:35.000Z</time>
      </trkpt>
      <trkpt lat="47.28711" lon="-2.42666">
        <ele>1.7999999523163</ele>
        <time>2020-10-15T08:24:36.000Z</time>
      </trkpt>
      <trkpt lat="47.28716" lon="-2.4267">
        <ele>2.2000000476837</ele>
        <time>2020-10-15T08:24:37.000Z</time>
      </trkpt>
      <trkpt lat="47.28719" lon="-2.42675">
        <ele>2.2000000476837</ele>
        <time>2020-10-15T08:24:38.000Z</time>
      </trkpt>
      <trkpt lat="47.28721" lon="-2.42697">
        <ele>2.2000000476837</ele>
        <time>2020-10-15T08:24:41.000Z</time>
      </trkpt>
      <trkpt lat="47.28721" lon="-2.42704">
        <ele>2.2000000476837</ele>
        <time>2020-10-15T08:24:42.000Z</time>
      </trkpt>
      <trkpt lat="47.28719" lon="-2.42726">
        <ele>2.2000000476837</ele>
        <time>2020-10-15T08:24:45.000Z</time>
      </trkpt>
      <trkpt lat="47.28716" lon="-2.42748">
        <ele>2.2000000476837</ele>
        <time>2020-10-15T08:24:48.000Z</time>
      </trkpt>
      <trkpt lat="47.28715" lon="-2.42756">
        <ele>2.2000000476837</ele>
        <time>2020-10-15T08:24:49.000Z</time>
      </trkpt>
      <trkpt lat="47.28704" lon="-2.42783">
        <ele>2.2000000476837</ele>
        <time>2020-10-15T08:24:53.000Z</time>
      </trkpt>
      <trkpt lat="47.28684" lon="-2.42822">
        <ele>2.2000000476837</ele>
        <time>2020-10-15T08:24:59.000Z</time>
      </trkpt>
      <trkpt lat="47.28678" lon="-2.42835">
        <ele>2.2000000476837</ele>
        <time>2020-10-15T08:25:01.000Z</time>
      </trkpt>
      <trkpt lat="47.28673" lon="-2.42859">
        <ele>2.2000000476837</ele>
        <time>2020-10-15T08:25:04.000Z</time>
      </trkpt>
      <trkpt lat="47.28666" lon="-2.42917">
        <ele>2.2000000476837</ele>
        <time>2020-10-15T08:25:11.000Z</time>
      </trkpt>
      <trkpt lat="47.28658" lon="-2.42976">
        <ele>2.2000000476837</ele>
        <time>2020-10-15T08:25:18.000Z</time>
      </trkpt>
      <trkpt lat="47.28647" lon="-2.43032">
        <ele>2.2000000476837</ele>
        <time>2020-10-15T08:25:25.000Z</time>
      </trkpt>
      <trkpt lat="47.28642" lon="-2.43063">
        <ele>2.2000000476837</ele>
        <time>2020-10-15T08:25:29.000Z</time>
      </trkpt>
      <trkpt lat="47.28639" lon="-2.43077">
        <ele>2.2000000476837</ele>
        <time>2020-10-15T08:25:31.000Z</time>
      </trkpt>
      <trkpt lat="47.28631" lon="-2.43101">
        <ele>2.2000000476837</ele>
        <time>2020-10-15T08:25:34.000Z</time>
      </trkpt>
      <trkpt lat="47.28629" lon="-2.4311">
        <ele>1.7999999523163</ele>
        <time>2020-10-15T08:25:35.000Z</time>
      </trkpt>
      <trkpt lat="47.28627" lon="-2.43119">
        <ele>1.2000000476837</ele>
        <time>2020-10-15T08:25:36.000Z</time>
      </trkpt>
      <trkpt lat="47.28626" lon="-2.43128">
        <ele>0.80000001192093</ele>
        <time>2020-10-15T08:25:37.000Z</time>
      </trkpt>
      <trkpt lat="47.28625" lon="-2.43136">
        <ele>0.40000000596046</ele>
        <time>2020-10-15T08:25:38.000Z</time>
      </trkpt>
      <trkpt lat="47.28625" lon="-2.43145">
        <ele>3.3</ele>
        <time>2020-10-15T08:25:39.000Z</time>
      </trkpt>
      <trkpt lat="47.28628" lon="-2.43179">
        <ele>2.5</ele>
        <time>2020-10-15T08:25:43.000Z</time>
      </trkpt>
      <trkpt lat="47.28628" lon="-2.43187">
        <ele>2.6</ele>
        <time>2020-10-15T08:25:44.000Z</time>
      </trkpt>
      <trkpt lat="47.2863" lon="-2.43194">
        <ele>2.7</ele>
        <time>2020-10-15T08:25:45.000Z</time>
      </trkpt>
      <trkpt lat="47.28637" lon="-2.43215">
        <ele>3.5</ele>
        <time>2020-10-15T08:25:48.000Z</time>
      </trkpt>
      <trkpt lat="47.2864" lon="-2.43221">
        <ele>3.7</ele>
        <time>2020-10-15T08:25:49.000Z</time>
      </trkpt>
      <trkpt lat="47.2865" lon="-2.43236">
        <ele>2.5</ele>
        <time>2020-10-15T08:25:52.000Z</time>
      </trkpt>
      <trkpt lat="47.28649" lon="-2.43246">
        <ele>2.3</ele>
        <time>2020-10-15T08:25:54.000Z</time>
      </trkpt>
      <trkpt lat="47.28638" lon="-2.43254">
        <ele>2.9</ele>
        <time>2020-10-15T08:25:57.000Z</time>
      </trkpt>
      <trkpt lat="47.28613" lon="-2.43262">
        <ele>3.1</ele>
        <time>2020-10-15T08:26:02.000Z</time>
      </trkpt>
      <trkpt lat="47.28604" lon="-2.43262">
        <ele>2.7</ele>
        <time>2020-10-15T08:26:04.000Z</time>
      </trkpt>
      <trkpt lat="47.28597" lon="-2.43252">
        <ele>2.5</ele>
        <time>2020-10-15T08:26:06.000Z</time>
      </trkpt>
      <trkpt lat="47.28594" lon="-2.43224">
        <ele>2.7</ele>
        <time>2020-10-15T08:26:10.000Z</time>
      </trkpt>
      <trkpt lat="47.28594" lon="-2.43217">
        <ele>2.7</ele>
        <time>2020-10-15T08:26:11.000Z</time>
      </trkpt>
      <trkpt lat="47.28593" lon="-2.43174">
        <ele>2.7</ele>
        <time>2020-10-15T08:26:17.000Z</time>
      </trkpt>
      <trkpt lat="47.28592" lon="-2.43166">
        <ele>2.6</ele>
        <time>2020-10-15T08:26:18.000Z</time>
      </trkpt>
      <trkpt lat="47.28586" lon="-2.43136">
        <ele>2.5</ele>
        <time>2020-10-15T08:26:22.000Z</time>
      </trkpt>
      <trkpt lat="47.28578" lon="-2.43108">
        <ele>3.8</ele>
        <time>2020-10-15T08:26:26.000Z</time>
      </trkpt>
      <trkpt lat="47.28571" lon="-2.43096">
        <ele>3.6</ele>
        <time>2020-10-15T08:26:28.000Z</time>
      </trkpt>
      <trkpt lat="47.28543" lon="-2.43052">
        <ele>3.2</ele>
        <time>2020-10-15T08:26:36.000Z</time>
      </trkpt>
      <trkpt lat="47.28535" lon="-2.43043">
        <ele>3.2</ele>
        <time>2020-10-15T08:26:38.000Z</time>
      </trkpt>
      <trkpt lat="47.28521" lon="-2.43035">
        <ele>3.4</ele>
        <time>2020-10-15T08:26:41.000Z</time>
      </trkpt>
      <trkpt lat="47.28516" lon="-2.43032">
        <ele>3.4</ele>
        <time>2020-10-15T08:26:42.000Z</time>
      </trkpt>
      <trkpt lat="47.28496" lon="-2.43026">
        <ele>3.1</ele>
        <time>2020-10-15T08:26:46.000Z</time>
      </trkpt>
      <trkpt lat="47.28486" lon="-2.43027">
        <ele>3</ele>
        <time>2020-10-15T08:26:48.000Z</time>
      </trkpt>
      <trkpt lat="47.28469" lon="-2.43044">
        <ele>2.5</ele>
        <time>2020-10-15T08:26:52.000Z</time>
      </trkpt>
      <trkpt lat="47.28463" lon="-2.43056">
        <ele>2.3</ele>
        <time>2020-10-15T08:26:54.000Z</time>
      </trkpt>
      <trkpt lat="47.28453" lon="-2.43074">
        <ele>2.9</ele>
        <time>2020-10-15T08:26:57.000Z</time>
      </trkpt>
      <trkpt lat="47.28431" lon="-2.43101">
        <ele>2.9</ele>
        <time>2020-10-15T08:27:02.000Z</time>
      </trkpt>
      <trkpt lat="47.28405" lon="-2.43141">
        <ele>2.1</ele>
        <time>2020-10-15T08:27:09.000Z</time>
      </trkpt>
      <trkpt lat="47.28401" lon="-2.43146">
        <ele>2.3</ele>
        <time>2020-10-15T08:27:10.000Z</time>
      </trkpt>
      <trkpt lat="47.28382" lon="-2.4317">
        <ele>2.7</ele>
        <time>2020-10-15T08:27:15.000Z</time>
      </trkpt>
      <trkpt lat="47.28354" lon="-2.432">
        <ele>2.6</ele>
        <time>2020-10-15T08:27:22.000Z</time>
      </trkpt>
      <trkpt lat="47.28329" lon="-2.43231">
        <ele>2.6</ele>
        <time>2020-10-15T08:27:28.000Z</time>
      </trkpt>
      <trkpt lat="47.28311" lon="-2.43258">
        <ele>1.8</ele>
        <time>2020-10-15T08:27:33.000Z</time>
      </trkpt>
      <trkpt lat="47.28307" lon="-2.43262">
        <ele>1.6</ele>
        <time>2020-10-15T08:27:34.000Z</time>
      </trkpt>
      <trkpt lat="47.28297" lon="-2.43264">
        <ele>2.1</ele>
        <time>2020-10-15T08:27:37.000Z</time>
      </trkpt>
      <trkpt lat="47.28294" lon="-2.43259">
        <ele>2.3</ele>
        <time>2020-10-15T08:27:38.000Z</time>
      </trkpt>
      <trkpt lat="47.28292" lon="-2.43241">
        <ele>2.5</ele>
        <time>2020-10-15T08:27:41.000Z</time>
      </trkpt>
      <trkpt lat="47.28294" lon="-2.43223">
        <ele>2.4</ele>
        <time>2020-10-15T08:27:44.000Z</time>
      </trkpt>
      <trkpt lat="47.28297" lon="-2.43203">
        <ele>2.5</ele>
        <time>2020-10-15T08:27:47.000Z</time>
      </trkpt>
      <trkpt lat="47.28307" lon="-2.43146">
        <ele>2.7</ele>
        <time>2020-10-15T08:27:55.000Z</time>
      </trkpt>
      <trkpt lat="47.28314" lon="-2.43114">
        <ele>3.2</ele>
        <time>2020-10-15T08:28:00.000Z</time>
      </trkpt>
      <trkpt lat="47.28317" lon="-2.43109">
        <ele>3.4</ele>
        <time>2020-10-15T08:28:01.000Z</time>
      </trkpt>
      <trkpt lat="47.2832" lon="-2.43103">
        <ele>3.4</ele>
        <time>2020-10-15T08:28:04.000Z</time>
      </trkpt>
      <trkpt lat="47.28319" lon="-2.43095">
        <ele>3.2</ele>
        <time>2020-10-15T08:28:08.000Z</time>
      </trkpt>
      <trkpt lat="47.28316" lon="-2.43095">
        <ele>3.2</ele>
        <time>2020-10-15T08:28:10.000Z</time>
      </trkpt>
      <trkpt lat="47.28313" lon="-2.43102">
        <ele>3.2</ele>
        <time>2020-10-15T08:28:12.000Z</time>
      </trkpt>
      <trkpt lat="47.2831" lon="-2.43125">
        <ele>3</ele>
        <time>2020-10-15T08:28:16.000Z</time>
      </trkpt>
      <trkpt lat="47.28302" lon="-2.43174">
        <ele>2.3</ele>
        <time>2020-10-15T08:28:23.000Z</time>
      </trkpt>
      <trkpt lat="47.2829" lon="-2.43248">
        <ele>2.6</ele>
        <time>2020-10-15T08:28:33.000Z</time>
      </trkpt>
      <trkpt lat="47.28283" lon="-2.43291">
        <ele>3.2</ele>
        <time>2020-10-15T08:28:40.000Z</time>
      </trkpt>
      <trkpt lat="47.28278" lon="-2.43319">
        <ele>2.5</ele>
        <time>2020-10-15T08:28:46.000Z</time>
      </trkpt>
      <trkpt lat="47.28275" lon="-2.43341">
        <ele>2.5</ele>
        <time>2020-10-15T08:28:53.000Z</time>
      </trkpt>
      <trkpt lat="47.28275" lon="-2.43344">
        <ele>2.6</ele>
        <time>2020-10-15T08:29:11.000Z</time>
      </trkpt>
      <trkpt lat="47.28274" lon="-2.43352">
        <ele>2.9</ele>
        <time>2020-10-15T08:29:14.000Z</time>
      </trkpt>
      <trkpt lat="47.28272" lon="-2.43364">
        <ele>3.2</ele>
        <time>2020-10-15T08:29:21.000Z</time>
      </trkpt>
      <trkpt lat="47.28272" lon="-2.43364">
        <ele>3.2</ele>
        <time>2020-10-15T08:29:22.000Z</time>
      </trkpt>
      <trkpt lat="47.28272" lon="-2.43369">
        <ele>3.2</ele>
        <time>2020-10-15T08:29:30.000Z</time>
      </trkpt>
      <trkpt lat="47.2827" lon="-2.43375">
        <ele>3.1</ele>
        <time>2020-10-15T08:29:32.000Z</time>
      </trkpt>
      <trkpt lat="47.28264" lon="-2.43387">
        <ele>3</ele>
        <time>2020-10-15T08:29:36.000Z</time>
      </trkpt>
      <trkpt lat="47.28261" lon="-2.43389">
        <ele>3</ele>
        <time>2020-10-15T08:29:37.000Z</time>
      </trkpt>
      <trkpt lat="47.28248" lon="-2.43383">
        <ele>3.2</ele>
        <time>2020-10-15T08:29:41.000Z</time>
      </trkpt>
      <trkpt lat="47.28241" lon="-2.43377">
        <ele>3.1</ele>
        <time>2020-10-15T08:29:43.000Z</time>
      </trkpt>
      <trkpt lat="47.28228" lon="-2.43365">
        <ele>3.1</ele>
        <time>2020-10-15T08:29:47.000Z</time>
      </trkpt>
      <trkpt lat="47.28216" lon="-2.4335">
        <ele>3</ele>
        <time>2020-10-15T08:29:51.000Z</time>
      </trkpt>
      <trkpt lat="47.28206" lon="-2.43337">
        <ele>3</ele>
        <time>2020-10-15T08:29:55.000Z</time>
      </trkpt>
      <trkpt lat="47.28203" lon="-2.43337">
        <ele>3</ele>
        <time>2020-10-15T08:29:56.000Z</time>
      </trkpt>
      <trkpt lat="47.28186" lon="-2.43341">
        <ele>2.8</ele>
        <time>2020-10-15T08:30:00.000Z</time>
      </trkpt>
      <trkpt lat="47.28176" lon="-2.43334">
        <ele>2.3</ele>
        <time>2020-10-15T08:30:03.000Z</time>
      </trkpt>
      <trkpt lat="47.28169" lon="-2.43344">
        <ele>2.5</ele>
        <time>2020-10-15T08:30:06.000Z</time>
      </trkpt>
      <trkpt lat="47.28166" lon="-2.43349">
        <ele>2.6</ele>
        <time>2020-10-15T08:30:07.000Z</time>
      </trkpt>
      <trkpt lat="47.28148" lon="-2.43375">
        <ele>2.7</ele>
        <time>2020-10-15T08:30:12.000Z</time>
      </trkpt>
      <trkpt lat="47.28127" lon="-2.43409">
        <ele>2.9</ele>
        <time>2020-10-15T08:30:18.000Z</time>
      </trkpt>
      <trkpt lat="47.28104" lon="-2.43441">
        <ele>3</ele>
        <time>2020-10-15T08:30:23.000Z</time>
      </trkpt>
      <trkpt lat="47.28074" lon="-2.43483">
        <ele>2.8</ele>
        <time>2020-10-15T08:30:30.000Z</time>
      </trkpt>
      <trkpt lat="47.28039" lon="-2.43536">
        <ele>2.9</ele>
        <time>2020-10-15T08:30:38.000Z</time>
      </trkpt>
      <trkpt lat="47.28022" lon="-2.4356">
        <ele>3.2</ele>
        <time>2020-10-15T08:30:42.000Z</time>
      </trkpt>
      <trkpt lat="47.28014" lon="-2.43573">
        <ele>3.2</ele>
        <time>2020-10-15T08:30:44.000Z</time>
      </trkpt>
      <trkpt lat="47.27984" lon="-2.43614">
        <ele>3</ele>
        <time>2020-10-15T08:30:51.000Z</time>
      </trkpt>
      <trkpt lat="47.27955" lon="-2.43655">
        <ele>3.6</ele>
        <time>2020-10-15T08:30:58.000Z</time>
      </trkpt>
      <trkpt lat="47.2792" lon="-2.43707">
        <ele>3.1</ele>
        <time>2020-10-15T08:31:06.000Z</time>
      </trkpt>
      <trkpt lat="47.27885" lon="-2.43746">
        <ele>3</ele>
        <time>2020-10-15T08:31:13.000Z</time>
      </trkpt>
      <trkpt lat="47.27854" lon="-2.43775">
        <ele>3</ele>
        <time>2020-10-15T08:31:20.000Z</time>
      </trkpt>
      <trkpt lat="47.27829" lon="-2.43794">
        <ele>3.7</ele>
        <time>2020-10-15T08:31:26.000Z</time>
      </trkpt>
      <trkpt lat="47.27825" lon="-2.43797">
        <ele>3.8</ele>
        <time>2020-10-15T08:31:29.000Z</time>
      </trkpt>
      <trkpt lat="47.27822" lon="-2.43797">
        <ele>3.8</ele>
        <time>2020-10-15T08:31:32.000Z</time>
      </trkpt>
      <trkpt lat="47.2782" lon="-2.43798">
        <ele>3.9</ele>
        <time>2020-10-15T08:32:08.000Z</time>
      </trkpt>
      <trkpt lat="47.27819" lon="-2.43799">
        <ele>3.9</ele>
        <time>2020-10-15T08:32:09.000Z</time>
      </trkpt>
      <trkpt lat="47.27807" lon="-2.43799">
        <ele>4</ele>
        <time>2020-10-15T08:32:15.000Z</time>
      </trkpt>
      <trkpt lat="47.27799" lon="-2.43794">
        <ele>3.9</ele>
        <time>2020-10-15T08:32:19.000Z</time>
      </trkpt>
      <trkpt lat="47.27797" lon="-2.43793">
        <ele>3.8</ele>
        <time>2020-10-15T08:32:20.000Z</time>
      </trkpt>
      <trkpt lat="47.27786" lon="-2.43787">
        <ele>3.8</ele>
        <time>2020-10-15T08:32:24.000Z</time>
      </trkpt>
      <trkpt lat="47.27772" lon="-2.43793">
        <ele>3.5</ele>
        <time>2020-10-15T08:32:28.000Z</time>
      </trkpt>
      <trkpt lat="47.27769" lon="-2.43796">
        <ele>3.4</ele>
        <time>2020-10-15T08:32:29.000Z</time>
      </trkpt>
      <trkpt lat="47.27758" lon="-2.43812">
        <ele>3.2</ele>
        <time>2020-10-15T08:32:34.000Z</time>
      </trkpt>
      <trkpt lat="47.27744" lon="-2.43819">
        <ele>3.5</ele>
        <time>2020-10-15T08:32:38.000Z</time>
      </trkpt>
      <trkpt lat="47.27724" lon="-2.43816">
        <ele>3.6</ele>
        <time>2020-10-15T08:32:43.000Z</time>
      </trkpt>
      <trkpt lat="47.27705" lon="-2.4382">
        <ele>3.2</ele>
        <time>2020-10-15T08:32:47.000Z</time>
      </trkpt>
      <trkpt lat="47.27696" lon="-2.43821">
        <ele>3</ele>
        <time>2020-10-15T08:32:49.000Z</time>
      </trkpt>
      <trkpt lat="47.27661" lon="-2.43828">
        <ele>3</ele>
        <time>2020-10-15T08:32:56.000Z</time>
      </trkpt>
      <trkpt lat="47.27631" lon="-2.43838">
        <ele>3</ele>
        <time>2020-10-15T08:33:02.000Z</time>
      </trkpt>
      <trkpt lat="47.27595" lon="-2.43853">
        <ele>3.9</ele>
        <time>2020-10-15T08:33:09.000Z</time>
      </trkpt>
      <trkpt lat="47.27577" lon="-2.43861">
        <ele>4</ele>
        <time>2020-10-15T08:33:13.000Z</time>
      </trkpt>
      <trkpt lat="47.27563" lon="-2.43867">
        <ele>4</ele>
        <time>2020-10-15T08:33:16.000Z</time>
      </trkpt>
      <trkpt lat="47.2754" lon="-2.43877">
        <ele>4</ele>
        <time>2020-10-15T08:33:21.000Z</time>
      </trkpt>
      <trkpt lat="47.27536" lon="-2.43879">
        <ele>4</ele>
        <time>2020-10-15T08:33:22.000Z</time>
      </trkpt>
      <trkpt lat="47.27515" lon="-2.43885">
        <ele>4</ele>
        <time>2020-10-15T08:33:27.000Z</time>
      </trkpt>
      <trkpt lat="47.27507" lon="-2.43896">
        <ele>4</ele>
        <time>2020-10-15T08:33:31.000Z</time>
      </trkpt>
      <trkpt lat="47.27496" lon="-2.43907">
        <ele>4</ele>
        <time>2020-10-15T08:33:36.000Z</time>
      </trkpt>
      <trkpt lat="47.27467" lon="-2.4392">
        <ele>4</ele>
        <time>2020-10-15T08:33:44.000Z</time>
      </trkpt>
      <trkpt lat="47.27437" lon="-2.43931">
        <ele>4</ele>
        <time>2020-10-15T08:33:51.000Z</time>
      </trkpt>
      <trkpt lat="47.27411" lon="-2.43944">
        <ele>4</ele>
        <time>2020-10-15T08:33:58.000Z</time>
      </trkpt>
      <trkpt lat="47.27391" lon="-2.43954">
        <ele>4</ele>
        <time>2020-10-15T08:34:03.000Z</time>
      </trkpt>
      <trkpt lat="47.27382" lon="-2.43959">
        <ele>4</ele>
        <time>2020-10-15T08:34:05.000Z</time>
      </trkpt>
      <trkpt lat="47.27353" lon="-2.43971">
        <ele>4</ele>
        <time>2020-10-15T08:34:11.000Z</time>
      </trkpt>
      <trkpt lat="47.27325" lon="-2.43981">
        <ele>4</ele>
        <time>2020-10-15T08:34:18.000Z</time>
      </trkpt>
      <trkpt lat="47.27318" lon="-2.43984">
        <ele>4</ele>
        <time>2020-10-15T08:34:22.000Z</time>
      </trkpt>
      <trkpt lat="47.27318" lon="-2.43985">
        <ele>4</ele>
        <time>2020-10-15T08:34:23.000Z</time>
      </trkpt>
      <trkpt lat="47.27318" lon="-2.43985">
        <ele>4</ele>
        <time>2020-10-15T08:34:24.000Z</time>
      </trkpt>
      <trkpt lat="47.27318" lon="-2.43989">
        <ele>4</ele>
        <time>2020-10-15T08:34:26.000Z</time>
      </trkpt>
      <trkpt lat="47.27318" lon="-2.43993">
        <ele>4</ele>
        <time>2020-10-15T08:34:27.000Z</time>
      </trkpt>
      <trkpt lat="47.27318" lon="-2.44006">
        <ele>4</ele>
        <time>2020-10-15T08:34:30.000Z</time>
      </trkpt>
      <trkpt lat="47.27316" lon="-2.4401">
        <ele>4</ele>
        <time>2020-10-15T08:34:31.000Z</time>
      </trkpt>
      <trkpt lat="47.27306" lon="-2.44024">
        <ele>4</ele>
        <time>2020-10-15T08:34:34.000Z</time>
      </trkpt>
      <trkpt lat="47.27304" lon="-2.44031">
        <ele>4</ele>
        <time>2020-10-15T08:34:35.000Z</time>
      </trkpt>
      <trkpt lat="47.27307" lon="-2.44053">
        <ele>4</ele>
        <time>2020-10-15T08:34:38.000Z</time>
      </trkpt>
      <trkpt lat="47.27308" lon="-2.4406">
        <ele>4</ele>
        <time>2020-10-15T08:34:39.000Z</time>
      </trkpt>
      <trkpt lat="47.27315" lon="-2.44101">
        <ele>4.8</ele>
        <time>2020-10-15T08:34:45.000Z</time>
      </trkpt>
      <trkpt lat="47.2732" lon="-2.4413">
        <ele>0.40000000596046</ele>
        <time>2020-10-15T08:34:49.000Z</time>
      </trkpt>
      <trkpt lat="47.27322" lon="-2.44138">
        <ele>0.80000001192093</ele>
        <time>2020-10-15T08:34:50.000Z</time>
      </trkpt>
      <trkpt lat="47.27323" lon="-2.44145">
        <ele>1.2000000476837</ele>
        <time>2020-10-15T08:34:51.000Z</time>
      </trkpt>
      <trkpt lat="47.27325" lon="-2.44152">
        <ele>1.7999999523163</ele>
        <time>2020-10-15T08:34:52.000Z</time>
      </trkpt>
      <trkpt lat="47.27326" lon="-2.4416">
        <ele>2.2000000476837</ele>
        <time>2020-10-15T08:34:53.000Z</time>
      </trkpt>
      <trkpt lat="47.27327" lon="-2.44167">
        <ele>2.2000000476837</ele>
        <time>2020-10-15T08:34:54.000Z</time>
      </trkpt>
      <trkpt lat="47.27332" lon="-2.44185">
        <ele>2.2000000476837</ele>
        <time>2020-10-15T08:34:57.000Z</time>
      </trkpt>
      <trkpt lat="47.27336" lon="-2.44187">
        <ele>2.2000000476837</ele>
        <time>2020-10-15T08:34:58.000Z</time>
      </trkpt>
      <trkpt lat="47.27349" lon="-2.44186">
        <ele>2.2000000476837</ele>
        <time>2020-10-15T08:35:01.000Z</time>
      </trkpt>
      <trkpt lat="47.27358" lon="-2.4418">
        <ele>2.2000000476837</ele>
        <time>2020-10-15T08:35:03.000Z</time>
      </trkpt>
      <trkpt lat="47.27363" lon="-2.44179">
        <ele>2.2000000476837</ele>
        <time>2020-10-15T08:35:04.000Z</time>
      </trkpt>
      <trkpt lat="47.27371" lon="-2.44177">
        <ele>2.2000000476837</ele>
        <time>2020-10-15T08:35:06.000Z</time>
      </trkpt>
      <trkpt lat="47.27384" lon="-2.44176">
        <ele>2.2000000476837</ele>
        <time>2020-10-15T08:35:09.000Z</time>
      </trkpt>
      <trkpt lat="47.2739" lon="-2.44172">
        <ele>2.2000000476837</ele>
        <time>2020-10-15T08:35:11.000Z</time>
      </trkpt>
      <trkpt lat="47.27395" lon="-2.44183">
        <ele>2.2000000476837</ele>
        <time>2020-10-15T08:35:14.000Z</time>
      </trkpt>
      <trkpt lat="47.274" lon="-2.44208">
        <ele>2.2000000476837</ele>
        <time>2020-10-15T08:35:18.000Z</time>
      </trkpt>
      <trkpt lat="47.27401" lon="-2.44215">
        <ele>2.2000000476837</ele>
        <time>2020-10-15T08:35:19.000Z</time>
      </trkpt>
      <trkpt lat="47.27401" lon="-2.44222">
        <ele>2.2000000476837</ele>
        <time>2020-10-15T08:35:20.000Z</time>
      </trkpt>
      <trkpt lat="47.27404" lon="-2.44251">
        <ele>2.2000000476837</ele>
        <time>2020-10-15T08:35:24.000Z</time>
      </trkpt>
      <trkpt lat="47.27407" lon="-2.44273">
        <ele>2.2000000476837</ele>
        <time>2020-10-15T08:35:27.000Z</time>
      </trkpt>
      <trkpt lat="47.27417" lon="-2.44292">
        <ele>2.2000000476837</ele>
        <time>2020-10-15T08:35:30.000Z</time>
      </trkpt>
      <trkpt lat="47.27424" lon="-2.44311">
        <ele>2.2000000476837</ele>
        <time>2020-10-15T08:35:33.000Z</time>
      </trkpt>
      <trkpt lat="47.27426" lon="-2.44329">
        <ele>2.2000000476837</ele>
        <time>2020-10-15T08:35:35.000Z</time>
      </trkpt>
      <trkpt lat="47.27429" lon="-2.44346">
        <ele>1.7999999523163</ele>
        <time>2020-10-15T08:35:37.000Z</time>
      </trkpt>
      <trkpt lat="47.2743" lon="-2.44354">
        <ele>1.2000000476837</ele>
        <time>2020-10-15T08:35:38.000Z</time>
      </trkpt>
      <trkpt lat="47.27432" lon="-2.44361">
        <ele>0.80000001192093</ele>
        <time>2020-10-15T08:35:39.000Z</time>
      </trkpt>
      <trkpt lat="47.27433" lon="-2.44368">
        <ele>0.40000000596046</ele>
        <time>2020-10-15T08:35:40.000Z</time>
      </trkpt>
      <trkpt lat="47.27434" lon="-2.44376">
        <ele>3.2</ele>
        <time>2020-10-15T08:35:41.000Z</time>
      </trkpt>
      <trkpt lat="47.27436" lon="-2.44405">
        <ele>3.7</ele>
        <time>2020-10-15T08:35:45.000Z</time>
      </trkpt>
      <trkpt lat="47.27435" lon="-2.44412">
        <ele>3.9</ele>
        <time>2020-10-15T08:35:46.000Z</time>
      </trkpt>
      <trkpt lat="47.27437" lon="-2.44445">
        <ele>4</ele>
        <time>2020-10-15T08:35:50.000Z</time>
      </trkpt>
      <trkpt lat="47.27442" lon="-2.44509">
        <ele>4</ele>
        <time>2020-10-15T08:35:57.000Z</time>
      </trkpt>
      <trkpt lat="47.27451" lon="-2.4454">
        <ele>4</ele>
        <time>2020-10-15T08:36:01.000Z</time>
      </trkpt>
      <trkpt lat="47.27451" lon="-2.44583">
        <ele>4</ele>
        <time>2020-10-15T08:36:06.000Z</time>
      </trkpt>
      <trkpt lat="47.27454" lon="-2.446">
        <ele>4</ele>
        <time>2020-10-15T08:36:08.000Z</time>
      </trkpt>
      <trkpt lat="47.27461" lon="-2.44615">
        <ele>3.9</ele>
        <time>2020-10-15T08:36:10.000Z</time>
      </trkpt>
      <trkpt lat="47.2748" lon="-2.44653">
        <ele>3.1</ele>
        <time>2020-10-15T08:36:15.000Z</time>
      </trkpt>
      <trkpt lat="47.27488" lon="-2.44668">
        <ele>3.5</ele>
        <time>2020-10-15T08:36:17.000Z</time>
      </trkpt>
      <trkpt lat="47.27497" lon="-2.44681">
        <ele>3.4</ele>
        <time>2020-10-15T08:36:19.000Z</time>
      </trkpt>
      <trkpt lat="47.27506" lon="-2.44694">
        <ele>3</ele>
        <time>2020-10-15T08:36:21.000Z</time>
      </trkpt>
      <trkpt lat="47.27517" lon="-2.44716">
        <ele>3</ele>
        <time>2020-10-15T08:36:24.000Z</time>
      </trkpt>
      <trkpt lat="47.2752" lon="-2.44732">
        <ele>3.4</ele>
        <time>2020-10-15T08:36:26.000Z</time>
      </trkpt>
      <trkpt lat="47.27533" lon="-2.44787">
        <ele>4.3</ele>
        <time>2020-10-15T08:36:33.000Z</time>
      </trkpt>
      <trkpt lat="47.27534" lon="-2.44818">
        <ele>4.9</ele>
        <time>2020-10-15T08:36:37.000Z</time>
      </trkpt>
      <trkpt lat="47.27531" lon="-2.44823">
        <ele>5</ele>
        <time>2020-10-15T08:36:38.000Z</time>
      </trkpt>
      <trkpt lat="47.27518" lon="-2.44834">
        <ele>5</ele>
        <time>2020-10-15T08:36:41.000Z</time>
      </trkpt>
      <trkpt lat="47.27511" lon="-2.44843">
        <ele>5</ele>
        <time>2020-10-15T08:36:43.000Z</time>
      </trkpt>
      <trkpt lat="47.27505" lon="-2.44852">
        <ele>5</ele>
        <time>2020-10-15T08:36:45.000Z</time>
      </trkpt>
      <trkpt lat="47.27504" lon="-2.44858">
        <ele>5</ele>
        <time>2020-10-15T08:36:46.000Z</time>
      </trkpt>
      <trkpt lat="47.27506" lon="-2.4488">
        <ele>5.7</ele>
        <time>2020-10-15T08:36:49.000Z</time>
      </trkpt>
      <trkpt lat="47.27511" lon="-2.44902">
        <ele>5.8</ele>
        <time>2020-10-15T08:36:52.000Z</time>
      </trkpt>
      <trkpt lat="47.27515" lon="-2.44918">
        <ele>5.4</ele>
        <time>2020-10-15T08:36:54.000Z</time>
      </trkpt>
      <trkpt lat="47.27519" lon="-2.44935">
        <ele>5.1</ele>
        <time>2020-10-15T08:36:56.000Z</time>
      </trkpt>
      <trkpt lat="47.27526" lon="-2.44959">
        <ele>5</ele>
        <time>2020-10-15T08:36:59.000Z</time>
      </trkpt>
      <trkpt lat="47.27553" lon="-2.45032">
        <ele>4</ele>
        <time>2020-10-15T08:37:08.000Z</time>
      </trkpt>
      <trkpt lat="47.27574" lon="-2.45078">
        <ele>3.5</ele>
        <time>2020-10-15T08:37:14.000Z</time>
      </trkpt>
      <trkpt lat="47.27595" lon="-2.45133">
        <ele>3.3</ele>
        <time>2020-10-15T08:37:21.000Z</time>
      </trkpt>
      <trkpt lat="47.27596" lon="-2.45142">
        <ele>3.5</ele>
        <time>2020-10-15T08:37:22.000Z</time>
      </trkpt>
      <trkpt lat="47.27602" lon="-2.45186">
        <ele>4</ele>
        <time>2020-10-15T08:37:27.000Z</time>
      </trkpt>
      <trkpt lat="47.27609" lon="-2.45243">
        <ele>4.7</ele>
        <time>2020-10-15T08:37:34.000Z</time>
      </trkpt>
      <trkpt lat="47.27613" lon="-2.45299">
        <ele>5.8</ele>
        <time>2020-10-15T08:37:41.000Z</time>
      </trkpt>
      <trkpt lat="47.27614" lon="-2.45314">
        <ele>6</ele>
        <time>2020-10-15T08:37:43.000Z</time>
      </trkpt>
      <trkpt lat="47.27617" lon="-2.45345">
        <ele>6.4</ele>
        <time>2020-10-15T08:37:47.000Z</time>
      </trkpt>
      <trkpt lat="47.27618" lon="-2.4536">
        <ele>0.40000000596046</ele>
        <time>2020-10-15T08:37:49.000Z</time>
      </trkpt>
      <trkpt lat="47.27619" lon="-2.45366">
        <ele>0.80000001192093</ele>
        <time>2020-10-15T08:37:50.000Z</time>
      </trkpt>
      <trkpt lat="47.2762" lon="-2.45374">
        <ele>1.2000000476837</ele>
        <time>2020-10-15T08:37:51.000Z</time>
      </trkpt>
      <trkpt lat="47.2762" lon="-2.45381">
        <ele>1.6000000238419</ele>
        <time>2020-10-15T08:37:52.000Z</time>
      </trkpt>
      <trkpt lat="47.27621" lon="-2.45388">
        <ele>2.2000000476837</ele>
        <time>2020-10-15T08:37:53.000Z</time>
      </trkpt>
      <trkpt lat="47.27626" lon="-2.45433">
        <ele>2.2000000476837</ele>
        <time>2020-10-15T08:37:59.000Z</time>
      </trkpt>
      <trkpt lat="47.27633" lon="-2.45484">
        <ele>2.2000000476837</ele>
        <time>2020-10-15T08:38:06.000Z</time>
      </trkpt>
      <trkpt lat="47.27635" lon="-2.45491">
        <ele>2.5999999046326</ele>
        <time>2020-10-15T08:38:07.000Z</time>
      </trkpt>
      <trkpt lat="47.27637" lon="-2.45499">
        <ele>3</ele>
        <time>2020-10-15T08:38:08.000Z</time>
      </trkpt>
      <trkpt lat="47.27638" lon="-2.45506">
        <ele>3.4000000953674</ele>
        <time>2020-10-15T08:38:09.000Z</time>
      </trkpt>
      <trkpt lat="47.27639" lon="-2.45513">
        <ele>3.7999999523163</ele>
        <time>2020-10-15T08:38:10.000Z</time>
      </trkpt>
      <trkpt lat="47.2764" lon="-2.45522">
        <ele>4.1999998092651</ele>
        <time>2020-10-15T08:38:11.000Z</time>
      </trkpt>
      <trkpt lat="47.27643" lon="-2.45537">
        <ele>4.1999998092651</ele>
        <time>2020-10-15T08:38:13.000Z</time>
      </trkpt>
      <trkpt lat="47.27645" lon="-2.45543">
        <ele>4.1999998092651</ele>
        <time>2020-10-15T08:38:14.000Z</time>
      </trkpt>
      <trkpt lat="47.2765" lon="-2.45564">
        <ele>4.1999998092651</ele>
        <time>2020-10-15T08:38:17.000Z</time>
      </trkpt>
      <trkpt lat="47.27652" lon="-2.45572">
        <ele>4.1999998092651</ele>
        <time>2020-10-15T08:38:18.000Z</time>
      </trkpt>
      <trkpt lat="47.27653" lon="-2.45579">
        <ele>4.1999998092651</ele>
        <time>2020-10-15T08:38:19.000Z</time>
      </trkpt>
      <trkpt lat="47.27663" lon="-2.45617">
        <ele>4.5999999046326</ele>
        <time>2020-10-15T08:38:24.000Z</time>
      </trkpt>
      <trkpt lat="47.27665" lon="-2.45625">
        <ele>5.4000000953674</ele>
        <time>2020-10-15T08:38:25.000Z</time>
      </trkpt>
      <trkpt lat="47.27667" lon="-2.45632">
        <ele>5.8000001907349</ele>
        <time>2020-10-15T08:38:26.000Z</time>
      </trkpt>
      <trkpt lat="47.27669" lon="-2.4564">
        <ele>6.1999998092651</ele>
        <time>2020-10-15T08:38:27.000Z</time>
      </trkpt>
      <trkpt lat="47.27675" lon="-2.45658">
        <ele>6.1999998092651</ele>
        <time>2020-10-15T08:38:30.000Z</time>
      </trkpt>
      <trkpt lat="47.27679" lon="-2.45673">
        <ele>6.1999998092651</ele>
        <time>2020-10-15T08:38:33.000Z</time>
      </trkpt>
      <trkpt lat="47.27677" lon="-2.45677">
        <ele>5.8000001907349</ele>
        <time>2020-10-15T08:38:34.000Z</time>
      </trkpt>
      <trkpt lat="47.27674" lon="-2.45679">
        <ele>5.4000000953674</ele>
        <time>2020-10-15T08:38:35.000Z</time>
      </trkpt>
      <trkpt lat="47.27671" lon="-2.4568">
        <ele>5</ele>
        <time>2020-10-15T08:38:36.000Z</time>
      </trkpt>
      <trkpt lat="47.27667" lon="-2.45682">
        <ele>4.5999999046326</ele>
        <time>2020-10-15T08:38:37.000Z</time>
      </trkpt>
      <trkpt lat="47.27664" lon="-2.45685">
        <ele>4.1999998092651</ele>
        <time>2020-10-15T08:38:38.000Z</time>
      </trkpt>
      <trkpt lat="47.27643" lon="-2.457">
        <ele>4.1999998092651</ele>
        <time>2020-10-15T08:38:44.000Z</time>
      </trkpt>
      <trkpt lat="47.27631" lon="-2.4571">
        <ele>4.1999998092651</ele>
        <time>2020-10-15T08:38:49.000Z</time>
      </trkpt>
      <trkpt lat="47.27634" lon="-2.45721">
        <ele>4.1999998092651</ele>
        <time>2020-10-15T08:38:51.000Z</time>
      </trkpt>
      <trkpt lat="47.27639" lon="-2.45744">
        <ele>4.1999998092651</ele>
        <time>2020-10-15T08:38:54.000Z</time>
      </trkpt>
      <trkpt lat="47.27639" lon="-2.45753">
        <ele>4.1999998092651</ele>
        <time>2020-10-15T08:38:55.000Z</time>
      </trkpt>
      <trkpt lat="47.27644" lon="-2.45815">
        <ele>4.1999998092651</ele>
        <time>2020-10-15T08:39:01.000Z</time>
      </trkpt>
      <trkpt lat="47.27644" lon="-2.45826">
        <ele>4.1999998092651</ele>
        <time>2020-10-15T08:39:02.000Z</time>
      </trkpt>
      <trkpt lat="47.27642" lon="-2.45895">
        <ele>4.1999998092651</ele>
        <time>2020-10-15T08:39:08.000Z</time>
      </trkpt>
      <trkpt lat="47.2764" lon="-2.45973">
        <ele>3.4000000953674</ele>
        <time>2020-10-15T08:39:15.000Z</time>
      </trkpt>
      <trkpt lat="47.27641" lon="-2.45983">
        <ele>2.7999999523163</ele>
        <time>2020-10-15T08:39:16.000Z</time>
      </trkpt>
      <trkpt lat="47.27641" lon="-2.45993">
        <ele>2.4000000953674</ele>
        <time>2020-10-15T08:39:17.000Z</time>
      </trkpt>
      <trkpt lat="47.27642" lon="-2.46003">
        <ele>2</ele>
        <time>2020-10-15T08:39:18.000Z</time>
      </trkpt>
      <trkpt lat="47.27643" lon="-2.46011">
        <ele>2</ele>
        <time>2020-10-15T08:39:19.000Z</time>
      </trkpt>
      <trkpt lat="47.27645" lon="-2.46028">
        <ele>2</ele>
        <time>2020-10-15T08:39:21.000Z</time>
      </trkpt>
      <trkpt lat="47.27651" lon="-2.4606">
        <ele>2</ele>
        <time>2020-10-15T08:39:25.000Z</time>
      </trkpt>
      <trkpt lat="47.2766" lon="-2.4611">
        <ele>2</ele>
        <time>2020-10-15T08:39:31.000Z</time>
      </trkpt>
      <trkpt lat="47.27664" lon="-2.46132">
        <ele>2</ele>
        <time>2020-10-15T08:39:34.000Z</time>
      </trkpt>
      <trkpt lat="47.27667" lon="-2.46146">
        <ele>2</ele>
        <time>2020-10-15T08:39:36.000Z</time>
      </trkpt>
      <trkpt lat="47.27669" lon="-2.46161">
        <ele>2</ele>
        <time>2020-10-15T08:39:38.000Z</time>
      </trkpt>
      <trkpt lat="47.27669" lon="-2.46184">
        <ele>2</ele>
        <time>2020-10-15T08:39:41.000Z</time>
      </trkpt>
      <trkpt lat="47.27669" lon="-2.46202">
        <ele>2</ele>
        <time>2020-10-15T08:39:43.000Z</time>
      </trkpt>
      <trkpt lat="47.27672" lon="-2.46233">
        <ele>2</ele>
        <time>2020-10-15T08:39:46.000Z</time>
      </trkpt>
      <trkpt lat="47.27673" lon="-2.4626">
        <ele>2.4000000953674</ele>
        <time>2020-10-15T08:39:49.000Z</time>
      </trkpt>
      <trkpt lat="47.27669" lon="-2.46267">
        <ele>2.7999999523163</ele>
        <time>2020-10-15T08:39:50.000Z</time>
      </trkpt>
      <trkpt lat="47.27666" lon="-2.46273">
        <ele>3.2000000476837</ele>
        <time>2020-10-15T08:39:51.000Z</time>
      </trkpt>
      <trkpt lat="47.27662" lon="-2.46279">
        <ele>3.5999999046326</ele>
        <time>2020-10-15T08:39:52.000Z</time>
      </trkpt>
      <trkpt lat="47.2766" lon="-2.46285">
        <ele>4</ele>
        <time>2020-10-15T08:39:53.000Z</time>
      </trkpt>
      <trkpt lat="47.27661" lon="-2.46292">
        <ele>4</ele>
        <time>2020-10-15T08:39:54.000Z</time>
      </trkpt>
      <trkpt lat="47.27667" lon="-2.46304">
        <ele>4</ele>
        <time>2020-10-15T08:39:56.000Z</time>
      </trkpt>
      <trkpt lat="47.2767" lon="-2.4631">
        <ele>4</ele>
        <time>2020-10-15T08:39:57.000Z</time>
      </trkpt>
      <trkpt lat="47.27672" lon="-2.46317">
        <ele>4</ele>
        <time>2020-10-15T08:39:58.000Z</time>
      </trkpt>
      <trkpt lat="47.27676" lon="-2.46341">
        <ele>4</ele>
        <time>2020-10-15T08:40:01.000Z</time>
      </trkpt>
      <trkpt lat="47.27678" lon="-2.4635">
        <ele>4</ele>
        <time>2020-10-15T08:40:02.000Z</time>
      </trkpt>
      <trkpt lat="47.27684" lon="-2.46368">
        <ele>4</ele>
        <time>2020-10-15T08:40:04.000Z</time>
      </trkpt>
      <trkpt lat="47.27694" lon="-2.46395">
        <ele>4</ele>
        <time>2020-10-15T08:40:07.000Z</time>
      </trkpt>
      <trkpt lat="47.27706" lon="-2.46422">
        <ele>4</ele>
        <time>2020-10-15T08:40:10.000Z</time>
      </trkpt>
      <trkpt lat="47.27718" lon="-2.46447">
        <ele>4</ele>
        <time>2020-10-15T08:40:13.000Z</time>
      </trkpt>
      <trkpt lat="47.27731" lon="-2.46482">
        <ele>4</ele>
        <time>2020-10-15T08:40:17.000Z</time>
      </trkpt>
      <trkpt lat="47.27734" lon="-2.46491">
        <ele>4</ele>
        <time>2020-10-15T08:40:18.000Z</time>
      </trkpt>
      <trkpt lat="47.27743" lon="-2.46535">
        <ele>4</ele>
        <time>2020-10-15T08:40:23.000Z</time>
      </trkpt>
      <trkpt lat="47.27746" lon="-2.46544">
        <ele>4</ele>
        <time>2020-10-15T08:40:24.000Z</time>
      </trkpt>
      <trkpt lat="47.27752" lon="-2.46568">
        <ele>4</ele>
        <time>2020-10-15T08:40:27.000Z</time>
      </trkpt>
      <trkpt lat="47.27758" lon="-2.46581">
        <ele>4</ele>
        <time>2020-10-15T08:40:29.000Z</time>
      </trkpt>
      <trkpt lat="47.27761" lon="-2.46586">
        <ele>4</ele>
        <time>2020-10-15T08:40:30.000Z</time>
      </trkpt>
      <trkpt lat="47.27767" lon="-2.46602">
        <ele>4</ele>
        <time>2020-10-15T08:40:33.000Z</time>
      </trkpt>
      <trkpt lat="47.27762" lon="-2.46619">
        <ele>4</ele>
        <time>2020-10-15T08:40:36.000Z</time>
      </trkpt>
      <trkpt lat="47.27762" lon="-2.46636">
        <ele>4</ele>
        <time>2020-10-15T08:40:39.000Z</time>
      </trkpt>
      <trkpt lat="47.27763" lon="-2.46642">
        <ele>4</ele>
        <time>2020-10-15T08:40:40.000Z</time>
      </trkpt>
      <trkpt lat="47.27764" lon="-2.4665">
        <ele>4</ele>
        <time>2020-10-15T08:40:41.000Z</time>
      </trkpt>
      <trkpt lat="47.27764" lon="-2.46658">
        <ele>4</ele>
        <time>2020-10-15T08:40:42.000Z</time>
      </trkpt>
      <trkpt lat="47.27763" lon="-2.46684">
        <ele>4</ele>
        <time>2020-10-15T08:40:45.000Z</time>
      </trkpt>
      <trkpt lat="47.27762" lon="-2.46694">
        <ele>4</ele>
        <time>2020-10-15T08:40:46.000Z</time>
      </trkpt>
      <trkpt lat="47.27759" lon="-2.46719">
        <ele>3.5999999046326</ele>
        <time>2020-10-15T08:40:49.000Z</time>
      </trkpt>
      <trkpt lat="47.2776" lon="-2.46727">
        <ele>3.2000000476837</ele>
        <time>2020-10-15T08:40:50.000Z</time>
      </trkpt>
      <trkpt lat="47.27761" lon="-2.46734">
        <ele>2.7999999523163</ele>
        <time>2020-10-15T08:40:51.000Z</time>
      </trkpt>
      <trkpt lat="47.27763" lon="-2.46742">
        <ele>2.4000000953674</ele>
        <time>2020-10-15T08:40:52.000Z</time>
      </trkpt>
      <trkpt lat="47.27764" lon="-2.4675">
        <ele>2</ele>
        <time>2020-10-15T08:40:53.000Z</time>
      </trkpt>
      <trkpt lat="47.27766" lon="-2.46758">
        <ele>2</ele>
        <time>2020-10-15T08:40:54.000Z</time>
      </trkpt>
      <trkpt lat="47.27768" lon="-2.46767">
        <ele>2</ele>
        <time>2020-10-15T08:40:55.000Z</time>
      </trkpt>
      <trkpt lat="47.27772" lon="-2.46783">
        <ele>2</ele>
        <time>2020-10-15T08:40:57.000Z</time>
      </trkpt>
      <trkpt lat="47.27774" lon="-2.46792">
        <ele>2</ele>
        <time>2020-10-15T08:40:58.000Z</time>
      </trkpt>
      <trkpt lat="47.27781" lon="-2.46819">
        <ele>2</ele>
        <time>2020-10-15T08:41:02.000Z</time>
      </trkpt>
      <trkpt lat="47.27783" lon="-2.46825">
        <ele>2</ele>
        <time>2020-10-15T08:41:03.000Z</time>
      </trkpt>
      <trkpt lat="47.27786" lon="-2.46857">
        <ele>2</ele>
        <time>2020-10-15T08:41:08.000Z</time>
      </trkpt>
      <trkpt lat="47.27785" lon="-2.46875">
        <ele>2</ele>
        <time>2020-10-15T08:41:13.000Z</time>
      </trkpt>
      <trkpt lat="47.27785" lon="-2.46876">
        <ele>2</ele>
        <time>2020-10-15T08:41:14.000Z</time>
      </trkpt>
      <trkpt lat="47.27786" lon="-2.4688">
        <ele>2</ele>
        <time>2020-10-15T08:41:48.000Z</time>
      </trkpt>
      <trkpt lat="47.27786" lon="-2.46882">
        <ele>2</ele>
        <time>2020-10-15T08:41:49.000Z</time>
      </trkpt>
      <trkpt lat="47.27795" lon="-2.46887">
        <ele>2</ele>
        <time>2020-10-15T08:41:53.000Z</time>
      </trkpt>
      <trkpt lat="47.27797" lon="-2.4689">
        <ele>2</ele>
        <time>2020-10-15T08:41:54.000Z</time>
      </trkpt>
      <trkpt lat="47.278" lon="-2.469">
        <ele>2</ele>
        <time>2020-10-15T08:41:56.000Z</time>
      </trkpt>
      <trkpt lat="47.27805" lon="-2.4691">
        <ele>2</ele>
        <time>2020-10-15T08:41:58.000Z</time>
      </trkpt>
      <trkpt lat="47.27813" lon="-2.46927">
        <ele>2</ele>
        <time>2020-10-15T08:42:01.000Z</time>
      </trkpt>
      <trkpt lat="47.27837" lon="-2.46948">
        <ele>2</ele>
        <time>2020-10-15T08:42:06.000Z</time>
      </trkpt>
      <trkpt lat="47.27842" lon="-2.46951">
        <ele>2</ele>
        <time>2020-10-15T08:42:07.000Z</time>
      </trkpt>
      <trkpt lat="47.27853" lon="-2.46959">
        <ele>2</ele>
        <time>2020-10-15T08:42:09.000Z</time>
      </trkpt>
      <trkpt lat="47.27863" lon="-2.46968">
        <ele>1.6000000238419</ele>
        <time>2020-10-15T08:42:11.000Z</time>
      </trkpt>
      <trkpt lat="47.27869" lon="-2.46972">
        <ele>1.2000000476837</ele>
        <time>2020-10-15T08:42:12.000Z</time>
      </trkpt>
      <trkpt lat="47.27874" lon="-2.46976">
        <ele>0.80000001192093</ele>
        <time>2020-10-15T08:42:13.000Z</time>
      </trkpt>
      <trkpt lat="47.2788" lon="-2.46981">
        <ele>0.40000000596046</ele>
        <time>2020-10-15T08:42:14.000Z</time>
      </trkpt>
      <trkpt lat="47.27885" lon="-2.46985">
        <ele>4.5</ele>
        <time>2020-10-15T08:42:15.000Z</time>
      </trkpt>
      <trkpt lat="47.27894" lon="-2.46996">
        <ele>4.1</ele>
        <time>2020-10-15T08:42:17.000Z</time>
      </trkpt>
      <trkpt lat="47.27918" lon="-2.47025">
        <ele>4.8</ele>
        <time>2020-10-15T08:42:22.000Z</time>
      </trkpt>
      <trkpt lat="47.27927" lon="-2.47035">
        <ele>4.7</ele>
        <time>2020-10-15T08:42:24.000Z</time>
      </trkpt>
      <trkpt lat="47.27943" lon="-2.47053">
        <ele>4.9</ele>
        <time>2020-10-15T08:42:29.000Z</time>
      </trkpt>
      <trkpt lat="47.27949" lon="-2.47067">
        <ele>4.9</ele>
        <time>2020-10-15T08:42:34.000Z</time>
      </trkpt>
      <trkpt lat="47.27955" lon="-2.47084">
        <ele>5</ele>
        <time>2020-10-15T08:42:42.000Z</time>
      </trkpt>
      <trkpt lat="47.27962" lon="-2.47105">
        <ele>5</ele>
        <time>2020-10-15T08:42:49.000Z</time>
      </trkpt>
      <trkpt lat="47.27966" lon="-2.47126">
        <ele>5</ele>
        <time>2020-10-15T08:42:55.000Z</time>
      </trkpt>
      <trkpt lat="47.27969" lon="-2.47146">
        <ele>4.8</ele>
        <time>2020-10-15T08:43:01.000Z</time>
      </trkpt>
      <trkpt lat="47.27974" lon="-2.47173">
        <ele>4.1</ele>
        <time>2020-10-15T08:43:09.000Z</time>
      </trkpt>
      <trkpt lat="47.27978" lon="-2.47192">
        <ele>4</ele>
        <time>2020-10-15T08:43:15.000Z</time>
      </trkpt>
      <trkpt lat="47.27978" lon="-2.47192">
        <ele>4</ele>
        <time>2020-10-15T08:43:16.000Z</time>
      </trkpt>
      <trkpt lat="47.27979" lon="-2.47196">
        <ele>4</ele>
        <time>2020-10-15T08:44:58.000Z</time>
      </trkpt>
      <trkpt lat="47.27979" lon="-2.47199">
        <ele>4</ele>
        <time>2020-10-15T08:44:59.000Z</time>
      </trkpt>
      <trkpt lat="47.27981" lon="-2.47217">
        <ele>4</ele>
        <time>2020-10-15T08:45:03.000Z</time>
      </trkpt>
      <trkpt lat="47.27986" lon="-2.47253">
        <ele>5</ele>
        <time>2020-10-15T08:45:10.000Z</time>
      </trkpt>
      <trkpt lat="47.27995" lon="-2.47298">
        <ele>5.7</ele>
        <time>2020-10-15T08:45:19.000Z</time>
      </trkpt>
      <trkpt lat="47.28004" lon="-2.47334">
        <ele>6</ele>
        <time>2020-10-15T08:45:27.000Z</time>
      </trkpt>
      <trkpt lat="47.28009" lon="-2.47339">
        <ele>6.1</ele>
        <time>2020-10-15T08:45:29.000Z</time>
      </trkpt>
      <trkpt lat="47.28015" lon="-2.47338">
        <ele>6.1</ele>
        <time>2020-10-15T08:45:31.000Z</time>
      </trkpt>
      <trkpt lat="47.28021" lon="-2.47335">
        <ele>6</ele>
        <time>2020-10-15T08:45:33.000Z</time>
      </trkpt>
      <trkpt lat="47.28032" lon="-2.47332">
        <ele>5.9</ele>
        <time>2020-10-15T08:45:36.000Z</time>
      </trkpt>
      <trkpt lat="47.28059" lon="-2.47323">
        <ele>5</ele>
        <time>2020-10-15T08:45:44.000Z</time>
      </trkpt>
      <trkpt lat="47.28079" lon="-2.47316">
        <ele>5</ele>
        <time>2020-10-15T08:45:50.000Z</time>
      </trkpt>
      <trkpt lat="47.28109" lon="-2.47308">
        <ele>4.2</ele>
        <time>2020-10-15T08:45:57.000Z</time>
      </trkpt>
      <trkpt lat="47.28125" lon="-2.4731">
        <ele>3.5</ele>
        <time>2020-10-15T08:46:01.000Z</time>
      </trkpt>
      <trkpt lat="47.28127" lon="-2.47314">
        <ele>3.4</ele>
        <time>2020-10-15T08:46:02.000Z</time>
      </trkpt>
      <trkpt lat="47.28129" lon="-2.47334">
        <ele>3</ele>
        <time>2020-10-15T08:46:05.000Z</time>
      </trkpt>
      <trkpt lat="47.28124" lon="-2.47358">
        <ele>3.1</ele>
        <time>2020-10-15T08:46:08.000Z</time>
      </trkpt>
      <trkpt lat="47.28123" lon="-2.47365">
        <ele>3.2</ele>
        <time>2020-10-15T08:46:09.000Z</time>
      </trkpt>
      <trkpt lat="47.28112" lon="-2.47415">
        <ele>3</ele>
        <time>2020-10-15T08:46:17.000Z</time>
      </trkpt>
      <trkpt lat="47.28102" lon="-2.47466">
        <ele>2.9</ele>
        <time>2020-10-15T08:46:25.000Z</time>
      </trkpt>
      <trkpt lat="47.28093" lon="-2.47514">
        <ele>3</ele>
        <time>2020-10-15T08:46:32.000Z</time>
      </trkpt>
      <trkpt lat="47.28083" lon="-2.47569">
        <ele>3</ele>
        <time>2020-10-15T08:46:40.000Z</time>
      </trkpt>
      <trkpt lat="47.28079" lon="-2.47629">
        <ele>3.4</ele>
        <time>2020-10-15T08:46:48.000Z</time>
      </trkpt>
      <trkpt lat="47.28081" lon="-2.47677">
        <ele>3.4</ele>
        <time>2020-10-15T08:46:54.000Z</time>
      </trkpt>
      <trkpt lat="47.28088" lon="-2.47729">
        <ele>4.2</ele>
        <time>2020-10-15T08:47:01.000Z</time>
      </trkpt>
      <trkpt lat="47.28095" lon="-2.47784">
        <ele>5.3</ele>
        <time>2020-10-15T08:47:09.000Z</time>
      </trkpt>
      <trkpt lat="47.28103" lon="-2.47838">
        <ele>5.7</ele>
        <time>2020-10-15T08:47:17.000Z</time>
      </trkpt>
      <trkpt lat="47.28108" lon="-2.47862">
        <ele>6.1</ele>
        <time>2020-10-15T08:47:21.000Z</time>
      </trkpt>
      <trkpt lat="47.28111" lon="-2.4788">
        <ele>6</ele>
        <time>2020-10-15T08:47:24.000Z</time>
      </trkpt>
      <trkpt lat="47.28113" lon="-2.47909">
        <ele>6</ele>
        <time>2020-10-15T08:47:28.000Z</time>
      </trkpt>
      <trkpt lat="47.28115" lon="-2.47917">
        <ele>6</ele>
        <time>2020-10-15T08:47:29.000Z</time>
      </trkpt>
      <trkpt lat="47.2813" lon="-2.47941">
        <ele>5.4</ele>
        <time>2020-10-15T08:47:33.000Z</time>
      </trkpt>
      <trkpt lat="47.28147" lon="-2.4796">
        <ele>5</ele>
        <time>2020-10-15T08:47:37.000Z</time>
      </trkpt>
      <trkpt lat="47.28153" lon="-2.47987">
        <ele>5</ele>
        <time>2020-10-15T08:47:41.000Z</time>
      </trkpt>
      <trkpt lat="47.28154" lon="-2.47996">
        <ele>5</ele>
        <time>2020-10-15T08:47:42.000Z</time>
      </trkpt>
      <trkpt lat="47.28161" lon="-2.48045">
        <ele>5.6</ele>
        <time>2020-10-15T08:47:48.000Z</time>
      </trkpt>
      <trkpt lat="47.28169" lon="-2.48109">
        <ele>5.9</ele>
        <time>2020-10-15T08:47:56.000Z</time>
      </trkpt>
      <trkpt lat="47.28176" lon="-2.48166">
        <ele>6</ele>
        <time>2020-10-15T08:48:04.000Z</time>
      </trkpt>
      <trkpt lat="47.28188" lon="-2.48219">
        <ele>6</ele>
        <time>2020-10-15T08:48:12.000Z</time>
      </trkpt>
      <trkpt lat="47.2819" lon="-2.48225">
        <ele>6</ele>
        <time>2020-10-15T08:48:13.000Z</time>
      </trkpt>
      <trkpt lat="47.28198" lon="-2.48249">
        <ele>6</ele>
        <time>2020-10-15T08:48:17.000Z</time>
      </trkpt>
      <trkpt lat="47.28199" lon="-2.48255">
        <ele>6</ele>
        <time>2020-10-15T08:48:18.000Z</time>
      </trkpt>
      <trkpt lat="47.28199" lon="-2.48262">
        <ele>6</ele>
        <time>2020-10-15T08:48:19.000Z</time>
      </trkpt>
      <trkpt lat="47.28198" lon="-2.48276">
        <ele>6</ele>
        <time>2020-10-15T08:48:21.000Z</time>
      </trkpt>
      <trkpt lat="47.28196" lon="-2.48291">
        <ele>0.60000002384186</ele>
        <time>2020-10-15T08:48:23.000Z</time>
      </trkpt>
      <trkpt lat="47.28195" lon="-2.48299">
        <ele>1</ele>
        <time>2020-10-15T08:48:24.000Z</time>
      </trkpt>
      <trkpt lat="47.28193" lon="-2.48306">
        <ele>1.3999999761581</ele>
        <time>2020-10-15T08:48:25.000Z</time>
      </trkpt>
      <trkpt lat="47.28193" lon="-2.48313">
        <ele>1.7999999523163</ele>
        <time>2020-10-15T08:48:26.000Z</time>
      </trkpt>
      <trkpt lat="47.28193" lon="-2.4832">
        <ele>2.2000000476837</ele>
        <time>2020-10-15T08:48:27.000Z</time>
      </trkpt>
      <trkpt lat="47.28195" lon="-2.48347">
        <ele>2.2000000476837</ele>
        <time>2020-10-15T08:48:31.000Z</time>
      </trkpt>
      <trkpt lat="47.28198" lon="-2.48351">
        <ele>2.2000000476837</ele>
        <time>2020-10-15T08:48:32.000Z</time>
      </trkpt>
      <trkpt lat="47.28212" lon="-2.48351">
        <ele>2.2000000476837</ele>
        <time>2020-10-15T08:48:35.000Z</time>
      </trkpt>
      <trkpt lat="47.28234" lon="-2.48345">
        <ele>2.2000000476837</ele>
        <time>2020-10-15T08:48:39.000Z</time>
      </trkpt>
      <trkpt lat="47.28252" lon="-2.48355">
        <ele>2.2000000476837</ele>
        <time>2020-10-15T08:48:43.000Z</time>
      </trkpt>
      <trkpt lat="47.28269" lon="-2.48372">
        <ele>1.7999999523163</ele>
        <time>2020-10-15T08:48:47.000Z</time>
      </trkpt>
      <trkpt lat="47.28275" lon="-2.48372">
        <ele>1.3999999761581</ele>
        <time>2020-10-15T08:48:48.000Z</time>
      </trkpt>
      <trkpt lat="47.2828" lon="-2.48371">
        <ele>0.80000001192093</ele>
        <time>2020-10-15T08:48:49.000Z</time>
      </trkpt>
      <trkpt lat="47.28284" lon="-2.48369">
        <ele>0.40000000596046</ele>
        <time>2020-10-15T08:48:50.000Z</time>
      </trkpt>
      <trkpt lat="47.28287" lon="-2.48366">
        <ele>2.9</ele>
        <time>2020-10-15T08:48:51.000Z</time>
      </trkpt>
      <trkpt lat="47.28295" lon="-2.4837">
        <ele>2.9</ele>
        <time>2020-10-15T08:48:54.000Z</time>
      </trkpt>
      <trkpt lat="47.28307" lon="-2.48385">
        <ele>3.7</ele>
        <time>2020-10-15T08:48:59.000Z</time>
      </trkpt>
      <trkpt lat="47.28314" lon="-2.48383">
        <ele>3.6</ele>
        <time>2020-10-15T08:49:01.000Z</time>
      </trkpt>
      <trkpt lat="47.28322" lon="-2.48379">
        <ele>3.5</ele>
        <time>2020-10-15T08:49:03.000Z</time>
      </trkpt>
      <trkpt lat="47.28335" lon="-2.48366">
        <ele>3.2</ele>
        <time>2020-10-15T08:49:06.000Z</time>
      </trkpt>
      <trkpt lat="47.28339" lon="-2.48362">
        <ele>3.3</ele>
        <time>2020-10-15T08:49:07.000Z</time>
      </trkpt>
      <trkpt lat="47.28344" lon="-2.48361">
        <ele>3.4</ele>
        <time>2020-10-15T08:49:08.000Z</time>
      </trkpt>
      <trkpt lat="47.28354" lon="-2.48358">
        <ele>3.6</ele>
        <time>2020-10-15T08:49:10.000Z</time>
      </trkpt>
      <trkpt lat="47.2836" lon="-2.48358">
        <ele>3.7</ele>
        <time>2020-10-15T08:49:11.000Z</time>
      </trkpt>
      <trkpt lat="47.2837" lon="-2.48356">
        <ele>3.6</ele>
        <time>2020-10-15T08:49:13.000Z</time>
      </trkpt>
      <trkpt lat="47.28384" lon="-2.48352">
        <ele>3.4</ele>
        <time>2020-10-15T08:49:16.000Z</time>
      </trkpt>
      <trkpt lat="47.28389" lon="-2.48353">
        <ele>3.4</ele>
        <time>2020-10-15T08:49:17.000Z</time>
      </trkpt>
      <trkpt lat="47.28399" lon="-2.48356">
        <ele>3.3</ele>
        <time>2020-10-15T08:49:19.000Z</time>
      </trkpt>
      <trkpt lat="47.28404" lon="-2.48359">
        <ele>3.4</ele>
        <time>2020-10-15T08:49:20.000Z</time>
      </trkpt>
      <trkpt lat="47.28412" lon="-2.48365">
        <ele>3.3</ele>
        <time>2020-10-15T08:49:22.000Z</time>
      </trkpt>
      <trkpt lat="47.28427" lon="-2.48381">
        <ele>3.3</ele>
        <time>2020-10-15T08:49:26.000Z</time>
      </trkpt>
      <trkpt lat="47.28444" lon="-2.48396">
        <ele>3</ele>
        <time>2020-10-15T08:49:32.000Z</time>
      </trkpt>
      <trkpt lat="47.28449" lon="-2.48408">
        <ele>2.8</ele>
        <time>2020-10-15T08:49:36.000Z</time>
      </trkpt>
      <trkpt lat="47.28447" lon="-2.48413">
        <ele>2.9</ele>
        <time>2020-10-15T08:49:37.000Z</time>
      </trkpt>
      <trkpt lat="47.28443" lon="-2.48451">
        <ele>2.8</ele>
        <time>2020-10-15T08:49:43.000Z</time>
      </trkpt>
      <trkpt lat="47.2844" lon="-2.48487">
        <ele>2.8</ele>
        <time>2020-10-15T08:49:49.000Z</time>
      </trkpt>
      <trkpt lat="47.28437" lon="-2.48515">
        <ele>2.9</ele>
        <time>2020-10-15T08:49:54.000Z</time>
      </trkpt>
      <trkpt lat="47.28432" lon="-2.48536">
        <ele>2.8</ele>
        <time>2020-10-15T08:49:58.000Z</time>
      </trkpt>
      <trkpt lat="47.28434" lon="-2.48542">
        <ele>2.5</ele>
        <time>2020-10-15T08:49:59.000Z</time>
      </trkpt>
      <trkpt lat="47.28449" lon="-2.48554">
        <ele>2.2</ele>
        <time>2020-10-15T08:50:02.000Z</time>
      </trkpt>
      <trkpt lat="47.28454" lon="-2.48556">
        <ele>2.3</ele>
        <time>2020-10-15T08:50:03.000Z</time>
      </trkpt>
      <trkpt lat="47.28468" lon="-2.48567">
        <ele>2.5</ele>
        <time>2020-10-15T08:50:06.000Z</time>
      </trkpt>
      <trkpt lat="47.28471" lon="-2.48572">
        <ele>2.4</ele>
        <time>2020-10-15T08:50:07.000Z</time>
      </trkpt>
      <trkpt lat="47.28474" lon="-2.48589">
        <ele>2</ele>
        <time>2020-10-15T08:50:10.000Z</time>
      </trkpt>
      <trkpt lat="47.2848" lon="-2.48602">
        <ele>1.8</ele>
        <time>2020-10-15T08:50:14.000Z</time>
      </trkpt>
      <trkpt lat="47.28481" lon="-2.4861">
        <ele>-0.40000000596046</ele>
        <time>2020-10-15T08:50:16.000Z</time>
      </trkpt>
      <trkpt lat="47.2848" lon="-2.48616">
        <ele>-0.80000001192093</ele>
        <time>2020-10-15T08:50:17.000Z</time>
      </trkpt>
      <trkpt lat="47.28479" lon="-2.48622">
        <ele>-1.2000000476837</ele>
        <time>2020-10-15T08:50:18.000Z</time>
      </trkpt>
      <trkpt lat="47.28477" lon="-2.48628">
        <ele>-1.6000000238419</ele>
        <time>2020-10-15T08:50:19.000Z</time>
      </trkpt>
      <trkpt lat="47.28476" lon="-2.48634">
        <ele>-2</ele>
        <time>2020-10-15T08:50:20.000Z</time>
      </trkpt>
      <trkpt lat="47.28472" lon="-2.48653">
        <ele>-2</ele>
        <time>2020-10-15T08:50:23.000Z</time>
      </trkpt>
      <trkpt lat="47.28471" lon="-2.48673">
        <ele>-2</ele>
        <time>2020-10-15T08:50:26.000Z</time>
      </trkpt>
      <trkpt lat="47.28475" lon="-2.48686">
        <ele>-2</ele>
        <time>2020-10-15T08:50:28.000Z</time>
      </trkpt>
      <trkpt lat="47.28489" lon="-2.48703">
        <ele>-2</ele>
        <time>2020-10-15T08:50:32.000Z</time>
      </trkpt>
      <trkpt lat="47.28496" lon="-2.48711">
        <ele>-2</ele>
        <time>2020-10-15T08:50:34.000Z</time>
      </trkpt>
      <trkpt lat="47.28509" lon="-2.48728">
        <ele>-2</ele>
        <time>2020-10-15T08:50:38.000Z</time>
      </trkpt>
      <trkpt lat="47.28515" lon="-2.48737">
        <ele>-2</ele>
        <time>2020-10-15T08:50:40.000Z</time>
      </trkpt>
      <trkpt lat="47.28524" lon="-2.48749">
        <ele>-2</ele>
        <time>2020-10-15T08:50:43.000Z</time>
      </trkpt>
      <trkpt lat="47.28529" lon="-2.48758">
        <ele>-2</ele>
        <time>2020-10-15T08:50:45.000Z</time>
      </trkpt>
      <trkpt lat="47.28543" lon="-2.48781">
        <ele>-2</ele>
        <time>2020-10-15T08:50:50.000Z</time>
      </trkpt>
      <trkpt lat="47.28545" lon="-2.48786">
        <ele>-2</ele>
        <time>2020-10-15T08:50:51.000Z</time>
      </trkpt>
      <trkpt lat="47.28563" lon="-2.48821">
        <ele>-2</ele>
        <time>2020-10-15T08:50:58.000Z</time>
      </trkpt>
      <trkpt lat="47.28577" lon="-2.48839">
        <ele>-2</ele>
        <time>2020-10-15T08:51:02.000Z</time>
      </trkpt>
      <trkpt lat="47.28579" lon="-2.48846">
        <ele>-2</ele>
        <time>2020-10-15T08:51:03.000Z</time>
      </trkpt>
      <trkpt lat="47.2858" lon="-2.48873">
        <ele>-2</ele>
        <time>2020-10-15T08:51:07.000Z</time>
      </trkpt>
      <trkpt lat="47.28577" lon="-2.48899">
        <ele>-2</ele>
        <time>2020-10-15T08:51:11.000Z</time>
      </trkpt>
      <trkpt lat="47.28572" lon="-2.48909">
        <ele>-2</ele>
        <time>2020-10-15T08:51:13.000Z</time>
      </trkpt>
      <trkpt lat="47.28558" lon="-2.48915">
        <ele>-2</ele>
        <time>2020-10-15T08:51:16.000Z</time>
      </trkpt>
      <trkpt lat="47.28544" lon="-2.48919">
        <ele>-2</ele>
        <time>2020-10-15T08:51:19.000Z</time>
      </trkpt>
      <trkpt lat="47.28534" lon="-2.48923">
        <ele>-2</ele>
        <time>2020-10-15T08:51:21.000Z</time>
      </trkpt>
      <trkpt lat="47.28524" lon="-2.48925">
        <ele>-2</ele>
        <time>2020-10-15T08:51:23.000Z</time>
      </trkpt>
      <trkpt lat="47.2851" lon="-2.48924">
        <ele>-2</ele>
        <time>2020-10-15T08:51:26.000Z</time>
      </trkpt>
      <trkpt lat="47.28477" lon="-2.4892">
        <ele>-2</ele>
        <time>2020-10-15T08:51:33.000Z</time>
      </trkpt>
      <trkpt lat="47.28472" lon="-2.48924">
        <ele>-2</ele>
        <time>2020-10-15T08:51:34.000Z</time>
      </trkpt>
      <trkpt lat="47.28467" lon="-2.48942">
        <ele>-2</ele>
        <time>2020-10-15T08:51:37.000Z</time>
      </trkpt>
      <trkpt lat="47.28466" lon="-2.48947">
        <ele>-2</ele>
        <time>2020-10-15T08:51:38.000Z</time>
      </trkpt>
      <trkpt lat="47.28463" lon="-2.48957">
        <ele>-2</ele>
        <time>2020-10-15T08:51:41.000Z</time>
      </trkpt>
      <trkpt lat="47.28455" lon="-2.4896">
        <ele>-2</ele>
        <time>2020-10-15T08:51:46.000Z</time>
      </trkpt>
      <trkpt lat="47.28438" lon="-2.48961">
        <ele>-2</ele>
        <time>2020-10-15T08:51:51.000Z</time>
      </trkpt>
      <trkpt lat="47.28416" lon="-2.48967">
        <ele>-2</ele>
        <time>2020-10-15T08:51:57.000Z</time>
      </trkpt>
      <trkpt lat="47.28391" lon="-2.4898">
        <ele>-2</ele>
        <time>2020-10-15T08:52:02.000Z</time>
      </trkpt>
      <trkpt lat="47.28369" lon="-2.49005">
        <ele>-2</ele>
        <time>2020-10-15T08:52:07.000Z</time>
      </trkpt>
      <trkpt lat="47.28344" lon="-2.4903">
        <ele>-2</ele>
        <time>2020-10-15T08:52:13.000Z</time>
      </trkpt>
      <trkpt lat="47.28315" lon="-2.49051">
        <ele>-2</ele>
        <time>2020-10-15T08:52:20.000Z</time>
      </trkpt>
      <trkpt lat="47.28306" lon="-2.49055">
        <ele>-2</ele>
        <time>2020-10-15T08:52:22.000Z</time>
      </trkpt>
      <trkpt lat="47.28296" lon="-2.49059">
        <ele>-1.6000000238419</ele>
        <time>2020-10-15T08:52:24.000Z</time>
      </trkpt>
      <trkpt lat="47.28291" lon="-2.49061">
        <ele>-1.2000000476837</ele>
        <time>2020-10-15T08:52:25.000Z</time>
      </trkpt>
      <trkpt lat="47.28286" lon="-2.49062">
        <ele>-0.80000001192093</ele>
        <time>2020-10-15T08:52:26.000Z</time>
      </trkpt>
      <trkpt lat="47.28281" lon="-2.49063">
        <ele>-0.40000000596046</ele>
        <time>2020-10-15T08:52:27.000Z</time>
      </trkpt>
      <trkpt lat="47.28275" lon="-2.49065">
        <ele>6</ele>
        <time>2020-10-15T08:52:28.000Z</time>
      </trkpt>
      <trkpt lat="47.28255" lon="-2.4907">
        <ele>6</ele>
        <time>2020-10-15T08:52:32.000Z</time>
      </trkpt>
      <trkpt lat="47.28226" lon="-2.49077">
        <ele>6</ele>
        <time>2020-10-15T08:52:38.000Z</time>
      </trkpt>
      <trkpt lat="47.28182" lon="-2.49089">
        <ele>6.5</ele>
        <time>2020-10-15T08:52:46.000Z</time>
      </trkpt>
      <trkpt lat="47.28141" lon="-2.491">
        <ele>0.40000000596046</ele>
        <time>2020-10-15T08:52:54.000Z</time>
      </trkpt>
      <trkpt lat="47.28136" lon="-2.49101">
        <ele>1</ele>
        <time>2020-10-15T08:52:55.000Z</time>
      </trkpt>
      <trkpt lat="47.28131" lon="-2.49102">
        <ele>1.3999999761581</ele>
        <time>2020-10-15T08:52:56.000Z</time>
      </trkpt>
      <trkpt lat="47.28126" lon="-2.49103">
        <ele>1.7999999523163</ele>
        <time>2020-10-15T08:52:57.000Z</time>
      </trkpt>
      <trkpt lat="47.28121" lon="-2.49104">
        <ele>2.2000000476837</ele>
        <time>2020-10-15T08:52:58.000Z</time>
      </trkpt>
      <trkpt lat="47.28107" lon="-2.49108">
        <ele>2.2000000476837</ele>
        <time>2020-10-15T08:53:01.000Z</time>
      </trkpt>
      <trkpt lat="47.28072" lon="-2.49115">
        <ele>2.2000000476837</ele>
        <time>2020-10-15T08:53:08.000Z</time>
      </trkpt>
      <trkpt lat="47.28063" lon="-2.49119">
        <ele>2.2000000476837</ele>
        <time>2020-10-15T08:53:10.000Z</time>
      </trkpt>
      <trkpt lat="47.28055" lon="-2.49128">
        <ele>2.2000000476837</ele>
        <time>2020-10-15T08:53:12.000Z</time>
      </trkpt>
      <trkpt lat="47.28056" lon="-2.4915">
        <ele>2.2000000476837</ele>
        <time>2020-10-15T08:53:15.000Z</time>
      </trkpt>
      <trkpt lat="47.28059" lon="-2.49166">
        <ele>2.5999999046326</ele>
        <time>2020-10-15T08:53:17.000Z</time>
      </trkpt>
      <trkpt lat="47.2806" lon="-2.49174">
        <ele>3</ele>
        <time>2020-10-15T08:53:18.000Z</time>
      </trkpt>
      <trkpt lat="47.28062" lon="-2.49183">
        <ele>3.4000000953674</ele>
        <time>2020-10-15T08:53:19.000Z</time>
      </trkpt>
      <trkpt lat="47.28063" lon="-2.49192">
        <ele>3.7999999523163</ele>
        <time>2020-10-15T08:53:20.000Z</time>
      </trkpt>
      <trkpt lat="47.28064" lon="-2.49201">
        <ele>4.1999998092651</ele>
        <time>2020-10-15T08:53:21.000Z</time>
      </trkpt>
      <trkpt lat="47.28076" lon="-2.49271">
        <ele>4.1999998092651</ele>
        <time>2020-10-15T08:53:29.000Z</time>
      </trkpt>
      <trkpt lat="47.28085" lon="-2.49345">
        <ele>4.1999998092651</ele>
        <time>2020-10-15T08:53:37.000Z</time>
      </trkpt>
      <trkpt lat="47.28084" lon="-2.49354">
        <ele>4.1999998092651</ele>
        <time>2020-10-15T08:53:38.000Z</time>
      </trkpt>
      <trkpt lat="47.28085" lon="-2.4938">
        <ele>4.1999998092651</ele>
        <time>2020-10-15T08:53:41.000Z</time>
      </trkpt>
      <trkpt lat="47.28086" lon="-2.49388">
        <ele>4.1999998092651</ele>
        <time>2020-10-15T08:53:42.000Z</time>
      </trkpt>
      <trkpt lat="47.28092" lon="-2.49431">
        <ele>4.1999998092651</ele>
        <time>2020-10-15T08:53:48.000Z</time>
      </trkpt>
      <trkpt lat="47.28092" lon="-2.49437">
        <ele>4.1999998092651</ele>
        <time>2020-10-15T08:53:49.000Z</time>
      </trkpt>
      <trkpt lat="47.28089" lon="-2.49453">
        <ele>4.1999998092651</ele>
        <time>2020-10-15T08:53:52.000Z</time>
      </trkpt>
      <trkpt lat="47.28086" lon="-2.49457">
        <ele>3.7999999523163</ele>
        <time>2020-10-15T08:53:53.000Z</time>
      </trkpt>
      <trkpt lat="47.28083" lon="-2.4946">
        <ele>3.4000000953674</ele>
        <time>2020-10-15T08:53:54.000Z</time>
      </trkpt>
      <trkpt lat="47.2808" lon="-2.49463">
        <ele>3</ele>
        <time>2020-10-15T08:53:55.000Z</time>
      </trkpt>
      <trkpt lat="47.28077" lon="-2.49467">
        <ele>2.5999999046326</ele>
        <time>2020-10-15T08:53:56.000Z</time>
      </trkpt>
      <trkpt lat="47.28074" lon="-2.4947">
        <ele>2.2000000476837</ele>
        <time>2020-10-15T08:53:57.000Z</time>
      </trkpt>
      <trkpt lat="47.28062" lon="-2.49484">
        <ele>2.2000000476837</ele>
        <time>2020-10-15T08:54:01.000Z</time>
      </trkpt>
      <trkpt lat="47.28048" lon="-2.49501">
        <ele>2.2000000476837</ele>
        <time>2020-10-15T08:54:05.000Z</time>
      </trkpt>
      <trkpt lat="47.28041" lon="-2.49507">
        <ele>2.2000000476837</ele>
        <time>2020-10-15T08:54:07.000Z</time>
      </trkpt>
      <trkpt lat="47.28035" lon="-2.49513">
        <ele>2.2000000476837</ele>
        <time>2020-10-15T08:54:11.000Z</time>
      </trkpt>
      <trkpt lat="47.28033" lon="-2.49513">
        <ele>2.2000000476837</ele>
        <time>2020-10-15T08:54:13.000Z</time>
      </trkpt>
      <trkpt lat="47.28031" lon="-2.49508">
        <ele>2.2000000476837</ele>
        <time>2020-10-15T08:54:16.000Z</time>
      </trkpt>
      <trkpt lat="47.28029" lon="-2.49506">
        <ele>2.2000000476837</ele>
        <time>2020-10-15T08:54:19.000Z</time>
      </trkpt>
      <trkpt lat="47.28028" lon="-2.49505">
        <ele>2.2000000476837</ele>
        <time>2020-10-15T08:54:21.000Z</time>
      </trkpt>
      <trkpt lat="47.28027" lon="-2.49496">
        <ele>2.2000000476837</ele>
        <time>2020-10-15T08:54:31.000Z</time>
      </trkpt>
      <trkpt lat="47.28029" lon="-2.49494">
        <ele>2.2000000476837</ele>
        <time>2020-10-15T08:54:35.000Z</time>
      </trkpt>
      <trkpt lat="47.28028" lon="-2.49486">
        <ele>2.2000000476837</ele>
        <time>2020-10-15T08:54:39.000Z</time>
      </trkpt>
      <trkpt lat="47.28027" lon="-2.49465">
        <ele>2.2000000476837</ele>
        <time>2020-10-15T08:54:44.000Z</time>
      </trkpt>
      <trkpt lat="47.28018" lon="-2.49435">
        <ele>2.2000000476837</ele>
        <time>2020-10-15T08:54:50.000Z</time>
      </trkpt>
      <trkpt lat="47.28014" lon="-2.49418">
        <ele>2.2000000476837</ele>
        <time>2020-10-15T08:54:53.000Z</time>
      </trkpt>
      <trkpt lat="47.28012" lon="-2.49397">
        <ele>2.2000000476837</ele>
        <time>2020-10-15T08:54:56.000Z</time>
      </trkpt>
      <trkpt lat="47.28013" lon="-2.4939">
        <ele>2.2000000476837</ele>
        <time>2020-10-15T08:54:57.000Z</time>
      </trkpt>
      <trkpt lat="47.28012" lon="-2.49374">
        <ele>2.2000000476837</ele>
        <time>2020-10-15T08:54:59.000Z</time>
      </trkpt>
      <trkpt lat="47.28006" lon="-2.49351">
        <ele>2.2000000476837</ele>
        <time>2020-10-15T08:55:02.000Z</time>
      </trkpt>
      <trkpt lat="47.27991" lon="-2.49298">
        <ele>2.2000000476837</ele>
        <time>2020-10-15T08:55:09.000Z</time>
      </trkpt>
      <trkpt lat="47.27987" lon="-2.49273">
        <ele>2.2000000476837</ele>
        <time>2020-10-15T08:55:12.000Z</time>
      </trkpt>
      <trkpt lat="47.27984" lon="-2.49249">
        <ele>2.2000000476837</ele>
        <time>2020-10-15T08:55:15.000Z</time>
      </trkpt>
      <trkpt lat="47.27982" lon="-2.49241">
        <ele>2.2000000476837</ele>
        <time>2020-10-15T08:55:16.000Z</time>
      </trkpt>
      <trkpt lat="47.27976" lon="-2.49213">
        <ele>2.2000000476837</ele>
        <time>2020-10-15T08:55:20.000Z</time>
      </trkpt>
      <trkpt lat="47.27975" lon="-2.49206">
        <ele>2.2000000476837</ele>
        <time>2020-10-15T08:55:21.000Z</time>
      </trkpt>
      <trkpt lat="47.27971" lon="-2.49186">
        <ele>2.2000000476837</ele>
        <time>2020-10-15T08:55:24.000Z</time>
      </trkpt>
      <trkpt lat="47.2797" lon="-2.4918">
        <ele>2.2000000476837</ele>
        <time>2020-10-15T08:55:25.000Z</time>
      </trkpt>
      <trkpt lat="47.27968" lon="-2.49173">
        <ele>2.2000000476837</ele>
        <time>2020-10-15T08:55:26.000Z</time>
      </trkpt>
      <trkpt lat="47.27964" lon="-2.49155">
        <ele>2.2000000476837</ele>
        <time>2020-10-15T08:55:29.000Z</time>
      </trkpt>
      <trkpt lat="47.27964" lon="-2.49148">
        <ele>2.2000000476837</ele>
        <time>2020-10-15T08:55:30.000Z</time>
      </trkpt>
      <trkpt lat="47.2797" lon="-2.49132">
        <ele>2.2000000476837</ele>
        <time>2020-10-15T08:55:33.000Z</time>
      </trkpt>
      <trkpt lat="47.27978" lon="-2.49124">
        <ele>2.2000000476837</ele>
        <time>2020-10-15T08:55:35.000Z</time>
      </trkpt>
      <trkpt lat="47.27982" lon="-2.49121">
        <ele>2.2000000476837</ele>
        <time>2020-10-15T08:55:36.000Z</time>
      </trkpt>
      <trkpt lat="47.27986" lon="-2.4912">
        <ele>2.2000000476837</ele>
        <time>2020-10-15T08:55:37.000Z</time>
      </trkpt>
      <trkpt lat="47.28" lon="-2.49121">
        <ele>2.2000000476837</ele>
        <time>2020-10-15T08:55:41.000Z</time>
      </trkpt>
      <trkpt lat="47.28011" lon="-2.49116">
        <ele>2.2000000476837</ele>
        <time>2020-10-15T08:55:44.000Z</time>
      </trkpt>
      <trkpt lat="47.28016" lon="-2.49117">
        <ele>2.2000000476837</ele>
        <time>2020-10-15T08:55:46.000Z</time>
      </trkpt>
      <trkpt lat="47.2802" lon="-2.49114">
        <ele>2.2000000476837</ele>
        <time>2020-10-15T08:55:48.000Z</time>
      </trkpt>
      <trkpt lat="47.28032" lon="-2.49101">
        <ele>2.2000000476837</ele>
        <time>2020-10-15T08:55:53.000Z</time>
      </trkpt>
      <trkpt lat="47.28025" lon="-2.49091">
        <ele>2.2000000476837</ele>
        <time>2020-10-15T08:55:56.000Z</time>
      </trkpt>
      <trkpt lat="47.28022" lon="-2.49079">
        <ele>2.2000000476837</ele>
        <time>2020-10-15T08:55:58.000Z</time>
      </trkpt>
      <trkpt lat="47.28018" lon="-2.49068">
        <ele>2.2000000476837</ele>
        <time>2020-10-15T08:56:00.000Z</time>
      </trkpt>
      <trkpt lat="47.28008" lon="-2.49037">
        <ele>1.7999999523163</ele>
        <time>2020-10-15T08:56:06.000Z</time>
      </trkpt>
      <trkpt lat="47.28007" lon="-2.49031">
        <ele>1.3999999761581</ele>
        <time>2020-10-15T08:56:07.000Z</time>
      </trkpt>
      <trkpt lat="47.28006" lon="-2.49026">
        <ele>1</ele>
        <time>2020-10-15T08:56:08.000Z</time>
      </trkpt>
      <trkpt lat="47.28005" lon="-2.49022">
        <ele>0.60000002384186</ele>
        <time>2020-10-15T08:56:09.000Z</time>
      </trkpt>
      <trkpt lat="47.28004" lon="-2.49017">
        <ele>0.20000000298023</ele>
        <time>2020-10-15T08:56:10.000Z</time>
      </trkpt>
      <trkpt lat="47.27999" lon="-2.48995">
        <ele>0.20000000298023</ele>
        <time>2020-10-15T08:56:14.000Z</time>
      </trkpt>
      <trkpt lat="47.27993" lon="-2.48956">
        <ele>0.20000000298023</ele>
        <time>2020-10-15T08:56:21.000Z</time>
      </trkpt>
      <trkpt lat="47.27989" lon="-2.48917">
        <ele>0.20000000298023</ele>
        <time>2020-10-15T08:56:28.000Z</time>
      </trkpt>
      <trkpt lat="47.27986" lon="-2.48886">
        <ele>0.20000000298023</ele>
        <time>2020-10-15T08:56:35.000Z</time>
      </trkpt>
      <trkpt lat="47.27986" lon="-2.48862">
        <ele>0.20000000298023</ele>
        <time>2020-10-15T08:56:42.000Z</time>
      </trkpt>
      <trkpt lat="47.27985" lon="-2.48853">
        <ele>0.60000002384186</ele>
        <time>2020-10-15T08:56:45.000Z</time>
      </trkpt>
      <trkpt lat="47.27984" lon="-2.48853">
        <ele>1</ele>
        <time>2020-10-15T08:56:46.000Z</time>
      </trkpt>
      <trkpt lat="47.27981" lon="-2.48853">
        <ele>1.3999999761581</ele>
        <time>2020-10-15T08:56:47.000Z</time>
      </trkpt>
      <trkpt lat="47.27978" lon="-2.48854">
        <ele>1.7999999523163</ele>
        <time>2020-10-15T08:56:48.000Z</time>
      </trkpt>
      <trkpt lat="47.27975" lon="-2.48855">
        <ele>2.2000000476837</ele>
        <time>2020-10-15T08:56:49.000Z</time>
      </trkpt>
      <trkpt lat="47.2797" lon="-2.48864">
        <ele>2.2000000476837</ele>
        <time>2020-10-15T08:56:51.000Z</time>
      </trkpt>
      <trkpt lat="47.27968" lon="-2.48868">
        <ele>2.2000000476837</ele>
        <time>2020-10-15T08:56:52.000Z</time>
      </trkpt>
      <trkpt lat="47.2796" lon="-2.48901">
        <ele>2.2000000476837</ele>
        <time>2020-10-15T08:56:58.000Z</time>
      </trkpt>
      <trkpt lat="47.27953" lon="-2.48931">
        <ele>2.2000000476837</ele>
        <time>2020-10-15T08:57:04.000Z</time>
      </trkpt>
      <trkpt lat="47.2794" lon="-2.48958">
        <ele>2.2000000476837</ele>
        <time>2020-10-15T08:57:10.000Z</time>
      </trkpt>
      <trkpt lat="47.27933" lon="-2.48986">
        <ele>2.2000000476837</ele>
        <time>2020-10-15T08:57:17.000Z</time>
      </trkpt>
      <trkpt lat="47.27927" lon="-2.4901">
        <ele>2.2000000476837</ele>
        <time>2020-10-15T08:57:24.000Z</time>
      </trkpt>
      <trkpt lat="47.27916" lon="-2.49041">
        <ele>2.2000000476837</ele>
        <time>2020-10-15T08:57:33.000Z</time>
      </trkpt>
      <trkpt lat="47.27907" lon="-2.49074">
        <ele>2.2000000476837</ele>
        <time>2020-10-15T08:57:41.000Z</time>
      </trkpt>
      <trkpt lat="47.279" lon="-2.49102">
        <ele>2.2000000476837</ele>
        <time>2020-10-15T08:57:48.000Z</time>
      </trkpt>
      <trkpt lat="47.27889" lon="-2.49134">
        <ele>2.2000000476837</ele>
        <time>2020-10-15T08:57:56.000Z</time>
      </trkpt>
      <trkpt lat="47.27886" lon="-2.49141">
        <ele>2.2000000476837</ele>
        <time>2020-10-15T08:58:00.000Z</time>
      </trkpt>
      <trkpt lat="47.27881" lon="-2.49153">
        <ele>2.2000000476837</ele>
        <time>2020-10-15T08:58:04.000Z</time>
      </trkpt>
      <trkpt lat="47.2787" lon="-2.49185">
        <ele>2.2000000476837</ele>
        <time>2020-10-15T08:58:11.000Z</time>
      </trkpt>
      <trkpt lat="47.27862" lon="-2.49211">
        <ele>2.2000000476837</ele>
        <time>2020-10-15T08:58:17.000Z</time>
      </trkpt>
      <trkpt lat="47.27852" lon="-2.49229">
        <ele>2.2000000476837</ele>
        <time>2020-10-15T08:58:22.000Z</time>
      </trkpt>
      <trkpt lat="47.27845" lon="-2.49249">
        <ele>2.2000000476837</ele>
        <time>2020-10-15T08:58:27.000Z</time>
      </trkpt>
      <trkpt lat="47.27831" lon="-2.49265">
        <ele>2.2000000476837</ele>
        <time>2020-10-15T08:58:34.000Z</time>
      </trkpt>
      <trkpt lat="47.27818" lon="-2.49268">
        <ele>2.2000000476837</ele>
        <time>2020-10-15T08:58:38.000Z</time>
      </trkpt>
      <trkpt lat="47.27789" lon="-2.49262">
        <ele>2.2000000476837</ele>
        <time>2020-10-15T08:58:44.000Z</time>
      </trkpt>
      <trkpt lat="47.27754" lon="-2.49258">
        <ele>2.2000000476837</ele>
        <time>2020-10-15T08:58:50.000Z</time>
      </trkpt>
      <trkpt lat="47.27712" lon="-2.49258">
        <ele>2.2000000476837</ele>
        <time>2020-10-15T08:58:57.000Z</time>
      </trkpt>
      <trkpt lat="47.27679" lon="-2.49251">
        <ele>2.2000000476837</ele>
        <time>2020-10-15T08:59:03.000Z</time>
      </trkpt>
      <trkpt lat="47.27669" lon="-2.49247">
        <ele>2.2000000476837</ele>
        <time>2020-10-15T08:59:05.000Z</time>
      </trkpt>
      <trkpt lat="47.27652" lon="-2.49242">
        <ele>2.2000000476837</ele>
        <time>2020-10-15T08:59:08.000Z</time>
      </trkpt>
      <trkpt lat="47.27647" lon="-2.49242">
        <ele>2.2000000476837</ele>
        <time>2020-10-15T08:59:09.000Z</time>
      </trkpt>
      <trkpt lat="47.27641" lon="-2.49241">
        <ele>2.2000000476837</ele>
        <time>2020-10-15T08:59:10.000Z</time>
      </trkpt>
      <trkpt lat="47.27632" lon="-2.4923">
        <ele>2.2000000476837</ele>
        <time>2020-10-15T08:59:12.000Z</time>
      </trkpt>
      <trkpt lat="47.27625" lon="-2.49216">
        <ele>2.2000000476837</ele>
        <time>2020-10-15T08:59:14.000Z</time>
      </trkpt>
      <trkpt lat="47.27611" lon="-2.49195">
        <ele>2.2000000476837</ele>
        <time>2020-10-15T08:59:17.000Z</time>
      </trkpt>
      <trkpt lat="47.27592" lon="-2.49149">
        <ele>2.2000000476837</ele>
        <time>2020-10-15T08:59:23.000Z</time>
      </trkpt>
      <trkpt lat="47.2759" lon="-2.4914">
        <ele>2.2000000476837</ele>
        <time>2020-10-15T08:59:24.000Z</time>
      </trkpt>
      <trkpt lat="47.27587" lon="-2.49119">
        <ele>2.2000000476837</ele>
        <time>2020-10-15T08:59:27.000Z</time>
      </trkpt>
      <trkpt lat="47.27585" lon="-2.49102">
        <ele>2.2000000476837</ele>
        <time>2020-10-15T08:59:30.000Z</time>
      </trkpt>
      <trkpt lat="47.27583" lon="-2.491">
        <ele>2.2000000476837</ele>
        <time>2020-10-15T08:59:31.000Z</time>
      </trkpt>
      <trkpt lat="47.27568" lon="-2.49101">
        <ele>2.2000000476837</ele>
        <time>2020-10-15T08:59:35.000Z</time>
      </trkpt>
      <trkpt lat="47.27559" lon="-2.49101">
        <ele>2.2000000476837</ele>
        <time>2020-10-15T08:59:39.000Z</time>
      </trkpt>
      <trkpt lat="47.27558" lon="-2.49101">
        <ele>2.2000000476837</ele>
        <time>2020-10-15T08:59:41.000Z</time>
      </trkpt>
      <trkpt lat="47.27555" lon="-2.491">
        <ele>2.2000000476837</ele>
        <time>2020-10-15T08:59:44.000Z</time>
      </trkpt>
      <trkpt lat="47.27553" lon="-2.49101">
        <ele>2.2000000476837</ele>
        <time>2020-10-15T08:59:46.000Z</time>
      </trkpt>
      <trkpt lat="47.27548" lon="-2.49098">
        <ele>2.2000000476837</ele>
        <time>2020-10-15T08:59:53.000Z</time>
      </trkpt>
      <trkpt lat="47.27547" lon="-2.49095">
        <ele>2.2000000476837</ele>
        <time>2020-10-15T08:59:54.000Z</time>
      </trkpt>
      <trkpt lat="47.27545" lon="-2.49076">
        <ele>2.2000000476837</ele>
        <time>2020-10-15T09:00:00.000Z</time>
      </trkpt>
      <trkpt lat="47.27542" lon="-2.49066">
        <ele>2.2000000476837</ele>
        <time>2020-10-15T09:00:04.000Z</time>
      </trkpt>
      <trkpt lat="47.27542" lon="-2.49062">
        <ele>2.2000000476837</ele>
        <time>2020-10-15T09:00:06.000Z</time>
      </trkpt>
      <trkpt lat="47.27539" lon="-2.49034">
        <ele>2.2000000476837</ele>
        <time>2020-10-15T09:00:14.000Z</time>
      </trkpt>
      <trkpt lat="47.27533" lon="-2.49002">
        <ele>2.2000000476837</ele>
        <time>2020-10-15T09:00:21.000Z</time>
      </trkpt>
      <trkpt lat="47.27533" lon="-2.48997">
        <ele>2.2000000476837</ele>
        <time>2020-10-15T09:00:22.000Z</time>
      </trkpt>
      <trkpt lat="47.27531" lon="-2.48971">
        <ele>2.2000000476837</ele>
        <time>2020-10-15T09:00:26.000Z</time>
      </trkpt>
      <trkpt lat="47.27529" lon="-2.48953">
        <ele>2.2000000476837</ele>
        <time>2020-10-15T09:00:30.000Z</time>
      </trkpt>
      <trkpt lat="47.27528" lon="-2.48943">
        <ele>2.2000000476837</ele>
        <time>2020-10-15T09:00:32.000Z</time>
      </trkpt>
      <trkpt lat="47.27525" lon="-2.48925">
        <ele>2.2000000476837</ele>
        <time>2020-10-15T09:00:35.000Z</time>
      </trkpt>
      <trkpt lat="47.27519" lon="-2.48906">
        <ele>2.2000000476837</ele>
        <time>2020-10-15T09:00:39.000Z</time>
      </trkpt>
      <trkpt lat="47.2752" lon="-2.48891">
        <ele>2.2000000476837</ele>
        <time>2020-10-15T09:00:42.000Z</time>
      </trkpt>
      <trkpt lat="47.2752" lon="-2.48887">
        <ele>2.2000000476837</ele>
        <time>2020-10-15T09:00:43.000Z</time>
      </trkpt>
      <trkpt lat="47.27525" lon="-2.48863">
        <ele>2.2000000476837</ele>
        <time>2020-10-15T09:00:47.000Z</time>
      </trkpt>
      <trkpt lat="47.27533" lon="-2.48834">
        <ele>2.2000000476837</ele>
        <time>2020-10-15T09:00:53.000Z</time>
      </trkpt>
      <trkpt lat="47.27539" lon="-2.48807">
        <ele>2.2000000476837</ele>
        <time>2020-10-15T09:01:00.000Z</time>
      </trkpt>
      <trkpt lat="47.27541" lon="-2.48784">
        <ele>2.2000000476837</ele>
        <time>2020-10-15T09:01:05.000Z</time>
      </trkpt>
      <trkpt lat="47.27542" lon="-2.48761">
        <ele>2.2000000476837</ele>
        <time>2020-10-15T09:01:10.000Z</time>
      </trkpt>
      <trkpt lat="47.27538" lon="-2.48742">
        <ele>2.2000000476837</ele>
        <time>2020-10-15T09:01:15.000Z</time>
      </trkpt>
      <trkpt lat="47.27536" lon="-2.48737">
        <ele>2.2000000476837</ele>
        <time>2020-10-15T09:01:17.000Z</time>
      </trkpt>
      <trkpt lat="47.27536" lon="-2.48728">
        <ele>2.2000000476837</ele>
        <time>2020-10-15T09:01:19.000Z</time>
      </trkpt>
      <trkpt lat="47.27533" lon="-2.48714">
        <ele>2.2000000476837</ele>
        <time>2020-10-15T09:01:22.000Z</time>
      </trkpt>
      <trkpt lat="47.27531" lon="-2.4871">
        <ele>2.2000000476837</ele>
        <time>2020-10-15T09:01:23.000Z</time>
      </trkpt>
      <trkpt lat="47.27525" lon="-2.48699">
        <ele>2.5999999046326</ele>
        <time>2020-10-15T09:01:27.000Z</time>
      </trkpt>
      <trkpt lat="47.27523" lon="-2.48698">
        <ele>3</ele>
        <time>2020-10-15T09:01:28.000Z</time>
      </trkpt>
      <trkpt lat="47.2752" lon="-2.48697">
        <ele>3.4000000953674</ele>
        <time>2020-10-15T09:01:29.000Z</time>
      </trkpt>
      <trkpt lat="47.27518" lon="-2.48697">
        <ele>3.7999999523163</ele>
        <time>2020-10-15T09:01:30.000Z</time>
      </trkpt>
      <trkpt lat="47.27515" lon="-2.48696">
        <ele>4.1999998092651</ele>
        <time>2020-10-15T09:01:31.000Z</time>
      </trkpt>
      <trkpt lat="47.27504" lon="-2.48692">
        <ele>4.1999998092651</ele>
        <time>2020-10-15T09:01:35.000Z</time>
      </trkpt>
      <trkpt lat="47.27487" lon="-2.48686">
        <ele>4.1999998092651</ele>
        <time>2020-10-15T09:01:41.000Z</time>
      </trkpt>
      <trkpt lat="47.27478" lon="-2.48667">
        <ele>4.1999998092651</ele>
        <time>2020-10-15T09:01:46.000Z</time>
      </trkpt>
      <trkpt lat="47.27469" lon="-2.48636">
        <ele>4.1999998092651</ele>
        <time>2020-10-15T09:01:53.000Z</time>
      </trkpt>
      <trkpt lat="47.27467" lon="-2.48633">
        <ele>4.1999998092651</ele>
        <time>2020-10-15T09:01:54.000Z</time>
      </trkpt>
      <trkpt lat="47.2746" lon="-2.4863">
        <ele>4.1999998092651</ele>
        <time>2020-10-15T09:01:56.000Z</time>
      </trkpt>
      <trkpt lat="47.27453" lon="-2.48633">
        <ele>4.1999998092651</ele>
        <time>2020-10-15T09:01:59.000Z</time>
      </trkpt>
      <trkpt lat="47.27453" lon="-2.48634">
        <ele>4.1999998092651</ele>
        <time>2020-10-15T09:02:00.000Z</time>
      </trkpt>
      <trkpt lat="47.27451" lon="-2.48628">
        <ele>2.2000000476837</ele>
        <time>2020-10-15T09:17:29.000Z</time>
      </trkpt>
      <trkpt lat="47.27453" lon="-2.48626">
        <ele>2.2000000476837</ele>
        <time>2020-10-15T09:17:30.000Z</time>
      </trkpt>
      <trkpt lat="47.27458" lon="-2.48615">
        <ele>2.2000000476837</ele>
        <time>2020-10-15T09:17:35.000Z</time>
      </trkpt>
      <trkpt lat="47.27459" lon="-2.48594">
        <ele>2.2000000476837</ele>
        <time>2020-10-15T09:17:40.000Z</time>
      </trkpt>
      <trkpt lat="47.27463" lon="-2.48558">
        <ele>2.2000000476837</ele>
        <time>2020-10-15T09:17:48.000Z</time>
      </trkpt>
      <trkpt lat="47.27469" lon="-2.48534">
        <ele>2.2000000476837</ele>
        <time>2020-10-15T09:17:53.000Z</time>
      </trkpt>
      <trkpt lat="47.27468" lon="-2.48508">
        <ele>2.5999999046326</ele>
        <time>2020-10-15T09:17:57.000Z</time>
      </trkpt>
      <trkpt lat="47.27467" lon="-2.48502">
        <ele>3</ele>
        <time>2020-10-15T09:17:58.000Z</time>
      </trkpt>
      <trkpt lat="47.27466" lon="-2.48496">
        <ele>3.4000000953674</ele>
        <time>2020-10-15T09:17:59.000Z</time>
      </trkpt>
      <trkpt lat="47.27465" lon="-2.4849">
        <ele>3.7999999523163</ele>
        <time>2020-10-15T09:18:00.000Z</time>
      </trkpt>
      <trkpt lat="47.27465" lon="-2.48484">
        <ele>4.1999998092651</ele>
        <time>2020-10-15T09:18:01.000Z</time>
      </trkpt>
      <trkpt lat="47.27464" lon="-2.48458">
        <ele>4.1999998092651</ele>
        <time>2020-10-15T09:18:05.000Z</time>
      </trkpt>
      <trkpt lat="47.27454" lon="-2.48413">
        <ele>4.1999998092651</ele>
        <time>2020-10-15T09:18:12.000Z</time>
      </trkpt>
      <trkpt lat="47.27442" lon="-2.48374">
        <ele>4.1999998092651</ele>
        <time>2020-10-15T09:18:19.000Z</time>
      </trkpt>
      <trkpt lat="47.27432" lon="-2.48331">
        <ele>4.1999998092651</ele>
        <time>2020-10-15T09:18:27.000Z</time>
      </trkpt>
      <trkpt lat="47.27425" lon="-2.48282">
        <ele>4.1999998092651</ele>
        <time>2020-10-15T09:18:35.000Z</time>
      </trkpt>
      <trkpt lat="47.27419" lon="-2.48243">
        <ele>4.1999998092651</ele>
        <time>2020-10-15T09:18:42.000Z</time>
      </trkpt>
      <trkpt lat="47.27412" lon="-2.48205">
        <ele>4.1999998092651</ele>
        <time>2020-10-15T09:18:49.000Z</time>
      </trkpt>
      <trkpt lat="47.2741" lon="-2.4819">
        <ele>4.5999999046326</ele>
        <time>2020-10-15T09:18:52.000Z</time>
      </trkpt>
      <trkpt lat="47.27409" lon="-2.48185">
        <ele>5.1999998092651</ele>
        <time>2020-10-15T09:18:53.000Z</time>
      </trkpt>
      <trkpt lat="47.27409" lon="-2.48181">
        <ele>5.5999999046326</ele>
        <time>2020-10-15T09:18:54.000Z</time>
      </trkpt>
      <trkpt lat="47.27409" lon="-2.48176">
        <ele>6</ele>
        <time>2020-10-15T09:18:55.000Z</time>
      </trkpt>
      <trkpt lat="47.27408" lon="-2.48172">
        <ele>6.4000000953674</ele>
        <time>2020-10-15T09:18:56.000Z</time>
      </trkpt>
      <trkpt lat="47.27408" lon="-2.48168">
        <ele>6.4000000953674</ele>
        <time>2020-10-15T09:18:57.000Z</time>
      </trkpt>
      <trkpt lat="47.27408" lon="-2.48137">
        <ele>6.4000000953674</ele>
        <time>2020-10-15T09:19:05.000Z</time>
      </trkpt>
      <trkpt lat="47.27419" lon="-2.48128">
        <ele>6.4000000953674</ele>
        <time>2020-10-15T09:19:09.000Z</time>
      </trkpt>
      <trkpt lat="47.27438" lon="-2.48128">
        <ele>6.4000000953674</ele>
        <time>2020-10-15T09:19:14.000Z</time>
      </trkpt>
      <trkpt lat="47.27456" lon="-2.48125">
        <ele>6.8000001907349</ele>
        <time>2020-10-15T09:19:19.000Z</time>
      </trkpt>
      <trkpt lat="47.2746" lon="-2.48124">
        <ele>7.1999998092651</ele>
        <time>2020-10-15T09:19:20.000Z</time>
      </trkpt>
      <trkpt lat="47.27463" lon="-2.48123">
        <ele>7.5999999046326</ele>
        <time>2020-10-15T09:19:21.000Z</time>
      </trkpt>
      <trkpt lat="47.27465" lon="-2.48122">
        <ele>8.6000003814697</ele>
        <time>2020-10-15T09:19:22.000Z</time>
      </trkpt>
      <trkpt lat="47.27484" lon="-2.48116">
        <ele>8.6000003814697</ele>
        <time>2020-10-15T09:19:28.000Z</time>
      </trkpt>
      <trkpt lat="47.27505" lon="-2.48111">
        <ele>9</ele>
        <time>2020-10-15T09:19:36.000Z</time>
      </trkpt>
      <trkpt lat="47.27508" lon="-2.4811">
        <ele>9.3999996185303</ele>
        <time>2020-10-15T09:19:37.000Z</time>
      </trkpt>
      <trkpt lat="47.27511" lon="-2.4811">
        <ele>9.8000001907349</ele>
        <time>2020-10-15T09:19:38.000Z</time>
      </trkpt>
      <trkpt lat="47.27514" lon="-2.4811">
        <ele>10.39999961853</ele>
        <time>2020-10-15T09:19:39.000Z</time>
      </trkpt>
      <trkpt lat="47.27518" lon="-2.4811">
        <ele>10.800000190735</ele>
        <time>2020-10-15T09:19:40.000Z</time>
      </trkpt>
      <trkpt lat="47.27523" lon="-2.48109">
        <ele>10.800000190735</ele>
        <time>2020-10-15T09:19:41.000Z</time>
      </trkpt>
      <trkpt lat="47.27548" lon="-2.48105">
        <ele>10.800000190735</ele>
        <time>2020-10-15T09:19:47.000Z</time>
      </trkpt>
      <trkpt lat="47.27581" lon="-2.48099">
        <ele>10.800000190735</ele>
        <time>2020-10-15T09:19:55.000Z</time>
      </trkpt>
      <trkpt lat="47.27607" lon="-2.48091">
        <ele>10.800000190735</ele>
        <time>2020-10-15T09:20:02.000Z</time>
      </trkpt>
      <trkpt lat="47.27613" lon="-2.48086">
        <ele>10.800000190735</ele>
        <time>2020-10-15T09:20:04.000Z</time>
      </trkpt>
      <trkpt lat="47.27615" lon="-2.48078">
        <ele>10.800000190735</ele>
        <time>2020-10-15T09:20:06.000Z</time>
      </trkpt>
      <trkpt lat="47.27616" lon="-2.48061">
        <ele>10.800000190735</ele>
        <time>2020-10-15T09:20:09.000Z</time>
      </trkpt>
      <trkpt lat="47.27617" lon="-2.48051">
        <ele>10.800000190735</ele>
        <time>2020-10-15T09:20:11.000Z</time>
      </trkpt>
      <trkpt lat="47.27625" lon="-2.48021">
        <ele>11.199999809265</ele>
        <time>2020-10-15T09:20:17.000Z</time>
      </trkpt>
      <trkpt lat="47.27626" lon="-2.48016">
        <ele>11.60000038147</ele>
        <time>2020-10-15T09:20:18.000Z</time>
      </trkpt>
      <trkpt lat="47.27626" lon="-2.48011">
        <ele>12</ele>
        <time>2020-10-15T09:20:19.000Z</time>
      </trkpt>
      <trkpt lat="47.27627" lon="-2.48006">
        <ele>12.39999961853</ele>
        <time>2020-10-15T09:20:20.000Z</time>
      </trkpt>
      <trkpt lat="47.27628" lon="-2.48">
        <ele>12.800000190735</ele>
        <time>2020-10-15T09:20:21.000Z</time>
      </trkpt>
      <trkpt lat="47.2763" lon="-2.47995">
        <ele>12.800000190735</ele>
        <time>2020-10-15T09:20:22.000Z</time>
      </trkpt>
      <trkpt lat="47.27643" lon="-2.47981">
        <ele>12.800000190735</ele>
        <time>2020-10-15T09:20:27.000Z</time>
      </trkpt>
      <trkpt lat="47.27649" lon="-2.47972">
        <ele>12.800000190735</ele>
        <time>2020-10-15T09:20:30.000Z</time>
      </trkpt>
      <trkpt lat="47.27652" lon="-2.47971">
        <ele>12.800000190735</ele>
        <time>2020-10-15T09:20:31.000Z</time>
      </trkpt>
      <trkpt lat="47.2767" lon="-2.47964">
        <ele>12.800000190735</ele>
        <time>2020-10-15T09:20:37.000Z</time>
      </trkpt>
      <trkpt lat="47.2768" lon="-2.47951">
        <ele>12.800000190735</ele>
        <time>2020-10-15T09:20:41.000Z</time>
      </trkpt>
      <trkpt lat="47.27685" lon="-2.4793">
        <ele>12.800000190735</ele>
        <time>2020-10-15T09:20:45.000Z</time>
      </trkpt>
      <trkpt lat="47.27681" lon="-2.47918">
        <ele>12.800000190735</ele>
        <time>2020-10-15T09:20:46.000Z</time>
      </trkpt>
      <trkpt lat="47.27668" lon="-2.47866">
        <ele>12.39999961853</ele>
        <time>2020-10-15T09:20:52.000Z</time>
      </trkpt>
      <trkpt lat="47.27666" lon="-2.47858">
        <ele>12</ele>
        <time>2020-10-15T09:20:53.000Z</time>
      </trkpt>
      <trkpt lat="47.27664" lon="-2.47849">
        <ele>11.60000038147</ele>
        <time>2020-10-15T09:20:54.000Z</time>
      </trkpt>
      <trkpt lat="47.27661" lon="-2.4784">
        <ele>11.199999809265</ele>
        <time>2020-10-15T09:20:55.000Z</time>
      </trkpt>
      <trkpt lat="47.27659" lon="-2.47831">
        <ele>10.800000190735</ele>
        <time>2020-10-15T09:20:56.000Z</time>
      </trkpt>
      <trkpt lat="47.27651" lon="-2.478">
        <ele>10.800000190735</ele>
        <time>2020-10-15T09:21:00.000Z</time>
      </trkpt>
      <trkpt lat="47.27638" lon="-2.47752">
        <ele>10.800000190735</ele>
        <time>2020-10-15T09:21:07.000Z</time>
      </trkpt>
      <trkpt lat="47.27629" lon="-2.4772">
        <ele>10.800000190735</ele>
        <time>2020-10-15T09:21:12.000Z</time>
      </trkpt>
      <trkpt lat="47.27626" lon="-2.47714">
        <ele>10.800000190735</ele>
        <time>2020-10-15T09:21:13.000Z</time>
      </trkpt>
      <trkpt lat="47.27614" lon="-2.47712">
        <ele>10.800000190735</ele>
        <time>2020-10-15T09:21:15.000Z</time>
      </trkpt>
      <trkpt lat="47.27601" lon="-2.47717">
        <ele>10.199999809265</ele>
        <time>2020-10-15T09:21:17.000Z</time>
      </trkpt>
      <trkpt lat="47.27594" lon="-2.4772">
        <ele>9.8000001907349</ele>
        <time>2020-10-15T09:21:18.000Z</time>
      </trkpt>
      <trkpt lat="47.27587" lon="-2.47721">
        <ele>9.3999996185303</ele>
        <time>2020-10-15T09:21:19.000Z</time>
      </trkpt>
      <trkpt lat="47.2758" lon="-2.47725">
        <ele>9</ele>
        <time>2020-10-15T09:21:20.000Z</time>
      </trkpt>
      <trkpt lat="47.27573" lon="-2.47729">
        <ele>8.6000003814697</ele>
        <time>2020-10-15T09:21:21.000Z</time>
      </trkpt>
      <trkpt lat="47.27561" lon="-2.47736">
        <ele>8.6000003814697</ele>
        <time>2020-10-15T09:21:23.000Z</time>
      </trkpt>
      <trkpt lat="47.27555" lon="-2.47738">
        <ele>8.6000003814697</ele>
        <time>2020-10-15T09:21:24.000Z</time>
      </trkpt>
      <trkpt lat="47.27548" lon="-2.47741">
        <ele>8.1999998092651</ele>
        <time>2020-10-15T09:21:25.000Z</time>
      </trkpt>
      <trkpt lat="47.27542" lon="-2.47744">
        <ele>7.1999998092651</ele>
        <time>2020-10-15T09:21:26.000Z</time>
      </trkpt>
      <trkpt lat="47.27537" lon="-2.47748">
        <ele>6.8000001907349</ele>
        <time>2020-10-15T09:21:27.000Z</time>
      </trkpt>
      <trkpt lat="47.27531" lon="-2.47752">
        <ele>6.4000000953674</ele>
        <time>2020-10-15T09:21:28.000Z</time>
      </trkpt>
      <trkpt lat="47.27526" lon="-2.47756">
        <ele>6.4000000953674</ele>
        <time>2020-10-15T09:21:29.000Z</time>
      </trkpt>
      <trkpt lat="47.27513" lon="-2.47772">
        <ele>6.4000000953674</ele>
        <time>2020-10-15T09:21:32.000Z</time>
      </trkpt>
      <trkpt lat="47.27483" lon="-2.47806">
        <ele>6.4000000953674</ele>
        <time>2020-10-15T09:21:39.000Z</time>
      </trkpt>
      <trkpt lat="47.27479" lon="-2.47809">
        <ele>6</ele>
        <time>2020-10-15T09:21:40.000Z</time>
      </trkpt>
      <trkpt lat="47.27475" lon="-2.4781">
        <ele>5.5999999046326</ele>
        <time>2020-10-15T09:21:41.000Z</time>
      </trkpt>
      <trkpt lat="47.2747" lon="-2.47809">
        <ele>5</ele>
        <time>2020-10-15T09:21:42.000Z</time>
      </trkpt>
      <trkpt lat="47.27467" lon="-2.47805">
        <ele>4.5999999046326</ele>
        <time>2020-10-15T09:21:43.000Z</time>
      </trkpt>
      <trkpt lat="47.27464" lon="-2.478">
        <ele>4.1999998092651</ele>
        <time>2020-10-15T09:21:44.000Z</time>
      </trkpt>
      <trkpt lat="47.27459" lon="-2.47788">
        <ele>4.1999998092651</ele>
        <time>2020-10-15T09:21:46.000Z</time>
      </trkpt>
      <trkpt lat="47.27456" lon="-2.47783">
        <ele>4.1999998092651</ele>
        <time>2020-10-15T09:21:47.000Z</time>
      </trkpt>
      <trkpt lat="47.27444" lon="-2.4776">
        <ele>4.1999998092651</ele>
        <time>2020-10-15T09:21:51.000Z</time>
      </trkpt>
      <trkpt lat="47.27441" lon="-2.47754">
        <ele>4.1999998092651</ele>
        <time>2020-10-15T09:21:52.000Z</time>
      </trkpt>
      <trkpt lat="47.27422" lon="-2.47725">
        <ele>4.1999998092651</ele>
        <time>2020-10-15T09:21:57.000Z</time>
      </trkpt>
      <trkpt lat="47.27397" lon="-2.47688">
        <ele>4.1999998092651</ele>
        <time>2020-10-15T09:22:04.000Z</time>
      </trkpt>
      <trkpt lat="47.27392" lon="-2.47685">
        <ele>4.1999998092651</ele>
        <time>2020-10-15T09:22:05.000Z</time>
      </trkpt>
      <trkpt lat="47.27378" lon="-2.47671">
        <ele>4.1999998092651</ele>
        <time>2020-10-15T09:22:08.000Z</time>
      </trkpt>
      <trkpt lat="47.27362" lon="-2.47653">
        <ele>4.1999998092651</ele>
        <time>2020-10-15T09:22:12.000Z</time>
      </trkpt>
      <trkpt lat="47.27356" lon="-2.47646">
        <ele>5</ele>
        <time>2020-10-15T09:22:14.000Z</time>
      </trkpt>
      <trkpt lat="47.27352" lon="-2.47642">
        <ele>5.4000000953674</ele>
        <time>2020-10-15T09:22:15.000Z</time>
      </trkpt>
      <trkpt lat="47.27349" lon="-2.47638">
        <ele>5.8000001907349</ele>
        <time>2020-10-15T09:22:16.000Z</time>
      </trkpt>
      <trkpt lat="47.27346" lon="-2.47635">
        <ele>6.1999998092651</ele>
        <time>2020-10-15T09:22:17.000Z</time>
      </trkpt>
      <trkpt lat="47.27336" lon="-2.47625">
        <ele>6.1999998092651</ele>
        <time>2020-10-15T09:22:21.000Z</time>
      </trkpt>
      <trkpt lat="47.2733" lon="-2.47621">
        <ele>6.5999999046326</ele>
        <time>2020-10-15T09:22:24.000Z</time>
      </trkpt>
      <trkpt lat="47.27328" lon="-2.47619">
        <ele>7</ele>
        <time>2020-10-15T09:22:25.000Z</time>
      </trkpt>
      <trkpt lat="47.27326" lon="-2.47618">
        <ele>7.5999999046326</ele>
        <time>2020-10-15T09:22:26.000Z</time>
      </trkpt>
      <trkpt lat="47.27324" lon="-2.47616">
        <ele>8</ele>
        <time>2020-10-15T09:22:27.000Z</time>
      </trkpt>
      <trkpt lat="47.27321" lon="-2.47613">
        <ele>8.3999996185303</ele>
        <time>2020-10-15T09:22:28.000Z</time>
      </trkpt>
      <trkpt lat="47.27316" lon="-2.47603">
        <ele>8.3999996185303</ele>
        <time>2020-10-15T09:22:31.000Z</time>
      </trkpt>
      <trkpt lat="47.27305" lon="-2.47589">
        <ele>8.3999996185303</ele>
        <time>2020-10-15T09:22:37.000Z</time>
      </trkpt>
      <trkpt lat="47.27304" lon="-2.47586">
        <ele>8.3999996185303</ele>
        <time>2020-10-15T09:22:38.000Z</time>
      </trkpt>
      <trkpt lat="47.27306" lon="-2.4758">
        <ele>8.8000001907349</ele>
        <time>2020-10-15T09:22:40.000Z</time>
      </trkpt>
      <trkpt lat="47.27307" lon="-2.47578">
        <ele>9.1999998092651</ele>
        <time>2020-10-15T09:22:41.000Z</time>
      </trkpt>
      <trkpt lat="47.27308" lon="-2.47575">
        <ele>9.6000003814697</ele>
        <time>2020-10-15T09:22:42.000Z</time>
      </trkpt>
      <trkpt lat="47.27308" lon="-2.47572">
        <ele>10</ele>
        <time>2020-10-15T09:22:43.000Z</time>
      </trkpt>
      <trkpt lat="47.27305" lon="-2.47568">
        <ele>10.39999961853</ele>
        <time>2020-10-15T09:22:44.000Z</time>
      </trkpt>
      <trkpt lat="47.27304" lon="-2.47563">
        <ele>10.39999961853</ele>
        <time>2020-10-15T09:22:45.000Z</time>
      </trkpt>
      <trkpt lat="47.27297" lon="-2.47547">
        <ele>10.39999961853</ele>
        <time>2020-10-15T09:22:48.000Z</time>
      </trkpt>
      <trkpt lat="47.27287" lon="-2.47525">
        <ele>10.39999961853</ele>
        <time>2020-10-15T09:22:52.000Z</time>
      </trkpt>
      <trkpt lat="47.27275" lon="-2.47479">
        <ele>10.39999961853</ele>
        <time>2020-10-15T09:22:59.000Z</time>
      </trkpt>
      <trkpt lat="47.27268" lon="-2.47442">
        <ele>10.39999961853</ele>
        <time>2020-10-15T09:23:05.000Z</time>
      </trkpt>
      <trkpt lat="47.27272" lon="-2.47412">
        <ele>10.39999961853</ele>
        <time>2020-10-15T09:23:10.000Z</time>
      </trkpt>
      <trkpt lat="47.27283" lon="-2.47393">
        <ele>10.39999961853</ele>
        <time>2020-10-15T09:23:14.000Z</time>
      </trkpt>
      <trkpt lat="47.27285" lon="-2.47389">
        <ele>10.39999961853</ele>
        <time>2020-10-15T09:23:15.000Z</time>
      </trkpt>
      <trkpt lat="47.27288" lon="-2.47385">
        <ele>10.39999961853</ele>
        <time>2020-10-15T09:23:16.000Z</time>
      </trkpt>
      <trkpt lat="47.27293" lon="-2.47368">
        <ele>10.39999961853</ele>
        <time>2020-10-15T09:23:19.000Z</time>
      </trkpt>
      <trkpt lat="47.27293" lon="-2.4733">
        <ele>10.39999961853</ele>
        <time>2020-10-15T09:23:25.000Z</time>
      </trkpt>
      <trkpt lat="47.27295" lon="-2.47325">
        <ele>10.39999961853</ele>
        <time>2020-10-15T09:23:26.000Z</time>
      </trkpt>
      <trkpt lat="47.273" lon="-2.4731">
        <ele>10.39999961853</ele>
        <time>2020-10-15T09:23:29.000Z</time>
      </trkpt>
      <trkpt lat="47.27314" lon="-2.47301">
        <ele>10.39999961853</ele>
        <time>2020-10-15T09:23:32.000Z</time>
      </trkpt>
      <trkpt lat="47.27319" lon="-2.47299">
        <ele>10.39999961853</ele>
        <time>2020-10-15T09:23:33.000Z</time>
      </trkpt>
      <trkpt lat="47.27339" lon="-2.47298">
        <ele>10.39999961853</ele>
        <time>2020-10-15T09:23:36.000Z</time>
      </trkpt>
      <trkpt lat="47.27351" lon="-2.47294">
        <ele>10.39999961853</ele>
        <time>2020-10-15T09:23:38.000Z</time>
      </trkpt>
      <trkpt lat="47.2736" lon="-2.47289">
        <ele>10.39999961853</ele>
        <time>2020-10-15T09:23:40.000Z</time>
      </trkpt>
      <trkpt lat="47.27365" lon="-2.47286">
        <ele>10.39999961853</ele>
        <time>2020-10-15T09:23:41.000Z</time>
      </trkpt>
      <trkpt lat="47.27373" lon="-2.47279">
        <ele>10</ele>
        <time>2020-10-15T09:23:43.000Z</time>
      </trkpt>
      <trkpt lat="47.27377" lon="-2.47276">
        <ele>9.6000003814697</ele>
        <time>2020-10-15T09:23:44.000Z</time>
      </trkpt>
      <trkpt lat="47.27381" lon="-2.47272">
        <ele>9.1999998092651</ele>
        <time>2020-10-15T09:23:45.000Z</time>
      </trkpt>
      <trkpt lat="47.27385" lon="-2.47268">
        <ele>8.8000001907349</ele>
        <time>2020-10-15T09:23:46.000Z</time>
      </trkpt>
      <trkpt lat="47.2739" lon="-2.47265">
        <ele>8.1999998092651</ele>
        <time>2020-10-15T09:23:47.000Z</time>
      </trkpt>
      <trkpt lat="47.27425" lon="-2.4724">
        <ele>8.1999998092651</ele>
        <time>2020-10-15T09:23:55.000Z</time>
      </trkpt>
      <trkpt lat="47.27442" lon="-2.47229">
        <ele>7.8000001907349</ele>
        <time>2020-10-15T09:23:59.000Z</time>
      </trkpt>
      <trkpt lat="47.27447" lon="-2.47226">
        <ele>7.4000000953674</ele>
        <time>2020-10-15T09:24:00.000Z</time>
      </trkpt>
      <trkpt lat="47.27451" lon="-2.47222">
        <ele>7</ele>
        <time>2020-10-15T09:24:01.000Z</time>
      </trkpt>
      <trkpt lat="47.27455" lon="-2.47219">
        <ele>6.5999999046326</ele>
        <time>2020-10-15T09:24:02.000Z</time>
      </trkpt>
      <trkpt lat="47.2746" lon="-2.47216">
        <ele>6.1999998092651</ele>
        <time>2020-10-15T09:24:03.000Z</time>
      </trkpt>
      <trkpt lat="47.2749" lon="-2.47196">
        <ele>6.1999998092651</ele>
        <time>2020-10-15T09:24:10.000Z</time>
      </trkpt>
      <trkpt lat="47.27494" lon="-2.47194">
        <ele>6.1999998092651</ele>
        <time>2020-10-15T09:24:11.000Z</time>
      </trkpt>
      <trkpt lat="47.27499" lon="-2.47191">
        <ele>6.1999998092651</ele>
        <time>2020-10-15T09:24:12.000Z</time>
      </trkpt>
      <trkpt lat="47.27504" lon="-2.47179">
        <ele>6.1999998092651</ele>
        <time>2020-10-15T09:24:14.000Z</time>
      </trkpt>
      <trkpt lat="47.275" lon="-2.47169">
        <ele>6.1999998092651</ele>
        <time>2020-10-15T09:24:16.000Z</time>
      </trkpt>
      <trkpt lat="47.27498" lon="-2.47163">
        <ele>6.1999998092651</ele>
        <time>2020-10-15T09:24:17.000Z</time>
      </trkpt>
      <trkpt lat="47.27491" lon="-2.47144">
        <ele>6.1999998092651</ele>
        <time>2020-10-15T09:24:20.000Z</time>
      </trkpt>
      <trkpt lat="47.27486" lon="-2.4713">
        <ele>6.1999998092651</ele>
        <time>2020-10-15T09:24:22.000Z</time>
      </trkpt>
      <trkpt lat="47.27476" lon="-2.47098">
        <ele>6.1999998092651</ele>
        <time>2020-10-15T09:24:27.000Z</time>
      </trkpt>
      <trkpt lat="47.27477" lon="-2.47085">
        <ele>6.1999998092651</ele>
        <time>2020-10-15T09:24:29.000Z</time>
      </trkpt>
      <trkpt lat="47.27485" lon="-2.4707">
        <ele>6.1999998092651</ele>
        <time>2020-10-15T09:24:32.000Z</time>
      </trkpt>
      <trkpt lat="47.27496" lon="-2.47057">
        <ele>6.1999998092651</ele>
        <time>2020-10-15T09:24:35.000Z</time>
      </trkpt>
      <trkpt lat="47.27511" lon="-2.47039">
        <ele>6.1999998092651</ele>
        <time>2020-10-15T09:24:39.000Z</time>
      </trkpt>
      <trkpt lat="47.27535" lon="-2.47009">
        <ele>6.1999998092651</ele>
        <time>2020-10-15T09:24:45.000Z</time>
      </trkpt>
      <trkpt lat="47.27543" lon="-2.46996">
        <ele>6.1999998092651</ele>
        <time>2020-10-15T09:24:49.000Z</time>
      </trkpt>
      <trkpt lat="47.2756" lon="-2.46976">
        <ele>6.1999998092651</ele>
        <time>2020-10-15T09:24:56.000Z</time>
      </trkpt>
      <trkpt lat="47.27576" lon="-2.46984">
        <ele>6.1999998092651</ele>
        <time>2020-10-15T09:25:00.000Z</time>
      </trkpt>
      <trkpt lat="47.27583" lon="-2.46989">
        <ele>6.1999998092651</ele>
        <time>2020-10-15T09:25:02.000Z</time>
      </trkpt>
      <trkpt lat="47.27595" lon="-2.4699">
        <ele>6.1999998092651</ele>
        <time>2020-10-15T09:25:05.000Z</time>
      </trkpt>
      <trkpt lat="47.27618" lon="-2.46991">
        <ele>6.1999998092651</ele>
        <time>2020-10-15T09:25:11.000Z</time>
      </trkpt>
      <trkpt lat="47.27631" lon="-2.46991">
        <ele>6.1999998092651</ele>
        <time>2020-10-15T09:25:14.000Z</time>
      </trkpt>
      <trkpt lat="47.27636" lon="-2.4699">
        <ele>6.1999998092651</ele>
        <time>2020-10-15T09:25:15.000Z</time>
      </trkpt>
      <trkpt lat="47.2764" lon="-2.46991">
        <ele>5.8000001907349</ele>
        <time>2020-10-15T09:25:16.000Z</time>
      </trkpt>
      <trkpt lat="47.27646" lon="-2.46991">
        <ele>5.4000000953674</ele>
        <time>2020-10-15T09:25:17.000Z</time>
      </trkpt>
      <trkpt lat="47.27652" lon="-2.46992">
        <ele>4.8000001907349</ele>
        <time>2020-10-15T09:25:18.000Z</time>
      </trkpt>
      <trkpt lat="47.27657" lon="-2.46992">
        <ele>4.4000000953674</ele>
        <time>2020-10-15T09:25:19.000Z</time>
      </trkpt>
      <trkpt lat="47.27661" lon="-2.46989">
        <ele>4</ele>
        <time>2020-10-15T09:25:20.000Z</time>
      </trkpt>
      <trkpt lat="47.27663" lon="-2.46978">
        <ele>4</ele>
        <time>2020-10-15T09:25:22.000Z</time>
      </trkpt>
      <trkpt lat="47.27664" lon="-2.4695">
        <ele>4</ele>
        <time>2020-10-15T09:25:26.000Z</time>
      </trkpt>
      <trkpt lat="47.27672" lon="-2.46927">
        <ele>4</ele>
        <time>2020-10-15T09:25:31.000Z</time>
      </trkpt>
      <trkpt lat="47.27685" lon="-2.46931">
        <ele>4</ele>
        <time>2020-10-15T09:25:34.000Z</time>
      </trkpt>
      <trkpt lat="47.27703" lon="-2.4694">
        <ele>4</ele>
        <time>2020-10-15T09:25:38.000Z</time>
      </trkpt>
      <trkpt lat="47.27722" lon="-2.46938">
        <ele>4</ele>
        <time>2020-10-15T09:25:42.000Z</time>
      </trkpt>
      <trkpt lat="47.27727" lon="-2.46937">
        <ele>4</ele>
        <time>2020-10-15T09:25:43.000Z</time>
      </trkpt>
      <trkpt lat="47.27748" lon="-2.46936">
        <ele>4</ele>
        <time>2020-10-15T09:25:47.000Z</time>
      </trkpt>
      <trkpt lat="47.27753" lon="-2.46936">
        <ele>3.5999999046326</ele>
        <time>2020-10-15T09:25:48.000Z</time>
      </trkpt>
      <trkpt lat="47.27758" lon="-2.46936">
        <ele>3.2000000476837</ele>
        <time>2020-10-15T09:25:49.000Z</time>
      </trkpt>
      <trkpt lat="47.27763" lon="-2.46935">
        <ele>2.5999999046326</ele>
        <time>2020-10-15T09:25:50.000Z</time>
      </trkpt>
      <trkpt lat="47.27767" lon="-2.46932">
        <ele>2.2000000476837</ele>
        <time>2020-10-15T09:25:51.000Z</time>
      </trkpt>
      <trkpt lat="47.27769" lon="-2.46927">
        <ele>1.7999999523163</ele>
        <time>2020-10-15T09:25:52.000Z</time>
      </trkpt>
      <trkpt lat="47.27768" lon="-2.46914">
        <ele>1.7999999523163</ele>
        <time>2020-10-15T09:25:55.000Z</time>
      </trkpt>
      <trkpt lat="47.27774" lon="-2.46898">
        <ele>1.7999999523163</ele>
        <time>2020-10-15T09:25:58.000Z</time>
      </trkpt>
      <trkpt lat="47.27782" lon="-2.46864">
        <ele>1.7999999523163</ele>
        <time>2020-10-15T09:26:02.000Z</time>
      </trkpt>
      <trkpt lat="47.27783" lon="-2.46846">
        <ele>1.7999999523163</ele>
        <time>2020-10-15T09:26:04.000Z</time>
      </trkpt>
      <trkpt lat="47.27783" lon="-2.46837">
        <ele>1.7999999523163</ele>
        <time>2020-10-15T09:26:05.000Z</time>
      </trkpt>
      <trkpt lat="47.2778" lon="-2.46819">
        <ele>1.7999999523163</ele>
        <time>2020-10-15T09:26:07.000Z</time>
      </trkpt>
      <trkpt lat="47.27773" lon="-2.46793">
        <ele>1.7999999523163</ele>
        <time>2020-10-15T09:26:10.000Z</time>
      </trkpt>
      <trkpt lat="47.2777" lon="-2.46775">
        <ele>1.7999999523163</ele>
        <time>2020-10-15T09:26:12.000Z</time>
      </trkpt>
      <trkpt lat="47.27767" lon="-2.46767">
        <ele>1.7999999523163</ele>
        <time>2020-10-15T09:26:13.000Z</time>
      </trkpt>
      <trkpt lat="47.27759" lon="-2.46739">
        <ele>1.7999999523163</ele>
        <time>2020-10-15T09:26:17.000Z</time>
      </trkpt>
      <trkpt lat="47.27756" lon="-2.46707">
        <ele>1.7999999523163</ele>
        <time>2020-10-15T09:26:22.000Z</time>
      </trkpt>
      <trkpt lat="47.27759" lon="-2.467">
        <ele>1.7999999523163</ele>
        <time>2020-10-15T09:26:23.000Z</time>
      </trkpt>
      <trkpt lat="47.2776" lon="-2.46672">
        <ele>1.7999999523163</ele>
        <time>2020-10-15T09:26:27.000Z</time>
      </trkpt>
      <trkpt lat="47.2776" lon="-2.46666">
        <ele>1.7999999523163</ele>
        <time>2020-10-15T09:26:28.000Z</time>
      </trkpt>
      <trkpt lat="47.27761" lon="-2.46659">
        <ele>1.7999999523163</ele>
        <time>2020-10-15T09:26:29.000Z</time>
      </trkpt>
      <trkpt lat="47.27763" lon="-2.4664">
        <ele>1.7999999523163</ele>
        <time>2020-10-15T09:26:32.000Z</time>
      </trkpt>
      <trkpt lat="47.27759" lon="-2.46618">
        <ele>1.7999999523163</ele>
        <time>2020-10-15T09:26:36.000Z</time>
      </trkpt>
      <trkpt lat="47.27763" lon="-2.46603">
        <ele>1.7999999523163</ele>
        <time>2020-10-15T09:26:39.000Z</time>
      </trkpt>
      <trkpt lat="47.27757" lon="-2.46588">
        <ele>1.7999999523163</ele>
        <time>2020-10-15T09:26:42.000Z</time>
      </trkpt>
      <trkpt lat="47.27754" lon="-2.46583">
        <ele>1.7999999523163</ele>
        <time>2020-10-15T09:26:43.000Z</time>
      </trkpt>
      <trkpt lat="47.27746" lon="-2.46566">
        <ele>1.7999999523163</ele>
        <time>2020-10-15T09:26:46.000Z</time>
      </trkpt>
      <trkpt lat="47.27741" lon="-2.46552">
        <ele>1.7999999523163</ele>
        <time>2020-10-15T09:26:48.000Z</time>
      </trkpt>
      <trkpt lat="47.27731" lon="-2.46505">
        <ele>1.7999999523163</ele>
        <time>2020-10-15T09:26:54.000Z</time>
      </trkpt>
      <trkpt lat="47.27714" lon="-2.46446">
        <ele>1.7999999523163</ele>
        <time>2020-10-15T09:27:01.000Z</time>
      </trkpt>
      <trkpt lat="47.27691" lon="-2.46394">
        <ele>1.7999999523163</ele>
        <time>2020-10-15T09:27:08.000Z</time>
      </trkpt>
      <trkpt lat="47.27676" lon="-2.46346">
        <ele>1.7999999523163</ele>
        <time>2020-10-15T09:27:15.000Z</time>
      </trkpt>
      <trkpt lat="47.27673" lon="-2.46333">
        <ele>1.7999999523163</ele>
        <time>2020-10-15T09:27:17.000Z</time>
      </trkpt>
      <trkpt lat="47.27671" lon="-2.46313">
        <ele>1.7999999523163</ele>
        <time>2020-10-15T09:27:20.000Z</time>
      </trkpt>
      <trkpt lat="47.27659" lon="-2.4629">
        <ele>1.7999999523163</ele>
        <time>2020-10-15T09:27:24.000Z</time>
      </trkpt>
      <trkpt lat="47.27657" lon="-2.46283">
        <ele>1.7999999523163</ele>
        <time>2020-10-15T09:27:25.000Z</time>
      </trkpt>
      <trkpt lat="47.27662" lon="-2.46273">
        <ele>1.7999999523163</ele>
        <time>2020-10-15T09:27:27.000Z</time>
      </trkpt>
      <trkpt lat="47.27669" lon="-2.46263">
        <ele>1.7999999523163</ele>
        <time>2020-10-15T09:27:29.000Z</time>
      </trkpt>
      <trkpt lat="47.27672" lon="-2.46256">
        <ele>1.7999999523163</ele>
        <time>2020-10-15T09:27:30.000Z</time>
      </trkpt>
      <trkpt lat="47.27672" lon="-2.46248">
        <ele>1.7999999523163</ele>
        <time>2020-10-15T09:27:31.000Z</time>
      </trkpt>
      <trkpt lat="47.27669" lon="-2.46222">
        <ele>1.7999999523163</ele>
        <time>2020-10-15T09:27:34.000Z</time>
      </trkpt>
      <trkpt lat="47.27666" lon="-2.46176">
        <ele>1.7999999523163</ele>
        <time>2020-10-15T09:27:39.000Z</time>
      </trkpt>
      <trkpt lat="47.27667" lon="-2.46158">
        <ele>1.7999999523163</ele>
        <time>2020-10-15T09:27:41.000Z</time>
      </trkpt>
      <trkpt lat="47.27666" lon="-2.46141">
        <ele>1.7999999523163</ele>
        <time>2020-10-15T09:27:43.000Z</time>
      </trkpt>
      <trkpt lat="47.27661" lon="-2.46112">
        <ele>1.7999999523163</ele>
        <time>2020-10-15T09:27:46.000Z</time>
      </trkpt>
      <trkpt lat="47.27654" lon="-2.46068">
        <ele>1.7999999523163</ele>
        <time>2020-10-15T09:27:51.000Z</time>
      </trkpt>
      <trkpt lat="47.27643" lon="-2.46016">
        <ele>1.7999999523163</ele>
        <time>2020-10-15T09:27:57.000Z</time>
      </trkpt>
      <trkpt lat="47.27639" lon="-2.45988">
        <ele>1.7999999523163</ele>
        <time>2020-10-15T09:28:00.000Z</time>
      </trkpt>
      <trkpt lat="47.27638" lon="-2.45957">
        <ele>1.7999999523163</ele>
        <time>2020-10-15T09:28:03.000Z</time>
      </trkpt>
      <trkpt lat="47.27638" lon="-2.45909">
        <ele>1.7999999523163</ele>
        <time>2020-10-15T09:28:08.000Z</time>
      </trkpt>
      <trkpt lat="47.2764" lon="-2.45861">
        <ele>1.7999999523163</ele>
        <time>2020-10-15T09:28:13.000Z</time>
      </trkpt>
      <trkpt lat="47.2764" lon="-2.45851">
        <ele>1.7999999523163</ele>
        <time>2020-10-15T09:28:14.000Z</time>
      </trkpt>
      <trkpt lat="47.27641" lon="-2.45841">
        <ele>1.7999999523163</ele>
        <time>2020-10-15T09:28:15.000Z</time>
      </trkpt>
      <trkpt lat="47.27642" lon="-2.45795">
        <ele>1.7999999523163</ele>
        <time>2020-10-15T09:28:20.000Z</time>
      </trkpt>
      <trkpt lat="47.27639" lon="-2.45752">
        <ele>1.7999999523163</ele>
        <time>2020-10-15T09:28:25.000Z</time>
      </trkpt>
      <trkpt lat="47.27631" lon="-2.45711">
        <ele>2.2000000476837</ele>
        <time>2020-10-15T09:28:31.000Z</time>
      </trkpt>
      <trkpt lat="47.27629" lon="-2.45706">
        <ele>2.5999999046326</ele>
        <time>2020-10-15T09:28:32.000Z</time>
      </trkpt>
      <trkpt lat="47.27627" lon="-2.45703">
        <ele>3</ele>
        <time>2020-10-15T09:28:33.000Z</time>
      </trkpt>
      <trkpt lat="47.27624" lon="-2.45703">
        <ele>3.4000000953674</ele>
        <time>2020-10-15T09:28:34.000Z</time>
      </trkpt>
      <trkpt lat="47.27621" lon="-2.45704">
        <ele>3.7999999523163</ele>
        <time>2020-10-15T09:28:35.000Z</time>
      </trkpt>
      <trkpt lat="47.27606" lon="-2.45711">
        <ele>3.7999999523163</ele>
        <time>2020-10-15T09:28:38.000Z</time>
      </trkpt>
      <trkpt lat="47.27572" lon="-2.45724">
        <ele>3.7999999523163</ele>
        <time>2020-10-15T09:28:44.000Z</time>
      </trkpt>
      <trkpt lat="47.27521" lon="-2.45741">
        <ele>3.7999999523163</ele>
        <time>2020-10-15T09:28:53.000Z</time>
      </trkpt>
      <trkpt lat="47.2747" lon="-2.45758">
        <ele>3.7999999523163</ele>
        <time>2020-10-15T09:29:02.000Z</time>
      </trkpt>
      <trkpt lat="47.27445" lon="-2.45765">
        <ele>3.7999999523163</ele>
        <time>2020-10-15T09:29:06.000Z</time>
      </trkpt>
      <trkpt lat="47.27426" lon="-2.45769">
        <ele>3.7999999523163</ele>
        <time>2020-10-15T09:29:09.000Z</time>
      </trkpt>
      <trkpt lat="47.27389" lon="-2.45772">
        <ele>3.7999999523163</ele>
        <time>2020-10-15T09:29:15.000Z</time>
      </trkpt>
      <trkpt lat="47.27379" lon="-2.45775">
        <ele>3.7999999523163</ele>
        <time>2020-10-15T09:29:17.000Z</time>
      </trkpt>
      <trkpt lat="47.27371" lon="-2.4577">
        <ele>3.7999999523163</ele>
        <time>2020-10-15T09:29:19.000Z</time>
      </trkpt>
      <trkpt lat="47.27364" lon="-2.45751">
        <ele>3.7999999523163</ele>
        <time>2020-10-15T09:29:22.000Z</time>
      </trkpt>
      <trkpt lat="47.27361" lon="-2.45744">
        <ele>3.7999999523163</ele>
        <time>2020-10-15T09:29:23.000Z</time>
      </trkpt>
      <trkpt lat="47.27346" lon="-2.45701">
        <ele>3.7999999523163</ele>
        <time>2020-10-15T09:29:29.000Z</time>
      </trkpt>
      <trkpt lat="47.27326" lon="-2.45642">
        <ele>3.7999999523163</ele>
        <time>2020-10-15T09:29:37.000Z</time>
      </trkpt>
      <trkpt lat="47.27321" lon="-2.45612">
        <ele>3.7999999523163</ele>
        <time>2020-10-15T09:29:41.000Z</time>
      </trkpt>
      <trkpt lat="47.27323" lon="-2.45605">
        <ele>3.7999999523163</ele>
        <time>2020-10-15T09:29:42.000Z</time>
      </trkpt>
      <trkpt lat="47.27338" lon="-2.45594">
        <ele>3.7999999523163</ele>
        <time>2020-10-15T09:29:45.000Z</time>
      </trkpt>
      <trkpt lat="47.27344" lon="-2.4559">
        <ele>3.7999999523163</ele>
        <time>2020-10-15T09:29:46.000Z</time>
      </trkpt>
      <trkpt lat="47.27375" lon="-2.45571">
        <ele>3.7999999523163</ele>
        <time>2020-10-15T09:29:52.000Z</time>
      </trkpt>
      <trkpt lat="47.27409" lon="-2.45563">
        <ele>3.7999999523163</ele>
        <time>2020-10-15T09:29:58.000Z</time>
      </trkpt>
      <trkpt lat="47.2743" lon="-2.45549">
        <ele>3.7999999523163</ele>
        <time>2020-10-15T09:30:02.000Z</time>
      </trkpt>
      <trkpt lat="47.27434" lon="-2.45542">
        <ele>3.7999999523163</ele>
        <time>2020-10-15T09:30:03.000Z</time>
      </trkpt>
      <trkpt lat="47.27436" lon="-2.45519">
        <ele>3.7999999523163</ele>
        <time>2020-10-15T09:30:06.000Z</time>
      </trkpt>
      <trkpt lat="47.27438" lon="-2.45512">
        <ele>3.4000000953674</ele>
        <time>2020-10-15T09:30:07.000Z</time>
      </trkpt>
      <trkpt lat="47.2744" lon="-2.45509">
        <ele>3</ele>
        <time>2020-10-15T09:30:08.000Z</time>
      </trkpt>
      <trkpt lat="47.27444" lon="-2.45508">
        <ele>2.5999999046326</ele>
        <time>2020-10-15T09:30:09.000Z</time>
      </trkpt>
      <trkpt lat="47.27449" lon="-2.45505">
        <ele>2.2000000476837</ele>
        <time>2020-10-15T09:30:10.000Z</time>
      </trkpt>
      <trkpt lat="47.27453" lon="-2.45503">
        <ele>1.7999999523163</ele>
        <time>2020-10-15T09:30:11.000Z</time>
      </trkpt>
      <trkpt lat="47.27463" lon="-2.45497">
        <ele>1.7999999523163</ele>
        <time>2020-10-15T09:30:13.000Z</time>
      </trkpt>
      <trkpt lat="47.27488" lon="-2.45479">
        <ele>1.7999999523163</ele>
        <time>2020-10-15T09:30:18.000Z</time>
      </trkpt>
      <trkpt lat="47.27495" lon="-2.4547">
        <ele>1.7999999523163</ele>
        <time>2020-10-15T09:30:20.000Z</time>
      </trkpt>
      <trkpt lat="47.27493" lon="-2.45454">
        <ele>1.7999999523163</ele>
        <time>2020-10-15T09:30:22.000Z</time>
      </trkpt>
      <trkpt lat="47.27487" lon="-2.45407">
        <ele>1.7999999523163</ele>
        <time>2020-10-15T09:30:28.000Z</time>
      </trkpt>
      <trkpt lat="47.27497" lon="-2.45397">
        <ele>1.7999999523163</ele>
        <time>2020-10-15T09:30:31.000Z</time>
      </trkpt>
      <trkpt lat="47.27518" lon="-2.45391">
        <ele>1.7999999523163</ele>
        <time>2020-10-15T09:30:35.000Z</time>
      </trkpt>
      <trkpt lat="47.27554" lon="-2.45374">
        <ele>1.7999999523163</ele>
        <time>2020-10-15T09:30:41.000Z</time>
      </trkpt>
      <trkpt lat="47.27583" lon="-2.45365">
        <ele>1.7999999523163</ele>
        <time>2020-10-15T09:30:46.000Z</time>
      </trkpt>
      <trkpt lat="47.27589" lon="-2.45364">
        <ele>1.7999999523163</ele>
        <time>2020-10-15T09:30:47.000Z</time>
      </trkpt>
      <trkpt lat="47.27615" lon="-2.45357">
        <ele>1.7999999523163</ele>
        <time>2020-10-15T09:30:52.000Z</time>
      </trkpt>
      <trkpt lat="47.27618" lon="-2.45352">
        <ele>1.7999999523163</ele>
        <time>2020-10-15T09:30:53.000Z</time>
      </trkpt>
      <trkpt lat="47.27617" lon="-2.45339">
        <ele>1.7999999523163</ele>
        <time>2020-10-15T09:30:55.000Z</time>
      </trkpt>
      <trkpt lat="47.27612" lon="-2.45294">
        <ele>1.7999999523163</ele>
        <time>2020-10-15T09:31:00.000Z</time>
      </trkpt>
      <trkpt lat="47.27603" lon="-2.45211">
        <ele>1.7999999523163</ele>
        <time>2020-10-15T09:31:08.000Z</time>
      </trkpt>
      <trkpt lat="47.27594" lon="-2.4515">
        <ele>1.3999999761581</ele>
        <time>2020-10-15T09:31:14.000Z</time>
      </trkpt>
      <trkpt lat="47.27593" lon="-2.45141">
        <ele>0.80000001192093</ele>
        <time>2020-10-15T09:31:15.000Z</time>
      </trkpt>
      <trkpt lat="47.27592" lon="-2.45131">
        <ele>0.40000000596046</ele>
        <time>2020-10-15T09:31:16.000Z</time>
      </trkpt>
      <trkpt lat="47.27591" lon="-2.45121">
        <ele>-0.60000002384186</ele>
        <time>2020-10-15T09:31:17.000Z</time>
      </trkpt>
      <trkpt lat="47.27585" lon="-2.45096">
        <ele>-0.60000002384186</ele>
        <time>2020-10-15T09:31:20.000Z</time>
      </trkpt>
      <trkpt lat="47.27583" lon="-2.45091">
        <ele>-0.60000002384186</ele>
        <time>2020-10-15T09:31:21.000Z</time>
      </trkpt>
      <trkpt lat="47.27575" lon="-2.4509">
        <ele>-0.60000002384186</ele>
        <time>2020-10-15T09:31:23.000Z</time>
      </trkpt>
      <trkpt lat="47.27572" lon="-2.45092">
        <ele>-1</ele>
        <time>2020-10-15T09:31:24.000Z</time>
      </trkpt>
      <trkpt lat="47.27567" lon="-2.45097">
        <ele>-1.3999999761581</ele>
        <time>2020-10-15T09:31:25.000Z</time>
      </trkpt>
      <trkpt lat="47.27563" lon="-2.45102">
        <ele>-1.7999999523163</ele>
        <time>2020-10-15T09:31:26.000Z</time>
      </trkpt>
      <trkpt lat="47.2756" lon="-2.45107">
        <ele>-2.2000000476837</ele>
        <time>2020-10-15T09:31:27.000Z</time>
      </trkpt>
      <trkpt lat="47.27556" lon="-2.45112">
        <ele>-2.5999999046326</ele>
        <time>2020-10-15T09:31:28.000Z</time>
      </trkpt>
      <trkpt lat="47.27539" lon="-2.45134">
        <ele>-2.5999999046326</ele>
        <time>2020-10-15T09:31:32.000Z</time>
      </trkpt>
      <trkpt lat="47.27506" lon="-2.45172">
        <ele>-2.5999999046326</ele>
        <time>2020-10-15T09:31:39.000Z</time>
      </trkpt>
      <trkpt lat="47.27475" lon="-2.45197">
        <ele>-2.5999999046326</ele>
        <time>2020-10-15T09:31:45.000Z</time>
      </trkpt>
      <trkpt lat="47.2747" lon="-2.45199">
        <ele>-2.5999999046326</ele>
        <time>2020-10-15T09:31:46.000Z</time>
      </trkpt>
      <trkpt lat="47.27449" lon="-2.4521">
        <ele>-2.5999999046326</ele>
        <time>2020-10-15T09:31:50.000Z</time>
      </trkpt>
      <trkpt lat="47.27438" lon="-2.45214">
        <ele>-2.5999999046326</ele>
        <time>2020-10-15T09:31:52.000Z</time>
      </trkpt>
      <trkpt lat="47.27427" lon="-2.45214">
        <ele>-2.5999999046326</ele>
        <time>2020-10-15T09:31:54.000Z</time>
      </trkpt>
      <trkpt lat="47.27422" lon="-2.45215">
        <ele>-2.5999999046326</ele>
        <time>2020-10-15T09:31:55.000Z</time>
      </trkpt>
      <trkpt lat="47.27391" lon="-2.45213">
        <ele>-2.5999999046326</ele>
        <time>2020-10-15T09:32:01.000Z</time>
      </trkpt>
      <trkpt lat="47.27375" lon="-2.45216">
        <ele>-2.5999999046326</ele>
        <time>2020-10-15T09:32:04.000Z</time>
      </trkpt>
      <trkpt lat="47.27365" lon="-2.45224">
        <ele>-2.5999999046326</ele>
        <time>2020-10-15T09:32:06.000Z</time>
      </trkpt>
      <trkpt lat="47.27357" lon="-2.45235">
        <ele>-2.5999999046326</ele>
        <time>2020-10-15T09:32:08.000Z</time>
      </trkpt>
      <trkpt lat="47.27335" lon="-2.45259">
        <ele>-2.5999999046326</ele>
        <time>2020-10-15T09:32:13.000Z</time>
      </trkpt>
      <trkpt lat="47.27324" lon="-2.45262">
        <ele>-2.5999999046326</ele>
        <time>2020-10-15T09:32:15.000Z</time>
      </trkpt>
      <trkpt lat="47.27319" lon="-2.45264">
        <ele>-2.2000000476837</ele>
        <time>2020-10-15T09:32:16.000Z</time>
      </trkpt>
      <trkpt lat="47.27314" lon="-2.45265">
        <ele>-1.7999999523163</ele>
        <time>2020-10-15T09:32:17.000Z</time>
      </trkpt>
      <trkpt lat="47.27309" lon="-2.45266">
        <ele>-1.2000000476837</ele>
        <time>2020-10-15T09:32:18.000Z</time>
      </trkpt>
      <trkpt lat="47.27303" lon="-2.45268">
        <ele>-0.80000001192093</ele>
        <time>2020-10-15T09:32:19.000Z</time>
      </trkpt>
      <trkpt lat="47.27298" lon="-2.45269">
        <ele>-0.40000000596046</ele>
        <time>2020-10-15T09:32:20.000Z</time>
      </trkpt>
      <trkpt lat="47.27284" lon="-2.45273">
        <ele>-0.40000000596046</ele>
        <time>2020-10-15T09:32:23.000Z</time>
      </trkpt>
      <trkpt lat="47.27274" lon="-2.45275">
        <ele>-0.40000000596046</ele>
        <time>2020-10-15T09:32:25.000Z</time>
      </trkpt>
      <trkpt lat="47.27268" lon="-2.45276">
        <ele>-0.40000000596046</ele>
        <time>2020-10-15T09:32:26.000Z</time>
      </trkpt>
      <trkpt lat="47.27253" lon="-2.45276">
        <ele>-0.40000000596046</ele>
        <time>2020-10-15T09:32:29.000Z</time>
      </trkpt>
      <trkpt lat="47.27238" lon="-2.45276">
        <ele>-0.40000000596046</ele>
        <time>2020-10-15T09:32:32.000Z</time>
      </trkpt>
      <trkpt lat="47.27222" lon="-2.45275">
        <ele>7</ele>
        <time>2020-10-15T09:32:35.000Z</time>
      </trkpt>
      <trkpt lat="47.27217" lon="-2.45275">
        <ele>0.40000000596046</ele>
        <time>2020-10-15T09:32:36.000Z</time>
      </trkpt>
      <trkpt lat="47.27214" lon="-2.45275">
        <ele>0.80000001192093</ele>
        <time>2020-10-15T09:32:37.000Z</time>
      </trkpt>
      <trkpt lat="47.27212" lon="-2.45275">
        <ele>1.2000000476837</ele>
        <time>2020-10-15T09:32:38.000Z</time>
      </trkpt>
      <trkpt lat="47.27211" lon="-2.45276">
        <ele>1.6000000238419</ele>
        <time>2020-10-15T09:32:39.000Z</time>
      </trkpt>
      <trkpt lat="47.27209" lon="-2.45276">
        <ele>1.6000000238419</ele>
        <time>2020-10-15T09:32:41.000Z</time>
      </trkpt>
      <trkpt lat="47.272" lon="-2.45276">
        <ele>1.6000000238419</ele>
        <time>2020-10-15T09:32:47.000Z</time>
      </trkpt>
      <trkpt lat="47.27193" lon="-2.45268">
        <ele>1.6000000238419</ele>
        <time>2020-10-15T09:32:51.000Z</time>
      </trkpt>
      <trkpt lat="47.27185" lon="-2.45266">
        <ele>1.6000000238419</ele>
        <time>2020-10-15T09:32:53.000Z</time>
      </trkpt>
      <trkpt lat="47.27172" lon="-2.45264">
        <ele>1.6000000238419</ele>
        <time>2020-10-15T09:32:56.000Z</time>
      </trkpt>
      <trkpt lat="47.27163" lon="-2.45262">
        <ele>1.6000000238419</ele>
        <time>2020-10-15T09:32:58.000Z</time>
      </trkpt>
      <trkpt lat="47.27145" lon="-2.45259">
        <ele>1.6000000238419</ele>
        <time>2020-10-15T09:33:02.000Z</time>
      </trkpt>
      <trkpt lat="47.2713" lon="-2.45259">
        <ele>1.6000000238419</ele>
        <time>2020-10-15T09:33:05.000Z</time>
      </trkpt>
      <trkpt lat="47.27115" lon="-2.4526">
        <ele>1.6000000238419</ele>
        <time>2020-10-15T09:33:08.000Z</time>
      </trkpt>
      <trkpt lat="47.27086" lon="-2.45269">
        <ele>2</ele>
        <time>2020-10-15T09:33:14.000Z</time>
      </trkpt>
      <trkpt lat="47.27082" lon="-2.4527">
        <ele>2.4000000953674</ele>
        <time>2020-10-15T09:33:15.000Z</time>
      </trkpt>
      <trkpt lat="47.27077" lon="-2.4527">
        <ele>2.7999999523163</ele>
        <time>2020-10-15T09:33:16.000Z</time>
      </trkpt>
      <trkpt lat="47.27072" lon="-2.45267">
        <ele>3.2000000476837</ele>
        <time>2020-10-15T09:33:17.000Z</time>
      </trkpt>
      <trkpt lat="47.27068" lon="-2.45264">
        <ele>3.7999999523163</ele>
        <time>2020-10-15T09:33:18.000Z</time>
      </trkpt>
      <trkpt lat="47.27059" lon="-2.45252">
        <ele>3.7999999523163</ele>
        <time>2020-10-15T09:33:21.000Z</time>
      </trkpt>
      <trkpt lat="47.27058" lon="-2.45246">
        <ele>3.7999999523163</ele>
        <time>2020-10-15T09:33:22.000Z</time>
      </trkpt>
      <trkpt lat="47.27058" lon="-2.45225">
        <ele>4.1999998092651</ele>
        <time>2020-10-15T09:33:25.000Z</time>
      </trkpt>
      <trkpt lat="47.27058" lon="-2.45217">
        <ele>4.5999999046326</ele>
        <time>2020-10-15T09:33:26.000Z</time>
      </trkpt>
      <trkpt lat="47.27059" lon="-2.4521">
        <ele>5</ele>
        <time>2020-10-15T09:33:27.000Z</time>
      </trkpt>
      <trkpt lat="47.27059" lon="-2.45202">
        <ele>5.4000000953674</ele>
        <time>2020-10-15T09:33:28.000Z</time>
      </trkpt>
      <trkpt lat="47.27059" lon="-2.45195">
        <ele>5.8000001907349</ele>
        <time>2020-10-15T09:33:29.000Z</time>
      </trkpt>
      <trkpt lat="47.2706" lon="-2.45174">
        <ele>5.8000001907349</ele>
        <time>2020-10-15T09:33:32.000Z</time>
      </trkpt>
      <trkpt lat="47.27061" lon="-2.45161">
        <ele>5.8000001907349</ele>
        <time>2020-10-15T09:33:34.000Z</time>
      </trkpt>
      <trkpt lat="47.2706" lon="-2.45151">
        <ele>5.8000001907349</ele>
        <time>2020-10-15T09:33:36.000Z</time>
      </trkpt>
      <trkpt lat="47.27057" lon="-2.45149">
        <ele>5.8000001907349</ele>
        <time>2020-10-15T09:33:37.000Z</time>
      </trkpt>
      <trkpt lat="47.27046" lon="-2.45149">
        <ele>5.8000001907349</ele>
        <time>2020-10-15T09:33:40.000Z</time>
      </trkpt>
      <trkpt lat="47.27036" lon="-2.45151">
        <ele>5.8000001907349</ele>
        <time>2020-10-15T09:33:42.000Z</time>
      </trkpt>
      <trkpt lat="47.27027" lon="-2.45151">
        <ele>5.8000001907349</ele>
        <time>2020-10-15T09:33:44.000Z</time>
      </trkpt>
      <trkpt lat="47.27022" lon="-2.45152">
        <ele>5.8000001907349</ele>
        <time>2020-10-15T09:33:45.000Z</time>
      </trkpt>
      <trkpt lat="47.26994" lon="-2.45152">
        <ele>5.8000001907349</ele>
        <time>2020-10-15T09:33:51.000Z</time>
      </trkpt>
      <trkpt lat="47.26984" lon="-2.45154">
        <ele>5.8000001907349</ele>
        <time>2020-10-15T09:33:54.000Z</time>
      </trkpt>
      <trkpt lat="47.26982" lon="-2.45153">
        <ele>5.8000001907349</ele>
        <time>2020-10-15T09:33:55.000Z</time>
      </trkpt>
      <trkpt lat="47.26976" lon="-2.45148">
        <ele>5.8000001907349</ele>
        <time>2020-10-15T09:34:00.000Z</time>
      </trkpt>
      <trkpt lat="47.26964" lon="-2.45146">
        <ele>5.8000001907349</ele>
        <time>2020-10-15T09:34:06.000Z</time>
      </trkpt>
      <trkpt lat="47.26958" lon="-2.4513">
        <ele>5.8000001907349</ele>
        <time>2020-10-15T09:34:10.000Z</time>
      </trkpt>
      <trkpt lat="47.2696" lon="-2.45112">
        <ele>5.8000001907349</ele>
        <time>2020-10-15T09:34:14.000Z</time>
      </trkpt>
      <trkpt lat="47.26958" lon="-2.45094">
        <ele>5.8000001907349</ele>
        <time>2020-10-15T09:34:18.000Z</time>
      </trkpt>
      <trkpt lat="47.26956" lon="-2.45088">
        <ele>5.8000001907349</ele>
        <time>2020-10-15T09:34:19.000Z</time>
      </trkpt>
      <trkpt lat="47.26954" lon="-2.45072">
        <ele>5.8000001907349</ele>
        <time>2020-10-15T09:34:23.000Z</time>
      </trkpt>
      <trkpt lat="47.26949" lon="-2.45041">
        <ele>5.8000001907349</ele>
        <time>2020-10-15T09:34:29.000Z</time>
      </trkpt>
      <trkpt lat="47.26942" lon="-2.45018">
        <ele>5.8000001907349</ele>
        <time>2020-10-15T09:34:34.000Z</time>
      </trkpt>
      <trkpt lat="47.2693" lon="-2.45003">
        <ele>5.8000001907349</ele>
        <time>2020-10-15T09:34:39.000Z</time>
      </trkpt>
      <trkpt lat="47.26929" lon="-2.45001">
        <ele>5.8000001907349</ele>
        <time>2020-10-15T09:34:40.000Z</time>
      </trkpt>
      <trkpt lat="47.26929" lon="-2.44994">
        <ele>5.8000001907349</ele>
        <time>2020-10-15T09:34:42.000Z</time>
      </trkpt>
      <trkpt lat="47.26937" lon="-2.44996">
        <ele>5.8000001907349</ele>
        <time>2020-10-15T09:34:45.000Z</time>
      </trkpt>
      <trkpt lat="47.26941" lon="-2.44999">
        <ele>5.8000001907349</ele>
        <time>2020-10-15T09:34:46.000Z</time>
      </trkpt>
      <trkpt lat="47.26945" lon="-2.45002">
        <ele>5.8000001907349</ele>
        <time>2020-10-15T09:34:47.000Z</time>
      </trkpt>
      <trkpt lat="47.26956" lon="-2.45006">
        <ele>5.8000001907349</ele>
        <time>2020-10-15T09:34:49.000Z</time>
      </trkpt>
      <trkpt lat="47.26968" lon="-2.45005">
        <ele>5.8000001907349</ele>
        <time>2020-10-15T09:34:51.000Z</time>
      </trkpt>
      <trkpt lat="47.26986" lon="-2.45003">
        <ele>5.8000001907349</ele>
        <time>2020-10-15T09:34:54.000Z</time>
      </trkpt>
      <trkpt lat="47.27022" lon="-2.44996">
        <ele>5.8000001907349</ele>
        <time>2020-10-15T09:35:00.000Z</time>
      </trkpt>
      <trkpt lat="47.27046" lon="-2.44992">
        <ele>5.8000001907349</ele>
        <time>2020-10-15T09:35:04.000Z</time>
      </trkpt>
      <trkpt lat="47.27051" lon="-2.44989">
        <ele>5.8000001907349</ele>
        <time>2020-10-15T09:35:05.000Z</time>
      </trkpt>
      <trkpt lat="47.27059" lon="-2.44977">
        <ele>5.8000001907349</ele>
        <time>2020-10-15T09:35:07.000Z</time>
      </trkpt>
      <trkpt lat="47.2706" lon="-2.44951">
        <ele>5.8000001907349</ele>
        <time>2020-10-15T09:35:10.000Z</time>
      </trkpt>
      <trkpt lat="47.27059" lon="-2.44943">
        <ele>5.8000001907349</ele>
        <time>2020-10-15T09:35:11.000Z</time>
      </trkpt>
      <trkpt lat="47.27056" lon="-2.44897">
        <ele>5.8000001907349</ele>
        <time>2020-10-15T09:35:16.000Z</time>
      </trkpt>
      <trkpt lat="47.27051" lon="-2.44811">
        <ele>5.8000001907349</ele>
        <time>2020-10-15T09:35:25.000Z</time>
      </trkpt>
      <trkpt lat="47.27047" lon="-2.44755">
        <ele>5.8000001907349</ele>
        <time>2020-10-15T09:35:31.000Z</time>
      </trkpt>
      <trkpt lat="47.2704" lon="-2.44709">
        <ele>5.8000001907349</ele>
        <time>2020-10-15T09:35:36.000Z</time>
      </trkpt>
      <trkpt lat="47.27028" lon="-2.44644">
        <ele>5.8000001907349</ele>
        <time>2020-10-15T09:35:43.000Z</time>
      </trkpt>
      <trkpt lat="47.27014" lon="-2.44566">
        <ele>5.8000001907349</ele>
        <time>2020-10-15T09:35:51.000Z</time>
      </trkpt>
      <trkpt lat="47.27013" lon="-2.44556">
        <ele>5.8000001907349</ele>
        <time>2020-10-15T09:35:52.000Z</time>
      </trkpt>
      <trkpt lat="47.27002" lon="-2.44494">
        <ele>5.8000001907349</ele>
        <time>2020-10-15T09:35:59.000Z</time>
      </trkpt>
      <trkpt lat="47.26999" lon="-2.4448">
        <ele>5.8000001907349</ele>
        <time>2020-10-15T09:36:02.000Z</time>
      </trkpt>
      <trkpt lat="47.26987" lon="-2.44473">
        <ele>5.8000001907349</ele>
        <time>2020-10-15T09:36:07.000Z</time>
      </trkpt>
      <trkpt lat="47.26976" lon="-2.44459">
        <ele>5.8000001907349</ele>
        <time>2020-10-15T09:36:12.000Z</time>
      </trkpt>
      <trkpt lat="47.26974" lon="-2.44442">
        <ele>5.8000001907349</ele>
        <time>2020-10-15T09:36:17.000Z</time>
      </trkpt>
      <trkpt lat="47.26975" lon="-2.44419">
        <ele>5.8000001907349</ele>
        <time>2020-10-15T09:36:20.000Z</time>
      </trkpt>
      <trkpt lat="47.26974" lon="-2.44404">
        <ele>5.8000001907349</ele>
        <time>2020-10-15T09:36:22.000Z</time>
      </trkpt>
      <trkpt lat="47.26973" lon="-2.44396">
        <ele>5.8000001907349</ele>
        <time>2020-10-15T09:36:23.000Z</time>
      </trkpt>
      <trkpt lat="47.26969" lon="-2.44373">
        <ele>5.8000001907349</ele>
        <time>2020-10-15T09:36:26.000Z</time>
      </trkpt>
      <trkpt lat="47.26967" lon="-2.44365">
        <ele>5.8000001907349</ele>
        <time>2020-10-15T09:36:27.000Z</time>
      </trkpt>
      <trkpt lat="47.26944" lon="-2.4429">
        <ele>5.8000001907349</ele>
        <time>2020-10-15T09:36:36.000Z</time>
      </trkpt>
      <trkpt lat="47.26932" lon="-2.44229">
        <ele>5.8000001907349</ele>
        <time>2020-10-15T09:36:43.000Z</time>
      </trkpt>
      <trkpt lat="47.26928" lon="-2.44204">
        <ele>5.8000001907349</ele>
        <time>2020-10-15T09:36:46.000Z</time>
      </trkpt>
      <trkpt lat="47.26923" lon="-2.44191">
        <ele>5.8000001907349</ele>
        <time>2020-10-15T09:36:48.000Z</time>
      </trkpt>
      <trkpt lat="47.2691" lon="-2.44166">
        <ele>5.8000001907349</ele>
        <time>2020-10-15T09:36:52.000Z</time>
      </trkpt>
      <trkpt lat="47.26913" lon="-2.4415">
        <ele>5.8000001907349</ele>
        <time>2020-10-15T09:36:55.000Z</time>
      </trkpt>
      <trkpt lat="47.26922" lon="-2.44146">
        <ele>5.8000001907349</ele>
        <time>2020-10-15T09:36:57.000Z</time>
      </trkpt>
      <trkpt lat="47.26927" lon="-2.44144">
        <ele>5.8000001907349</ele>
        <time>2020-10-15T09:36:58.000Z</time>
      </trkpt>
      <trkpt lat="47.26932" lon="-2.4414">
        <ele>5.8000001907349</ele>
        <time>2020-10-15T09:36:59.000Z</time>
      </trkpt>
      <trkpt lat="47.26939" lon="-2.4413">
        <ele>5.8000001907349</ele>
        <time>2020-10-15T09:37:01.000Z</time>
      </trkpt>
      <trkpt lat="47.26939" lon="-2.44109">
        <ele>5.8000001907349</ele>
        <time>2020-10-15T09:37:04.000Z</time>
      </trkpt>
      <trkpt lat="47.26938" lon="-2.44103">
        <ele>5.8000001907349</ele>
        <time>2020-10-15T09:37:05.000Z</time>
      </trkpt>
      <trkpt lat="47.26932" lon="-2.44081">
        <ele>5.8000001907349</ele>
        <time>2020-10-15T09:37:10.000Z</time>
      </trkpt>
      <trkpt lat="47.26932" lon="-2.44081">
        <ele>5.8000001907349</ele>
        <time>2020-10-15T09:37:11.000Z</time>
      </trkpt>
      <trkpt lat="47.26932" lon="-2.44078">
        <ele>3.7999999523163</ele>
        <time>2020-10-15T09:37:18.000Z</time>
      </trkpt>
      <trkpt lat="47.26932" lon="-2.44076">
        <ele>3.7999999523163</ele>
        <time>2020-10-15T09:37:19.000Z</time>
      </trkpt>
      <trkpt lat="47.26935" lon="-2.44056">
        <ele>3.7999999523163</ele>
        <time>2020-10-15T09:37:24.000Z</time>
      </trkpt>
      <trkpt lat="47.26938" lon="-2.44016">
        <ele>3.7999999523163</ele>
        <time>2020-10-15T09:37:32.000Z</time>
      </trkpt>
      <trkpt lat="47.2694" lon="-2.43989">
        <ele>3.7999999523163</ele>
        <time>2020-10-15T09:37:39.000Z</time>
      </trkpt>
      <trkpt lat="47.2694" lon="-2.43965">
        <ele>3.7999999523163</ele>
        <time>2020-10-15T09:37:45.000Z</time>
      </trkpt>
      <trkpt lat="47.26942" lon="-2.4393">
        <ele>3.7999999523163</ele>
        <time>2020-10-15T09:37:51.000Z</time>
      </trkpt>
      <trkpt lat="47.26942" lon="-2.43903">
        <ele>3.7999999523163</ele>
        <time>2020-10-15T09:37:55.000Z</time>
      </trkpt>
      <trkpt lat="47.26943" lon="-2.43876">
        <ele>3.7999999523163</ele>
        <time>2020-10-15T09:37:59.000Z</time>
      </trkpt>
      <trkpt lat="47.26944" lon="-2.4383">
        <ele>3.7999999523163</ele>
        <time>2020-10-15T09:38:06.000Z</time>
      </trkpt>
      <trkpt lat="47.26943" lon="-2.43773">
        <ele>3.7999999523163</ele>
        <time>2020-10-15T09:38:14.000Z</time>
      </trkpt>
      <trkpt lat="47.26947" lon="-2.43726">
        <ele>3.7999999523163</ele>
        <time>2020-10-15T09:38:20.000Z</time>
      </trkpt>
      <trkpt lat="47.26954" lon="-2.43673">
        <ele>3.7999999523163</ele>
        <time>2020-10-15T09:38:27.000Z</time>
      </trkpt>
      <trkpt lat="47.26956" lon="-2.43659">
        <ele>3.7999999523163</ele>
        <time>2020-10-15T09:38:29.000Z</time>
      </trkpt>
      <trkpt lat="47.26962" lon="-2.43642">
        <ele>3.7999999523163</ele>
        <time>2020-10-15T09:38:32.000Z</time>
      </trkpt>
      <trkpt lat="47.26965" lon="-2.43637">
        <ele>3.7999999523163</ele>
        <time>2020-10-15T09:38:33.000Z</time>
      </trkpt>
      <trkpt lat="47.26987" lon="-2.43605">
        <ele>3.4000000953674</ele>
        <time>2020-10-15T09:38:40.000Z</time>
      </trkpt>
      <trkpt lat="47.26989" lon="-2.436">
        <ele>3</ele>
        <time>2020-10-15T09:38:41.000Z</time>
      </trkpt>
      <trkpt lat="47.26992" lon="-2.43596">
        <ele>2</ele>
        <time>2020-10-15T09:38:42.000Z</time>
      </trkpt>
      <trkpt lat="47.26994" lon="-2.43591">
        <ele>1.6000000238419</ele>
        <time>2020-10-15T09:38:43.000Z</time>
      </trkpt>
      <trkpt lat="47.26999" lon="-2.43576">
        <ele>1.6000000238419</ele>
        <time>2020-10-15T09:38:46.000Z</time>
      </trkpt>
      <trkpt lat="47.27013" lon="-2.43566">
        <ele>1.6000000238419</ele>
        <time>2020-10-15T09:38:50.000Z</time>
      </trkpt>
      <trkpt lat="47.27026" lon="-2.4355">
        <ele>1.6000000238419</ele>
        <time>2020-10-15T09:38:54.000Z</time>
      </trkpt>
      <trkpt lat="47.27029" lon="-2.43545">
        <ele>1.6000000238419</ele>
        <time>2020-10-15T09:38:55.000Z</time>
      </trkpt>
      <trkpt lat="47.27057" lon="-2.43506">
        <ele>1.6000000238419</ele>
        <time>2020-10-15T09:39:03.000Z</time>
      </trkpt>
      <trkpt lat="47.27089" lon="-2.43461">
        <ele>1.6000000238419</ele>
        <time>2020-10-15T09:39:12.000Z</time>
      </trkpt>
      <trkpt lat="47.27115" lon="-2.43425">
        <ele>1.6000000238419</ele>
        <time>2020-10-15T09:39:19.000Z</time>
      </trkpt>
      <trkpt lat="47.27135" lon="-2.43397">
        <ele>1.2000000476837</ele>
        <time>2020-10-15T09:39:24.000Z</time>
      </trkpt>
      <trkpt lat="47.2714" lon="-2.43391">
        <ele>0.80000001192093</ele>
        <time>2020-10-15T09:39:25.000Z</time>
      </trkpt>
      <trkpt lat="47.27144" lon="-2.43385">
        <ele>0.20000000298023</ele>
        <time>2020-10-15T09:39:26.000Z</time>
      </trkpt>
      <trkpt lat="47.27148" lon="-2.4338">
        <ele>-0.20000000298023</ele>
        <time>2020-10-15T09:39:27.000Z</time>
      </trkpt>
      <trkpt lat="47.27152" lon="-2.43374">
        <ele>-0.60000002384186</ele>
        <time>2020-10-15T09:39:28.000Z</time>
      </trkpt>
      <trkpt lat="47.27181" lon="-2.43333">
        <ele>-0.60000002384186</ele>
        <time>2020-10-15T09:39:35.000Z</time>
      </trkpt>
      <trkpt lat="47.2721" lon="-2.43296">
        <ele>-0.60000002384186</ele>
        <time>2020-10-15T09:39:42.000Z</time>
      </trkpt>
      <trkpt lat="47.27237" lon="-2.43272">
        <ele>-0.60000002384186</ele>
        <time>2020-10-15T09:39:48.000Z</time>
      </trkpt>
      <trkpt lat="47.27276" lon="-2.43243">
        <ele>-0.60000002384186</ele>
        <time>2020-10-15T09:39:56.000Z</time>
      </trkpt>
      <trkpt lat="47.27314" lon="-2.43213">
        <ele>-0.60000002384186</ele>
        <time>2020-10-15T09:40:04.000Z</time>
      </trkpt>
      <trkpt lat="47.27352" lon="-2.43183">
        <ele>-0.60000002384186</ele>
        <time>2020-10-15T09:40:12.000Z</time>
      </trkpt>
      <trkpt lat="47.2739" lon="-2.43156">
        <ele>-0.60000002384186</ele>
        <time>2020-10-15T09:40:20.000Z</time>
      </trkpt>
      <trkpt lat="47.27424" lon="-2.43135">
        <ele>-0.60000002384186</ele>
        <time>2020-10-15T09:40:27.000Z</time>
      </trkpt>
      <trkpt lat="47.27455" lon="-2.43112">
        <ele>-0.60000002384186</ele>
        <time>2020-10-15T09:40:34.000Z</time>
      </trkpt>
      <trkpt lat="47.27459" lon="-2.43108">
        <ele>-0.60000002384186</ele>
        <time>2020-10-15T09:40:35.000Z</time>
      </trkpt>
      <trkpt lat="47.27465" lon="-2.431">
        <ele>-0.60000002384186</ele>
        <time>2020-10-15T09:40:38.000Z</time>
      </trkpt>
      <trkpt lat="47.27479" lon="-2.43083">
        <ele>-0.60000002384186</ele>
        <time>2020-10-15T09:40:44.000Z</time>
      </trkpt>
      <trkpt lat="47.27501" lon="-2.4306">
        <ele>-0.60000002384186</ele>
        <time>2020-10-15T09:40:50.000Z</time>
      </trkpt>
      <trkpt lat="47.27531" lon="-2.43037">
        <ele>-0.60000002384186</ele>
        <time>2020-10-15T09:40:57.000Z</time>
      </trkpt>
      <trkpt lat="47.27563" lon="-2.43014">
        <ele>-0.60000002384186</ele>
        <time>2020-10-15T09:41:04.000Z</time>
      </trkpt>
      <trkpt lat="47.27598" lon="-2.42992">
        <ele>-0.60000002384186</ele>
        <time>2020-10-15T09:41:12.000Z</time>
      </trkpt>
      <trkpt lat="47.27624" lon="-2.42976">
        <ele>-0.60000002384186</ele>
        <time>2020-10-15T09:41:18.000Z</time>
      </trkpt>
      <trkpt lat="47.27637" lon="-2.42962">
        <ele>-0.60000002384186</ele>
        <time>2020-10-15T09:41:22.000Z</time>
      </trkpt>
      <trkpt lat="47.2764" lon="-2.42959">
        <ele>-0.60000002384186</ele>
        <time>2020-10-15T09:41:23.000Z</time>
      </trkpt>
      <trkpt lat="47.2765" lon="-2.42943">
        <ele>-0.60000002384186</ele>
        <time>2020-10-15T09:41:28.000Z</time>
      </trkpt>
      <trkpt lat="47.27662" lon="-2.42918">
        <ele>-0.60000002384186</ele>
        <time>2020-10-15T09:41:34.000Z</time>
      </trkpt>
      <trkpt lat="47.27664" lon="-2.42913">
        <ele>-0.60000002384186</ele>
        <time>2020-10-15T09:41:35.000Z</time>
      </trkpt>
      <trkpt lat="47.27669" lon="-2.42897">
        <ele>-0.60000002384186</ele>
        <time>2020-10-15T09:41:38.000Z</time>
      </trkpt>
      <trkpt lat="47.27672" lon="-2.42886">
        <ele>-0.60000002384186</ele>
        <time>2020-10-15T09:41:40.000Z</time>
      </trkpt>
      <trkpt lat="47.27678" lon="-2.4286">
        <ele>-0.60000002384186</ele>
        <time>2020-10-15T09:41:45.000Z</time>
      </trkpt>
      <trkpt lat="47.27689" lon="-2.42824">
        <ele>-0.60000002384186</ele>
        <time>2020-10-15T09:41:53.000Z</time>
      </trkpt>
      <trkpt lat="47.27695" lon="-2.42805">
        <ele>-0.60000002384186</ele>
        <time>2020-10-15T09:41:58.000Z</time>
      </trkpt>
      <trkpt lat="47.27703" lon="-2.42795">
        <ele>-0.60000002384186</ele>
        <time>2020-10-15T09:42:03.000Z</time>
      </trkpt>
      <trkpt lat="47.2772" lon="-2.42799">
        <ele>-0.60000002384186</ele>
        <time>2020-10-15T09:42:08.000Z</time>
      </trkpt>
      <trkpt lat="47.27745" lon="-2.42807">
        <ele>-0.60000002384186</ele>
        <time>2020-10-15T09:42:14.000Z</time>
      </trkpt>
      <trkpt lat="47.27749" lon="-2.42808">
        <ele>-0.60000002384186</ele>
        <time>2020-10-15T09:42:15.000Z</time>
      </trkpt>
      <trkpt lat="47.27766" lon="-2.42812">
        <ele>-0.60000002384186</ele>
        <time>2020-10-15T09:42:19.000Z</time>
      </trkpt>
      <trkpt lat="47.27774" lon="-2.42814">
        <ele>-0.60000002384186</ele>
        <time>2020-10-15T09:42:21.000Z</time>
      </trkpt>
      <trkpt lat="47.27805" lon="-2.42819">
        <ele>-0.60000002384186</ele>
        <time>2020-10-15T09:42:28.000Z</time>
      </trkpt>
      <trkpt lat="47.27822" lon="-2.42818">
        <ele>-0.60000002384186</ele>
        <time>2020-10-15T09:42:33.000Z</time>
      </trkpt>
      <trkpt lat="47.27824" lon="-2.42816">
        <ele>-0.60000002384186</ele>
        <time>2020-10-15T09:42:34.000Z</time>
      </trkpt>
      <trkpt lat="47.27828" lon="-2.42802">
        <ele>-0.60000002384186</ele>
        <time>2020-10-15T09:42:38.000Z</time>
      </trkpt>
      <trkpt lat="47.27828" lon="-2.42797">
        <ele>-0.60000002384186</ele>
        <time>2020-10-15T09:42:39.000Z</time>
      </trkpt>
      <trkpt lat="47.27828" lon="-2.42779">
        <ele>-0.60000002384186</ele>
        <time>2020-10-15T09:42:42.000Z</time>
      </trkpt>
      <trkpt lat="47.27827" lon="-2.42756">
        <ele>-0.20000000298023</ele>
        <time>2020-10-15T09:42:46.000Z</time>
      </trkpt>
      <trkpt lat="47.27827" lon="-2.42751">
        <ele>0.20000000298023</ele>
        <time>2020-10-15T09:42:47.000Z</time>
      </trkpt>
      <trkpt lat="47.27826" lon="-2.42746">
        <ele>0.60000002384186</ele>
        <time>2020-10-15T09:42:48.000Z</time>
      </trkpt>
      <trkpt lat="47.27826" lon="-2.4274">
        <ele>1</ele>
        <time>2020-10-15T09:42:49.000Z</time>
      </trkpt>
      <trkpt lat="47.27825" lon="-2.42735">
        <ele>1.3999999761581</ele>
        <time>2020-10-15T09:42:50.000Z</time>
      </trkpt>
      <trkpt lat="47.27825" lon="-2.4273">
        <ele>1.3999999761581</ele>
        <time>2020-10-15T09:42:51.000Z</time>
      </trkpt>
      <trkpt lat="47.27824" lon="-2.42698">
        <ele>1.3999999761581</ele>
        <time>2020-10-15T09:42:57.000Z</time>
      </trkpt>
      <trkpt lat="47.2782" lon="-2.42661">
        <ele>1.3999999761581</ele>
        <time>2020-10-15T09:43:02.000Z</time>
      </trkpt>
      <trkpt lat="47.27817" lon="-2.42635">
        <ele>1</ele>
        <time>2020-10-15T09:43:05.000Z</time>
      </trkpt>
      <trkpt lat="47.27815" lon="-2.42627">
        <ele>0.60000002384186</ele>
        <time>2020-10-15T09:43:06.000Z</time>
      </trkpt>
      <trkpt lat="47.27813" lon="-2.42619">
        <ele>0.20000000298023</ele>
        <time>2020-10-15T09:43:07.000Z</time>
      </trkpt>
      <trkpt lat="47.27811" lon="-2.4261">
        <ele>-0.20000000298023</ele>
        <time>2020-10-15T09:43:08.000Z</time>
      </trkpt>
      <trkpt lat="47.27809" lon="-2.42602">
        <ele>-0.60000002384186</ele>
        <time>2020-10-15T09:43:09.000Z</time>
      </trkpt>
      <trkpt lat="47.27796" lon="-2.4256">
        <ele>-0.60000002384186</ele>
        <time>2020-10-15T09:43:14.000Z</time>
      </trkpt>
      <trkpt lat="47.27775" lon="-2.42503">
        <ele>-0.60000002384186</ele>
        <time>2020-10-15T09:43:21.000Z</time>
      </trkpt>
      <trkpt lat="47.27762" lon="-2.42464">
        <ele>-0.60000002384186</ele>
        <time>2020-10-15T09:43:26.000Z</time>
      </trkpt>
      <trkpt lat="47.2775" lon="-2.42403">
        <ele>-0.60000002384186</ele>
        <time>2020-10-15T09:43:33.000Z</time>
      </trkpt>
      <trkpt lat="47.27743" lon="-2.42358">
        <ele>-0.60000002384186</ele>
        <time>2020-10-15T09:43:38.000Z</time>
      </trkpt>
      <trkpt lat="47.27741" lon="-2.42339">
        <ele>-0.60000002384186</ele>
        <time>2020-10-15T09:43:40.000Z</time>
      </trkpt>
      <trkpt lat="47.27735" lon="-2.42273">
        <ele>-0.60000002384186</ele>
        <time>2020-10-15T09:43:47.000Z</time>
      </trkpt>
      <trkpt lat="47.27733" lon="-2.42207">
        <ele>-0.60000002384186</ele>
        <time>2020-10-15T09:43:54.000Z</time>
      </trkpt>
      <trkpt lat="47.27732" lon="-2.4217">
        <ele>-0.60000002384186</ele>
        <time>2020-10-15T09:43:58.000Z</time>
      </trkpt>
      <trkpt lat="47.27731" lon="-2.42154">
        <ele>-0.60000002384186</ele>
        <time>2020-10-15T09:44:00.000Z</time>
      </trkpt>
      <trkpt lat="47.27731" lon="-2.42145">
        <ele>-0.60000002384186</ele>
        <time>2020-10-15T09:44:01.000Z</time>
      </trkpt>
      <trkpt lat="47.27733" lon="-2.4211">
        <ele>-0.60000002384186</ele>
        <time>2020-10-15T09:44:05.000Z</time>
      </trkpt>
      <trkpt lat="47.27734" lon="-2.42101">
        <ele>-0.60000002384186</ele>
        <time>2020-10-15T09:44:06.000Z</time>
      </trkpt>
      <trkpt lat="47.27746" lon="-2.42031">
        <ele>-0.60000002384186</ele>
        <time>2020-10-15T09:44:14.000Z</time>
      </trkpt>
      <trkpt lat="47.2776" lon="-2.41984">
        <ele>-0.60000002384186</ele>
        <time>2020-10-15T09:44:20.000Z</time>
      </trkpt>
      <trkpt lat="47.27776" lon="-2.41926">
        <ele>-0.60000002384186</ele>
        <time>2020-10-15T09:44:28.000Z</time>
      </trkpt>
      <trkpt lat="47.27795" lon="-2.41876">
        <ele>-0.60000002384186</ele>
        <time>2020-10-15T09:44:35.000Z</time>
      </trkpt>
      <trkpt lat="47.2781" lon="-2.41835">
        <ele>-0.60000002384186</ele>
        <time>2020-10-15T09:44:41.000Z</time>
      </trkpt>
      <trkpt lat="47.27826" lon="-2.41798">
        <ele>-0.60000002384186</ele>
        <time>2020-10-15T09:44:47.000Z</time>
      </trkpt>
      <trkpt lat="47.27844" lon="-2.41756">
        <ele>-0.60000002384186</ele>
        <time>2020-10-15T09:44:53.000Z</time>
      </trkpt>
      <trkpt lat="47.27872" lon="-2.41701">
        <ele>-0.60000002384186</ele>
        <time>2020-10-15T09:45:00.000Z</time>
      </trkpt>
      <trkpt lat="47.279" lon="-2.41645">
        <ele>-0.60000002384186</ele>
        <time>2020-10-15T09:45:07.000Z</time>
      </trkpt>
      <trkpt lat="47.27916" lon="-2.4161">
        <ele>-0.60000002384186</ele>
        <time>2020-10-15T09:45:12.000Z</time>
      </trkpt>
      <trkpt lat="47.27935" lon="-2.41572">
        <ele>-0.60000002384186</ele>
        <time>2020-10-15T09:45:18.000Z</time>
      </trkpt>
      <trkpt lat="47.27956" lon="-2.4153">
        <ele>-0.60000002384186</ele>
        <time>2020-10-15T09:45:25.000Z</time>
      </trkpt>
      <trkpt lat="47.27957" lon="-2.41524">
        <ele>-0.60000002384186</ele>
        <time>2020-10-15T09:45:26.000Z</time>
      </trkpt>
      <trkpt lat="47.27964" lon="-2.41503">
        <ele>-0.60000002384186</ele>
        <time>2020-10-15T09:45:29.000Z</time>
      </trkpt>
      <trkpt lat="47.27981" lon="-2.41445">
        <ele>-0.60000002384186</ele>
        <time>2020-10-15T09:45:37.000Z</time>
      </trkpt>
      <trkpt lat="47.27991" lon="-2.41387">
        <ele>-0.60000002384186</ele>
        <time>2020-10-15T09:45:45.000Z</time>
      </trkpt>
      <trkpt lat="47.27992" lon="-2.4138">
        <ele>-0.60000002384186</ele>
        <time>2020-10-15T09:45:46.000Z</time>
      </trkpt>
      <trkpt lat="47.27997" lon="-2.41341">
        <ele>-0.60000002384186</ele>
        <time>2020-10-15T09:45:51.000Z</time>
      </trkpt>
      <trkpt lat="47.28006" lon="-2.41286">
        <ele>-0.60000002384186</ele>
        <time>2020-10-15T09:45:58.000Z</time>
      </trkpt>
      <trkpt lat="47.28018" lon="-2.41238">
        <ele>-0.60000002384186</ele>
        <time>2020-10-15T09:46:04.000Z</time>
      </trkpt>
      <trkpt lat="47.28034" lon="-2.41174">
        <ele>-0.60000002384186</ele>
        <time>2020-10-15T09:46:12.000Z</time>
      </trkpt>
      <trkpt lat="47.2804" lon="-2.41141">
        <ele>-0.60000002384186</ele>
        <time>2020-10-15T09:46:16.000Z</time>
      </trkpt>
      <trkpt lat="47.28042" lon="-2.41125">
        <ele>-0.60000002384186</ele>
        <time>2020-10-15T09:46:18.000Z</time>
      </trkpt>
      <trkpt lat="47.2805" lon="-2.4107">
        <ele>-0.60000002384186</ele>
        <time>2020-10-15T09:46:25.000Z</time>
      </trkpt>
      <trkpt lat="47.28061" lon="-2.41022">
        <ele>-0.60000002384186</ele>
        <time>2020-10-15T09:46:31.000Z</time>
      </trkpt>
      <trkpt lat="47.28072" lon="-2.40978">
        <ele>-0.60000002384186</ele>
        <time>2020-10-15T09:46:37.000Z</time>
      </trkpt>
      <trkpt lat="47.28081" lon="-2.40945">
        <ele>-0.60000002384186</ele>
        <time>2020-10-15T09:46:42.000Z</time>
      </trkpt>
      <trkpt lat="47.28083" lon="-2.4094">
        <ele>-0.60000002384186</ele>
        <time>2020-10-15T09:46:43.000Z</time>
      </trkpt>
      <trkpt lat="47.28081" lon="-2.40921">
        <ele>-0.60000002384186</ele>
        <time>2020-10-15T09:46:46.000Z</time>
      </trkpt>
      <trkpt lat="47.28076" lon="-2.40908">
        <ele>-0.60000002384186</ele>
        <time>2020-10-15T09:46:48.000Z</time>
      </trkpt>
      <trkpt lat="47.28063" lon="-2.40883">
        <ele>-0.60000002384186</ele>
        <time>2020-10-15T09:46:52.000Z</time>
      </trkpt>
      <trkpt lat="47.28057" lon="-2.4087">
        <ele>-0.60000002384186</ele>
        <time>2020-10-15T09:46:54.000Z</time>
      </trkpt>
      <trkpt lat="47.28048" lon="-2.4085">
        <ele>0.20000000298023</ele>
        <time>2020-10-15T09:46:57.000Z</time>
      </trkpt>
      <trkpt lat="47.28045" lon="-2.40843">
        <ele>0.60000002384186</ele>
        <time>2020-10-15T09:46:58.000Z</time>
      </trkpt>
      <trkpt lat="47.28043" lon="-2.40836">
        <ele>1</ele>
        <time>2020-10-15T09:46:59.000Z</time>
      </trkpt>
      <trkpt lat="47.2804" lon="-2.40831">
        <ele>1.6000000238419</ele>
        <time>2020-10-15T09:47:00.000Z</time>
      </trkpt>
      <trkpt lat="47.28033" lon="-2.40813">
        <ele>1.6000000238419</ele>
        <time>2020-10-15T09:47:03.000Z</time>
      </trkpt>
      <trkpt lat="47.28033" lon="-2.40807">
        <ele>1.6000000238419</ele>
        <time>2020-10-15T09:47:04.000Z</time>
      </trkpt>
      <trkpt lat="47.28037" lon="-2.40781">
        <ele>1.6000000238419</ele>
        <time>2020-10-15T09:47:08.000Z</time>
      </trkpt>
      <trkpt lat="47.2805" lon="-2.4073">
        <ele>1.6000000238419</ele>
        <time>2020-10-15T09:47:15.000Z</time>
      </trkpt>
      <trkpt lat="47.28055" lon="-2.40703">
        <ele>1.6000000238419</ele>
        <time>2020-10-15T09:47:19.000Z</time>
      </trkpt>
      <trkpt lat="47.28055" lon="-2.40691">
        <ele>1.6000000238419</ele>
        <time>2020-10-15T09:47:21.000Z</time>
      </trkpt>
      <trkpt lat="47.28055" lon="-2.40684">
        <ele>1.6000000238419</ele>
        <time>2020-10-15T09:47:23.000Z</time>
      </trkpt>
      <trkpt lat="47.28055" lon="-2.40676">
        <ele>1.6000000238419</ele>
        <time>2020-10-15T09:47:26.000Z</time>
      </trkpt>
      <trkpt lat="47.28056" lon="-2.40676">
        <ele>1.6000000238419</ele>
        <time>2020-10-15T09:47:27.000Z</time>
      </trkpt>
      <trkpt lat="47.28058" lon="-2.40661">
        <ele>1.6000000238419</ele>
        <time>2020-10-15T09:48:29.000Z</time>
      </trkpt>
      <trkpt lat="47.28057" lon="-2.40657">
        <ele>1.6000000238419</ele>
        <time>2020-10-15T09:48:31.000Z</time>
      </trkpt>
      <trkpt lat="47.28051" lon="-2.4064">
        <ele>1.6000000238419</ele>
        <time>2020-10-15T09:48:37.000Z</time>
      </trkpt>
      <trkpt lat="47.28048" lon="-2.40615">
        <ele>1.6000000238419</ele>
        <time>2020-10-15T09:48:43.000Z</time>
      </trkpt>
      <trkpt lat="47.28054" lon="-2.4058">
        <ele>1.6000000238419</ele>
        <time>2020-10-15T09:48:50.000Z</time>
      </trkpt>
      <trkpt lat="47.28062" lon="-2.40536">
        <ele>1.6000000238419</ele>
        <time>2020-10-15T09:48:57.000Z</time>
      </trkpt>
      <trkpt lat="47.28075" lon="-2.4048">
        <ele>1.6000000238419</ele>
        <time>2020-10-15T09:49:06.000Z</time>
      </trkpt>
      <trkpt lat="47.28092" lon="-2.40453">
        <ele>1.6000000238419</ele>
        <time>2020-10-15T09:49:11.000Z</time>
      </trkpt>
      <trkpt lat="47.28106" lon="-2.40423">
        <ele>1.6000000238419</ele>
        <time>2020-10-15T09:49:16.000Z</time>
      </trkpt>
      <trkpt lat="47.28108" lon="-2.40416">
        <ele>1.6000000238419</ele>
        <time>2020-10-15T09:49:17.000Z</time>
      </trkpt>
      <trkpt lat="47.28114" lon="-2.40372">
        <ele>1.6000000238419</ele>
        <time>2020-10-15T09:49:23.000Z</time>
      </trkpt>
      <trkpt lat="47.2812" lon="-2.4032">
        <ele>1.6000000238419</ele>
        <time>2020-10-15T09:49:30.000Z</time>
      </trkpt>
      <trkpt lat="47.28129" lon="-2.40254">
        <ele>2</ele>
        <time>2020-10-15T09:49:38.000Z</time>
      </trkpt>
      <trkpt lat="47.28131" lon="-2.40246">
        <ele>2.4000000953674</ele>
        <time>2020-10-15T09:49:39.000Z</time>
      </trkpt>
      <trkpt lat="47.28132" lon="-2.40237">
        <ele>2.7999999523163</ele>
        <time>2020-10-15T09:49:40.000Z</time>
      </trkpt>
      <trkpt lat="47.28133" lon="-2.40228">
        <ele>3.2000000476837</ele>
        <time>2020-10-15T09:49:41.000Z</time>
      </trkpt>
      <trkpt lat="47.28134" lon="-2.40219">
        <ele>3.5999999046326</ele>
        <time>2020-10-15T09:49:42.000Z</time>
      </trkpt>
      <trkpt lat="47.28137" lon="-2.40183">
        <ele>3.5999999046326</ele>
        <time>2020-10-15T09:49:46.000Z</time>
      </trkpt>
      <trkpt lat="47.28143" lon="-2.4012">
        <ele>3.5999999046326</ele>
        <time>2020-10-15T09:49:53.000Z</time>
      </trkpt>
      <trkpt lat="47.28149" lon="-2.40037">
        <ele>3.5999999046326</ele>
        <time>2020-10-15T09:50:03.000Z</time>
      </trkpt>
      <trkpt lat="47.28152" lon="-2.40015">
        <ele>3.5999999046326</ele>
        <time>2020-10-15T09:50:06.000Z</time>
      </trkpt>
      <trkpt lat="47.28153" lon="-2.39992">
        <ele>3.5999999046326</ele>
        <time>2020-10-15T09:50:09.000Z</time>
      </trkpt>
      <trkpt lat="47.28154" lon="-2.39985">
        <ele>3.5999999046326</ele>
        <time>2020-10-15T09:50:10.000Z</time>
      </trkpt>
      <trkpt lat="47.28156" lon="-2.3997">
        <ele>3.5999999046326</ele>
        <time>2020-10-15T09:50:12.000Z</time>
      </trkpt>
      <trkpt lat="47.28157" lon="-2.39946">
        <ele>3.5999999046326</ele>
        <time>2020-10-15T09:50:15.000Z</time>
      </trkpt>
      <trkpt lat="47.28162" lon="-2.3989">
        <ele>3.5999999046326</ele>
        <time>2020-10-15T09:50:22.000Z</time>
      </trkpt>
      <trkpt lat="47.28166" lon="-2.39813">
        <ele>3.5999999046326</ele>
        <time>2020-10-15T09:50:31.000Z</time>
      </trkpt>
      <trkpt lat="47.28171" lon="-2.39731">
        <ele>3.5999999046326</ele>
        <time>2020-10-15T09:50:41.000Z</time>
      </trkpt>
      <trkpt lat="47.28173" lon="-2.39672">
        <ele>3.5999999046326</ele>
        <time>2020-10-15T09:50:49.000Z</time>
      </trkpt>
      <trkpt lat="47.28175" lon="-2.39611">
        <ele>3.5999999046326</ele>
        <time>2020-10-15T09:50:57.000Z</time>
      </trkpt>
      <trkpt lat="47.28178" lon="-2.3954">
        <ele>3.5999999046326</ele>
        <time>2020-10-15T09:51:06.000Z</time>
      </trkpt>
      <trkpt lat="47.28178" lon="-2.39461">
        <ele>3.5999999046326</ele>
        <time>2020-10-15T09:51:17.000Z</time>
      </trkpt>
      <trkpt lat="47.28178" lon="-2.39386">
        <ele>3.5999999046326</ele>
        <time>2020-10-15T09:51:27.000Z</time>
      </trkpt>
      <trkpt lat="47.28178" lon="-2.39312">
        <ele>3.5999999046326</ele>
        <time>2020-10-15T09:51:37.000Z</time>
      </trkpt>
      <trkpt lat="47.28177" lon="-2.39255">
        <ele>3.5999999046326</ele>
        <time>2020-10-15T09:51:45.000Z</time>
      </trkpt>
      <trkpt lat="47.28175" lon="-2.39204">
        <ele>3.5999999046326</ele>
        <time>2020-10-15T09:51:52.000Z</time>
      </trkpt>
      <trkpt lat="47.28171" lon="-2.39139">
        <ele>3.5999999046326</ele>
        <time>2020-10-15T09:52:00.000Z</time>
      </trkpt>
      <trkpt lat="47.28165" lon="-2.39067">
        <ele>3.5999999046326</ele>
        <time>2020-10-15T09:52:09.000Z</time>
      </trkpt>
      <trkpt lat="47.28159" lon="-2.38999">
        <ele>3.5999999046326</ele>
        <time>2020-10-15T09:52:17.000Z</time>
      </trkpt>
      <trkpt lat="47.28151" lon="-2.3895">
        <ele>3.5999999046326</ele>
        <time>2020-10-15T09:52:23.000Z</time>
      </trkpt>
      <trkpt lat="47.28149" lon="-2.38942">
        <ele>3.5999999046326</ele>
        <time>2020-10-15T09:52:24.000Z</time>
      </trkpt>
      <trkpt lat="47.28133" lon="-2.38875">
        <ele>3.5999999046326</ele>
        <time>2020-10-15T09:52:32.000Z</time>
      </trkpt>
      <trkpt lat="47.28128" lon="-2.38813">
        <ele>3.5999999046326</ele>
        <time>2020-10-15T09:52:39.000Z</time>
      </trkpt>
      <trkpt lat="47.2812" lon="-2.38734">
        <ele>3.5999999046326</ele>
        <time>2020-10-15T09:52:48.000Z</time>
      </trkpt>
      <trkpt lat="47.28116" lon="-2.38689">
        <ele>3.5999999046326</ele>
        <time>2020-10-15T09:52:54.000Z</time>
      </trkpt>
      <trkpt lat="47.28115" lon="-2.38668">
        <ele>3.5999999046326</ele>
        <time>2020-10-15T09:52:59.000Z</time>
      </trkpt>
      <trkpt lat="47.28116" lon="-2.38662">
        <ele>3.5999999046326</ele>
        <time>2020-10-15T09:53:03.000Z</time>
      </trkpt>
      <trkpt lat="47.28115" lon="-2.38661">
        <ele>3.5999999046326</ele>
        <time>2020-10-15T09:53:15.000Z</time>
      </trkpt>
      <trkpt lat="47.28115" lon="-2.38659">
        <ele>3.5999999046326</ele>
        <time>2020-10-15T09:53:16.000Z</time>
      </trkpt>
      <trkpt lat="47.28113" lon="-2.38635">
        <ele>3.5999999046326</ele>
        <time>2020-10-15T09:53:21.000Z</time>
      </trkpt>
      <trkpt lat="47.28108" lon="-2.38577">
        <ele>3.5999999046326</ele>
        <time>2020-10-15T09:53:29.000Z</time>
      </trkpt>
      <trkpt lat="47.281" lon="-2.38518">
        <ele>3.5999999046326</ele>
        <time>2020-10-15T09:53:36.000Z</time>
      </trkpt>
      <trkpt lat="47.28087" lon="-2.38446">
        <ele>3.5999999046326</ele>
        <time>2020-10-15T09:53:45.000Z</time>
      </trkpt>
      <trkpt lat="47.28074" lon="-2.38382">
        <ele>3.5999999046326</ele>
        <time>2020-10-15T09:53:53.000Z</time>
      </trkpt>
      <trkpt lat="47.28063" lon="-2.38324">
        <ele>3.5999999046326</ele>
        <time>2020-10-15T09:54:00.000Z</time>
      </trkpt>
      <trkpt lat="47.28052" lon="-2.38263">
        <ele>3.5999999046326</ele>
        <time>2020-10-15T09:54:07.000Z</time>
      </trkpt>
      <trkpt lat="47.2804" lon="-2.38201">
        <ele>3.5999999046326</ele>
        <time>2020-10-15T09:54:14.000Z</time>
      </trkpt>
      <trkpt lat="47.28038" lon="-2.38192">
        <ele>3.5999999046326</ele>
        <time>2020-10-15T09:54:15.000Z</time>
      </trkpt>
      <trkpt lat="47.28025" lon="-2.3812">
        <ele>3.5999999046326</ele>
        <time>2020-10-15T09:54:24.000Z</time>
      </trkpt>
      <trkpt lat="47.2801" lon="-2.38039">
        <ele>3.5999999046326</ele>
        <time>2020-10-15T09:54:34.000Z</time>
      </trkpt>
      <trkpt lat="47.28009" lon="-2.38031">
        <ele>3.5999999046326</ele>
        <time>2020-10-15T09:54:35.000Z</time>
      </trkpt>
      <trkpt lat="47.27995" lon="-2.37957">
        <ele>3.5999999046326</ele>
        <time>2020-10-15T09:54:44.000Z</time>
      </trkpt>
      <trkpt lat="47.27981" lon="-2.37887">
        <ele>3.5999999046326</ele>
        <time>2020-10-15T09:54:53.000Z</time>
      </trkpt>
      <trkpt lat="47.27971" lon="-2.37832">
        <ele>3.5999999046326</ele>
        <time>2020-10-15T09:55:00.000Z</time>
      </trkpt>
      <trkpt lat="47.27969" lon="-2.37823">
        <ele>3.5999999046326</ele>
        <time>2020-10-15T09:55:01.000Z</time>
      </trkpt>
      <trkpt lat="47.27964" lon="-2.37791">
        <ele>3.5999999046326</ele>
        <time>2020-10-15T09:55:05.000Z</time>
      </trkpt>
      <trkpt lat="47.27955" lon="-2.3776">
        <ele>3.5999999046326</ele>
        <time>2020-10-15T09:55:09.000Z</time>
      </trkpt>
      <trkpt lat="47.27952" lon="-2.37752">
        <ele>3.5999999046326</ele>
        <time>2020-10-15T09:55:10.000Z</time>
      </trkpt>
      <trkpt lat="47.27946" lon="-2.37718">
        <ele>3.5999999046326</ele>
        <time>2020-10-15T09:55:14.000Z</time>
      </trkpt>
      <trkpt lat="47.27926" lon="-2.37636">
        <ele>3.5999999046326</ele>
        <time>2020-10-15T09:55:23.000Z</time>
      </trkpt>
      <trkpt lat="47.27911" lon="-2.37572">
        <ele>3.5999999046326</ele>
        <time>2020-10-15T09:55:30.000Z</time>
      </trkpt>
      <trkpt lat="47.27905" lon="-2.37545">
        <ele>4</ele>
        <time>2020-10-15T09:55:33.000Z</time>
      </trkpt>
      <trkpt lat="47.27903" lon="-2.37536">
        <ele>4.4000000953674</ele>
        <time>2020-10-15T09:55:34.000Z</time>
      </trkpt>
      <trkpt lat="47.27901" lon="-2.37527">
        <ele>4.8000001907349</ele>
        <time>2020-10-15T09:55:35.000Z</time>
      </trkpt>
      <trkpt lat="47.27899" lon="-2.37518">
        <ele>5.1999998092651</ele>
        <time>2020-10-15T09:55:36.000Z</time>
      </trkpt>
      <trkpt lat="47.27896" lon="-2.37509">
        <ele>5.5999999046326</ele>
        <time>2020-10-15T09:55:37.000Z</time>
      </trkpt>
      <trkpt lat="47.27894" lon="-2.375">
        <ele>5.5999999046326</ele>
        <time>2020-10-15T09:55:38.000Z</time>
      </trkpt>
      <trkpt lat="47.27875" lon="-2.37417">
        <ele>5.5999999046326</ele>
        <time>2020-10-15T09:55:47.000Z</time>
      </trkpt>
      <trkpt lat="47.27855" lon="-2.37337">
        <ele>5.5999999046326</ele>
        <time>2020-10-15T09:55:56.000Z</time>
      </trkpt>
      <trkpt lat="47.27835" lon="-2.37259">
        <ele>5.5999999046326</ele>
        <time>2020-10-15T09:56:05.000Z</time>
      </trkpt>
      <trkpt lat="47.2782" lon="-2.37202">
        <ele>5.5999999046326</ele>
        <time>2020-10-15T09:56:12.000Z</time>
      </trkpt>
      <trkpt lat="47.27814" lon="-2.37171">
        <ele>5.5999999046326</ele>
        <time>2020-10-15T09:56:16.000Z</time>
      </trkpt>
      <trkpt lat="47.27805" lon="-2.37146">
        <ele>5.5999999046326</ele>
        <time>2020-10-15T09:56:19.000Z</time>
      </trkpt>
      <trkpt lat="47.2779" lon="-2.37092">
        <ele>5.5999999046326</ele>
        <time>2020-10-15T09:56:25.000Z</time>
      </trkpt>
      <trkpt lat="47.27774" lon="-2.37031">
        <ele>5.5999999046326</ele>
        <time>2020-10-15T09:56:32.000Z</time>
      </trkpt>
      <trkpt lat="47.27755" lon="-2.36963">
        <ele>5.5999999046326</ele>
        <time>2020-10-15T09:56:40.000Z</time>
      </trkpt>
      <trkpt lat="47.27733" lon="-2.36888">
        <ele>5.5999999046326</ele>
        <time>2020-10-15T09:56:49.000Z</time>
      </trkpt>
      <trkpt lat="47.27728" lon="-2.36871">
        <ele>5.5999999046326</ele>
        <time>2020-10-15T09:56:51.000Z</time>
      </trkpt>
      <trkpt lat="47.27707" lon="-2.36799">
        <ele>5.5999999046326</ele>
        <time>2020-10-15T09:57:00.000Z</time>
      </trkpt>
      <trkpt lat="47.27686" lon="-2.36735">
        <ele>5.5999999046326</ele>
        <time>2020-10-15T09:57:08.000Z</time>
      </trkpt>
      <trkpt lat="47.2766" lon="-2.36662">
        <ele>5.5999999046326</ele>
        <time>2020-10-15T09:57:17.000Z</time>
      </trkpt>
      <trkpt lat="47.27638" lon="-2.36595">
        <ele>5.5999999046326</ele>
        <time>2020-10-15T09:57:25.000Z</time>
      </trkpt>
      <trkpt lat="47.27614" lon="-2.36525">
        <ele>5.5999999046326</ele>
        <time>2020-10-15T09:57:33.000Z</time>
      </trkpt>
      <trkpt lat="47.27597" lon="-2.36476">
        <ele>5.5999999046326</ele>
        <time>2020-10-15T09:57:39.000Z</time>
      </trkpt>
      <trkpt lat="47.27568" lon="-2.36401">
        <ele>5.5999999046326</ele>
        <time>2020-10-15T09:57:48.000Z</time>
      </trkpt>
      <trkpt lat="47.27543" lon="-2.36334">
        <ele>5.5999999046326</ele>
        <time>2020-10-15T09:57:56.000Z</time>
      </trkpt>
      <trkpt lat="47.27518" lon="-2.36267">
        <ele>5.5999999046326</ele>
        <time>2020-10-15T09:58:04.000Z</time>
      </trkpt>
      <trkpt lat="47.27493" lon="-2.36202">
        <ele>5.5999999046326</ele>
        <time>2020-10-15T09:58:12.000Z</time>
      </trkpt>
      <trkpt lat="47.27468" lon="-2.36138">
        <ele>5.5999999046326</ele>
        <time>2020-10-15T09:58:20.000Z</time>
      </trkpt>
      <trkpt lat="47.27466" lon="-2.3613">
        <ele>5.1999998092651</ele>
        <time>2020-10-15T09:58:21.000Z</time>
      </trkpt>
      <trkpt lat="47.27464" lon="-2.36122">
        <ele>4.8000001907349</ele>
        <time>2020-10-15T09:58:22.000Z</time>
      </trkpt>
      <trkpt lat="47.27461" lon="-2.36114">
        <ele>4.4000000953674</ele>
        <time>2020-10-15T09:58:23.000Z</time>
      </trkpt>
      <trkpt lat="47.27459" lon="-2.36106">
        <ele>4</ele>
        <time>2020-10-15T09:58:24.000Z</time>
      </trkpt>
      <trkpt lat="47.27455" lon="-2.36098">
        <ele>3.4000000953674</ele>
        <time>2020-10-15T09:58:25.000Z</time>
      </trkpt>
      <trkpt lat="47.27451" lon="-2.3609">
        <ele>3.4000000953674</ele>
        <time>2020-10-15T09:58:26.000Z</time>
      </trkpt>
      <trkpt lat="47.27445" lon="-2.36074">
        <ele>3.4000000953674</ele>
        <time>2020-10-15T09:58:28.000Z</time>
      </trkpt>
      <trkpt lat="47.2744" lon="-2.36056">
        <ele>3.4000000953674</ele>
        <time>2020-10-15T09:58:30.000Z</time>
      </trkpt>
      <trkpt lat="47.27437" lon="-2.36049">
        <ele>3.4000000953674</ele>
        <time>2020-10-15T09:58:31.000Z</time>
      </trkpt>
      <trkpt lat="47.27424" lon="-2.36025">
        <ele>3.4000000953674</ele>
        <time>2020-10-15T09:58:34.000Z</time>
      </trkpt>
      <trkpt lat="47.27395" lon="-2.35954">
        <ele>3.4000000953674</ele>
        <time>2020-10-15T09:58:42.000Z</time>
      </trkpt>
      <trkpt lat="47.27366" lon="-2.35884">
        <ele>3.4000000953674</ele>
        <time>2020-10-15T09:58:50.000Z</time>
      </trkpt>
      <trkpt lat="47.27363" lon="-2.35875">
        <ele>3.4000000953674</ele>
        <time>2020-10-15T09:58:51.000Z</time>
      </trkpt>
      <trkpt lat="47.27334" lon="-2.35803">
        <ele>3.4000000953674</ele>
        <time>2020-10-15T09:58:59.000Z</time>
      </trkpt>
      <trkpt lat="47.27331" lon="-2.35794">
        <ele>3.4000000953674</ele>
        <time>2020-10-15T09:59:00.000Z</time>
      </trkpt>
      <trkpt lat="47.27322" lon="-2.35768">
        <ele>3.4000000953674</ele>
        <time>2020-10-15T09:59:03.000Z</time>
      </trkpt>
      <trkpt lat="47.27316" lon="-2.35752">
        <ele>3.4000000953674</ele>
        <time>2020-10-15T09:59:05.000Z</time>
      </trkpt>
      <trkpt lat="47.27301" lon="-2.35718">
        <ele>3.4000000953674</ele>
        <time>2020-10-15T09:59:09.000Z</time>
      </trkpt>
      <trkpt lat="47.27298" lon="-2.35709">
        <ele>3.4000000953674</ele>
        <time>2020-10-15T09:59:10.000Z</time>
      </trkpt>
      <trkpt lat="47.27295" lon="-2.357">
        <ele>3.4000000953674</ele>
        <time>2020-10-15T09:59:11.000Z</time>
      </trkpt>
      <trkpt lat="47.27282" lon="-2.35676">
        <ele>3.4000000953674</ele>
        <time>2020-10-15T09:59:14.000Z</time>
      </trkpt>
      <trkpt lat="47.27279" lon="-2.35668">
        <ele>3.4000000953674</ele>
        <time>2020-10-15T09:59:15.000Z</time>
      </trkpt>
      <trkpt lat="47.27261" lon="-2.35628">
        <ele>3.4000000953674</ele>
        <time>2020-10-15T09:59:20.000Z</time>
      </trkpt>
      <trkpt lat="47.2723" lon="-2.35557">
        <ele>3.4000000953674</ele>
        <time>2020-10-15T09:59:29.000Z</time>
      </trkpt>
      <trkpt lat="47.27226" lon="-2.35549">
        <ele>3.4000000953674</ele>
        <time>2020-10-15T09:59:30.000Z</time>
      </trkpt>
      <trkpt lat="47.27197" lon="-2.35486">
        <ele>3.4000000953674</ele>
        <time>2020-10-15T09:59:38.000Z</time>
      </trkpt>
      <trkpt lat="47.27168" lon="-2.35431">
        <ele>3.4000000953674</ele>
        <time>2020-10-15T09:59:45.000Z</time>
      </trkpt>
      <trkpt lat="47.27134" lon="-2.35369">
        <ele>3.4000000953674</ele>
        <time>2020-10-15T09:59:53.000Z</time>
      </trkpt>
      <trkpt lat="47.27102" lon="-2.35315">
        <ele>3.4000000953674</ele>
        <time>2020-10-15T10:00:00.000Z</time>
      </trkpt>
      <trkpt lat="47.27068" lon="-2.35264">
        <ele>3.4000000953674</ele>
        <time>2020-10-15T10:00:07.000Z</time>
      </trkpt>
      <trkpt lat="47.27028" lon="-2.35202">
        <ele>3.4000000953674</ele>
        <time>2020-10-15T10:00:15.000Z</time>
      </trkpt>
      <trkpt lat="47.27023" lon="-2.35195">
        <ele>3.4000000953674</ele>
        <time>2020-10-15T10:00:16.000Z</time>
      </trkpt>
      <trkpt lat="47.26984" lon="-2.35134">
        <ele>3.4000000953674</ele>
        <time>2020-10-15T10:00:24.000Z</time>
      </trkpt>
      <trkpt lat="47.26979" lon="-2.35127">
        <ele>3.4000000953674</ele>
        <time>2020-10-15T10:00:25.000Z</time>
      </trkpt>
      <trkpt lat="47.26939" lon="-2.35067">
        <ele>3.4000000953674</ele>
        <time>2020-10-15T10:00:33.000Z</time>
      </trkpt>
      <trkpt lat="47.26934" lon="-2.3506">
        <ele>3.4000000953674</ele>
        <time>2020-10-15T10:00:34.000Z</time>
      </trkpt>
      <trkpt lat="47.26894" lon="-2.34999">
        <ele>3.4000000953674</ele>
        <time>2020-10-15T10:00:42.000Z</time>
      </trkpt>
      <trkpt lat="47.26889" lon="-2.34992">
        <ele>3.4000000953674</ele>
        <time>2020-10-15T10:00:43.000Z</time>
      </trkpt>
      <trkpt lat="47.26849" lon="-2.3493">
        <ele>3.4000000953674</ele>
        <time>2020-10-15T10:00:51.000Z</time>
      </trkpt>
      <trkpt lat="47.26844" lon="-2.34922">
        <ele>3.4000000953674</ele>
        <time>2020-10-15T10:00:52.000Z</time>
      </trkpt>
      <trkpt lat="47.26808" lon="-2.3487">
        <ele>3.4000000953674</ele>
        <time>2020-10-15T10:00:59.000Z</time>
      </trkpt>
      <trkpt lat="47.2677" lon="-2.34817">
        <ele>3.4000000953674</ele>
        <time>2020-10-15T10:01:06.000Z</time>
      </trkpt>
      <trkpt lat="47.26764" lon="-2.34811">
        <ele>3.4000000953674</ele>
        <time>2020-10-15T10:01:07.000Z</time>
      </trkpt>
      <trkpt lat="47.26754" lon="-2.34798">
        <ele>3.4000000953674</ele>
        <time>2020-10-15T10:01:09.000Z</time>
      </trkpt>
      <trkpt lat="47.26749" lon="-2.34791">
        <ele>3.4000000953674</ele>
        <time>2020-10-15T10:01:10.000Z</time>
      </trkpt>
      <trkpt lat="47.26718" lon="-2.34752">
        <ele>3.4000000953674</ele>
        <time>2020-10-15T10:01:15.000Z</time>
      </trkpt>
      <trkpt lat="47.26675" lon="-2.34697">
        <ele>3.4000000953674</ele>
        <time>2020-10-15T10:01:22.000Z</time>
      </trkpt>
      <trkpt lat="47.26662" lon="-2.34683">
        <ele>3.4000000953674</ele>
        <time>2020-10-15T10:01:24.000Z</time>
      </trkpt>
      <trkpt lat="47.26619" lon="-2.34629">
        <ele>3.4000000953674</ele>
        <time>2020-10-15T10:01:31.000Z</time>
      </trkpt>
      <trkpt lat="47.26607" lon="-2.34614">
        <ele>3.4000000953674</ele>
        <time>2020-10-15T10:01:33.000Z</time>
      </trkpt>
      <trkpt lat="47.26562" lon="-2.34564">
        <ele>3.4000000953674</ele>
        <time>2020-10-15T10:01:40.000Z</time>
      </trkpt>
      <trkpt lat="47.26556" lon="-2.34557">
        <ele>3.4000000953674</ele>
        <time>2020-10-15T10:01:41.000Z</time>
      </trkpt>
      <trkpt lat="47.2652" lon="-2.34522">
        <ele>3.4000000953674</ele>
        <time>2020-10-15T10:01:47.000Z</time>
      </trkpt>
      <trkpt lat="47.26485" lon="-2.34497">
        <ele>3.4000000953674</ele>
        <time>2020-10-15T10:01:52.000Z</time>
      </trkpt>
      <trkpt lat="47.26433" lon="-2.3446">
        <ele>3.4000000953674</ele>
        <time>2020-10-15T10:01:59.000Z</time>
      </trkpt>
      <trkpt lat="47.26383" lon="-2.3442">
        <ele>3.4000000953674</ele>
        <time>2020-10-15T10:02:06.000Z</time>
      </trkpt>
      <trkpt lat="47.26376" lon="-2.34414">
        <ele>3.4000000953674</ele>
        <time>2020-10-15T10:02:07.000Z</time>
      </trkpt>
      <trkpt lat="47.26334" lon="-2.34378">
        <ele>3.4000000953674</ele>
        <time>2020-10-15T10:02:13.000Z</time>
      </trkpt>
      <trkpt lat="47.26326" lon="-2.34377">
        <ele>3.4000000953674</ele>
        <time>2020-10-15T10:02:14.000Z</time>
      </trkpt>
      <trkpt lat="47.26309" lon="-2.34355">
        <ele>3.4000000953674</ele>
        <time>2020-10-15T10:02:17.000Z</time>
      </trkpt>
      <trkpt lat="47.2629" lon="-2.34335">
        <ele>3.4000000953674</ele>
        <time>2020-10-15T10:02:20.000Z</time>
      </trkpt>
      <trkpt lat="47.26283" lon="-2.34329">
        <ele>3.4000000953674</ele>
        <time>2020-10-15T10:02:21.000Z</time>
      </trkpt>
      <trkpt lat="47.26237" lon="-2.34278">
        <ele>3.4000000953674</ele>
        <time>2020-10-15T10:02:28.000Z</time>
      </trkpt>
      <trkpt lat="47.26191" lon="-2.3423">
        <ele>3.4000000953674</ele>
        <time>2020-10-15T10:02:35.000Z</time>
      </trkpt>
      <trkpt lat="47.26184" lon="-2.34223">
        <ele>3.4000000953674</ele>
        <time>2020-10-15T10:02:36.000Z</time>
      </trkpt>
      <trkpt lat="47.26145" lon="-2.34186">
        <ele>3.4000000953674</ele>
        <time>2020-10-15T10:02:42.000Z</time>
      </trkpt>
      <trkpt lat="47.26138" lon="-2.34183">
        <ele>3.4000000953674</ele>
        <time>2020-10-15T10:02:43.000Z</time>
      </trkpt>
      <trkpt lat="47.26124" lon="-2.34173">
        <ele>3.4000000953674</ele>
        <time>2020-10-15T10:02:45.000Z</time>
      </trkpt>
      <trkpt lat="47.2611" lon="-2.3416">
        <ele>3.4000000953674</ele>
        <time>2020-10-15T10:02:47.000Z</time>
      </trkpt>
      <trkpt lat="47.26095" lon="-2.34152">
        <ele>3.4000000953674</ele>
        <time>2020-10-15T10:02:49.000Z</time>
      </trkpt>
      <trkpt lat="47.26079" lon="-2.34144">
        <ele>3.4000000953674</ele>
        <time>2020-10-15T10:02:51.000Z</time>
      </trkpt>
      <trkpt lat="47.26023" lon="-2.34116">
        <ele>3.4000000953674</ele>
        <time>2020-10-15T10:02:58.000Z</time>
      </trkpt>
      <trkpt lat="47.26016" lon="-2.34112">
        <ele>3.4000000953674</ele>
        <time>2020-10-15T10:02:59.000Z</time>
      </trkpt>
      <trkpt lat="47.25963" lon="-2.34087">
        <ele>3.4000000953674</ele>
        <time>2020-10-15T10:03:06.000Z</time>
      </trkpt>
      <trkpt lat="47.25949" lon="-2.34081">
        <ele>3.4000000953674</ele>
        <time>2020-10-15T10:03:08.000Z</time>
      </trkpt>
      <trkpt lat="47.25943" lon="-2.34078">
        <ele>3</ele>
        <time>2020-10-15T10:03:09.000Z</time>
      </trkpt>
      <trkpt lat="47.25936" lon="-2.34074">
        <ele>2.5999999046326</ele>
        <time>2020-10-15T10:03:10.000Z</time>
      </trkpt>
      <trkpt lat="47.25929" lon="-2.34072">
        <ele>2.2000000476837</ele>
        <time>2020-10-15T10:03:11.000Z</time>
      </trkpt>
      <trkpt lat="47.25922" lon="-2.34071">
        <ele>1.7999999523163</ele>
        <time>2020-10-15T10:03:12.000Z</time>
      </trkpt>
      <trkpt lat="47.25915" lon="-2.34071">
        <ele>1.3999999761581</ele>
        <time>2020-10-15T10:03:13.000Z</time>
      </trkpt>
      <trkpt lat="47.25908" lon="-2.3407">
        <ele>1.3999999761581</ele>
        <time>2020-10-15T10:03:14.000Z</time>
      </trkpt>
      <trkpt lat="47.25895" lon="-2.3405">
        <ele>1.3999999761581</ele>
        <time>2020-10-15T10:03:17.000Z</time>
      </trkpt>
      <trkpt lat="47.25896" lon="-2.34032">
        <ele>1.3999999761581</ele>
        <time>2020-10-15T10:03:19.000Z</time>
      </trkpt>
      <trkpt lat="47.25905" lon="-2.34008">
        <ele>1.3999999761581</ele>
        <time>2020-10-15T10:03:22.000Z</time>
      </trkpt>
      <trkpt lat="47.2591" lon="-2.33992">
        <ele>1.3999999761581</ele>
        <time>2020-10-15T10:03:24.000Z</time>
      </trkpt>
      <trkpt lat="47.25913" lon="-2.33983">
        <ele>1.3999999761581</ele>
        <time>2020-10-15T10:03:25.000Z</time>
      </trkpt>
      <trkpt lat="47.25919" lon="-2.33969">
        <ele>1.3999999761581</ele>
        <time>2020-10-15T10:03:27.000Z</time>
      </trkpt>
      <trkpt lat="47.25927" lon="-2.33949">
        <ele>1.3999999761581</ele>
        <time>2020-10-15T10:03:30.000Z</time>
      </trkpt>
      <trkpt lat="47.25938" lon="-2.33932">
        <ele>1.3999999761581</ele>
        <time>2020-10-15T10:03:33.000Z</time>
      </trkpt>
      <trkpt lat="47.25948" lon="-2.33917">
        <ele>1.3999999761581</ele>
        <time>2020-10-15T10:03:36.000Z</time>
      </trkpt>
      <trkpt lat="47.25951" lon="-2.33904">
        <ele>1.3999999761581</ele>
        <time>2020-10-15T10:03:38.000Z</time>
      </trkpt>
      <trkpt lat="47.25955" lon="-2.33891">
        <ele>1.3999999761581</ele>
        <time>2020-10-15T10:03:40.000Z</time>
      </trkpt>
      <trkpt lat="47.25962" lon="-2.33864">
        <ele>1.3999999761581</ele>
        <time>2020-10-15T10:03:44.000Z</time>
      </trkpt>
      <trkpt lat="47.25977" lon="-2.33817">
        <ele>1.3999999761581</ele>
        <time>2020-10-15T10:03:51.000Z</time>
      </trkpt>
      <trkpt lat="47.25994" lon="-2.33768">
        <ele>1.3999999761581</ele>
        <time>2020-10-15T10:03:58.000Z</time>
      </trkpt>
      <trkpt lat="47.25997" lon="-2.33761">
        <ele>1.3999999761581</ele>
        <time>2020-10-15T10:03:59.000Z</time>
      </trkpt>
      <trkpt lat="47.26014" lon="-2.33704">
        <ele>1.3999999761581</ele>
        <time>2020-10-15T10:04:07.000Z</time>
      </trkpt>
      <trkpt lat="47.26019" lon="-2.33691">
        <ele>1</ele>
        <time>2020-10-15T10:04:09.000Z</time>
      </trkpt>
      <trkpt lat="47.2602" lon="-2.33685">
        <ele>0.60000002384186</ele>
        <time>2020-10-15T10:04:10.000Z</time>
      </trkpt>
      <trkpt lat="47.26022" lon="-2.33678">
        <ele>0.20000000298023</ele>
        <time>2020-10-15T10:04:11.000Z</time>
      </trkpt>
      <trkpt lat="47.26023" lon="-2.3367">
        <ele>-0.20000000298023</ele>
        <time>2020-10-15T10:04:12.000Z</time>
      </trkpt>
      <trkpt lat="47.26024" lon="-2.33662">
        <ele>-0.60000002384186</ele>
        <time>2020-10-15T10:04:13.000Z</time>
      </trkpt>
      <trkpt lat="47.26026" lon="-2.33654">
        <ele>-0.60000002384186</ele>
        <time>2020-10-15T10:04:14.000Z</time>
      </trkpt>
      <trkpt lat="47.26027" lon="-2.33627">
        <ele>-0.60000002384186</ele>
        <time>2020-10-15T10:04:17.000Z</time>
      </trkpt>
      <trkpt lat="47.26026" lon="-2.33618">
        <ele>-0.60000002384186</ele>
        <time>2020-10-15T10:04:18.000Z</time>
      </trkpt>
      <trkpt lat="47.26023" lon="-2.33601">
        <ele>-0.60000002384186</ele>
        <time>2020-10-15T10:04:20.000Z</time>
      </trkpt>
      <trkpt lat="47.26015" lon="-2.33579">
        <ele>-0.60000002384186</ele>
        <time>2020-10-15T10:04:23.000Z</time>
      </trkpt>
      <trkpt lat="47.26007" lon="-2.33566">
        <ele>-0.60000002384186</ele>
        <time>2020-10-15T10:04:25.000Z</time>
      </trkpt>
      <trkpt lat="47.25995" lon="-2.33548">
        <ele>-0.60000002384186</ele>
        <time>2020-10-15T10:04:28.000Z</time>
      </trkpt>
      <trkpt lat="47.25981" lon="-2.33524">
        <ele>-0.60000002384186</ele>
        <time>2020-10-15T10:04:32.000Z</time>
      </trkpt>
      <trkpt lat="47.2597" lon="-2.33507">
        <ele>-0.60000002384186</ele>
        <time>2020-10-15T10:04:35.000Z</time>
      </trkpt>
      <trkpt lat="47.25962" lon="-2.33495">
        <ele>-0.60000002384186</ele>
        <time>2020-10-15T10:04:37.000Z</time>
      </trkpt>
      <trkpt lat="47.25954" lon="-2.33472">
        <ele>-0.60000002384186</ele>
        <time>2020-10-15T10:04:40.000Z</time>
      </trkpt>
      <trkpt lat="47.25951" lon="-2.33465">
        <ele>-0.60000002384186</ele>
        <time>2020-10-15T10:04:41.000Z</time>
      </trkpt>
      <trkpt lat="47.25937" lon="-2.33436">
        <ele>-0.60000002384186</ele>
        <time>2020-10-15T10:04:45.000Z</time>
      </trkpt>
      <trkpt lat="47.25921" lon="-2.33389">
        <ele>-0.20000000298023</ele>
        <time>2020-10-15T10:04:51.000Z</time>
      </trkpt>
      <trkpt lat="47.25919" lon="-2.33381">
        <ele>0.20000000298023</ele>
        <time>2020-10-15T10:04:52.000Z</time>
      </trkpt>
      <trkpt lat="47.25916" lon="-2.33373">
        <ele>0.80000001192093</ele>
        <time>2020-10-15T10:04:53.000Z</time>
      </trkpt>
      <trkpt lat="47.25915" lon="-2.33366">
        <ele>1.2000000476837</ele>
        <time>2020-10-15T10:04:54.000Z</time>
      </trkpt>
      <trkpt lat="47.25913" lon="-2.33357">
        <ele>1.6000000238419</ele>
        <time>2020-10-15T10:04:55.000Z</time>
      </trkpt>
      <trkpt lat="47.25909" lon="-2.33339">
        <ele>1.2000000476837</ele>
        <time>2020-10-15T10:04:57.000Z</time>
      </trkpt>
      <trkpt lat="47.25908" lon="-2.3333">
        <ele>0.60000002384186</ele>
        <time>2020-10-15T10:04:58.000Z</time>
      </trkpt>
      <trkpt lat="47.25906" lon="-2.33321">
        <ele>0.20000000298023</ele>
        <time>2020-10-15T10:04:59.000Z</time>
      </trkpt>
      <trkpt lat="47.25905" lon="-2.33311">
        <ele>-0.20000000298023</ele>
        <time>2020-10-15T10:05:00.000Z</time>
      </trkpt>
      <trkpt lat="47.25904" lon="-2.33302">
        <ele>-0.60000002384186</ele>
        <time>2020-10-15T10:05:01.000Z</time>
      </trkpt>
      <trkpt lat="47.25903" lon="-2.33272">
        <ele>-0.60000002384186</ele>
        <time>2020-10-15T10:05:04.000Z</time>
      </trkpt>
      <trkpt lat="47.25902" lon="-2.33217">
        <ele>-0.60000002384186</ele>
        <time>2020-10-15T10:05:09.000Z</time>
      </trkpt>
      <trkpt lat="47.25895" lon="-2.33143">
        <ele>-0.60000002384186</ele>
        <time>2020-10-15T10:05:16.000Z</time>
      </trkpt>
      <trkpt lat="47.25883" lon="-2.33096">
        <ele>-0.60000002384186</ele>
        <time>2020-10-15T10:05:21.000Z</time>
      </trkpt>
      <trkpt lat="47.25873" lon="-2.33063">
        <ele>-0.20000000298023</ele>
        <time>2020-10-15T10:05:25.000Z</time>
      </trkpt>
      <trkpt lat="47.25871" lon="-2.33054">
        <ele>0.20000000298023</ele>
        <time>2020-10-15T10:05:26.000Z</time>
      </trkpt>
      <trkpt lat="47.25868" lon="-2.33045">
        <ele>0.60000002384186</ele>
        <time>2020-10-15T10:05:27.000Z</time>
      </trkpt>
      <trkpt lat="47.25866" lon="-2.33037">
        <ele>1</ele>
        <time>2020-10-15T10:05:28.000Z</time>
      </trkpt>
      <trkpt lat="47.25864" lon="-2.33028">
        <ele>1.3999999761581</ele>
        <time>2020-10-15T10:05:29.000Z</time>
      </trkpt>
      <trkpt lat="47.25851" lon="-2.32997">
        <ele>1.3999999761581</ele>
        <time>2020-10-15T10:05:33.000Z</time>
      </trkpt>
      <trkpt lat="47.25842" lon="-2.32983">
        <ele>1.7999999523163</ele>
        <time>2020-10-15T10:05:35.000Z</time>
      </trkpt>
      <trkpt lat="47.25837" lon="-2.32976">
        <ele>2.4000000953674</ele>
        <time>2020-10-15T10:05:36.000Z</time>
      </trkpt>
      <trkpt lat="47.25832" lon="-2.3297">
        <ele>2.7999999523163</ele>
        <time>2020-10-15T10:05:37.000Z</time>
      </trkpt>
      <trkpt lat="47.25827" lon="-2.32964">
        <ele>3.2000000476837</ele>
        <time>2020-10-15T10:05:38.000Z</time>
      </trkpt>
      <trkpt lat="47.25822" lon="-2.32957">
        <ele>3.5999999046326</ele>
        <time>2020-10-15T10:05:39.000Z</time>
      </trkpt>
      <trkpt lat="47.25796" lon="-2.32924">
        <ele>3.5999999046326</ele>
        <time>2020-10-15T10:05:44.000Z</time>
      </trkpt>
      <trkpt lat="47.25767" lon="-2.32885">
        <ele>3.5999999046326</ele>
        <time>2020-10-15T10:05:50.000Z</time>
      </trkpt>
      <trkpt lat="47.25755" lon="-2.32861">
        <ele>4.4000000953674</ele>
        <time>2020-10-15T10:05:53.000Z</time>
      </trkpt>
      <trkpt lat="47.25752" lon="-2.32852">
        <ele>4.8000001907349</ele>
        <time>2020-10-15T10:05:54.000Z</time>
      </trkpt>
      <trkpt lat="47.25749" lon="-2.32845">
        <ele>5.1999998092651</ele>
        <time>2020-10-15T10:05:55.000Z</time>
      </trkpt>
      <trkpt lat="47.25745" lon="-2.32837">
        <ele>5.5999999046326</ele>
        <time>2020-10-15T10:05:56.000Z</time>
      </trkpt>
      <trkpt lat="47.25736" lon="-2.3281">
        <ele>6.1999998092651</ele>
        <time>2020-10-15T10:05:59.000Z</time>
      </trkpt>
      <trkpt lat="47.25734" lon="-2.32801">
        <ele>6.5999999046326</ele>
        <time>2020-10-15T10:06:00.000Z</time>
      </trkpt>
      <trkpt lat="47.25732" lon="-2.32791">
        <ele>7</ele>
        <time>2020-10-15T10:06:01.000Z</time>
      </trkpt>
      <trkpt lat="47.2573" lon="-2.32781">
        <ele>7.4000000953674</ele>
        <time>2020-10-15T10:06:02.000Z</time>
      </trkpt>
      <trkpt lat="47.25729" lon="-2.32771">
        <ele>7.8000001907349</ele>
        <time>2020-10-15T10:06:03.000Z</time>
      </trkpt>
      <trkpt lat="47.25723" lon="-2.3273">
        <ele>7.8000001907349</ele>
        <time>2020-10-15T10:06:07.000Z</time>
      </trkpt>
      <trkpt lat="47.25718" lon="-2.32653">
        <ele>7.8000001907349</ele>
        <time>2020-10-15T10:06:14.000Z</time>
      </trkpt>
      <trkpt lat="47.25716" lon="-2.32642">
        <ele>7.8000001907349</ele>
        <time>2020-10-15T10:06:15.000Z</time>
      </trkpt>
      <trkpt lat="47.25714" lon="-2.32632">
        <ele>7.4000000953674</ele>
        <time>2020-10-15T10:06:16.000Z</time>
      </trkpt>
      <trkpt lat="47.25712" lon="-2.32621">
        <ele>6.8000001907349</ele>
        <time>2020-10-15T10:06:17.000Z</time>
      </trkpt>
      <trkpt lat="47.2571" lon="-2.3261">
        <ele>6</ele>
        <time>2020-10-15T10:06:18.000Z</time>
      </trkpt>
      <trkpt lat="47.25707" lon="-2.326">
        <ele>5.5999999046326</ele>
        <time>2020-10-15T10:06:19.000Z</time>
      </trkpt>
      <trkpt lat="47.25685" lon="-2.3253">
        <ele>5.5999999046326</ele>
        <time>2020-10-15T10:06:26.000Z</time>
      </trkpt>
      <trkpt lat="47.25668" lon="-2.32472">
        <ele>5</ele>
        <time>2020-10-15T10:06:31.000Z</time>
      </trkpt>
      <trkpt lat="47.25665" lon="-2.32461">
        <ele>4.5999999046326</ele>
        <time>2020-10-15T10:06:32.000Z</time>
      </trkpt>
      <trkpt lat="47.25662" lon="-2.32449">
        <ele>4.1999998092651</ele>
        <time>2020-10-15T10:06:33.000Z</time>
      </trkpt>
      <trkpt lat="47.25659" lon="-2.32437">
        <ele>3.7999999523163</ele>
        <time>2020-10-15T10:06:34.000Z</time>
      </trkpt>
      <trkpt lat="47.25656" lon="-2.32425">
        <ele>3.4000000953674</ele>
        <time>2020-10-15T10:06:35.000Z</time>
      </trkpt>
      <trkpt lat="47.25652" lon="-2.32402">
        <ele>3.4000000953674</ele>
        <time>2020-10-15T10:06:37.000Z</time>
      </trkpt>
      <trkpt lat="47.25652" lon="-2.32389">
        <ele>3.4000000953674</ele>
        <time>2020-10-15T10:06:38.000Z</time>
      </trkpt>
      <trkpt lat="47.25651" lon="-2.32339">
        <ele>3.4000000953674</ele>
        <time>2020-10-15T10:06:42.000Z</time>
      </trkpt>
      <trkpt lat="47.2565" lon="-2.32327">
        <ele>3.4000000953674</ele>
        <time>2020-10-15T10:06:43.000Z</time>
      </trkpt>
      <trkpt lat="47.25647" lon="-2.32284">
        <ele>3.4000000953674</ele>
        <time>2020-10-15T10:06:47.000Z</time>
      </trkpt>
      <trkpt lat="47.25646" lon="-2.32273">
        <ele>3.7999999523163</ele>
        <time>2020-10-15T10:06:48.000Z</time>
      </trkpt>
      <trkpt lat="47.25646" lon="-2.32264">
        <ele>4.1999998092651</ele>
        <time>2020-10-15T10:06:49.000Z</time>
      </trkpt>
      <trkpt lat="47.25646" lon="-2.32253">
        <ele>4.8000001907349</ele>
        <time>2020-10-15T10:06:50.000Z</time>
      </trkpt>
      <trkpt lat="47.25646" lon="-2.32245">
        <ele>5.1999998092651</ele>
        <time>2020-10-15T10:06:51.000Z</time>
      </trkpt>
      <trkpt lat="47.25645" lon="-2.32235">
        <ele>5.5999999046326</ele>
        <time>2020-10-15T10:06:52.000Z</time>
      </trkpt>
      <trkpt lat="47.25644" lon="-2.32226">
        <ele>6.1999998092651</ele>
        <time>2020-10-15T10:06:53.000Z</time>
      </trkpt>
      <trkpt lat="47.25645" lon="-2.32217">
        <ele>6.5999999046326</ele>
        <time>2020-10-15T10:06:54.000Z</time>
      </trkpt>
      <trkpt lat="47.25643" lon="-2.32209">
        <ele>7</ele>
        <time>2020-10-15T10:06:55.000Z</time>
      </trkpt>
      <trkpt lat="47.25642" lon="-2.322">
        <ele>7.4000000953674</ele>
        <time>2020-10-15T10:06:56.000Z</time>
      </trkpt>
      <trkpt lat="47.2564" lon="-2.32192">
        <ele>8</ele>
        <time>2020-10-15T10:06:57.000Z</time>
      </trkpt>
      <trkpt lat="47.25638" lon="-2.32183">
        <ele>8.6000003814697</ele>
        <time>2020-10-15T10:06:58.000Z</time>
      </trkpt>
      <trkpt lat="47.25636" lon="-2.32174">
        <ele>9.1999998092651</ele>
        <time>2020-10-15T10:06:59.000Z</time>
      </trkpt>
      <trkpt lat="47.25633" lon="-2.32166">
        <ele>9.8000001907349</ele>
        <time>2020-10-15T10:07:00.000Z</time>
      </trkpt>
      <trkpt lat="47.25631" lon="-2.32157">
        <ele>10.60000038147</ele>
        <time>2020-10-15T10:07:01.000Z</time>
      </trkpt>
      <trkpt lat="47.25627" lon="-2.32142">
        <ele>10.60000038147</ele>
        <time>2020-10-15T10:07:03.000Z</time>
      </trkpt>
      <trkpt lat="47.25624" lon="-2.32133">
        <ele>10.60000038147</ele>
        <time>2020-10-15T10:07:04.000Z</time>
      </trkpt>
      <trkpt lat="47.25606" lon="-2.32085">
        <ele>10.60000038147</ele>
        <time>2020-10-15T10:07:11.000Z</time>
      </trkpt>
      <trkpt lat="47.2559" lon="-2.32044">
        <ele>10.60000038147</ele>
        <time>2020-10-15T10:07:17.000Z</time>
      </trkpt>
      <trkpt lat="47.25572" lon="-2.31988">
        <ele>10.60000038147</ele>
        <time>2020-10-15T10:07:25.000Z</time>
      </trkpt>
      <trkpt lat="47.25569" lon="-2.31982">
        <ele>11</ele>
        <time>2020-10-15T10:07:26.000Z</time>
      </trkpt>
      <trkpt lat="47.25567" lon="-2.31976">
        <ele>11.39999961853</ele>
        <time>2020-10-15T10:07:27.000Z</time>
      </trkpt>
      <trkpt lat="47.25565" lon="-2.3197">
        <ele>11.800000190735</ele>
        <time>2020-10-15T10:07:28.000Z</time>
      </trkpt>
      <trkpt lat="47.25563" lon="-2.31964">
        <ele>12.199999809265</ele>
        <time>2020-10-15T10:07:29.000Z</time>
      </trkpt>
      <trkpt lat="47.25563" lon="-2.31958">
        <ele>12.60000038147</ele>
        <time>2020-10-15T10:07:30.000Z</time>
      </trkpt>
      <trkpt lat="47.25561" lon="-2.31946">
        <ele>12.60000038147</ele>
        <time>2020-10-15T10:07:32.000Z</time>
      </trkpt>
      <trkpt lat="47.25561" lon="-2.3194">
        <ele>12.60000038147</ele>
        <time>2020-10-15T10:07:33.000Z</time>
      </trkpt>
      <trkpt lat="47.2556" lon="-2.31934">
        <ele>12.60000038147</ele>
        <time>2020-10-15T10:07:34.000Z</time>
      </trkpt>
      <trkpt lat="47.25558" lon="-2.31914">
        <ele>12.60000038147</ele>
        <time>2020-10-15T10:07:39.000Z</time>
      </trkpt>
      <trkpt lat="47.25549" lon="-2.31917">
        <ele>12.60000038147</ele>
        <time>2020-10-15T10:07:42.000Z</time>
      </trkpt>
      <trkpt lat="47.25533" lon="-2.31914">
        <ele>12.60000038147</ele>
        <time>2020-10-15T10:07:47.000Z</time>
      </trkpt>
      <trkpt lat="47.25528" lon="-2.31899">
        <ele>12.60000038147</ele>
        <time>2020-10-15T10:07:50.000Z</time>
      </trkpt>
      <trkpt lat="47.25527" lon="-2.31893">
        <ele>12.60000038147</ele>
        <time>2020-10-15T10:07:51.000Z</time>
      </trkpt>
      <trkpt lat="47.25524" lon="-2.31864">
        <ele>13</ele>
        <time>2020-10-15T10:07:57.000Z</time>
      </trkpt>
      <trkpt lat="47.25524" lon="-2.3186">
        <ele>13.39999961853</ele>
        <time>2020-10-15T10:07:58.000Z</time>
      </trkpt>
      <trkpt lat="47.25523" lon="-2.31856">
        <ele>13.800000190735</ele>
        <time>2020-10-15T10:07:59.000Z</time>
      </trkpt>
      <trkpt lat="47.25522" lon="-2.31853">
        <ele>14.199999809265</ele>
        <time>2020-10-15T10:08:00.000Z</time>
      </trkpt>
      <trkpt lat="47.25521" lon="-2.31851">
        <ele>14.60000038147</ele>
        <time>2020-10-15T10:08:01.000Z</time>
      </trkpt>
      <trkpt lat="47.2552" lon="-2.31847">
        <ele>14.60000038147</ele>
        <time>2020-10-15T10:08:03.000Z</time>
      </trkpt>
      <trkpt lat="47.25517" lon="-2.3184">
        <ele>14.60000038147</ele>
        <time>2020-10-15T10:08:07.000Z</time>
      </trkpt>
      <trkpt lat="47.25518" lon="-2.31837">
        <ele>14.60000038147</ele>
        <time>2020-10-15T10:08:10.000Z</time>
      </trkpt>
      <trkpt lat="47.25518" lon="-2.31833">
        <ele>14.60000038147</ele>
        <time>2020-10-15T10:15:15.000Z</time>
      </trkpt>
      <trkpt lat="47.25516" lon="-2.3183">
        <ele>14.60000038147</ele>
        <time>2020-10-15T10:15:17.000Z</time>
      </trkpt>
      <trkpt lat="47.25508" lon="-2.31823">
        <ele>14.60000038147</ele>
        <time>2020-10-15T10:15:23.000Z</time>
      </trkpt>
      <trkpt lat="47.2551" lon="-2.31814">
        <ele>14.60000038147</ele>
        <time>2020-10-15T10:15:27.000Z</time>
      </trkpt>
      <trkpt lat="47.25517" lon="-2.3181">
        <ele>14.60000038147</ele>
        <time>2020-10-15T10:15:30.000Z</time>
      </trkpt>
      <trkpt lat="47.25525" lon="-2.31808">
        <ele>14.60000038147</ele>
        <time>2020-10-15T10:15:33.000Z</time>
      </trkpt>
      <trkpt lat="47.25548" lon="-2.31801">
        <ele>14.60000038147</ele>
        <time>2020-10-15T10:15:39.000Z</time>
      </trkpt>
      <trkpt lat="47.2556" lon="-2.31796">
        <ele>14.60000038147</ele>
        <time>2020-10-15T10:15:42.000Z</time>
      </trkpt>
      <trkpt lat="47.25562" lon="-2.31791">
        <ele>14.60000038147</ele>
        <time>2020-10-15T10:15:43.000Z</time>
      </trkpt>
      <trkpt lat="47.25572" lon="-2.31772">
        <ele>14.60000038147</ele>
        <time>2020-10-15T10:15:47.000Z</time>
      </trkpt>
      <trkpt lat="47.25575" lon="-2.31766">
        <ele>14.60000038147</ele>
        <time>2020-10-15T10:15:48.000Z</time>
      </trkpt>
      <trkpt lat="47.25578" lon="-2.31761">
        <ele>14.60000038147</ele>
        <time>2020-10-15T10:15:49.000Z</time>
      </trkpt>
      <trkpt lat="47.25586" lon="-2.31749">
        <ele>14.60000038147</ele>
        <time>2020-10-15T10:15:52.000Z</time>
      </trkpt>
      <trkpt lat="47.25588" lon="-2.31744">
        <ele>14.199999809265</ele>
        <time>2020-10-15T10:15:53.000Z</time>
      </trkpt>
      <trkpt lat="47.25589" lon="-2.31739">
        <ele>13.800000190735</ele>
        <time>2020-10-15T10:15:54.000Z</time>
      </trkpt>
      <trkpt lat="47.25591" lon="-2.31733">
        <ele>13.39999961853</ele>
        <time>2020-10-15T10:15:55.000Z</time>
      </trkpt>
      <trkpt lat="47.25593" lon="-2.31727">
        <ele>13</ele>
        <time>2020-10-15T10:15:56.000Z</time>
      </trkpt>
      <trkpt lat="47.25595" lon="-2.31721">
        <ele>12.60000038147</ele>
        <time>2020-10-15T10:15:57.000Z</time>
      </trkpt>
      <trkpt lat="47.2561" lon="-2.31709">
        <ele>12.60000038147</ele>
        <time>2020-10-15T10:16:00.000Z</time>
      </trkpt>
      <trkpt lat="47.25632" lon="-2.31705">
        <ele>12.60000038147</ele>
        <time>2020-10-15T10:16:04.000Z</time>
      </trkpt>
      <trkpt lat="47.25649" lon="-2.3169">
        <ele>12.60000038147</ele>
        <time>2020-10-15T10:16:08.000Z</time>
      </trkpt>
      <trkpt lat="47.25653" lon="-2.31681">
        <ele>12.199999809265</ele>
        <time>2020-10-15T10:16:10.000Z</time>
      </trkpt>
      <trkpt lat="47.25654" lon="-2.31676">
        <ele>11.199999809265</ele>
        <time>2020-10-15T10:16:11.000Z</time>
      </trkpt>
      <trkpt lat="47.25656" lon="-2.31671">
        <ele>10.800000190735</ele>
        <time>2020-10-15T10:16:12.000Z</time>
      </trkpt>
      <trkpt lat="47.25658" lon="-2.31666">
        <ele>10.39999961853</ele>
        <time>2020-10-15T10:16:13.000Z</time>
      </trkpt>
      <trkpt lat="47.25667" lon="-2.31665">
        <ele>10.39999961853</ele>
        <time>2020-10-15T10:16:15.000Z</time>
      </trkpt>
      <trkpt lat="47.25676" lon="-2.31671">
        <ele>10.39999961853</ele>
        <time>2020-10-15T10:16:17.000Z</time>
      </trkpt>
      <trkpt lat="47.25681" lon="-2.31674">
        <ele>10.39999961853</ele>
        <time>2020-10-15T10:16:18.000Z</time>
      </trkpt>
      <trkpt lat="47.25687" lon="-2.31677">
        <ele>10.39999961853</ele>
        <time>2020-10-15T10:16:19.000Z</time>
      </trkpt>
      <trkpt lat="47.25703" lon="-2.31686">
        <ele>10.39999961853</ele>
        <time>2020-10-15T10:16:22.000Z</time>
      </trkpt>
      <trkpt lat="47.25719" lon="-2.31699">
        <ele>10.39999961853</ele>
        <time>2020-10-15T10:16:25.000Z</time>
      </trkpt>
      <trkpt lat="47.25724" lon="-2.31701">
        <ele>10</ele>
        <time>2020-10-15T10:16:26.000Z</time>
      </trkpt>
      <trkpt lat="47.25729" lon="-2.31699">
        <ele>9.6000003814697</ele>
        <time>2020-10-15T10:16:27.000Z</time>
      </trkpt>
      <trkpt lat="47.25734" lon="-2.31696">
        <ele>9.1999998092651</ele>
        <time>2020-10-15T10:16:28.000Z</time>
      </trkpt>
      <trkpt lat="47.25739" lon="-2.31693">
        <ele>8.8000001907349</ele>
        <time>2020-10-15T10:16:29.000Z</time>
      </trkpt>
      <trkpt lat="47.25743" lon="-2.31689">
        <ele>8.3999996185303</ele>
        <time>2020-10-15T10:16:30.000Z</time>
      </trkpt>
      <trkpt lat="47.25765" lon="-2.31671">
        <ele>8.3999996185303</ele>
        <time>2020-10-15T10:16:35.000Z</time>
      </trkpt>
      <trkpt lat="47.25792" lon="-2.31649">
        <ele>8.3999996185303</ele>
        <time>2020-10-15T10:16:42.000Z</time>
      </trkpt>
      <trkpt lat="47.25816" lon="-2.3163">
        <ele>8.3999996185303</ele>
        <time>2020-10-15T10:16:49.000Z</time>
      </trkpt>
      <trkpt lat="47.25839" lon="-2.31608">
        <ele>8.3999996185303</ele>
        <time>2020-10-15T10:16:56.000Z</time>
      </trkpt>
      <trkpt lat="47.25851" lon="-2.31596">
        <ele>8.3999996185303</ele>
        <time>2020-10-15T10:16:59.000Z</time>
      </trkpt>
      <trkpt lat="47.2586" lon="-2.31588">
        <ele>8.3999996185303</ele>
        <time>2020-10-15T10:17:01.000Z</time>
      </trkpt>
      <trkpt lat="47.25879" lon="-2.31566">
        <ele>8.3999996185303</ele>
        <time>2020-10-15T10:17:05.000Z</time>
      </trkpt>
      <trkpt lat="47.25883" lon="-2.31558">
        <ele>8.3999996185303</ele>
        <time>2020-10-15T10:17:06.000Z</time>
      </trkpt>
      <trkpt lat="47.25889" lon="-2.31543">
        <ele>8.3999996185303</ele>
        <time>2020-10-15T10:17:08.000Z</time>
      </trkpt>
      <trkpt lat="47.25895" lon="-2.3153">
        <ele>8.3999996185303</ele>
        <time>2020-10-15T10:17:10.000Z</time>
      </trkpt>
      <trkpt lat="47.25904" lon="-2.31518">
        <ele>8</ele>
        <time>2020-10-15T10:17:13.000Z</time>
      </trkpt>
      <trkpt lat="47.25907" lon="-2.31515">
        <ele>7.5999999046326</ele>
        <time>2020-10-15T10:17:14.000Z</time>
      </trkpt>
      <trkpt lat="47.25909" lon="-2.31513">
        <ele>7</ele>
        <time>2020-10-15T10:17:15.000Z</time>
      </trkpt>
      <trkpt lat="47.2591" lon="-2.31511">
        <ele>6.5999999046326</ele>
        <time>2020-10-15T10:17:16.000Z</time>
      </trkpt>
      <trkpt lat="47.2591" lon="-2.31508">
        <ele>6.1999998092651</ele>
        <time>2020-10-15T10:17:17.000Z</time>
      </trkpt>
      <trkpt lat="47.25909" lon="-2.31507">
        <ele>6.1999998092651</ele>
        <time>2020-10-15T10:17:18.000Z</time>
      </trkpt>
      <trkpt lat="47.25909" lon="-2.31505">
        <ele>6.1999998092651</ele>
        <time>2020-10-15T10:17:20.000Z</time>
      </trkpt>
      <trkpt lat="47.25911" lon="-2.315">
        <ele>6.1999998092651</ele>
        <time>2020-10-15T10:17:22.000Z</time>
      </trkpt>
      <trkpt lat="47.25919" lon="-2.31477">
        <ele>6.1999998092651</ele>
        <time>2020-10-15T10:17:27.000Z</time>
      </trkpt>
      <trkpt lat="47.25926" lon="-2.31462">
        <ele>6.1999998092651</ele>
        <time>2020-10-15T10:17:30.000Z</time>
      </trkpt>
      <trkpt lat="47.25929" lon="-2.3146">
        <ele>6.1999998092651</ele>
        <time>2020-10-15T10:17:31.000Z</time>
      </trkpt>
      <trkpt lat="47.2594" lon="-2.31465">
        <ele>6.1999998092651</ele>
        <time>2020-10-15T10:17:34.000Z</time>
      </trkpt>
      <trkpt lat="47.25944" lon="-2.31468">
        <ele>6.1999998092651</ele>
        <time>2020-10-15T10:17:35.000Z</time>
      </trkpt>
      <trkpt lat="47.25948" lon="-2.31472">
        <ele>6.1999998092651</ele>
        <time>2020-10-15T10:17:36.000Z</time>
      </trkpt>
      <trkpt lat="47.25961" lon="-2.31489">
        <ele>6.1999998092651</ele>
        <time>2020-10-15T10:17:40.000Z</time>
      </trkpt>
      <trkpt lat="47.25968" lon="-2.31497">
        <ele>5.8000001907349</ele>
        <time>2020-10-15T10:17:42.000Z</time>
      </trkpt>
      <trkpt lat="47.2597" lon="-2.31503">
        <ele>5.1999998092651</ele>
        <time>2020-10-15T10:17:43.000Z</time>
      </trkpt>
      <trkpt lat="47.25973" lon="-2.31508">
        <ele>4.8000001907349</ele>
        <time>2020-10-15T10:17:44.000Z</time>
      </trkpt>
      <trkpt lat="47.25975" lon="-2.31513">
        <ele>4.4000000953674</ele>
        <time>2020-10-15T10:17:45.000Z</time>
      </trkpt>
      <trkpt lat="47.25977" lon="-2.31517">
        <ele>4</ele>
        <time>2020-10-15T10:17:46.000Z</time>
      </trkpt>
      <trkpt lat="47.25996" lon="-2.31549">
        <ele>4</ele>
        <time>2020-10-15T10:17:53.000Z</time>
      </trkpt>
      <trkpt lat="47.2601" lon="-2.31563">
        <ele>4</ele>
        <time>2020-10-15T10:17:58.000Z</time>
      </trkpt>
      <trkpt lat="47.26013" lon="-2.3156">
        <ele>4</ele>
        <time>2020-10-15T10:17:59.000Z</time>
      </trkpt>
      <trkpt lat="47.26027" lon="-2.31541">
        <ele>4</ele>
        <time>2020-10-15T10:18:04.000Z</time>
      </trkpt>
      <trkpt lat="47.26042" lon="-2.31538">
        <ele>4</ele>
        <time>2020-10-15T10:18:09.000Z</time>
      </trkpt>
      <trkpt lat="47.26058" lon="-2.31546">
        <ele>4</ele>
        <time>2020-10-15T10:18:14.000Z</time>
      </trkpt>
      <trkpt lat="47.2606" lon="-2.31549">
        <ele>3.5999999046326</ele>
        <time>2020-10-15T10:18:15.000Z</time>
      </trkpt>
      <trkpt lat="47.26063" lon="-2.31553">
        <ele>3.2000000476837</ele>
        <time>2020-10-15T10:18:16.000Z</time>
      </trkpt>
      <trkpt lat="47.26065" lon="-2.31557">
        <ele>2.7999999523163</ele>
        <time>2020-10-15T10:18:17.000Z</time>
      </trkpt>
      <trkpt lat="47.26067" lon="-2.31562">
        <ele>2.4000000953674</ele>
        <time>2020-10-15T10:18:18.000Z</time>
      </trkpt>
      <trkpt lat="47.26069" lon="-2.31566">
        <ele>2</ele>
        <time>2020-10-15T10:18:19.000Z</time>
      </trkpt>
      <trkpt lat="47.26071" lon="-2.31571">
        <ele>2</ele>
        <time>2020-10-15T10:18:20.000Z</time>
      </trkpt>
      <trkpt lat="47.26076" lon="-2.31578">
        <ele>2</ele>
        <time>2020-10-15T10:18:22.000Z</time>
      </trkpt>
      <trkpt lat="47.26079" lon="-2.31578">
        <ele>2</ele>
        <time>2020-10-15T10:18:23.000Z</time>
      </trkpt>
      <trkpt lat="47.2609" lon="-2.31588">
        <ele>2</ele>
        <time>2020-10-15T10:18:27.000Z</time>
      </trkpt>
      <trkpt lat="47.2611" lon="-2.31614">
        <ele>2</ele>
        <time>2020-10-15T10:18:33.000Z</time>
      </trkpt>
      <trkpt lat="47.26128" lon="-2.31617">
        <ele>2</ele>
        <time>2020-10-15T10:18:37.000Z</time>
      </trkpt>
      <trkpt lat="47.26132" lon="-2.31616">
        <ele>2</ele>
        <time>2020-10-15T10:18:38.000Z</time>
      </trkpt>
      <trkpt lat="47.26152" lon="-2.31609">
        <ele>2</ele>
        <time>2020-10-15T10:18:43.000Z</time>
      </trkpt>
      <trkpt lat="47.26181" lon="-2.31597">
        <ele>2</ele>
        <time>2020-10-15T10:18:50.000Z</time>
      </trkpt>
      <trkpt lat="47.26207" lon="-2.31589">
        <ele>2</ele>
        <time>2020-10-15T10:18:56.000Z</time>
      </trkpt>
      <trkpt lat="47.26215" lon="-2.3159">
        <ele>2</ele>
        <time>2020-10-15T10:18:58.000Z</time>
      </trkpt>
      <trkpt lat="47.26223" lon="-2.31594">
        <ele>2</ele>
        <time>2020-10-15T10:19:00.000Z</time>
      </trkpt>
      <trkpt lat="47.26233" lon="-2.31601">
        <ele>2</ele>
        <time>2020-10-15T10:19:03.000Z</time>
      </trkpt>
      <trkpt lat="47.26254" lon="-2.31625">
        <ele>2</ele>
        <time>2020-10-15T10:19:09.000Z</time>
      </trkpt>
      <trkpt lat="47.26267" lon="-2.31651">
        <ele>2</ele>
        <time>2020-10-15T10:19:15.000Z</time>
      </trkpt>
      <trkpt lat="47.26284" lon="-2.31685">
        <ele>2</ele>
        <time>2020-10-15T10:19:22.000Z</time>
      </trkpt>
      <trkpt lat="47.26304" lon="-2.3171">
        <ele>2</ele>
        <time>2020-10-15T10:19:28.000Z</time>
      </trkpt>
      <trkpt lat="47.2632" lon="-2.31705">
        <ele>2</ele>
        <time>2020-10-15T10:19:32.000Z</time>
      </trkpt>
      <trkpt lat="47.26332" lon="-2.31696">
        <ele>2</ele>
        <time>2020-10-15T10:19:36.000Z</time>
      </trkpt>
      <trkpt lat="47.26333" lon="-2.31692">
        <ele>2</ele>
        <time>2020-10-15T10:19:37.000Z</time>
      </trkpt>
      <trkpt lat="47.2634" lon="-2.31686">
        <ele>2</ele>
        <time>2020-10-15T10:19:40.000Z</time>
      </trkpt>
      <trkpt lat="47.26343" lon="-2.31685">
        <ele>2.4000000953674</ele>
        <time>2020-10-15T10:19:41.000Z</time>
      </trkpt>
      <trkpt lat="47.26345" lon="-2.31684">
        <ele>2.7999999523163</ele>
        <time>2020-10-15T10:19:42.000Z</time>
      </trkpt>
      <trkpt lat="47.26348" lon="-2.31682">
        <ele>3.2000000476837</ele>
        <time>2020-10-15T10:19:43.000Z</time>
      </trkpt>
      <trkpt lat="47.26351" lon="-2.3168">
        <ele>3.5999999046326</ele>
        <time>2020-10-15T10:19:44.000Z</time>
      </trkpt>
      <trkpt lat="47.26354" lon="-2.31679">
        <ele>4</ele>
        <time>2020-10-15T10:19:45.000Z</time>
      </trkpt>
      <trkpt lat="47.26356" lon="-2.31677">
        <ele>4</ele>
        <time>2020-10-15T10:19:46.000Z</time>
      </trkpt>
      <trkpt lat="47.26374" lon="-2.3167">
        <ele>4</ele>
        <time>2020-10-15T10:19:52.000Z</time>
      </trkpt>
      <trkpt lat="47.26392" lon="-2.3166">
        <ele>4.4000000953674</ele>
        <time>2020-10-15T10:19:58.000Z</time>
      </trkpt>
      <trkpt lat="47.26394" lon="-2.31659">
        <ele>4.8000001907349</ele>
        <time>2020-10-15T10:19:59.000Z</time>
      </trkpt>
      <trkpt lat="47.26396" lon="-2.31658">
        <ele>5.1999998092651</ele>
        <time>2020-10-15T10:20:00.000Z</time>
      </trkpt>
      <trkpt lat="47.26399" lon="-2.31657">
        <ele>5.5999999046326</ele>
        <time>2020-10-15T10:20:01.000Z</time>
      </trkpt>
      <trkpt lat="47.26401" lon="-2.31655">
        <ele>6</ele>
        <time>2020-10-15T10:20:02.000Z</time>
      </trkpt>
      <trkpt lat="47.26407" lon="-2.31651">
        <ele>6</ele>
        <time>2020-10-15T10:20:04.000Z</time>
      </trkpt>
      <trkpt lat="47.26409" lon="-2.31647">
        <ele>6</ele>
        <time>2020-10-15T10:20:05.000Z</time>
      </trkpt>
      <trkpt lat="47.26409" lon="-2.3164">
        <ele>6</ele>
        <time>2020-10-15T10:20:07.000Z</time>
      </trkpt>
      <trkpt lat="47.26409" lon="-2.31614">
        <ele>6</ele>
        <time>2020-10-15T10:20:13.000Z</time>
      </trkpt>
      <trkpt lat="47.26408" lon="-2.31587">
        <ele>6</ele>
        <time>2020-10-15T10:20:19.000Z</time>
      </trkpt>
      <trkpt lat="47.26408" lon="-2.31561">
        <ele>6</ele>
        <time>2020-10-15T10:20:25.000Z</time>
      </trkpt>
      <trkpt lat="47.2641" lon="-2.31555">
        <ele>6</ele>
        <time>2020-10-15T10:20:27.000Z</time>
      </trkpt>
      <trkpt lat="47.26414" lon="-2.31553">
        <ele>6</ele>
        <time>2020-10-15T10:20:29.000Z</time>
      </trkpt>
      <trkpt lat="47.26416" lon="-2.31554">
        <ele>6</ele>
        <time>2020-10-15T10:20:33.000Z</time>
      </trkpt>
    </trkseg>
  </trk>
</gpx>